<?xml version="1.0" encoding="UTF-8" standalone="no" ?>
<gpx xmlns="http://www.topografix.com/GPX/1/1" xmlns:xsi="http://www.w3.org/2001/XMLSchema-instance" xsi:schemaLocation="http://www.topografix.com/GPX/1/1 http://www.topografix.com/GPX/1/1/gpx.xsd" version="1.1" creator="VisuGPX - https://www.visugpx.com">
  <metadata>
    <name>Sortie gravel le matin</name>
  </metadata>
  <trk>
    <name><![CDATA[Sortie gravel le matin_1]]></name>
    <trkseg>
      <trkpt lat="43.58684" lon="1.32225">
        <ele>180.2</ele>
        <time>2023-03-25T08:01:10Z</time>
      </trkpt>
      <trkpt lat="43.58684" lon="1.32225">
        <ele>185</ele>
        <time>2023-03-25T08:01:11Z</time>
      </trkpt>
      <trkpt lat="43.58679" lon="1.32239">
        <ele>185.2</ele>
        <time>2023-03-25T08:01:25Z</time>
      </trkpt>
      <trkpt lat="43.58679" lon="1.32248">
        <ele>185.2</ele>
        <time>2023-03-25T08:01:27Z</time>
      </trkpt>
      <trkpt lat="43.58679" lon="1.32281">
        <ele>185.2</ele>
        <time>2023-03-25T08:01:33Z</time>
      </trkpt>
      <trkpt lat="43.58682" lon="1.32286">
        <ele>185.2</ele>
        <time>2023-03-25T08:01:35Z</time>
      </trkpt>
      <trkpt lat="43.58684" lon="1.32285">
        <ele>185</ele>
        <time>2023-03-25T08:01:36Z</time>
      </trkpt>
      <trkpt lat="43.58696" lon="1.32272">
        <ele>185</ele>
        <time>2023-03-25T08:01:40Z</time>
      </trkpt>
      <trkpt lat="43.58709" lon="1.3226">
        <ele>185.4</ele>
        <time>2023-03-25T08:01:45Z</time>
      </trkpt>
      <trkpt lat="43.58731" lon="1.32238">
        <ele>186.4</ele>
        <time>2023-03-25T08:01:52Z</time>
      </trkpt>
      <trkpt lat="43.58741" lon="1.32227">
        <ele>186.8</ele>
        <time>2023-03-25T08:01:55Z</time>
      </trkpt>
      <trkpt lat="43.58761" lon="1.32206">
        <ele>187.2</ele>
        <time>2023-03-25T08:02:00Z</time>
      </trkpt>
      <trkpt lat="43.58779" lon="1.32189">
        <ele>187.8</ele>
        <time>2023-03-25T08:02:05Z</time>
      </trkpt>
      <trkpt lat="43.58793" lon="1.32173">
        <ele>188</ele>
        <time>2023-03-25T08:02:08Z</time>
      </trkpt>
      <trkpt lat="43.58807" lon="1.32161">
        <ele>188.2</ele>
        <time>2023-03-25T08:02:11Z</time>
      </trkpt>
      <trkpt lat="43.58812" lon="1.32153">
        <ele>188.4</ele>
        <time>2023-03-25T08:02:13Z</time>
      </trkpt>
      <trkpt lat="43.58819" lon="1.32129">
        <ele>188.6</ele>
        <time>2023-03-25T08:02:18Z</time>
      </trkpt>
      <trkpt lat="43.58823" lon="1.32116">
        <ele>188.6</ele>
        <time>2023-03-25T08:02:21Z</time>
      </trkpt>
      <trkpt lat="43.58827" lon="1.32112">
        <ele>188.8</ele>
        <time>2023-03-25T08:02:22Z</time>
      </trkpt>
      <trkpt lat="43.58834" lon="1.32106">
        <ele>188.8</ele>
        <time>2023-03-25T08:02:24Z</time>
      </trkpt>
      <trkpt lat="43.58857" lon="1.32083">
        <ele>189</ele>
        <time>2023-03-25T08:02:30Z</time>
      </trkpt>
      <trkpt lat="43.58893" lon="1.32047">
        <ele>189.6</ele>
        <time>2023-03-25T08:02:40Z</time>
      </trkpt>
      <trkpt lat="43.58915" lon="1.32025">
        <ele>189.8</ele>
        <time>2023-03-25T08:02:46Z</time>
      </trkpt>
      <trkpt lat="43.58919" lon="1.32021">
        <ele>189.8</ele>
        <time>2023-03-25T08:02:47Z</time>
      </trkpt>
      <trkpt lat="43.58935" lon="1.32006">
        <ele>189.8</ele>
        <time>2023-03-25T08:02:51Z</time>
      </trkpt>
      <trkpt lat="43.58943" lon="1.32006">
        <ele>189.8</ele>
        <time>2023-03-25T08:02:53Z</time>
      </trkpt>
      <trkpt lat="43.58951" lon="1.32004">
        <ele>189.8</ele>
        <time>2023-03-25T08:02:55Z</time>
      </trkpt>
      <trkpt lat="43.58954" lon="1.32002">
        <ele>189.8</ele>
        <time>2023-03-25T08:02:56Z</time>
      </trkpt>
      <trkpt lat="43.58959" lon="1.31999">
        <ele>189.6</ele>
        <time>2023-03-25T08:02:57Z</time>
      </trkpt>
      <trkpt lat="43.58969" lon="1.31995">
        <ele>189.6</ele>
        <time>2023-03-25T08:02:59Z</time>
      </trkpt>
      <trkpt lat="43.58973" lon="1.31992">
        <ele>189.6</ele>
        <time>2023-03-25T08:03:00Z</time>
      </trkpt>
      <trkpt lat="43.58978" lon="1.31989">
        <ele>189.6</ele>
        <time>2023-03-25T08:03:01Z</time>
      </trkpt>
      <trkpt lat="43.58992" lon="1.31976">
        <ele>189.6</ele>
        <time>2023-03-25T08:03:04Z</time>
      </trkpt>
      <trkpt lat="43.59024" lon="1.31942">
        <ele>189.8</ele>
        <time>2023-03-25T08:03:11Z</time>
      </trkpt>
      <trkpt lat="43.59033" lon="1.31931">
        <ele>189.8</ele>
        <time>2023-03-25T08:03:13Z</time>
      </trkpt>
      <trkpt lat="43.59044" lon="1.31911">
        <ele>189.8</ele>
        <time>2023-03-25T08:03:16Z</time>
      </trkpt>
      <trkpt lat="43.59047" lon="1.31905">
        <ele>189.8</ele>
        <time>2023-03-25T08:03:17Z</time>
      </trkpt>
      <trkpt lat="43.59056" lon="1.31897">
        <ele>189.8</ele>
        <time>2023-03-25T08:03:19Z</time>
      </trkpt>
      <trkpt lat="43.59061" lon="1.31894">
        <ele>189.8</ele>
        <time>2023-03-25T08:03:20Z</time>
      </trkpt>
      <trkpt lat="43.59066" lon="1.31892">
        <ele>189.8</ele>
        <time>2023-03-25T08:03:21Z</time>
      </trkpt>
      <trkpt lat="43.59074" lon="1.31881">
        <ele>189.8</ele>
        <time>2023-03-25T08:03:23Z</time>
      </trkpt>
      <trkpt lat="43.59081" lon="1.31868">
        <ele>189.8</ele>
        <time>2023-03-25T08:03:25Z</time>
      </trkpt>
      <trkpt lat="43.59095" lon="1.31853">
        <ele>189.8</ele>
        <time>2023-03-25T08:03:28Z</time>
      </trkpt>
      <trkpt lat="43.59124" lon="1.31824">
        <ele>190</ele>
        <time>2023-03-25T08:03:34Z</time>
      </trkpt>
      <trkpt lat="43.59139" lon="1.3181">
        <ele>190.2</ele>
        <time>2023-03-25T08:03:37Z</time>
      </trkpt>
      <trkpt lat="43.59148" lon="1.31803">
        <ele>190.2</ele>
        <time>2023-03-25T08:03:39Z</time>
      </trkpt>
      <trkpt lat="43.59155" lon="1.31799">
        <ele>190.2</ele>
        <time>2023-03-25T08:03:41Z</time>
      </trkpt>
      <trkpt lat="43.59176" lon="1.31785">
        <ele>190</ele>
        <time>2023-03-25T08:03:46Z</time>
      </trkpt>
      <trkpt lat="43.59218" lon="1.31767">
        <ele>189.8</ele>
        <time>2023-03-25T08:03:55Z</time>
      </trkpt>
      <trkpt lat="43.59231" lon="1.31761">
        <ele>189.6</ele>
        <time>2023-03-25T08:04:00Z</time>
      </trkpt>
      <trkpt lat="43.59251" lon="1.31758">
        <ele>189.6</ele>
        <time>2023-03-25T08:04:05Z</time>
      </trkpt>
      <trkpt lat="43.59264" lon="1.31763">
        <ele>189.6</ele>
        <time>2023-03-25T08:04:08Z</time>
      </trkpt>
      <trkpt lat="43.59273" lon="1.31767">
        <ele>189.6</ele>
        <time>2023-03-25T08:04:10Z</time>
      </trkpt>
      <trkpt lat="43.59288" lon="1.31769">
        <ele>189.8</ele>
        <time>2023-03-25T08:04:13Z</time>
      </trkpt>
      <trkpt lat="43.59293" lon="1.31772">
        <ele>189.8</ele>
        <time>2023-03-25T08:04:14Z</time>
      </trkpt>
      <trkpt lat="43.59314" lon="1.31782">
        <ele>189.8</ele>
        <time>2023-03-25T08:04:18Z</time>
      </trkpt>
      <trkpt lat="43.59326" lon="1.31783">
        <ele>189.8</ele>
        <time>2023-03-25T08:04:20Z</time>
      </trkpt>
      <trkpt lat="43.5933" lon="1.31784">
        <ele>189.8</ele>
        <time>2023-03-25T08:04:21Z</time>
      </trkpt>
      <trkpt lat="43.59341" lon="1.3178">
        <ele>189.8</ele>
        <time>2023-03-25T08:04:24Z</time>
      </trkpt>
      <trkpt lat="43.59352" lon="1.31768">
        <ele>189.8</ele>
        <time>2023-03-25T08:04:28Z</time>
      </trkpt>
      <trkpt lat="43.5936" lon="1.31761">
        <ele>189.8</ele>
        <time>2023-03-25T08:04:30Z</time>
      </trkpt>
      <trkpt lat="43.59369" lon="1.31755">
        <ele>189.8</ele>
        <time>2023-03-25T08:04:32Z</time>
      </trkpt>
      <trkpt lat="43.59374" lon="1.31751">
        <ele>189.8</ele>
        <time>2023-03-25T08:04:33Z</time>
      </trkpt>
      <trkpt lat="43.59383" lon="1.31744">
        <ele>189.8</ele>
        <time>2023-03-25T08:04:35Z</time>
      </trkpt>
      <trkpt lat="43.59393" lon="1.31736">
        <ele>189.8</ele>
        <time>2023-03-25T08:04:37Z</time>
      </trkpt>
      <trkpt lat="43.59398" lon="1.31733">
        <ele>189.8</ele>
        <time>2023-03-25T08:04:38Z</time>
      </trkpt>
      <trkpt lat="43.59408" lon="1.31731">
        <ele>190</ele>
        <time>2023-03-25T08:04:40Z</time>
      </trkpt>
      <trkpt lat="43.59424" lon="1.3173">
        <ele>190.2</ele>
        <time>2023-03-25T08:04:43Z</time>
      </trkpt>
      <trkpt lat="43.59435" lon="1.31726">
        <ele>190.4</ele>
        <time>2023-03-25T08:04:45Z</time>
      </trkpt>
      <trkpt lat="43.59446" lon="1.31726">
        <ele>190.6</ele>
        <time>2023-03-25T08:04:47Z</time>
      </trkpt>
      <trkpt lat="43.59475" lon="1.3173">
        <ele>190.8</ele>
        <time>2023-03-25T08:04:52Z</time>
      </trkpt>
      <trkpt lat="43.59486" lon="1.31729">
        <ele>190.6</ele>
        <time>2023-03-25T08:04:54Z</time>
      </trkpt>
      <trkpt lat="43.59496" lon="1.31741">
        <ele>190.2</ele>
        <time>2023-03-25T08:04:57Z</time>
      </trkpt>
      <trkpt lat="43.59495" lon="1.31802">
        <ele>190.2</ele>
        <time>2023-03-25T08:05:05Z</time>
      </trkpt>
      <trkpt lat="43.59494" lon="1.31851">
        <ele>190.2</ele>
        <time>2023-03-25T08:05:11Z</time>
      </trkpt>
      <trkpt lat="43.59494" lon="1.31883">
        <ele>190.6</ele>
        <time>2023-03-25T08:05:15Z</time>
      </trkpt>
      <trkpt lat="43.59495" lon="1.31891">
        <ele>190.6</ele>
        <time>2023-03-25T08:05:16Z</time>
      </trkpt>
      <trkpt lat="43.59501" lon="1.31915">
        <ele>190.8</ele>
        <time>2023-03-25T08:05:19Z</time>
      </trkpt>
      <trkpt lat="43.59511" lon="1.31935">
        <ele>190.6</ele>
        <time>2023-03-25T08:05:22Z</time>
      </trkpt>
      <trkpt lat="43.59518" lon="1.31948">
        <ele>190.6</ele>
        <time>2023-03-25T08:05:24Z</time>
      </trkpt>
      <trkpt lat="43.59525" lon="1.31962">
        <ele>190.4</ele>
        <time>2023-03-25T08:05:26Z</time>
      </trkpt>
      <trkpt lat="43.59529" lon="1.31968">
        <ele>190.4</ele>
        <time>2023-03-25T08:05:27Z</time>
      </trkpt>
      <trkpt lat="43.59534" lon="1.31973">
        <ele>190.2</ele>
        <time>2023-03-25T08:05:28Z</time>
      </trkpt>
      <trkpt lat="43.59556" lon="1.31988">
        <ele>189.6</ele>
        <time>2023-03-25T08:05:32Z</time>
      </trkpt>
      <trkpt lat="43.59561" lon="1.3199">
        <ele>189.6</ele>
        <time>2023-03-25T08:05:33Z</time>
      </trkpt>
      <trkpt lat="43.59573" lon="1.31989">
        <ele>189.6</ele>
        <time>2023-03-25T08:05:35Z</time>
      </trkpt>
      <trkpt lat="43.59579" lon="1.31989">
        <ele>189.6</ele>
        <time>2023-03-25T08:05:36Z</time>
      </trkpt>
      <trkpt lat="43.59589" lon="1.31995">
        <ele>189.6</ele>
        <time>2023-03-25T08:05:38Z</time>
      </trkpt>
      <trkpt lat="43.59597" lon="1.32015">
        <ele>189.4</ele>
        <time>2023-03-25T08:05:41Z</time>
      </trkpt>
      <trkpt lat="43.59611" lon="1.32031">
        <ele>189.4</ele>
        <time>2023-03-25T08:05:44Z</time>
      </trkpt>
      <trkpt lat="43.59659" lon="1.32069">
        <ele>189.4</ele>
        <time>2023-03-25T08:05:53Z</time>
      </trkpt>
      <trkpt lat="43.59711" lon="1.32107">
        <ele>189.4</ele>
        <time>2023-03-25T08:06:02Z</time>
      </trkpt>
      <trkpt lat="43.59729" lon="1.3212">
        <ele>189.2</ele>
        <time>2023-03-25T08:06:05Z</time>
      </trkpt>
      <trkpt lat="43.59762" lon="1.32144">
        <ele>189.2</ele>
        <time>2023-03-25T08:06:11Z</time>
      </trkpt>
      <trkpt lat="43.59767" lon="1.32147">
        <ele>189.2</ele>
        <time>2023-03-25T08:06:12Z</time>
      </trkpt>
      <trkpt lat="43.59775" lon="1.32147">
        <ele>189</ele>
        <time>2023-03-25T08:06:14Z</time>
      </trkpt>
      <trkpt lat="43.59787" lon="1.32151">
        <ele>189</ele>
        <time>2023-03-25T08:06:17Z</time>
      </trkpt>
      <trkpt lat="43.59791" lon="1.32166">
        <ele>189</ele>
        <time>2023-03-25T08:06:20Z</time>
      </trkpt>
      <trkpt lat="43.59807" lon="1.32181">
        <ele>189</ele>
        <time>2023-03-25T08:06:24Z</time>
      </trkpt>
      <trkpt lat="43.59828" lon="1.32204">
        <ele>189</ele>
        <time>2023-03-25T08:06:29Z</time>
      </trkpt>
      <trkpt lat="43.59833" lon="1.32208">
        <ele>189</ele>
        <time>2023-03-25T08:06:30Z</time>
      </trkpt>
      <trkpt lat="43.59839" lon="1.32211">
        <ele>189</ele>
        <time>2023-03-25T08:06:31Z</time>
      </trkpt>
      <trkpt lat="43.59857" lon="1.32214">
        <ele>189</ele>
        <time>2023-03-25T08:06:34Z</time>
      </trkpt>
      <trkpt lat="43.59906" lon="1.32221">
        <ele>188.8</ele>
        <time>2023-03-25T08:06:42Z</time>
      </trkpt>
      <trkpt lat="43.59959" lon="1.32231">
        <ele>188.6</ele>
        <time>2023-03-25T08:06:51Z</time>
      </trkpt>
      <trkpt lat="43.59969" lon="1.32237">
        <ele>188.6</ele>
        <time>2023-03-25T08:06:53Z</time>
      </trkpt>
      <trkpt lat="43.59983" lon="1.32252">
        <ele>188.6</ele>
        <time>2023-03-25T08:06:56Z</time>
      </trkpt>
      <trkpt lat="43.5999" lon="1.32261">
        <ele>188.8</ele>
        <time>2023-03-25T08:06:58Z</time>
      </trkpt>
      <trkpt lat="43.59999" lon="1.32267">
        <ele>188.8</ele>
        <time>2023-03-25T08:07:00Z</time>
      </trkpt>
      <trkpt lat="43.60004" lon="1.32268">
        <ele>188.8</ele>
        <time>2023-03-25T08:07:01Z</time>
      </trkpt>
      <trkpt lat="43.60015" lon="1.32269">
        <ele>188.8</ele>
        <time>2023-03-25T08:07:03Z</time>
      </trkpt>
      <trkpt lat="43.60031" lon="1.32266">
        <ele>188.6</ele>
        <time>2023-03-25T08:07:06Z</time>
      </trkpt>
      <trkpt lat="43.60039" lon="1.32259">
        <ele>188.6</ele>
        <time>2023-03-25T08:07:08Z</time>
      </trkpt>
      <trkpt lat="43.60043" lon="1.32259">
        <ele>188.6</ele>
        <time>2023-03-25T08:07:09Z</time>
      </trkpt>
      <trkpt lat="43.60046" lon="1.32261">
        <ele>188.6</ele>
        <time>2023-03-25T08:07:10Z</time>
      </trkpt>
      <trkpt lat="43.60048" lon="1.32269">
        <ele>188.6</ele>
        <time>2023-03-25T08:07:12Z</time>
      </trkpt>
      <trkpt lat="43.60049" lon="1.32307">
        <ele>188.4</ele>
        <time>2023-03-25T08:07:18Z</time>
      </trkpt>
      <trkpt lat="43.6005" lon="1.32321">
        <ele>188.4</ele>
        <time>2023-03-25T08:07:20Z</time>
      </trkpt>
      <trkpt lat="43.60055" lon="1.32334">
        <ele>188.6</ele>
        <time>2023-03-25T08:07:22Z</time>
      </trkpt>
      <trkpt lat="43.60059" lon="1.32339">
        <ele>188.6</ele>
        <time>2023-03-25T08:07:23Z</time>
      </trkpt>
      <trkpt lat="43.60063" lon="1.32344">
        <ele>188.6</ele>
        <time>2023-03-25T08:07:24Z</time>
      </trkpt>
      <trkpt lat="43.60082" lon="1.32366">
        <ele>188.6</ele>
        <time>2023-03-25T08:07:28Z</time>
      </trkpt>
      <trkpt lat="43.60119" lon="1.3241">
        <ele>188.6</ele>
        <time>2023-03-25T08:07:35Z</time>
      </trkpt>
      <trkpt lat="43.60157" lon="1.32455">
        <ele>187.8</ele>
        <time>2023-03-25T08:07:42Z</time>
      </trkpt>
      <trkpt lat="43.60201" lon="1.32507">
        <ele>187.6</ele>
        <time>2023-03-25T08:07:50Z</time>
      </trkpt>
      <trkpt lat="43.60206" lon="1.32513">
        <ele>187.6</ele>
        <time>2023-03-25T08:07:51Z</time>
      </trkpt>
      <trkpt lat="43.60249" lon="1.32563">
        <ele>187.8</ele>
        <time>2023-03-25T08:07:59Z</time>
      </trkpt>
      <trkpt lat="43.60265" lon="1.32581">
        <ele>187.8</ele>
        <time>2023-03-25T08:08:02Z</time>
      </trkpt>
      <trkpt lat="43.60298" lon="1.32617">
        <ele>188.2</ele>
        <time>2023-03-25T08:08:08Z</time>
      </trkpt>
      <trkpt lat="43.60305" lon="1.32618">
        <ele>188.2</ele>
        <time>2023-03-25T08:08:09Z</time>
      </trkpt>
      <trkpt lat="43.60312" lon="1.32617">
        <ele>188.4</ele>
        <time>2023-03-25T08:08:10Z</time>
      </trkpt>
      <trkpt lat="43.6034" lon="1.3261">
        <ele>188.4</ele>
        <time>2023-03-25T08:08:14Z</time>
      </trkpt>
      <trkpt lat="43.60353" lon="1.32607">
        <ele>188.4</ele>
        <time>2023-03-25T08:08:16Z</time>
      </trkpt>
      <trkpt lat="43.60362" lon="1.32597">
        <ele>188.4</ele>
        <time>2023-03-25T08:08:18Z</time>
      </trkpt>
      <trkpt lat="43.60396" lon="1.32533">
        <ele>188.4</ele>
        <time>2023-03-25T08:08:26Z</time>
      </trkpt>
      <trkpt lat="43.60404" lon="1.32517">
        <ele>188.6</ele>
        <time>2023-03-25T08:08:28Z</time>
      </trkpt>
      <trkpt lat="43.60438" lon="1.32454">
        <ele>188.6</ele>
        <time>2023-03-25T08:08:36Z</time>
      </trkpt>
      <trkpt lat="43.60446" lon="1.32439">
        <ele>188.6</ele>
        <time>2023-03-25T08:08:38Z</time>
      </trkpt>
      <trkpt lat="43.60478" lon="1.32388">
        <ele>188.6</ele>
        <time>2023-03-25T08:08:45Z</time>
      </trkpt>
      <trkpt lat="43.60491" lon="1.32378">
        <ele>188.6</ele>
        <time>2023-03-25T08:08:47Z</time>
      </trkpt>
      <trkpt lat="43.60502" lon="1.32375">
        <ele>188.6</ele>
        <time>2023-03-25T08:08:49Z</time>
      </trkpt>
      <trkpt lat="43.60514" lon="1.32377">
        <ele>188.6</ele>
        <time>2023-03-25T08:08:51Z</time>
      </trkpt>
      <trkpt lat="43.60519" lon="1.32381">
        <ele>188.4</ele>
        <time>2023-03-25T08:08:52Z</time>
      </trkpt>
      <trkpt lat="43.6053" lon="1.32388">
        <ele>188.2</ele>
        <time>2023-03-25T08:08:54Z</time>
      </trkpt>
      <trkpt lat="43.60542" lon="1.32385">
        <ele>188.2</ele>
        <time>2023-03-25T08:08:56Z</time>
      </trkpt>
      <trkpt lat="43.60552" lon="1.32374">
        <ele>188.2</ele>
        <time>2023-03-25T08:08:58Z</time>
      </trkpt>
      <trkpt lat="43.60557" lon="1.32369">
        <ele>188.2</ele>
        <time>2023-03-25T08:08:59Z</time>
      </trkpt>
      <trkpt lat="43.60563" lon="1.32367">
        <ele>188.2</ele>
        <time>2023-03-25T08:09:00Z</time>
      </trkpt>
      <trkpt lat="43.60577" lon="1.32364">
        <ele>188</ele>
        <time>2023-03-25T08:09:02Z</time>
      </trkpt>
      <trkpt lat="43.6059" lon="1.32364">
        <ele>188</ele>
        <time>2023-03-25T08:09:04Z</time>
      </trkpt>
      <trkpt lat="43.60597" lon="1.32367">
        <ele>188</ele>
        <time>2023-03-25T08:09:05Z</time>
      </trkpt>
      <trkpt lat="43.60603" lon="1.32373">
        <ele>188</ele>
        <time>2023-03-25T08:09:06Z</time>
      </trkpt>
      <trkpt lat="43.6062" lon="1.32391">
        <ele>187.8</ele>
        <time>2023-03-25T08:09:09Z</time>
      </trkpt>
      <trkpt lat="43.60636" lon="1.3241">
        <ele>187.8</ele>
        <time>2023-03-25T08:09:12Z</time>
      </trkpt>
      <trkpt lat="43.60652" lon="1.32426">
        <ele>187.6</ele>
        <time>2023-03-25T08:09:15Z</time>
      </trkpt>
      <trkpt lat="43.60662" lon="1.32433">
        <ele>187.4</ele>
        <time>2023-03-25T08:09:17Z</time>
      </trkpt>
      <trkpt lat="43.60668" lon="1.32434">
        <ele>187.4</ele>
        <time>2023-03-25T08:09:18Z</time>
      </trkpt>
      <trkpt lat="43.60675" lon="1.32433">
        <ele>187.4</ele>
        <time>2023-03-25T08:09:19Z</time>
      </trkpt>
      <trkpt lat="43.60693" lon="1.32428">
        <ele>187.2</ele>
        <time>2023-03-25T08:09:22Z</time>
      </trkpt>
      <trkpt lat="43.60737" lon="1.32394">
        <ele>187.8</ele>
        <time>2023-03-25T08:09:31Z</time>
      </trkpt>
      <trkpt lat="43.60742" lon="1.32388">
        <ele>187.8</ele>
        <time>2023-03-25T08:09:32Z</time>
      </trkpt>
      <trkpt lat="43.60749" lon="1.32373">
        <ele>187.8</ele>
        <time>2023-03-25T08:09:34Z</time>
      </trkpt>
      <trkpt lat="43.60764" lon="1.32355">
        <ele>187.8</ele>
        <time>2023-03-25T08:09:36Z</time>
      </trkpt>
      <trkpt lat="43.60772" lon="1.32344">
        <ele>187.6</ele>
        <time>2023-03-25T08:09:38Z</time>
      </trkpt>
      <trkpt lat="43.60781" lon="1.3234">
        <ele>187.6</ele>
        <time>2023-03-25T08:09:40Z</time>
      </trkpt>
      <trkpt lat="43.60796" lon="1.32342">
        <ele>187.4</ele>
        <time>2023-03-25T08:09:44Z</time>
      </trkpt>
      <trkpt lat="43.60807" lon="1.32342">
        <ele>187.4</ele>
        <time>2023-03-25T08:09:46Z</time>
      </trkpt>
      <trkpt lat="43.60824" lon="1.32337">
        <ele>187.2</ele>
        <time>2023-03-25T08:09:49Z</time>
      </trkpt>
      <trkpt lat="43.60839" lon="1.3233">
        <ele>187.2</ele>
        <time>2023-03-25T08:09:52Z</time>
      </trkpt>
      <trkpt lat="43.60855" lon="1.3232">
        <ele>187.2</ele>
        <time>2023-03-25T08:09:55Z</time>
      </trkpt>
      <trkpt lat="43.60867" lon="1.32315">
        <ele>187.4</ele>
        <time>2023-03-25T08:09:57Z</time>
      </trkpt>
      <trkpt lat="43.60878" lon="1.32316">
        <ele>187.8</ele>
        <time>2023-03-25T08:09:59Z</time>
      </trkpt>
      <trkpt lat="43.6089" lon="1.32316">
        <ele>188</ele>
        <time>2023-03-25T08:10:01Z</time>
      </trkpt>
      <trkpt lat="43.60895" lon="1.32312">
        <ele>187.8</ele>
        <time>2023-03-25T08:10:02Z</time>
      </trkpt>
      <trkpt lat="43.60901" lon="1.32308">
        <ele>188</ele>
        <time>2023-03-25T08:10:03Z</time>
      </trkpt>
      <trkpt lat="43.6092" lon="1.32298">
        <ele>187.4</ele>
        <time>2023-03-25T08:10:06Z</time>
      </trkpt>
      <trkpt lat="43.60927" lon="1.32294">
        <ele>187.4</ele>
        <time>2023-03-25T08:10:07Z</time>
      </trkpt>
      <trkpt lat="43.6094" lon="1.32284">
        <ele>187.2</ele>
        <time>2023-03-25T08:10:09Z</time>
      </trkpt>
      <trkpt lat="43.60946" lon="1.32278">
        <ele>187.2</ele>
        <time>2023-03-25T08:10:10Z</time>
      </trkpt>
      <trkpt lat="43.6098" lon="1.32244">
        <ele>187</ele>
        <time>2023-03-25T08:10:16Z</time>
      </trkpt>
      <trkpt lat="43.60986" lon="1.32239">
        <ele>187</ele>
        <time>2023-03-25T08:10:17Z</time>
      </trkpt>
      <trkpt lat="43.61025" lon="1.32217">
        <ele>187</ele>
        <time>2023-03-25T08:10:23Z</time>
      </trkpt>
      <trkpt lat="43.61054" lon="1.32198">
        <ele>186.8</ele>
        <time>2023-03-25T08:10:28Z</time>
      </trkpt>
      <trkpt lat="43.61059" lon="1.32193">
        <ele>186.8</ele>
        <time>2023-03-25T08:10:29Z</time>
      </trkpt>
      <trkpt lat="43.61074" lon="1.32177">
        <ele>186.8</ele>
        <time>2023-03-25T08:10:32Z</time>
      </trkpt>
      <trkpt lat="43.61091" lon="1.32161">
        <ele>186.6</ele>
        <time>2023-03-25T08:10:35Z</time>
      </trkpt>
      <trkpt lat="43.611" lon="1.32148">
        <ele>186.6</ele>
        <time>2023-03-25T08:10:37Z</time>
      </trkpt>
      <trkpt lat="43.61127" lon="1.32107">
        <ele>186.6</ele>
        <time>2023-03-25T08:10:43Z</time>
      </trkpt>
      <trkpt lat="43.6113" lon="1.32099">
        <ele>186.6</ele>
        <time>2023-03-25T08:10:44Z</time>
      </trkpt>
      <trkpt lat="43.6113" lon="1.32091">
        <ele>186.6</ele>
        <time>2023-03-25T08:10:45Z</time>
      </trkpt>
      <trkpt lat="43.61129" lon="1.32083">
        <ele>186.4</ele>
        <time>2023-03-25T08:10:46Z</time>
      </trkpt>
      <trkpt lat="43.61129" lon="1.32077">
        <ele>186.4</ele>
        <time>2023-03-25T08:10:47Z</time>
      </trkpt>
      <trkpt lat="43.61132" lon="1.32071">
        <ele>186.4</ele>
        <time>2023-03-25T08:10:49Z</time>
      </trkpt>
      <trkpt lat="43.6114" lon="1.3206">
        <ele>185.6</ele>
        <time>2023-03-25T08:10:52Z</time>
      </trkpt>
      <trkpt lat="43.6114" lon="1.32054">
        <ele>185.4</ele>
        <time>2023-03-25T08:10:53Z</time>
      </trkpt>
      <trkpt lat="43.6114" lon="1.32044">
        <ele>185</ele>
        <time>2023-03-25T08:10:55Z</time>
      </trkpt>
      <trkpt lat="43.61142" lon="1.32038">
        <ele>184.8</ele>
        <time>2023-03-25T08:10:56Z</time>
      </trkpt>
      <trkpt lat="43.61145" lon="1.32031">
        <ele>184.6</ele>
        <time>2023-03-25T08:10:57Z</time>
      </trkpt>
      <trkpt lat="43.61151" lon="1.32019">
        <ele>184.2</ele>
        <time>2023-03-25T08:10:59Z</time>
      </trkpt>
      <trkpt lat="43.61155" lon="1.32014">
        <ele>183.8</ele>
        <time>2023-03-25T08:11:00Z</time>
      </trkpt>
      <trkpt lat="43.61165" lon="1.32004">
        <ele>183.4</ele>
        <time>2023-03-25T08:11:02Z</time>
      </trkpt>
      <trkpt lat="43.61175" lon="1.31993">
        <ele>183.2</ele>
        <time>2023-03-25T08:11:04Z</time>
      </trkpt>
      <trkpt lat="43.61179" lon="1.31989">
        <ele>183</ele>
        <time>2023-03-25T08:11:05Z</time>
      </trkpt>
      <trkpt lat="43.6119" lon="1.31988">
        <ele>183</ele>
        <time>2023-03-25T08:11:08Z</time>
      </trkpt>
      <trkpt lat="43.61192" lon="1.3199">
        <ele>182.8</ele>
        <time>2023-03-25T08:11:09Z</time>
      </trkpt>
      <trkpt lat="43.61194" lon="1.31997">
        <ele>182.8</ele>
        <time>2023-03-25T08:11:11Z</time>
      </trkpt>
      <trkpt lat="43.61196" lon="1.32">
        <ele>182.8</ele>
        <time>2023-03-25T08:11:12Z</time>
      </trkpt>
      <trkpt lat="43.61208" lon="1.32006">
        <ele>182.4</ele>
        <time>2023-03-25T08:11:15Z</time>
      </trkpt>
      <trkpt lat="43.61226" lon="1.32011">
        <ele>182.6</ele>
        <time>2023-03-25T08:11:20Z</time>
      </trkpt>
      <trkpt lat="43.61237" lon="1.3201">
        <ele>183.4</ele>
        <time>2023-03-25T08:11:24Z</time>
      </trkpt>
      <trkpt lat="43.61239" lon="1.32014">
        <ele>183.6</ele>
        <time>2023-03-25T08:11:25Z</time>
      </trkpt>
      <trkpt lat="43.61244" lon="1.32024">
        <ele>183.6</ele>
        <time>2023-03-25T08:11:27Z</time>
      </trkpt>
      <trkpt lat="43.61247" lon="1.32036">
        <ele>183.6</ele>
        <time>2023-03-25T08:11:29Z</time>
      </trkpt>
      <trkpt lat="43.61253" lon="1.32056">
        <ele>183.4</ele>
        <time>2023-03-25T08:11:32Z</time>
      </trkpt>
      <trkpt lat="43.61263" lon="1.32077">
        <ele>182.8</ele>
        <time>2023-03-25T08:11:35Z</time>
      </trkpt>
      <trkpt lat="43.61271" lon="1.32093">
        <ele>182.4</ele>
        <time>2023-03-25T08:11:37Z</time>
      </trkpt>
      <trkpt lat="43.61283" lon="1.3212">
        <ele>181.8</ele>
        <time>2023-03-25T08:11:40Z</time>
      </trkpt>
      <trkpt lat="43.61289" lon="1.32136">
        <ele>181.2</ele>
        <time>2023-03-25T08:11:42Z</time>
      </trkpt>
      <trkpt lat="43.61296" lon="1.3216">
        <ele>180.8</ele>
        <time>2023-03-25T08:11:45Z</time>
      </trkpt>
      <trkpt lat="43.61301" lon="1.32204">
        <ele>181.4</ele>
        <time>2023-03-25T08:11:51Z</time>
      </trkpt>
      <trkpt lat="43.61303" lon="1.32222">
        <ele>182.6</ele>
        <time>2023-03-25T08:11:54Z</time>
      </trkpt>
      <trkpt lat="43.61308" lon="1.3223">
        <ele>183.2</ele>
        <time>2023-03-25T08:11:56Z</time>
      </trkpt>
      <trkpt lat="43.61315" lon="1.32225">
        <ele>183.8</ele>
        <time>2023-03-25T08:11:58Z</time>
      </trkpt>
      <trkpt lat="43.61322" lon="1.32206">
        <ele>184.8</ele>
        <time>2023-03-25T08:12:02Z</time>
      </trkpt>
      <trkpt lat="43.61325" lon="1.32195">
        <ele>185</ele>
        <time>2023-03-25T08:12:04Z</time>
      </trkpt>
      <trkpt lat="43.61328" lon="1.32185">
        <ele>185</ele>
        <time>2023-03-25T08:12:06Z</time>
      </trkpt>
      <trkpt lat="43.61331" lon="1.32165">
        <ele>185.2</ele>
        <time>2023-03-25T08:12:09Z</time>
      </trkpt>
      <trkpt lat="43.6134" lon="1.32111">
        <ele>186</ele>
        <time>2023-03-25T08:12:16Z</time>
      </trkpt>
      <trkpt lat="43.61342" lon="1.32104">
        <ele>186</ele>
        <time>2023-03-25T08:12:17Z</time>
      </trkpt>
      <trkpt lat="43.61359" lon="1.32049">
        <ele>186.2</ele>
        <time>2023-03-25T08:12:24Z</time>
      </trkpt>
      <trkpt lat="43.61379" lon="1.31977">
        <ele>186</ele>
        <time>2023-03-25T08:12:33Z</time>
      </trkpt>
      <trkpt lat="43.61381" lon="1.31968">
        <ele>186</ele>
        <time>2023-03-25T08:12:34Z</time>
      </trkpt>
      <trkpt lat="43.6139" lon="1.31938">
        <ele>185.2</ele>
        <time>2023-03-25T08:12:38Z</time>
      </trkpt>
      <trkpt lat="43.61394" lon="1.31932">
        <ele>185</ele>
        <time>2023-03-25T08:12:39Z</time>
      </trkpt>
      <trkpt lat="43.61398" lon="1.31927">
        <ele>184.8</ele>
        <time>2023-03-25T08:12:40Z</time>
      </trkpt>
      <trkpt lat="43.61408" lon="1.31923">
        <ele>184.4</ele>
        <time>2023-03-25T08:12:42Z</time>
      </trkpt>
      <trkpt lat="43.61413" lon="1.31923">
        <ele>184.4</ele>
        <time>2023-03-25T08:12:43Z</time>
      </trkpt>
      <trkpt lat="43.61426" lon="1.31917">
        <ele>184.2</ele>
        <time>2023-03-25T08:12:47Z</time>
      </trkpt>
      <trkpt lat="43.61433" lon="1.31897">
        <ele>184.2</ele>
        <time>2023-03-25T08:12:51Z</time>
      </trkpt>
      <trkpt lat="43.61437" lon="1.31873">
        <ele>184.2</ele>
        <time>2023-03-25T08:12:55Z</time>
      </trkpt>
      <trkpt lat="43.61442" lon="1.31859">
        <ele>184.2</ele>
        <time>2023-03-25T08:12:57Z</time>
      </trkpt>
      <trkpt lat="43.61444" lon="1.31846">
        <ele>184.2</ele>
        <time>2023-03-25T08:12:59Z</time>
      </trkpt>
      <trkpt lat="43.61446" lon="1.31831">
        <ele>184</ele>
        <time>2023-03-25T08:13:01Z</time>
      </trkpt>
      <trkpt lat="43.61447" lon="1.31822">
        <ele>184</ele>
        <time>2023-03-25T08:13:02Z</time>
      </trkpt>
      <trkpt lat="43.6145" lon="1.31813">
        <ele>183.6</ele>
        <time>2023-03-25T08:13:03Z</time>
      </trkpt>
      <trkpt lat="43.6146" lon="1.31784">
        <ele>182.8</ele>
        <time>2023-03-25T08:13:06Z</time>
      </trkpt>
      <trkpt lat="43.61466" lon="1.31763">
        <ele>182</ele>
        <time>2023-03-25T08:13:08Z</time>
      </trkpt>
      <trkpt lat="43.61468" lon="1.31751">
        <ele>181.8</ele>
        <time>2023-03-25T08:13:09Z</time>
      </trkpt>
      <trkpt lat="43.61471" lon="1.3174">
        <ele>181.6</ele>
        <time>2023-03-25T08:13:10Z</time>
      </trkpt>
      <trkpt lat="43.61479" lon="1.31706">
        <ele>180.8</ele>
        <time>2023-03-25T08:13:13Z</time>
      </trkpt>
      <trkpt lat="43.61486" lon="1.31685">
        <ele>180.4</ele>
        <time>2023-03-25T08:13:15Z</time>
      </trkpt>
      <trkpt lat="43.61496" lon="1.3167">
        <ele>180</ele>
        <time>2023-03-25T08:13:17Z</time>
      </trkpt>
      <trkpt lat="43.61501" lon="1.31664">
        <ele>179.8</ele>
        <time>2023-03-25T08:13:18Z</time>
      </trkpt>
      <trkpt lat="43.61519" lon="1.31651">
        <ele>178.6</ele>
        <time>2023-03-25T08:13:21Z</time>
      </trkpt>
      <trkpt lat="43.61539" lon="1.31641">
        <ele>177</ele>
        <time>2023-03-25T08:13:24Z</time>
      </trkpt>
      <trkpt lat="43.61554" lon="1.31635">
        <ele>176.4</ele>
        <time>2023-03-25T08:13:26Z</time>
      </trkpt>
      <trkpt lat="43.61601" lon="1.31604">
        <ele>176.2</ele>
        <time>2023-03-25T08:13:33Z</time>
      </trkpt>
      <trkpt lat="43.61644" lon="1.31568">
        <ele>176</ele>
        <time>2023-03-25T08:13:40Z</time>
      </trkpt>
      <trkpt lat="43.6165" lon="1.31563">
        <ele>176</ele>
        <time>2023-03-25T08:13:41Z</time>
      </trkpt>
      <trkpt lat="43.61655" lon="1.31558">
        <ele>175.8</ele>
        <time>2023-03-25T08:13:42Z</time>
      </trkpt>
      <trkpt lat="43.61661" lon="1.31554">
        <ele>175.8</ele>
        <time>2023-03-25T08:13:43Z</time>
      </trkpt>
      <trkpt lat="43.61667" lon="1.31552">
        <ele>175.4</ele>
        <time>2023-03-25T08:13:44Z</time>
      </trkpt>
      <trkpt lat="43.61687" lon="1.31547">
        <ele>175.4</ele>
        <time>2023-03-25T08:13:47Z</time>
      </trkpt>
      <trkpt lat="43.617" lon="1.31544">
        <ele>175.2</ele>
        <time>2023-03-25T08:13:49Z</time>
      </trkpt>
      <trkpt lat="43.61714" lon="1.3154">
        <ele>174.8</ele>
        <time>2023-03-25T08:13:51Z</time>
      </trkpt>
      <trkpt lat="43.61734" lon="1.31535">
        <ele>174.4</ele>
        <time>2023-03-25T08:13:54Z</time>
      </trkpt>
      <trkpt lat="43.61753" lon="1.31528">
        <ele>173.8</ele>
        <time>2023-03-25T08:13:57Z</time>
      </trkpt>
      <trkpt lat="43.6176" lon="1.31527">
        <ele>173.6</ele>
        <time>2023-03-25T08:13:58Z</time>
      </trkpt>
      <trkpt lat="43.61777" lon="1.31523">
        <ele>173</ele>
        <time>2023-03-25T08:14:01Z</time>
      </trkpt>
      <trkpt lat="43.61782" lon="1.31521">
        <ele>173</ele>
        <time>2023-03-25T08:14:02Z</time>
      </trkpt>
      <trkpt lat="43.61806" lon="1.31511">
        <ele>172.8</ele>
        <time>2023-03-25T08:14:06Z</time>
      </trkpt>
      <trkpt lat="43.61857" lon="1.31484">
        <ele>172.8</ele>
        <time>2023-03-25T08:14:14Z</time>
      </trkpt>
      <trkpt lat="43.61863" lon="1.31481">
        <ele>172.8</ele>
        <time>2023-03-25T08:14:15Z</time>
      </trkpt>
      <trkpt lat="43.6187" lon="1.31477">
        <ele>172.6</ele>
        <time>2023-03-25T08:14:16Z</time>
      </trkpt>
      <trkpt lat="43.6191" lon="1.31453">
        <ele>171.8</ele>
        <time>2023-03-25T08:14:22Z</time>
      </trkpt>
      <trkpt lat="43.61929" lon="1.31439">
        <ele>171.4</ele>
        <time>2023-03-25T08:14:25Z</time>
      </trkpt>
      <trkpt lat="43.61949" lon="1.31427">
        <ele>171</ele>
        <time>2023-03-25T08:14:28Z</time>
      </trkpt>
      <trkpt lat="43.61956" lon="1.31425">
        <ele>170.8</ele>
        <time>2023-03-25T08:14:29Z</time>
      </trkpt>
      <trkpt lat="43.61976" lon="1.31427">
        <ele>170.4</ele>
        <time>2023-03-25T08:14:32Z</time>
      </trkpt>
      <trkpt lat="43.61997" lon="1.3143">
        <ele>170</ele>
        <time>2023-03-25T08:14:35Z</time>
      </trkpt>
      <trkpt lat="43.6203" lon="1.31424">
        <ele>169.8</ele>
        <time>2023-03-25T08:14:40Z</time>
      </trkpt>
      <trkpt lat="43.62047" lon="1.31417">
        <ele>169.8</ele>
        <time>2023-03-25T08:14:44Z</time>
      </trkpt>
      <trkpt lat="43.62056" lon="1.31409">
        <ele>169.8</ele>
        <time>2023-03-25T08:14:48Z</time>
      </trkpt>
      <trkpt lat="43.62063" lon="1.31387">
        <ele>169.8</ele>
        <time>2023-03-25T08:14:52Z</time>
      </trkpt>
      <trkpt lat="43.62073" lon="1.31375">
        <ele>169.6</ele>
        <time>2023-03-25T08:14:55Z</time>
      </trkpt>
      <trkpt lat="43.6208" lon="1.3137">
        <ele>169.4</ele>
        <time>2023-03-25T08:14:57Z</time>
      </trkpt>
      <trkpt lat="43.62084" lon="1.31369">
        <ele>169.4</ele>
        <time>2023-03-25T08:14:58Z</time>
      </trkpt>
      <trkpt lat="43.62088" lon="1.31369">
        <ele>169.2</ele>
        <time>2023-03-25T08:14:59Z</time>
      </trkpt>
      <trkpt lat="43.62096" lon="1.31373">
        <ele>169</ele>
        <time>2023-03-25T08:15:01Z</time>
      </trkpt>
      <trkpt lat="43.62099" lon="1.31376">
        <ele>169</ele>
        <time>2023-03-25T08:15:02Z</time>
      </trkpt>
      <trkpt lat="43.62109" lon="1.31389">
        <ele>169</ele>
        <time>2023-03-25T08:15:07Z</time>
      </trkpt>
      <trkpt lat="43.62124" lon="1.31386">
        <ele>169.2</ele>
        <time>2023-03-25T08:15:11Z</time>
      </trkpt>
      <trkpt lat="43.62148" lon="1.31374">
        <ele>169.8</ele>
        <time>2023-03-25T08:15:16Z</time>
      </trkpt>
      <trkpt lat="43.62153" lon="1.31372">
        <ele>169.8</ele>
        <time>2023-03-25T08:15:17Z</time>
      </trkpt>
      <trkpt lat="43.62193" lon="1.31367">
        <ele>170</ele>
        <time>2023-03-25T08:15:24Z</time>
      </trkpt>
      <trkpt lat="43.62211" lon="1.31365">
        <ele>169.8</ele>
        <time>2023-03-25T08:15:27Z</time>
      </trkpt>
      <trkpt lat="43.62222" lon="1.31364">
        <ele>169.8</ele>
        <time>2023-03-25T08:15:29Z</time>
      </trkpt>
      <trkpt lat="43.62234" lon="1.3136">
        <ele>169.6</ele>
        <time>2023-03-25T08:15:31Z</time>
      </trkpt>
      <trkpt lat="43.62288" lon="1.31339">
        <ele>169.2</ele>
        <time>2023-03-25T08:15:40Z</time>
      </trkpt>
      <trkpt lat="43.62318" lon="1.31323">
        <ele>169.2</ele>
        <time>2023-03-25T08:15:46Z</time>
      </trkpt>
      <trkpt lat="43.62335" lon="1.31314">
        <ele>169.2</ele>
        <time>2023-03-25T08:15:49Z</time>
      </trkpt>
      <trkpt lat="43.62341" lon="1.31312">
        <ele>169.2</ele>
        <time>2023-03-25T08:15:50Z</time>
      </trkpt>
      <trkpt lat="43.62353" lon="1.3131">
        <ele>169</ele>
        <time>2023-03-25T08:15:52Z</time>
      </trkpt>
      <trkpt lat="43.62363" lon="1.31306">
        <ele>168.4</ele>
        <time>2023-03-25T08:15:54Z</time>
      </trkpt>
      <trkpt lat="43.62368" lon="1.31303">
        <ele>167.8</ele>
        <time>2023-03-25T08:15:55Z</time>
      </trkpt>
      <trkpt lat="43.62381" lon="1.3129">
        <ele>167.4</ele>
        <time>2023-03-25T08:15:58Z</time>
      </trkpt>
      <trkpt lat="43.62391" lon="1.31285">
        <ele>166.8</ele>
        <time>2023-03-25T08:16:00Z</time>
      </trkpt>
      <trkpt lat="43.62413" lon="1.31277">
        <ele>166.2</ele>
        <time>2023-03-25T08:16:04Z</time>
      </trkpt>
      <trkpt lat="43.62424" lon="1.31272">
        <ele>165.8</ele>
        <time>2023-03-25T08:16:06Z</time>
      </trkpt>
      <trkpt lat="43.62445" lon="1.31263">
        <ele>164.6</ele>
        <time>2023-03-25T08:16:10Z</time>
      </trkpt>
      <trkpt lat="43.62455" lon="1.3126">
        <ele>164.4</ele>
        <time>2023-03-25T08:16:12Z</time>
      </trkpt>
      <trkpt lat="43.62474" lon="1.31251">
        <ele>164.2</ele>
        <time>2023-03-25T08:16:16Z</time>
      </trkpt>
      <trkpt lat="43.62485" lon="1.31245">
        <ele>164.2</ele>
        <time>2023-03-25T08:16:18Z</time>
      </trkpt>
      <trkpt lat="43.62517" lon="1.31234">
        <ele>164</ele>
        <time>2023-03-25T08:16:24Z</time>
      </trkpt>
      <trkpt lat="43.62522" lon="1.31232">
        <ele>164</ele>
        <time>2023-03-25T08:16:25Z</time>
      </trkpt>
      <trkpt lat="43.62548" lon="1.31219">
        <ele>163.6</ele>
        <time>2023-03-25T08:16:30Z</time>
      </trkpt>
      <trkpt lat="43.62554" lon="1.31217">
        <ele>163.6</ele>
        <time>2023-03-25T08:16:31Z</time>
      </trkpt>
      <trkpt lat="43.62583" lon="1.31202">
        <ele>163.4</ele>
        <time>2023-03-25T08:16:36Z</time>
      </trkpt>
      <trkpt lat="43.62618" lon="1.31186">
        <ele>163</ele>
        <time>2023-03-25T08:16:42Z</time>
      </trkpt>
      <trkpt lat="43.62635" lon="1.31179">
        <ele>162.6</ele>
        <time>2023-03-25T08:16:45Z</time>
      </trkpt>
      <trkpt lat="43.62652" lon="1.31171">
        <ele>162.4</ele>
        <time>2023-03-25T08:16:48Z</time>
      </trkpt>
      <trkpt lat="43.62665" lon="1.31162">
        <ele>161.8</ele>
        <time>2023-03-25T08:16:51Z</time>
      </trkpt>
      <trkpt lat="43.62667" lon="1.3116">
        <ele>161.6</ele>
        <time>2023-03-25T08:16:52Z</time>
      </trkpt>
      <trkpt lat="43.6267" lon="1.31159">
        <ele>161.4</ele>
        <time>2023-03-25T08:16:53Z</time>
      </trkpt>
      <trkpt lat="43.62684" lon="1.31152">
        <ele>160.6</ele>
        <time>2023-03-25T08:16:58Z</time>
      </trkpt>
      <trkpt lat="43.62692" lon="1.31149">
        <ele>160.4</ele>
        <time>2023-03-25T08:17:00Z</time>
      </trkpt>
      <trkpt lat="43.627" lon="1.31141">
        <ele>160</ele>
        <time>2023-03-25T08:17:03Z</time>
      </trkpt>
      <trkpt lat="43.62714" lon="1.31143">
        <ele>159.6</ele>
        <time>2023-03-25T08:17:07Z</time>
      </trkpt>
      <trkpt lat="43.62718" lon="1.31143">
        <ele>159.6</ele>
        <time>2023-03-25T08:17:08Z</time>
      </trkpt>
      <trkpt lat="43.62731" lon="1.31138">
        <ele>159.6</ele>
        <time>2023-03-25T08:17:11Z</time>
      </trkpt>
      <trkpt lat="43.62754" lon="1.31128">
        <ele>160</ele>
        <time>2023-03-25T08:17:16Z</time>
      </trkpt>
      <trkpt lat="43.62759" lon="1.31124">
        <ele>160</ele>
        <time>2023-03-25T08:17:17Z</time>
      </trkpt>
      <trkpt lat="43.62764" lon="1.31121">
        <ele>160</ele>
        <time>2023-03-25T08:17:18Z</time>
      </trkpt>
      <trkpt lat="43.62778" lon="1.31109">
        <ele>160</ele>
        <time>2023-03-25T08:17:21Z</time>
      </trkpt>
      <trkpt lat="43.62782" lon="1.31105">
        <ele>160</ele>
        <time>2023-03-25T08:17:22Z</time>
      </trkpt>
      <trkpt lat="43.62805" lon="1.31091">
        <ele>159.6</ele>
        <time>2023-03-25T08:17:27Z</time>
      </trkpt>
      <trkpt lat="43.62824" lon="1.31074">
        <ele>159.6</ele>
        <time>2023-03-25T08:17:31Z</time>
      </trkpt>
      <trkpt lat="43.62841" lon="1.31061">
        <ele>159.4</ele>
        <time>2023-03-25T08:17:35Z</time>
      </trkpt>
      <trkpt lat="43.62849" lon="1.31058">
        <ele>159.2</ele>
        <time>2023-03-25T08:17:38Z</time>
      </trkpt>
      <trkpt lat="43.62852" lon="1.31056">
        <ele>159</ele>
        <time>2023-03-25T08:17:39Z</time>
      </trkpt>
      <trkpt lat="43.62873" lon="1.3104">
        <ele>158.6</ele>
        <time>2023-03-25T08:17:43Z</time>
      </trkpt>
      <trkpt lat="43.6288" lon="1.31035">
        <ele>158.4</ele>
        <time>2023-03-25T08:17:44Z</time>
      </trkpt>
      <trkpt lat="43.6289" lon="1.31023">
        <ele>158.2</ele>
        <time>2023-03-25T08:17:46Z</time>
      </trkpt>
      <trkpt lat="43.62893" lon="1.31016">
        <ele>158.2</ele>
        <time>2023-03-25T08:17:47Z</time>
      </trkpt>
      <trkpt lat="43.62896" lon="1.31011">
        <ele>158.2</ele>
        <time>2023-03-25T08:17:48Z</time>
      </trkpt>
      <trkpt lat="43.629" lon="1.31001">
        <ele>158</ele>
        <time>2023-03-25T08:17:50Z</time>
      </trkpt>
      <trkpt lat="43.62901" lon="1.30995">
        <ele>158</ele>
        <time>2023-03-25T08:17:51Z</time>
      </trkpt>
      <trkpt lat="43.62903" lon="1.30982">
        <ele>157.8</ele>
        <time>2023-03-25T08:17:53Z</time>
      </trkpt>
      <trkpt lat="43.62904" lon="1.30974">
        <ele>157.8</ele>
        <time>2023-03-25T08:17:54Z</time>
      </trkpt>
      <trkpt lat="43.62908" lon="1.30958">
        <ele>157.6</ele>
        <time>2023-03-25T08:17:56Z</time>
      </trkpt>
      <trkpt lat="43.62913" lon="1.30936">
        <ele>157</ele>
        <time>2023-03-25T08:17:59Z</time>
      </trkpt>
      <trkpt lat="43.62914" lon="1.30928">
        <ele>156.8</ele>
        <time>2023-03-25T08:18:00Z</time>
      </trkpt>
      <trkpt lat="43.6292" lon="1.30916">
        <ele>156.4</ele>
        <time>2023-03-25T08:18:02Z</time>
      </trkpt>
      <trkpt lat="43.62928" lon="1.30905">
        <ele>155.8</ele>
        <time>2023-03-25T08:18:04Z</time>
      </trkpt>
      <trkpt lat="43.62945" lon="1.30885">
        <ele>155.6</ele>
        <time>2023-03-25T08:18:08Z</time>
      </trkpt>
      <trkpt lat="43.62981" lon="1.30847">
        <ele>154.8</ele>
        <time>2023-03-25T08:18:16Z</time>
      </trkpt>
      <trkpt lat="43.62986" lon="1.30842">
        <ele>154.8</ele>
        <time>2023-03-25T08:18:17Z</time>
      </trkpt>
      <trkpt lat="43.63004" lon="1.30824">
        <ele>154.6</ele>
        <time>2023-03-25T08:18:21Z</time>
      </trkpt>
      <trkpt lat="43.63012" lon="1.30814">
        <ele>154.6</ele>
        <time>2023-03-25T08:18:23Z</time>
      </trkpt>
      <trkpt lat="43.63044" lon="1.30784">
        <ele>154.4</ele>
        <time>2023-03-25T08:18:30Z</time>
      </trkpt>
      <trkpt lat="43.63051" lon="1.30783">
        <ele>154.2</ele>
        <time>2023-03-25T08:18:32Z</time>
      </trkpt>
      <trkpt lat="43.63055" lon="1.30786">
        <ele>154</ele>
        <time>2023-03-25T08:18:33Z</time>
      </trkpt>
      <trkpt lat="43.63059" lon="1.30791">
        <ele>154</ele>
        <time>2023-03-25T08:18:34Z</time>
      </trkpt>
      <trkpt lat="43.63067" lon="1.30801">
        <ele>153.8</ele>
        <time>2023-03-25T08:18:36Z</time>
      </trkpt>
      <trkpt lat="43.63075" lon="1.30812">
        <ele>153.6</ele>
        <time>2023-03-25T08:18:38Z</time>
      </trkpt>
      <trkpt lat="43.63092" lon="1.30833">
        <ele>153.6</ele>
        <time>2023-03-25T08:18:42Z</time>
      </trkpt>
      <trkpt lat="43.63106" lon="1.30847">
        <ele>153.2</ele>
        <time>2023-03-25T08:18:45Z</time>
      </trkpt>
      <trkpt lat="43.63138" lon="1.30886">
        <ele>152.8</ele>
        <time>2023-03-25T08:18:52Z</time>
      </trkpt>
      <trkpt lat="43.63147" lon="1.30897">
        <ele>152.8</ele>
        <time>2023-03-25T08:18:54Z</time>
      </trkpt>
      <trkpt lat="43.63156" lon="1.30908">
        <ele>152.6</ele>
        <time>2023-03-25T08:18:56Z</time>
      </trkpt>
      <trkpt lat="43.63164" lon="1.30917">
        <ele>152.8</ele>
        <time>2023-03-25T08:18:58Z</time>
      </trkpt>
      <trkpt lat="43.63168" lon="1.30922">
        <ele>152.8</ele>
        <time>2023-03-25T08:18:59Z</time>
      </trkpt>
      <trkpt lat="43.63185" lon="1.3094">
        <ele>153.4</ele>
        <time>2023-03-25T08:19:03Z</time>
      </trkpt>
      <trkpt lat="43.63188" lon="1.30944">
        <ele>153.4</ele>
        <time>2023-03-25T08:19:04Z</time>
      </trkpt>
      <trkpt lat="43.63196" lon="1.30953">
        <ele>153.2</ele>
        <time>2023-03-25T08:19:07Z</time>
      </trkpt>
      <trkpt lat="43.63198" lon="1.30954">
        <ele>153.2</ele>
        <time>2023-03-25T08:19:08Z</time>
      </trkpt>
      <trkpt lat="43.63199" lon="1.30953">
        <ele>153.2</ele>
        <time>2023-03-25T08:19:10Z</time>
      </trkpt>
      <trkpt lat="43.63201" lon="1.30934">
        <ele>152.8</ele>
        <time>2023-03-25T08:19:15Z</time>
      </trkpt>
      <trkpt lat="43.63205" lon="1.30911">
        <ele>152.6</ele>
        <time>2023-03-25T08:19:19Z</time>
      </trkpt>
      <trkpt lat="43.63209" lon="1.30899">
        <ele>152.6</ele>
        <time>2023-03-25T08:19:21Z</time>
      </trkpt>
      <trkpt lat="43.63213" lon="1.30887">
        <ele>152.6</ele>
        <time>2023-03-25T08:19:23Z</time>
      </trkpt>
      <trkpt lat="43.6322" lon="1.30875">
        <ele>152.6</ele>
        <time>2023-03-25T08:19:25Z</time>
      </trkpt>
      <trkpt lat="43.63244" lon="1.30831">
        <ele>152.8</ele>
        <time>2023-03-25T08:19:32Z</time>
      </trkpt>
      <trkpt lat="43.63248" lon="1.30824">
        <ele>152.6</ele>
        <time>2023-03-25T08:19:33Z</time>
      </trkpt>
      <trkpt lat="43.63262" lon="1.30794">
        <ele>152.6</ele>
        <time>2023-03-25T08:19:37Z</time>
      </trkpt>
      <trkpt lat="43.63268" lon="1.30782">
        <ele>152.8</ele>
        <time>2023-03-25T08:19:39Z</time>
      </trkpt>
      <trkpt lat="43.63275" lon="1.30771">
        <ele>152.8</ele>
        <time>2023-03-25T08:19:41Z</time>
      </trkpt>
      <trkpt lat="43.63284" lon="1.30754">
        <ele>152.8</ele>
        <time>2023-03-25T08:19:44Z</time>
      </trkpt>
      <trkpt lat="43.6329" lon="1.30746">
        <ele>152.6</ele>
        <time>2023-03-25T08:19:46Z</time>
      </trkpt>
      <trkpt lat="43.63296" lon="1.30747">
        <ele>152.6</ele>
        <time>2023-03-25T08:19:48Z</time>
      </trkpt>
      <trkpt lat="43.63313" lon="1.30772">
        <ele>152.4</ele>
        <time>2023-03-25T08:19:52Z</time>
      </trkpt>
      <trkpt lat="43.63349" lon="1.30816">
        <ele>152.2</ele>
        <time>2023-03-25T08:19:59Z</time>
      </trkpt>
      <trkpt lat="43.63387" lon="1.30869">
        <ele>151.8</ele>
        <time>2023-03-25T08:20:07Z</time>
      </trkpt>
      <trkpt lat="43.63392" lon="1.30875">
        <ele>151.6</ele>
        <time>2023-03-25T08:20:08Z</time>
      </trkpt>
      <trkpt lat="43.63402" lon="1.30888">
        <ele>151.6</ele>
        <time>2023-03-25T08:20:10Z</time>
      </trkpt>
      <trkpt lat="43.63428" lon="1.30918">
        <ele>151.6</ele>
        <time>2023-03-25T08:20:15Z</time>
      </trkpt>
      <trkpt lat="43.63434" lon="1.30923">
        <ele>151.6</ele>
        <time>2023-03-25T08:20:16Z</time>
      </trkpt>
      <trkpt lat="43.63471" lon="1.30944">
        <ele>151.2</ele>
        <time>2023-03-25T08:20:22Z</time>
      </trkpt>
      <trkpt lat="43.63508" lon="1.30962">
        <ele>151.4</ele>
        <time>2023-03-25T08:20:28Z</time>
      </trkpt>
      <trkpt lat="43.63515" lon="1.30966">
        <ele>151.4</ele>
        <time>2023-03-25T08:20:29Z</time>
      </trkpt>
      <trkpt lat="43.63527" lon="1.30975">
        <ele>151.4</ele>
        <time>2023-03-25T08:20:31Z</time>
      </trkpt>
      <trkpt lat="43.63538" lon="1.30986">
        <ele>151.4</ele>
        <time>2023-03-25T08:20:33Z</time>
      </trkpt>
      <trkpt lat="43.63543" lon="1.30993">
        <ele>151.4</ele>
        <time>2023-03-25T08:20:34Z</time>
      </trkpt>
      <trkpt lat="43.63574" lon="1.31047">
        <ele>151</ele>
        <time>2023-03-25T08:20:41Z</time>
      </trkpt>
      <trkpt lat="43.63606" lon="1.31098">
        <ele>150.8</ele>
        <time>2023-03-25T08:20:48Z</time>
      </trkpt>
      <trkpt lat="43.6362" lon="1.31117">
        <ele>151</ele>
        <time>2023-03-25T08:20:51Z</time>
      </trkpt>
      <trkpt lat="43.63625" lon="1.31135">
        <ele>151.2</ele>
        <time>2023-03-25T08:20:53Z</time>
      </trkpt>
      <trkpt lat="43.63639" lon="1.31168">
        <ele>151.6</ele>
        <time>2023-03-25T08:20:57Z</time>
      </trkpt>
      <trkpt lat="43.63646" lon="1.31184">
        <ele>151.6</ele>
        <time>2023-03-25T08:20:59Z</time>
      </trkpt>
      <trkpt lat="43.63662" lon="1.31215">
        <ele>151.8</ele>
        <time>2023-03-25T08:21:03Z</time>
      </trkpt>
      <trkpt lat="43.63673" lon="1.31229">
        <ele>151.8</ele>
        <time>2023-03-25T08:21:05Z</time>
      </trkpt>
      <trkpt lat="43.63677" lon="1.31237">
        <ele>152</ele>
        <time>2023-03-25T08:21:06Z</time>
      </trkpt>
      <trkpt lat="43.63684" lon="1.31255">
        <ele>152</ele>
        <time>2023-03-25T08:21:08Z</time>
      </trkpt>
      <trkpt lat="43.63687" lon="1.31265">
        <ele>152</ele>
        <time>2023-03-25T08:21:09Z</time>
      </trkpt>
      <trkpt lat="43.63701" lon="1.31326">
        <ele>151.8</ele>
        <time>2023-03-25T08:21:15Z</time>
      </trkpt>
      <trkpt lat="43.63723" lon="1.31404">
        <ele>151.2</ele>
        <time>2023-03-25T08:21:23Z</time>
      </trkpt>
      <trkpt lat="43.63746" lon="1.31456">
        <ele>150.8</ele>
        <time>2023-03-25T08:21:29Z</time>
      </trkpt>
      <trkpt lat="43.63783" lon="1.31525">
        <ele>150.6</ele>
        <time>2023-03-25T08:21:37Z</time>
      </trkpt>
      <trkpt lat="43.63786" lon="1.31531">
        <ele>150.4</ele>
        <time>2023-03-25T08:21:38Z</time>
      </trkpt>
      <trkpt lat="43.63811" lon="1.31583">
        <ele>149.6</ele>
        <time>2023-03-25T08:21:44Z</time>
      </trkpt>
      <trkpt lat="43.63816" lon="1.31593">
        <ele>149.6</ele>
        <time>2023-03-25T08:21:45Z</time>
      </trkpt>
      <trkpt lat="43.63826" lon="1.31609">
        <ele>149.4</ele>
        <time>2023-03-25T08:21:47Z</time>
      </trkpt>
      <trkpt lat="43.63836" lon="1.31622">
        <ele>149.2</ele>
        <time>2023-03-25T08:21:49Z</time>
      </trkpt>
      <trkpt lat="43.63858" lon="1.31652">
        <ele>148.8</ele>
        <time>2023-03-25T08:21:53Z</time>
      </trkpt>
      <trkpt lat="43.63864" lon="1.31658">
        <ele>148.6</ele>
        <time>2023-03-25T08:21:54Z</time>
      </trkpt>
      <trkpt lat="43.63877" lon="1.31671">
        <ele>148.6</ele>
        <time>2023-03-25T08:21:56Z</time>
      </trkpt>
      <trkpt lat="43.63907" lon="1.31702">
        <ele>148.4</ele>
        <time>2023-03-25T08:22:01Z</time>
      </trkpt>
      <trkpt lat="43.63956" lon="1.31746">
        <ele>148.8</ele>
        <time>2023-03-25T08:22:09Z</time>
      </trkpt>
      <trkpt lat="43.64" lon="1.31773">
        <ele>148.8</ele>
        <time>2023-03-25T08:22:15Z</time>
      </trkpt>
      <trkpt lat="43.64054" lon="1.31801">
        <ele>149</ele>
        <time>2023-03-25T08:22:23Z</time>
      </trkpt>
      <trkpt lat="43.64083" lon="1.31818">
        <ele>148.8</ele>
        <time>2023-03-25T08:22:28Z</time>
      </trkpt>
      <trkpt lat="43.64134" lon="1.31849">
        <ele>148.6</ele>
        <time>2023-03-25T08:22:36Z</time>
      </trkpt>
      <trkpt lat="43.64174" lon="1.31864">
        <ele>148.8</ele>
        <time>2023-03-25T08:22:43Z</time>
      </trkpt>
      <trkpt lat="43.64185" lon="1.31865">
        <ele>148.6</ele>
        <time>2023-03-25T08:22:45Z</time>
      </trkpt>
      <trkpt lat="43.64193" lon="1.31872">
        <ele>148.6</ele>
        <time>2023-03-25T08:22:47Z</time>
      </trkpt>
      <trkpt lat="43.6422" lon="1.31892">
        <ele>148.4</ele>
        <time>2023-03-25T08:22:52Z</time>
      </trkpt>
      <trkpt lat="43.6424" lon="1.31907">
        <ele>148.6</ele>
        <time>2023-03-25T08:22:56Z</time>
      </trkpt>
      <trkpt lat="43.6425" lon="1.31915">
        <ele>148.8</ele>
        <time>2023-03-25T08:22:58Z</time>
      </trkpt>
      <trkpt lat="43.64256" lon="1.31919">
        <ele>148.8</ele>
        <time>2023-03-25T08:22:59Z</time>
      </trkpt>
      <trkpt lat="43.64275" lon="1.31935">
        <ele>149.2</ele>
        <time>2023-03-25T08:23:04Z</time>
      </trkpt>
      <trkpt lat="43.6428" lon="1.31944">
        <ele>150</ele>
        <time>2023-03-25T08:23:06Z</time>
      </trkpt>
      <trkpt lat="43.64283" lon="1.31953">
        <ele>150.8</ele>
        <time>2023-03-25T08:23:08Z</time>
      </trkpt>
      <trkpt lat="43.64284" lon="1.31959">
        <ele>151.2</ele>
        <time>2023-03-25T08:23:09Z</time>
      </trkpt>
      <trkpt lat="43.64286" lon="1.31965">
        <ele>151.8</ele>
        <time>2023-03-25T08:23:10Z</time>
      </trkpt>
      <trkpt lat="43.64288" lon="1.31971">
        <ele>152.4</ele>
        <time>2023-03-25T08:23:11Z</time>
      </trkpt>
      <trkpt lat="43.6429" lon="1.31976">
        <ele>152.8</ele>
        <time>2023-03-25T08:23:12Z</time>
      </trkpt>
      <trkpt lat="43.64294" lon="1.31987">
        <ele>153</ele>
        <time>2023-03-25T08:23:14Z</time>
      </trkpt>
      <trkpt lat="43.64303" lon="1.32012">
        <ele>153.2</ele>
        <time>2023-03-25T08:23:18Z</time>
      </trkpt>
      <trkpt lat="43.6431" lon="1.32034">
        <ele>153.6</ele>
        <time>2023-03-25T08:23:21Z</time>
      </trkpt>
      <trkpt lat="43.64331" lon="1.32084">
        <ele>153.8</ele>
        <time>2023-03-25T08:23:28Z</time>
      </trkpt>
      <trkpt lat="43.64361" lon="1.32147">
        <ele>153.4</ele>
        <time>2023-03-25T08:23:36Z</time>
      </trkpt>
      <trkpt lat="43.64365" lon="1.32155">
        <ele>153.4</ele>
        <time>2023-03-25T08:23:37Z</time>
      </trkpt>
      <trkpt lat="43.64392" lon="1.32202">
        <ele>152.4</ele>
        <time>2023-03-25T08:23:43Z</time>
      </trkpt>
      <trkpt lat="43.64406" lon="1.32226">
        <ele>151.8</ele>
        <time>2023-03-25T08:23:46Z</time>
      </trkpt>
      <trkpt lat="43.64417" lon="1.32242">
        <ele>151.4</ele>
        <time>2023-03-25T08:23:48Z</time>
      </trkpt>
      <trkpt lat="43.64432" lon="1.32267">
        <ele>151.2</ele>
        <time>2023-03-25T08:23:51Z</time>
      </trkpt>
      <trkpt lat="43.64458" lon="1.32296">
        <ele>150.2</ele>
        <time>2023-03-25T08:23:55Z</time>
      </trkpt>
      <trkpt lat="43.64464" lon="1.32302">
        <ele>150</ele>
        <time>2023-03-25T08:23:56Z</time>
      </trkpt>
      <trkpt lat="43.64486" lon="1.32315">
        <ele>149.2</ele>
        <time>2023-03-25T08:23:59Z</time>
      </trkpt>
      <trkpt lat="43.64515" lon="1.32334">
        <ele>148.6</ele>
        <time>2023-03-25T08:24:03Z</time>
      </trkpt>
      <trkpt lat="43.64536" lon="1.32345">
        <ele>148.2</ele>
        <time>2023-03-25T08:24:06Z</time>
      </trkpt>
      <trkpt lat="43.6456" lon="1.3236">
        <ele>147.6</ele>
        <time>2023-03-25T08:24:10Z</time>
      </trkpt>
      <trkpt lat="43.64569" lon="1.32364">
        <ele>147</ele>
        <time>2023-03-25T08:24:13Z</time>
      </trkpt>
      <trkpt lat="43.64569" lon="1.32365">
        <ele>146.8</ele>
        <time>2023-03-25T08:24:16Z</time>
      </trkpt>
      <trkpt lat="43.64571" lon="1.32367">
        <ele>146.8</ele>
        <time>2023-03-25T08:24:17Z</time>
      </trkpt>
      <trkpt lat="43.64578" lon="1.32368">
        <ele>146.6</ele>
        <time>2023-03-25T08:24:20Z</time>
      </trkpt>
      <trkpt lat="43.64581" lon="1.32369">
        <ele>146.4</ele>
        <time>2023-03-25T08:24:21Z</time>
      </trkpt>
      <trkpt lat="43.64586" lon="1.32375">
        <ele>146.2</ele>
        <time>2023-03-25T08:24:23Z</time>
      </trkpt>
      <trkpt lat="43.64589" lon="1.32379">
        <ele>146.2</ele>
        <time>2023-03-25T08:24:24Z</time>
      </trkpt>
      <trkpt lat="43.64597" lon="1.32386">
        <ele>146</ele>
        <time>2023-03-25T08:24:26Z</time>
      </trkpt>
      <trkpt lat="43.64601" lon="1.3239">
        <ele>146</ele>
        <time>2023-03-25T08:24:27Z</time>
      </trkpt>
      <trkpt lat="43.64609" lon="1.32398">
        <ele>145.8</ele>
        <time>2023-03-25T08:24:29Z</time>
      </trkpt>
      <trkpt lat="43.64626" lon="1.3241">
        <ele>145.8</ele>
        <time>2023-03-25T08:24:32Z</time>
      </trkpt>
      <trkpt lat="43.64649" lon="1.32427">
        <ele>145.8</ele>
        <time>2023-03-25T08:24:36Z</time>
      </trkpt>
      <trkpt lat="43.64667" lon="1.3244">
        <ele>146</ele>
        <time>2023-03-25T08:24:39Z</time>
      </trkpt>
      <trkpt lat="43.64719" lon="1.32479">
        <ele>145.6</ele>
        <time>2023-03-25T08:24:47Z</time>
      </trkpt>
      <trkpt lat="43.64728" lon="1.32493">
        <ele>145.6</ele>
        <time>2023-03-25T08:24:49Z</time>
      </trkpt>
      <trkpt lat="43.64731" lon="1.32498">
        <ele>145.6</ele>
        <time>2023-03-25T08:24:50Z</time>
      </trkpt>
      <trkpt lat="43.64735" lon="1.325">
        <ele>145.4</ele>
        <time>2023-03-25T08:24:51Z</time>
      </trkpt>
      <trkpt lat="43.64743" lon="1.32502">
        <ele>145.4</ele>
        <time>2023-03-25T08:24:53Z</time>
      </trkpt>
      <trkpt lat="43.64751" lon="1.32505">
        <ele>145.4</ele>
        <time>2023-03-25T08:24:55Z</time>
      </trkpt>
      <trkpt lat="43.6476" lon="1.32508">
        <ele>145.4</ele>
        <time>2023-03-25T08:24:57Z</time>
      </trkpt>
      <trkpt lat="43.64765" lon="1.32509">
        <ele>145.6</ele>
        <time>2023-03-25T08:24:58Z</time>
      </trkpt>
      <trkpt lat="43.64784" lon="1.32511">
        <ele>145.8</ele>
        <time>2023-03-25T08:25:02Z</time>
      </trkpt>
      <trkpt lat="43.64789" lon="1.32506">
        <ele>146.2</ele>
        <time>2023-03-25T08:25:04Z</time>
      </trkpt>
      <trkpt lat="43.64791" lon="1.32496">
        <ele>147</ele>
        <time>2023-03-25T08:25:07Z</time>
      </trkpt>
      <trkpt lat="43.64792" lon="1.32495">
        <ele>147</ele>
        <time>2023-03-25T08:25:08Z</time>
      </trkpt>
      <trkpt lat="43.64793" lon="1.32496">
        <ele>147.4</ele>
        <time>2023-03-25T08:25:09Z</time>
      </trkpt>
      <trkpt lat="43.64796" lon="1.32504">
        <ele>148.6</ele>
        <time>2023-03-25T08:25:11Z</time>
      </trkpt>
      <trkpt lat="43.64796" lon="1.32515">
        <ele>149.2</ele>
        <time>2023-03-25T08:25:13Z</time>
      </trkpt>
      <trkpt lat="43.64797" lon="1.32525">
        <ele>149.4</ele>
        <time>2023-03-25T08:25:15Z</time>
      </trkpt>
      <trkpt lat="43.64798" lon="1.32539">
        <ele>149.6</ele>
        <time>2023-03-25T08:25:17Z</time>
      </trkpt>
      <trkpt lat="43.64799" lon="1.32544">
        <ele>149.8</ele>
        <time>2023-03-25T08:25:18Z</time>
      </trkpt>
      <trkpt lat="43.64802" lon="1.32572">
        <ele>150.2</ele>
        <time>2023-03-25T08:25:22Z</time>
      </trkpt>
      <trkpt lat="43.64805" lon="1.32584">
        <ele>150.6</ele>
        <time>2023-03-25T08:25:24Z</time>
      </trkpt>
      <trkpt lat="43.64808" lon="1.3259">
        <ele>150.6</ele>
        <time>2023-03-25T08:25:25Z</time>
      </trkpt>
      <trkpt lat="43.64818" lon="1.32622">
        <ele>151.8</ele>
        <time>2023-03-25T08:25:30Z</time>
      </trkpt>
      <trkpt lat="43.64819" lon="1.32627">
        <ele>151.8</ele>
        <time>2023-03-25T08:25:31Z</time>
      </trkpt>
      <trkpt lat="43.64829" lon="1.32654">
        <ele>153</ele>
        <time>2023-03-25T08:25:36Z</time>
      </trkpt>
      <trkpt lat="43.64831" lon="1.3266">
        <ele>153.4</ele>
        <time>2023-03-25T08:25:37Z</time>
      </trkpt>
      <trkpt lat="43.64835" lon="1.32671">
        <ele>154</ele>
        <time>2023-03-25T08:25:39Z</time>
      </trkpt>
      <trkpt lat="43.64841" lon="1.32687">
        <ele>154.8</ele>
        <time>2023-03-25T08:25:42Z</time>
      </trkpt>
      <trkpt lat="43.64843" lon="1.32691">
        <ele>155.2</ele>
        <time>2023-03-25T08:25:43Z</time>
      </trkpt>
      <trkpt lat="43.64844" lon="1.32695">
        <ele>155.4</ele>
        <time>2023-03-25T08:25:44Z</time>
      </trkpt>
      <trkpt lat="43.64848" lon="1.32704">
        <ele>156.6</ele>
        <time>2023-03-25T08:25:46Z</time>
      </trkpt>
      <trkpt lat="43.64855" lon="1.32716">
        <ele>157.8</ele>
        <time>2023-03-25T08:25:49Z</time>
      </trkpt>
      <trkpt lat="43.64861" lon="1.3272">
        <ele>158.2</ele>
        <time>2023-03-25T08:25:51Z</time>
      </trkpt>
      <trkpt lat="43.64869" lon="1.32711">
        <ele>158.4</ele>
        <time>2023-03-25T08:25:54Z</time>
      </trkpt>
      <trkpt lat="43.64877" lon="1.32702">
        <ele>158.4</ele>
        <time>2023-03-25T08:25:56Z</time>
      </trkpt>
      <trkpt lat="43.64882" lon="1.32702">
        <ele>158.2</ele>
        <time>2023-03-25T08:25:57Z</time>
      </trkpt>
      <trkpt lat="43.6489" lon="1.32709">
        <ele>157.6</ele>
        <time>2023-03-25T08:25:59Z</time>
      </trkpt>
      <trkpt lat="43.64892" lon="1.32715">
        <ele>157.2</ele>
        <time>2023-03-25T08:26:00Z</time>
      </trkpt>
      <trkpt lat="43.64898" lon="1.32729">
        <ele>156.8</ele>
        <time>2023-03-25T08:26:02Z</time>
      </trkpt>
      <trkpt lat="43.64908" lon="1.3275">
        <ele>156.2</ele>
        <time>2023-03-25T08:26:05Z</time>
      </trkpt>
      <trkpt lat="43.64911" lon="1.32756">
        <ele>156.2</ele>
        <time>2023-03-25T08:26:06Z</time>
      </trkpt>
      <trkpt lat="43.64919" lon="1.32767">
        <ele>156.2</ele>
        <time>2023-03-25T08:26:08Z</time>
      </trkpt>
      <trkpt lat="43.6493" lon="1.32787">
        <ele>156.6</ele>
        <time>2023-03-25T08:26:11Z</time>
      </trkpt>
      <trkpt lat="43.64934" lon="1.32793">
        <ele>156.6</ele>
        <time>2023-03-25T08:26:12Z</time>
      </trkpt>
      <trkpt lat="43.64958" lon="1.3283">
        <ele>157</ele>
        <time>2023-03-25T08:26:18Z</time>
      </trkpt>
      <trkpt lat="43.64966" lon="1.32843">
        <ele>157</ele>
        <time>2023-03-25T08:26:20Z</time>
      </trkpt>
      <trkpt lat="43.64996" lon="1.32884">
        <ele>156.4</ele>
        <time>2023-03-25T08:26:26Z</time>
      </trkpt>
      <trkpt lat="43.65027" lon="1.32916">
        <ele>155.6</ele>
        <time>2023-03-25T08:26:31Z</time>
      </trkpt>
      <trkpt lat="43.65039" lon="1.32928">
        <ele>155.2</ele>
        <time>2023-03-25T08:26:33Z</time>
      </trkpt>
      <trkpt lat="43.6507" lon="1.32961">
        <ele>154.6</ele>
        <time>2023-03-25T08:26:38Z</time>
      </trkpt>
      <trkpt lat="43.65083" lon="1.32974">
        <ele>154.4</ele>
        <time>2023-03-25T08:26:40Z</time>
      </trkpt>
      <trkpt lat="43.65131" lon="1.33024">
        <ele>154.2</ele>
        <time>2023-03-25T08:26:48Z</time>
      </trkpt>
      <trkpt lat="43.65161" lon="1.3306">
        <ele>153.8</ele>
        <time>2023-03-25T08:26:54Z</time>
      </trkpt>
      <trkpt lat="43.65163" lon="1.33066">
        <ele>153.8</ele>
        <time>2023-03-25T08:26:55Z</time>
      </trkpt>
      <trkpt lat="43.65165" lon="1.33071">
        <ele>153.8</ele>
        <time>2023-03-25T08:26:56Z</time>
      </trkpt>
      <trkpt lat="43.65165" lon="1.33083">
        <ele>153.8</ele>
        <time>2023-03-25T08:26:58Z</time>
      </trkpt>
      <trkpt lat="43.6516" lon="1.33107">
        <ele>153.8</ele>
        <time>2023-03-25T08:27:02Z</time>
      </trkpt>
      <trkpt lat="43.6516" lon="1.33113">
        <ele>153.8</ele>
        <time>2023-03-25T08:27:03Z</time>
      </trkpt>
      <trkpt lat="43.6516" lon="1.33119">
        <ele>153.8</ele>
        <time>2023-03-25T08:27:04Z</time>
      </trkpt>
      <trkpt lat="43.65166" lon="1.33128">
        <ele>154</ele>
        <time>2023-03-25T08:27:06Z</time>
      </trkpt>
      <trkpt lat="43.65181" lon="1.33143">
        <ele>154.2</ele>
        <time>2023-03-25T08:27:09Z</time>
      </trkpt>
      <trkpt lat="43.65192" lon="1.33152">
        <ele>154.6</ele>
        <time>2023-03-25T08:27:11Z</time>
      </trkpt>
      <trkpt lat="43.65229" lon="1.33177">
        <ele>154.6</ele>
        <time>2023-03-25T08:27:17Z</time>
      </trkpt>
      <trkpt lat="43.65268" lon="1.33188">
        <ele>154.2</ele>
        <time>2023-03-25T08:27:23Z</time>
      </trkpt>
      <trkpt lat="43.65275" lon="1.33185">
        <ele>154.2</ele>
        <time>2023-03-25T08:27:24Z</time>
      </trkpt>
      <trkpt lat="43.65312" lon="1.33161">
        <ele>154.2</ele>
        <time>2023-03-25T08:27:30Z</time>
      </trkpt>
      <trkpt lat="43.65358" lon="1.33129">
        <ele>153.8</ele>
        <time>2023-03-25T08:27:37Z</time>
      </trkpt>
      <trkpt lat="43.65385" lon="1.33104">
        <ele>153.6</ele>
        <time>2023-03-25T08:27:41Z</time>
      </trkpt>
      <trkpt lat="43.65391" lon="1.33096">
        <ele>153.4</ele>
        <time>2023-03-25T08:27:42Z</time>
      </trkpt>
      <trkpt lat="43.65414" lon="1.33057">
        <ele>152.2</ele>
        <time>2023-03-25T08:27:46Z</time>
      </trkpt>
      <trkpt lat="43.6542" lon="1.33046">
        <ele>152</ele>
        <time>2023-03-25T08:27:47Z</time>
      </trkpt>
      <trkpt lat="43.65434" lon="1.33009">
        <ele>151.2</ele>
        <time>2023-03-25T08:27:50Z</time>
      </trkpt>
      <trkpt lat="43.6544" lon="1.32987">
        <ele>150.4</ele>
        <time>2023-03-25T08:27:52Z</time>
      </trkpt>
      <trkpt lat="43.65443" lon="1.32976">
        <ele>150</ele>
        <time>2023-03-25T08:27:53Z</time>
      </trkpt>
      <trkpt lat="43.65457" lon="1.32934">
        <ele>148.4</ele>
        <time>2023-03-25T08:27:57Z</time>
      </trkpt>
      <trkpt lat="43.65476" lon="1.32884">
        <ele>147.4</ele>
        <time>2023-03-25T08:28:02Z</time>
      </trkpt>
      <trkpt lat="43.6548" lon="1.32875">
        <ele>147.2</ele>
        <time>2023-03-25T08:28:03Z</time>
      </trkpt>
      <trkpt lat="43.6549" lon="1.32858">
        <ele>147</ele>
        <time>2023-03-25T08:28:05Z</time>
      </trkpt>
      <trkpt lat="43.65502" lon="1.32843">
        <ele>146.8</ele>
        <time>2023-03-25T08:28:07Z</time>
      </trkpt>
      <trkpt lat="43.65521" lon="1.32823">
        <ele>146.2</ele>
        <time>2023-03-25T08:28:10Z</time>
      </trkpt>
      <trkpt lat="43.65541" lon="1.32807">
        <ele>146.2</ele>
        <time>2023-03-25T08:28:13Z</time>
      </trkpt>
      <trkpt lat="43.65576" lon="1.32787">
        <ele>146</ele>
        <time>2023-03-25T08:28:18Z</time>
      </trkpt>
      <trkpt lat="43.65629" lon="1.32759">
        <ele>146.2</ele>
        <time>2023-03-25T08:28:25Z</time>
      </trkpt>
      <trkpt lat="43.65644" lon="1.32751">
        <ele>146</ele>
        <time>2023-03-25T08:28:27Z</time>
      </trkpt>
      <trkpt lat="43.65662" lon="1.32741">
        <ele>146</ele>
        <time>2023-03-25T08:28:30Z</time>
      </trkpt>
      <trkpt lat="43.65662" lon="1.32741">
        <ele>146</ele>
        <time>2023-03-25T08:28:31Z</time>
      </trkpt>
      <trkpt lat="43.65702" lon="1.32719">
        <ele>145.4</ele>
        <time>2023-03-25T08:28:37Z</time>
      </trkpt>
      <trkpt lat="43.65752" lon="1.32695">
        <ele>145.4</ele>
        <time>2023-03-25T08:28:45Z</time>
      </trkpt>
      <trkpt lat="43.65801" lon="1.3267">
        <ele>146</ele>
        <time>2023-03-25T08:28:52Z</time>
      </trkpt>
      <trkpt lat="43.65854" lon="1.3264">
        <ele>146.2</ele>
        <time>2023-03-25T08:29:00Z</time>
      </trkpt>
      <trkpt lat="43.65882" lon="1.32628">
        <ele>146.4</ele>
        <time>2023-03-25T08:29:04Z</time>
      </trkpt>
      <trkpt lat="43.65916" lon="1.32612">
        <ele>146.6</ele>
        <time>2023-03-25T08:29:09Z</time>
      </trkpt>
      <trkpt lat="43.65966" lon="1.32587">
        <ele>146.8</ele>
        <time>2023-03-25T08:29:17Z</time>
      </trkpt>
      <trkpt lat="43.65996" lon="1.32571">
        <ele>147.6</ele>
        <time>2023-03-25T08:29:22Z</time>
      </trkpt>
      <trkpt lat="43.66002" lon="1.32568">
        <ele>147.8</ele>
        <time>2023-03-25T08:29:23Z</time>
      </trkpt>
      <trkpt lat="43.66008" lon="1.32566">
        <ele>147.8</ele>
        <time>2023-03-25T08:29:25Z</time>
      </trkpt>
      <trkpt lat="43.66062" lon="1.32541">
        <ele>148.4</ele>
        <time>2023-03-25T08:29:33Z</time>
      </trkpt>
      <trkpt lat="43.66079" lon="1.32536">
        <ele>148.8</ele>
        <time>2023-03-25T08:29:36Z</time>
      </trkpt>
      <trkpt lat="43.66094" lon="1.32533">
        <ele>149.2</ele>
        <time>2023-03-25T08:29:39Z</time>
      </trkpt>
      <trkpt lat="43.66099" lon="1.32531">
        <ele>149.2</ele>
        <time>2023-03-25T08:29:40Z</time>
      </trkpt>
      <trkpt lat="43.66114" lon="1.32524">
        <ele>149.6</ele>
        <time>2023-03-25T08:29:43Z</time>
      </trkpt>
      <trkpt lat="43.66117" lon="1.3252">
        <ele>149.8</ele>
        <time>2023-03-25T08:29:44Z</time>
      </trkpt>
      <trkpt lat="43.66118" lon="1.32514">
        <ele>149.8</ele>
        <time>2023-03-25T08:29:45Z</time>
      </trkpt>
      <trkpt lat="43.66118" lon="1.32508">
        <ele>150</ele>
        <time>2023-03-25T08:29:46Z</time>
      </trkpt>
      <trkpt lat="43.66118" lon="1.32502">
        <ele>150</ele>
        <time>2023-03-25T08:29:47Z</time>
      </trkpt>
      <trkpt lat="43.66127" lon="1.32482">
        <ele>150.2</ele>
        <time>2023-03-25T08:29:52Z</time>
      </trkpt>
      <trkpt lat="43.66134" lon="1.32476">
        <ele>150.4</ele>
        <time>2023-03-25T08:29:54Z</time>
      </trkpt>
      <trkpt lat="43.66143" lon="1.32471">
        <ele>150.6</ele>
        <time>2023-03-25T08:29:56Z</time>
      </trkpt>
      <trkpt lat="43.66156" lon="1.32457">
        <ele>150.6</ele>
        <time>2023-03-25T08:29:59Z</time>
      </trkpt>
      <trkpt lat="43.6616" lon="1.32451">
        <ele>150.6</ele>
        <time>2023-03-25T08:30:00Z</time>
      </trkpt>
      <trkpt lat="43.66176" lon="1.32425">
        <ele>151</ele>
        <time>2023-03-25T08:30:04Z</time>
      </trkpt>
      <trkpt lat="43.66189" lon="1.32396">
        <ele>151.2</ele>
        <time>2023-03-25T08:30:08Z</time>
      </trkpt>
      <trkpt lat="43.66221" lon="1.32331">
        <ele>151.8</ele>
        <time>2023-03-25T08:30:17Z</time>
      </trkpt>
      <trkpt lat="43.66231" lon="1.32308">
        <ele>152</ele>
        <time>2023-03-25T08:30:20Z</time>
      </trkpt>
      <trkpt lat="43.66249" lon="1.32259">
        <ele>152.4</ele>
        <time>2023-03-25T08:30:26Z</time>
      </trkpt>
      <trkpt lat="43.6627" lon="1.32211">
        <ele>152.4</ele>
        <time>2023-03-25T08:30:32Z</time>
      </trkpt>
      <trkpt lat="43.66301" lon="1.32145">
        <ele>151.8</ele>
        <time>2023-03-25T08:30:40Z</time>
      </trkpt>
      <trkpt lat="43.66308" lon="1.32129">
        <ele>151.8</ele>
        <time>2023-03-25T08:30:42Z</time>
      </trkpt>
      <trkpt lat="43.66338" lon="1.32067">
        <ele>151.6</ele>
        <time>2023-03-25T08:30:50Z</time>
      </trkpt>
      <trkpt lat="43.66349" lon="1.32044">
        <ele>152</ele>
        <time>2023-03-25T08:30:53Z</time>
      </trkpt>
      <trkpt lat="43.66381" lon="1.31975">
        <ele>153</ele>
        <time>2023-03-25T08:31:02Z</time>
      </trkpt>
      <trkpt lat="43.6639" lon="1.31951">
        <ele>153.4</ele>
        <time>2023-03-25T08:31:05Z</time>
      </trkpt>
      <trkpt lat="43.66401" lon="1.31918">
        <ele>153.8</ele>
        <time>2023-03-25T08:31:09Z</time>
      </trkpt>
      <trkpt lat="43.66411" lon="1.31877">
        <ele>152.4</ele>
        <time>2023-03-25T08:31:14Z</time>
      </trkpt>
      <trkpt lat="43.66414" lon="1.31861">
        <ele>154.8</ele>
        <time>2023-03-25T08:31:16Z</time>
      </trkpt>
      <trkpt lat="43.66429" lon="1.31788">
        <ele>155.8</ele>
        <time>2023-03-25T08:31:25Z</time>
      </trkpt>
      <trkpt lat="43.66441" lon="1.31729">
        <ele>156.8</ele>
        <time>2023-03-25T08:31:32Z</time>
      </trkpt>
      <trkpt lat="43.66443" lon="1.31721">
        <ele>156.8</ele>
        <time>2023-03-25T08:31:33Z</time>
      </trkpt>
      <trkpt lat="43.66458" lon="1.31646">
        <ele>157.8</ele>
        <time>2023-03-25T08:31:42Z</time>
      </trkpt>
      <trkpt lat="43.66459" lon="1.31638">
        <ele>158</ele>
        <time>2023-03-25T08:31:43Z</time>
      </trkpt>
      <trkpt lat="43.66461" lon="1.3163">
        <ele>158</ele>
        <time>2023-03-25T08:31:44Z</time>
      </trkpt>
      <trkpt lat="43.66476" lon="1.31554">
        <ele>159.2</ele>
        <time>2023-03-25T08:31:54Z</time>
      </trkpt>
      <trkpt lat="43.66484" lon="1.31514">
        <ele>160.4</ele>
        <time>2023-03-25T08:32:00Z</time>
      </trkpt>
      <trkpt lat="43.66486" lon="1.31502">
        <ele>160.6</ele>
        <time>2023-03-25T08:32:02Z</time>
      </trkpt>
      <trkpt lat="43.66488" lon="1.3149">
        <ele>161.4</ele>
        <time>2023-03-25T08:32:04Z</time>
      </trkpt>
      <trkpt lat="43.66493" lon="1.31469">
        <ele>162.2</ele>
        <time>2023-03-25T08:32:08Z</time>
      </trkpt>
      <trkpt lat="43.66496" lon="1.31459">
        <ele>162.6</ele>
        <time>2023-03-25T08:32:10Z</time>
      </trkpt>
      <trkpt lat="43.66501" lon="1.31439">
        <ele>163.6</ele>
        <time>2023-03-25T08:32:14Z</time>
      </trkpt>
      <trkpt lat="43.66505" lon="1.31418">
        <ele>164.8</ele>
        <time>2023-03-25T08:32:18Z</time>
      </trkpt>
      <trkpt lat="43.66508" lon="1.31398">
        <ele>166</ele>
        <time>2023-03-25T08:32:22Z</time>
      </trkpt>
      <trkpt lat="43.66511" lon="1.31377">
        <ele>167</ele>
        <time>2023-03-25T08:32:26Z</time>
      </trkpt>
      <trkpt lat="43.66515" lon="1.31356">
        <ele>168</ele>
        <time>2023-03-25T08:32:30Z</time>
      </trkpt>
      <trkpt lat="43.66516" lon="1.3135">
        <ele>168.4</ele>
        <time>2023-03-25T08:32:31Z</time>
      </trkpt>
      <trkpt lat="43.66522" lon="1.31322">
        <ele>169.6</ele>
        <time>2023-03-25T08:32:36Z</time>
      </trkpt>
      <trkpt lat="43.66527" lon="1.31299">
        <ele>171</ele>
        <time>2023-03-25T08:32:40Z</time>
      </trkpt>
      <trkpt lat="43.66534" lon="1.31271">
        <ele>172</ele>
        <time>2023-03-25T08:32:45Z</time>
      </trkpt>
      <trkpt lat="43.66542" lon="1.31236">
        <ele>173.2</ele>
        <time>2023-03-25T08:32:51Z</time>
      </trkpt>
      <trkpt lat="43.66544" lon="1.31231">
        <ele>173.4</ele>
        <time>2023-03-25T08:32:52Z</time>
      </trkpt>
      <trkpt lat="43.66551" lon="1.312">
        <ele>174.2</ele>
        <time>2023-03-25T08:32:57Z</time>
      </trkpt>
      <trkpt lat="43.66558" lon="1.31168">
        <ele>174.8</ele>
        <time>2023-03-25T08:33:02Z</time>
      </trkpt>
      <trkpt lat="43.66573" lon="1.31097">
        <ele>175.2</ele>
        <time>2023-03-25T08:33:12Z</time>
      </trkpt>
      <trkpt lat="43.6659" lon="1.31022">
        <ele>175.4</ele>
        <time>2023-03-25T08:33:22Z</time>
      </trkpt>
      <trkpt lat="43.66593" lon="1.31007">
        <ele>175.4</ele>
        <time>2023-03-25T08:33:24Z</time>
      </trkpt>
      <trkpt lat="43.66594" lon="1.30992">
        <ele>175.4</ele>
        <time>2023-03-25T08:33:26Z</time>
      </trkpt>
      <trkpt lat="43.66593" lon="1.30976">
        <ele>175.4</ele>
        <time>2023-03-25T08:33:28Z</time>
      </trkpt>
      <trkpt lat="43.66593" lon="1.3096">
        <ele>175.4</ele>
        <time>2023-03-25T08:33:30Z</time>
      </trkpt>
      <trkpt lat="43.66596" lon="1.30948">
        <ele>175.4</ele>
        <time>2023-03-25T08:33:32Z</time>
      </trkpt>
      <trkpt lat="43.66605" lon="1.30936">
        <ele>175.4</ele>
        <time>2023-03-25T08:33:34Z</time>
      </trkpt>
      <trkpt lat="43.66609" lon="1.30932">
        <ele>175.4</ele>
        <time>2023-03-25T08:33:35Z</time>
      </trkpt>
      <trkpt lat="43.66614" lon="1.30927">
        <ele>175.4</ele>
        <time>2023-03-25T08:33:36Z</time>
      </trkpt>
      <trkpt lat="43.66621" lon="1.30914">
        <ele>175.6</ele>
        <time>2023-03-25T08:33:38Z</time>
      </trkpt>
      <trkpt lat="43.66624" lon="1.30907">
        <ele>175.6</ele>
        <time>2023-03-25T08:33:39Z</time>
      </trkpt>
      <trkpt lat="43.66653" lon="1.30837">
        <ele>175.8</ele>
        <time>2023-03-25T08:33:48Z</time>
      </trkpt>
      <trkpt lat="43.66673" lon="1.30787">
        <ele>176</ele>
        <time>2023-03-25T08:33:55Z</time>
      </trkpt>
      <trkpt lat="43.66678" lon="1.30774">
        <ele>176.4</ele>
        <time>2023-03-25T08:33:57Z</time>
      </trkpt>
      <trkpt lat="43.66693" lon="1.30735">
        <ele>177.4</ele>
        <time>2023-03-25T08:34:03Z</time>
      </trkpt>
      <trkpt lat="43.6671" lon="1.30693">
        <ele>178.6</ele>
        <time>2023-03-25T08:34:09Z</time>
      </trkpt>
      <trkpt lat="43.66715" lon="1.3068">
        <ele>178.8</ele>
        <time>2023-03-25T08:34:11Z</time>
      </trkpt>
      <trkpt lat="43.66741" lon="1.30615">
        <ele>179.8</ele>
        <time>2023-03-25T08:34:21Z</time>
      </trkpt>
      <trkpt lat="43.66746" lon="1.306">
        <ele>180.2</ele>
        <time>2023-03-25T08:34:23Z</time>
      </trkpt>
      <trkpt lat="43.66754" lon="1.3058">
        <ele>181</ele>
        <time>2023-03-25T08:34:26Z</time>
      </trkpt>
      <trkpt lat="43.66772" lon="1.30538">
        <ele>182.2</ele>
        <time>2023-03-25T08:34:32Z</time>
      </trkpt>
      <trkpt lat="43.66775" lon="1.3053">
        <ele>182.4</ele>
        <time>2023-03-25T08:34:33Z</time>
      </trkpt>
      <trkpt lat="43.66802" lon="1.30462">
        <ele>182.8</ele>
        <time>2023-03-25T08:34:42Z</time>
      </trkpt>
      <trkpt lat="43.66806" lon="1.30454">
        <ele>182.8</ele>
        <time>2023-03-25T08:34:43Z</time>
      </trkpt>
      <trkpt lat="43.66833" lon="1.30383">
        <ele>182.8</ele>
        <time>2023-03-25T08:34:52Z</time>
      </trkpt>
      <trkpt lat="43.66836" lon="1.30375">
        <ele>182.8</ele>
        <time>2023-03-25T08:34:53Z</time>
      </trkpt>
      <trkpt lat="43.66862" lon="1.30308">
        <ele>182.8</ele>
        <time>2023-03-25T08:35:01Z</time>
      </trkpt>
      <trkpt lat="43.66869" lon="1.30292">
        <ele>182.8</ele>
        <time>2023-03-25T08:35:03Z</time>
      </trkpt>
      <trkpt lat="43.66897" lon="1.30225">
        <ele>182.6</ele>
        <time>2023-03-25T08:35:11Z</time>
      </trkpt>
      <trkpt lat="43.66904" lon="1.30208">
        <ele>182.4</ele>
        <time>2023-03-25T08:35:13Z</time>
      </trkpt>
      <trkpt lat="43.66929" lon="1.30153">
        <ele>181.2</ele>
        <time>2023-03-25T08:35:19Z</time>
      </trkpt>
      <trkpt lat="43.66938" lon="1.30134">
        <ele>180.6</ele>
        <time>2023-03-25T08:35:21Z</time>
      </trkpt>
      <trkpt lat="43.66949" lon="1.30116">
        <ele>180.2</ele>
        <time>2023-03-25T08:35:23Z</time>
      </trkpt>
      <trkpt lat="43.66953" lon="1.30106">
        <ele>179.8</ele>
        <time>2023-03-25T08:35:24Z</time>
      </trkpt>
      <trkpt lat="43.66962" lon="1.30086">
        <ele>178.8</ele>
        <time>2023-03-25T08:35:26Z</time>
      </trkpt>
      <trkpt lat="43.66979" lon="1.30045">
        <ele>177.4</ele>
        <time>2023-03-25T08:35:30Z</time>
      </trkpt>
      <trkpt lat="43.66999" lon="1.29995">
        <ele>176.2</ele>
        <time>2023-03-25T08:35:35Z</time>
      </trkpt>
      <trkpt lat="43.67007" lon="1.29976">
        <ele>176</ele>
        <time>2023-03-25T08:35:37Z</time>
      </trkpt>
      <trkpt lat="43.67036" lon="1.29906">
        <ele>175.8</ele>
        <time>2023-03-25T08:35:45Z</time>
      </trkpt>
      <trkpt lat="43.67062" lon="1.29833">
        <ele>176.8</ele>
        <time>2023-03-25T08:35:54Z</time>
      </trkpt>
      <trkpt lat="43.6707" lon="1.29806">
        <ele>177.2</ele>
        <time>2023-03-25T08:35:58Z</time>
      </trkpt>
      <trkpt lat="43.67071" lon="1.29798">
        <ele>177.2</ele>
        <time>2023-03-25T08:35:59Z</time>
      </trkpt>
      <trkpt lat="43.6707" lon="1.29793">
        <ele>177.4</ele>
        <time>2023-03-25T08:36:00Z</time>
      </trkpt>
      <trkpt lat="43.67069" lon="1.29776">
        <ele>177.6</ele>
        <time>2023-03-25T08:36:02Z</time>
      </trkpt>
      <trkpt lat="43.67069" lon="1.29761">
        <ele>177.6</ele>
        <time>2023-03-25T08:36:04Z</time>
      </trkpt>
      <trkpt lat="43.67069" lon="1.29723">
        <ele>178.6</ele>
        <time>2023-03-25T08:36:09Z</time>
      </trkpt>
      <trkpt lat="43.67068" lon="1.29708">
        <ele>179</ele>
        <time>2023-03-25T08:36:11Z</time>
      </trkpt>
      <trkpt lat="43.67059" lon="1.29647">
        <ele>179.6</ele>
        <time>2023-03-25T08:36:19Z</time>
      </trkpt>
      <trkpt lat="43.67057" lon="1.2964">
        <ele>179.6</ele>
        <time>2023-03-25T08:36:20Z</time>
      </trkpt>
      <trkpt lat="43.67042" lon="1.2959">
        <ele>180.6</ele>
        <time>2023-03-25T08:36:27Z</time>
      </trkpt>
      <trkpt lat="43.6704" lon="1.29584">
        <ele>180.8</ele>
        <time>2023-03-25T08:36:28Z</time>
      </trkpt>
      <trkpt lat="43.67023" lon="1.29542">
        <ele>181.6</ele>
        <time>2023-03-25T08:36:34Z</time>
      </trkpt>
      <trkpt lat="43.67016" lon="1.29529">
        <ele>181.8</ele>
        <time>2023-03-25T08:36:36Z</time>
      </trkpt>
      <trkpt lat="43.66988" lon="1.29467">
        <ele>182.2</ele>
        <time>2023-03-25T08:36:45Z</time>
      </trkpt>
      <trkpt lat="43.66959" lon="1.29403">
        <ele>182.2</ele>
        <time>2023-03-25T08:36:54Z</time>
      </trkpt>
      <trkpt lat="43.66959" lon="1.29403">
        <ele>182.4</ele>
        <time>2023-03-25T08:36:55Z</time>
      </trkpt>
      <trkpt lat="43.66939" lon="1.29361">
        <ele>182.8</ele>
        <time>2023-03-25T08:37:00Z</time>
      </trkpt>
      <trkpt lat="43.66923" lon="1.29319">
        <ele>182.6</ele>
        <time>2023-03-25T08:37:05Z</time>
      </trkpt>
      <trkpt lat="43.66909" lon="1.29268">
        <ele>181.8</ele>
        <time>2023-03-25T08:37:10Z</time>
      </trkpt>
      <trkpt lat="43.66907" lon="1.29257">
        <ele>181.8</ele>
        <time>2023-03-25T08:37:11Z</time>
      </trkpt>
      <trkpt lat="43.66903" lon="1.29218">
        <ele>180.2</ele>
        <time>2023-03-25T08:37:15Z</time>
      </trkpt>
      <trkpt lat="43.66904" lon="1.29207">
        <ele>178.8</ele>
        <time>2023-03-25T08:37:18Z</time>
      </trkpt>
      <trkpt lat="43.66905" lon="1.29201">
        <ele>178.2</ele>
        <time>2023-03-25T08:37:19Z</time>
      </trkpt>
      <trkpt lat="43.66904" lon="1.29198">
        <ele>177.8</ele>
        <time>2023-03-25T08:37:20Z</time>
      </trkpt>
      <trkpt lat="43.66904" lon="1.29194">
        <ele>177.4</ele>
        <time>2023-03-25T08:37:21Z</time>
      </trkpt>
      <trkpt lat="43.66905" lon="1.2919">
        <ele>176.6</ele>
        <time>2023-03-25T08:37:23Z</time>
      </trkpt>
      <trkpt lat="43.66906" lon="1.29185">
        <ele>176</ele>
        <time>2023-03-25T08:37:25Z</time>
      </trkpt>
      <trkpt lat="43.66904" lon="1.29168">
        <ele>175.6</ele>
        <time>2023-03-25T08:37:29Z</time>
      </trkpt>
      <trkpt lat="43.66903" lon="1.29144">
        <ele>175.6</ele>
        <time>2023-03-25T08:37:34Z</time>
      </trkpt>
      <trkpt lat="43.66899" lon="1.29131">
        <ele>175.6</ele>
        <time>2023-03-25T08:37:36Z</time>
      </trkpt>
      <trkpt lat="43.66898" lon="1.29124">
        <ele>175.6</ele>
        <time>2023-03-25T08:37:37Z</time>
      </trkpt>
      <trkpt lat="43.66892" lon="1.29108">
        <ele>175.4</ele>
        <time>2023-03-25T08:37:39Z</time>
      </trkpt>
      <trkpt lat="43.66872" lon="1.29062">
        <ele>174.8</ele>
        <time>2023-03-25T08:37:45Z</time>
      </trkpt>
      <trkpt lat="43.66865" lon="1.29046">
        <ele>174.2</ele>
        <time>2023-03-25T08:37:47Z</time>
      </trkpt>
      <trkpt lat="43.66854" lon="1.2902">
        <ele>173.6</ele>
        <time>2023-03-25T08:37:50Z</time>
      </trkpt>
      <trkpt lat="43.66845" lon="1.29002">
        <ele>173.2</ele>
        <time>2023-03-25T08:37:52Z</time>
      </trkpt>
      <trkpt lat="43.66824" lon="1.28957">
        <ele>172</ele>
        <time>2023-03-25T08:37:57Z</time>
      </trkpt>
      <trkpt lat="43.668" lon="1.28905">
        <ele>170.8</ele>
        <time>2023-03-25T08:38:03Z</time>
      </trkpt>
      <trkpt lat="43.66786" lon="1.28873">
        <ele>170.6</ele>
        <time>2023-03-25T08:38:07Z</time>
      </trkpt>
      <trkpt lat="43.66783" lon="1.28866">
        <ele>170.6</ele>
        <time>2023-03-25T08:38:08Z</time>
      </trkpt>
      <trkpt lat="43.6678" lon="1.28853">
        <ele>170.4</ele>
        <time>2023-03-25T08:38:10Z</time>
      </trkpt>
      <trkpt lat="43.66779" lon="1.28847">
        <ele>170.4</ele>
        <time>2023-03-25T08:38:11Z</time>
      </trkpt>
      <trkpt lat="43.66775" lon="1.2884">
        <ele>170.2</ele>
        <time>2023-03-25T08:38:13Z</time>
      </trkpt>
      <trkpt lat="43.66765" lon="1.28818">
        <ele>170.4</ele>
        <time>2023-03-25T08:38:19Z</time>
      </trkpt>
      <trkpt lat="43.66762" lon="1.28811">
        <ele>171.2</ele>
        <time>2023-03-25T08:38:22Z</time>
      </trkpt>
      <trkpt lat="43.66761" lon="1.28811">
        <ele>171.2</ele>
        <time>2023-03-25T08:38:23Z</time>
      </trkpt>
      <trkpt lat="43.66759" lon="1.28809">
        <ele>171.6</ele>
        <time>2023-03-25T08:38:24Z</time>
      </trkpt>
      <trkpt lat="43.66758" lon="1.28806">
        <ele>171.8</ele>
        <time>2023-03-25T08:38:25Z</time>
      </trkpt>
      <trkpt lat="43.66757" lon="1.28803">
        <ele>172</ele>
        <time>2023-03-25T08:38:26Z</time>
      </trkpt>
      <trkpt lat="43.66752" lon="1.28783">
        <ele>172.8</ele>
        <time>2023-03-25T08:38:31Z</time>
      </trkpt>
      <trkpt lat="43.66751" lon="1.28778">
        <ele>173</ele>
        <time>2023-03-25T08:38:32Z</time>
      </trkpt>
      <trkpt lat="43.66744" lon="1.28762">
        <ele>174.2</ele>
        <time>2023-03-25T08:38:36Z</time>
      </trkpt>
      <trkpt lat="43.66737" lon="1.28746">
        <ele>175.4</ele>
        <time>2023-03-25T08:38:40Z</time>
      </trkpt>
      <trkpt lat="43.6673" lon="1.28734">
        <ele>176.4</ele>
        <time>2023-03-25T08:38:43Z</time>
      </trkpt>
      <trkpt lat="43.66723" lon="1.28721">
        <ele>177.4</ele>
        <time>2023-03-25T08:38:46Z</time>
      </trkpt>
      <trkpt lat="43.66721" lon="1.28717">
        <ele>177.6</ele>
        <time>2023-03-25T08:38:47Z</time>
      </trkpt>
      <trkpt lat="43.66716" lon="1.28705">
        <ele>178.8</ele>
        <time>2023-03-25T08:38:50Z</time>
      </trkpt>
      <trkpt lat="43.66709" lon="1.28693">
        <ele>180</ele>
        <time>2023-03-25T08:38:53Z</time>
      </trkpt>
      <trkpt lat="43.66701" lon="1.28681">
        <ele>181.2</ele>
        <time>2023-03-25T08:38:56Z</time>
      </trkpt>
      <trkpt lat="43.66687" lon="1.28667">
        <ele>181.8</ele>
        <time>2023-03-25T08:39:00Z</time>
      </trkpt>
      <trkpt lat="43.6668" lon="1.28661">
        <ele>182.2</ele>
        <time>2023-03-25T08:39:02Z</time>
      </trkpt>
      <trkpt lat="43.66661" lon="1.2865">
        <ele>183.2</ele>
        <time>2023-03-25T08:39:06Z</time>
      </trkpt>
      <trkpt lat="43.66656" lon="1.28648">
        <ele>183.2</ele>
        <time>2023-03-25T08:39:07Z</time>
      </trkpt>
      <trkpt lat="43.66629" lon="1.28638">
        <ele>183.4</ele>
        <time>2023-03-25T08:39:12Z</time>
      </trkpt>
      <trkpt lat="43.66583" lon="1.28621">
        <ele>182.8</ele>
        <time>2023-03-25T08:39:21Z</time>
      </trkpt>
      <trkpt lat="43.66565" lon="1.28607">
        <ele>182.2</ele>
        <time>2023-03-25T08:39:25Z</time>
      </trkpt>
      <trkpt lat="43.66557" lon="1.28598">
        <ele>182</ele>
        <time>2023-03-25T08:39:27Z</time>
      </trkpt>
      <trkpt lat="43.66538" lon="1.2856">
        <ele>181.6</ele>
        <time>2023-03-25T08:39:33Z</time>
      </trkpt>
      <trkpt lat="43.66536" lon="1.28553">
        <ele>181.4</ele>
        <time>2023-03-25T08:39:34Z</time>
      </trkpt>
      <trkpt lat="43.6653" lon="1.28514">
        <ele>181.4</ele>
        <time>2023-03-25T08:39:39Z</time>
      </trkpt>
      <trkpt lat="43.66533" lon="1.28466">
        <ele>182</ele>
        <time>2023-03-25T08:39:45Z</time>
      </trkpt>
      <trkpt lat="43.66538" lon="1.28403">
        <ele>182.8</ele>
        <time>2023-03-25T08:39:53Z</time>
      </trkpt>
      <trkpt lat="43.66536" lon="1.28381">
        <ele>183.2</ele>
        <time>2023-03-25T08:39:56Z</time>
      </trkpt>
      <trkpt lat="43.66535" lon="1.28374">
        <ele>183.4</ele>
        <time>2023-03-25T08:39:57Z</time>
      </trkpt>
      <trkpt lat="43.66534" lon="1.28371">
        <ele>183.4</ele>
        <time>2023-03-25T08:39:58Z</time>
      </trkpt>
      <trkpt lat="43.66534" lon="1.28366">
        <ele>183.6</ele>
        <time>2023-03-25T08:39:59Z</time>
      </trkpt>
      <trkpt lat="43.66536" lon="1.28363">
        <ele>183.6</ele>
        <time>2023-03-25T08:40:00Z</time>
      </trkpt>
      <trkpt lat="43.66542" lon="1.28343">
        <ele>183.8</ele>
        <time>2023-03-25T08:40:05Z</time>
      </trkpt>
      <trkpt lat="43.66541" lon="1.2834">
        <ele>183.8</ele>
        <time>2023-03-25T08:40:06Z</time>
      </trkpt>
      <trkpt lat="43.6654" lon="1.28333">
        <ele>183.8</ele>
        <time>2023-03-25T08:40:08Z</time>
      </trkpt>
      <trkpt lat="43.66545" lon="1.28311">
        <ele>183.8</ele>
        <time>2023-03-25T08:40:12Z</time>
      </trkpt>
      <trkpt lat="43.66549" lon="1.28268">
        <ele>184</ele>
        <time>2023-03-25T08:40:18Z</time>
      </trkpt>
      <trkpt lat="43.66551" lon="1.28238">
        <ele>184.4</ele>
        <time>2023-03-25T08:40:22Z</time>
      </trkpt>
      <trkpt lat="43.66552" lon="1.28198">
        <ele>185.2</ele>
        <time>2023-03-25T08:40:27Z</time>
      </trkpt>
      <trkpt lat="43.66554" lon="1.28122">
        <ele>185</ele>
        <time>2023-03-25T08:40:36Z</time>
      </trkpt>
      <trkpt lat="43.66554" lon="1.28114">
        <ele>185</ele>
        <time>2023-03-25T08:40:37Z</time>
      </trkpt>
      <trkpt lat="43.6656" lon="1.28045">
        <ele>185.2</ele>
        <time>2023-03-25T08:40:45Z</time>
      </trkpt>
      <trkpt lat="43.66561" lon="1.28036">
        <ele>185.6</ele>
        <time>2023-03-25T08:40:46Z</time>
      </trkpt>
      <trkpt lat="43.66563" lon="1.27976">
        <ele>186.2</ele>
        <time>2023-03-25T08:40:53Z</time>
      </trkpt>
      <trkpt lat="43.66563" lon="1.27961">
        <ele>186</ele>
        <time>2023-03-25T08:40:55Z</time>
      </trkpt>
      <trkpt lat="43.6656" lon="1.27884">
        <ele>186.6</ele>
        <time>2023-03-25T08:41:04Z</time>
      </trkpt>
      <trkpt lat="43.6656" lon="1.27874">
        <ele>187</ele>
        <time>2023-03-25T08:41:05Z</time>
      </trkpt>
      <trkpt lat="43.66559" lon="1.27856">
        <ele>187.2</ele>
        <time>2023-03-25T08:41:07Z</time>
      </trkpt>
      <trkpt lat="43.66555" lon="1.27774">
        <ele>186.8</ele>
        <time>2023-03-25T08:41:16Z</time>
      </trkpt>
      <trkpt lat="43.66555" lon="1.27765">
        <ele>186.8</ele>
        <time>2023-03-25T08:41:17Z</time>
      </trkpt>
      <trkpt lat="43.66552" lon="1.27682">
        <ele>186.6</ele>
        <time>2023-03-25T08:41:26Z</time>
      </trkpt>
      <trkpt lat="43.66551" lon="1.27664">
        <ele>186.6</ele>
        <time>2023-03-25T08:41:28Z</time>
      </trkpt>
      <trkpt lat="43.66548" lon="1.27602">
        <ele>186.6</ele>
        <time>2023-03-25T08:41:35Z</time>
      </trkpt>
      <trkpt lat="43.66547" lon="1.27525">
        <ele>186.4</ele>
        <time>2023-03-25T08:41:44Z</time>
      </trkpt>
      <trkpt lat="43.66546" lon="1.27514">
        <ele>186.4</ele>
        <time>2023-03-25T08:41:45Z</time>
      </trkpt>
      <trkpt lat="43.66544" lon="1.27432">
        <ele>186.4</ele>
        <time>2023-03-25T08:41:54Z</time>
      </trkpt>
      <trkpt lat="43.66541" lon="1.2735">
        <ele>186.4</ele>
        <time>2023-03-25T08:42:03Z</time>
      </trkpt>
      <trkpt lat="43.66539" lon="1.27305">
        <ele>186.4</ele>
        <time>2023-03-25T08:42:08Z</time>
      </trkpt>
      <trkpt lat="43.66537" lon="1.27226">
        <ele>187</ele>
        <time>2023-03-25T08:42:17Z</time>
      </trkpt>
      <trkpt lat="43.66537" lon="1.27208">
        <ele>187</ele>
        <time>2023-03-25T08:42:19Z</time>
      </trkpt>
      <trkpt lat="43.66545" lon="1.27147">
        <ele>186.8</ele>
        <time>2023-03-25T08:42:26Z</time>
      </trkpt>
      <trkpt lat="43.66556" lon="1.27087">
        <ele>187</ele>
        <time>2023-03-25T08:42:33Z</time>
      </trkpt>
      <trkpt lat="43.66556" lon="1.27071">
        <ele>186.8</ele>
        <time>2023-03-25T08:42:35Z</time>
      </trkpt>
      <trkpt lat="43.66555" lon="1.27056">
        <ele>186.8</ele>
        <time>2023-03-25T08:42:37Z</time>
      </trkpt>
      <trkpt lat="43.66551" lon="1.27041">
        <ele>186.8</ele>
        <time>2023-03-25T08:42:39Z</time>
      </trkpt>
      <trkpt lat="43.66549" lon="1.27035">
        <ele>186.8</ele>
        <time>2023-03-25T08:42:40Z</time>
      </trkpt>
      <trkpt lat="43.66544" lon="1.27026">
        <ele>186.6</ele>
        <time>2023-03-25T08:42:42Z</time>
      </trkpt>
      <trkpt lat="43.66537" lon="1.27012">
        <ele>186.4</ele>
        <time>2023-03-25T08:42:45Z</time>
      </trkpt>
      <trkpt lat="43.66536" lon="1.27">
        <ele>186.4</ele>
        <time>2023-03-25T08:42:47Z</time>
      </trkpt>
      <trkpt lat="43.66536" lon="1.26954">
        <ele>186.4</ele>
        <time>2023-03-25T08:42:54Z</time>
      </trkpt>
      <trkpt lat="43.66535" lon="1.2694">
        <ele>186.4</ele>
        <time>2023-03-25T08:42:56Z</time>
      </trkpt>
      <trkpt lat="43.66537" lon="1.26912">
        <ele>186.4</ele>
        <time>2023-03-25T08:43:00Z</time>
      </trkpt>
      <trkpt lat="43.66537" lon="1.26875">
        <ele>186.6</ele>
        <time>2023-03-25T08:43:05Z</time>
      </trkpt>
      <trkpt lat="43.66538" lon="1.26864">
        <ele>186.8</ele>
        <time>2023-03-25T08:43:07Z</time>
      </trkpt>
      <trkpt lat="43.66537" lon="1.26858">
        <ele>186.8</ele>
        <time>2023-03-25T08:43:08Z</time>
      </trkpt>
      <trkpt lat="43.66534" lon="1.26844">
        <ele>186.8</ele>
        <time>2023-03-25T08:43:10Z</time>
      </trkpt>
      <trkpt lat="43.66535" lon="1.2683">
        <ele>187</ele>
        <time>2023-03-25T08:43:12Z</time>
      </trkpt>
      <trkpt lat="43.66536" lon="1.26807">
        <ele>187</ele>
        <time>2023-03-25T08:43:15Z</time>
      </trkpt>
      <trkpt lat="43.66535" lon="1.26751">
        <ele>186.8</ele>
        <time>2023-03-25T08:43:22Z</time>
      </trkpt>
      <trkpt lat="43.66535" lon="1.26742">
        <ele>186.6</ele>
        <time>2023-03-25T08:43:23Z</time>
      </trkpt>
      <trkpt lat="43.66534" lon="1.26725">
        <ele>186.6</ele>
        <time>2023-03-25T08:43:25Z</time>
      </trkpt>
      <trkpt lat="43.66533" lon="1.26716">
        <ele>186.8</ele>
        <time>2023-03-25T08:43:26Z</time>
      </trkpt>
      <trkpt lat="43.66533" lon="1.26707">
        <ele>187</ele>
        <time>2023-03-25T08:43:27Z</time>
      </trkpt>
      <trkpt lat="43.6653" lon="1.26689">
        <ele>187.4</ele>
        <time>2023-03-25T08:43:29Z</time>
      </trkpt>
      <trkpt lat="43.66528" lon="1.26671">
        <ele>187.4</ele>
        <time>2023-03-25T08:43:31Z</time>
      </trkpt>
      <trkpt lat="43.66527" lon="1.26663">
        <ele>187.4</ele>
        <time>2023-03-25T08:43:32Z</time>
      </trkpt>
      <trkpt lat="43.66526" lon="1.2664">
        <ele>187.6</ele>
        <time>2023-03-25T08:43:35Z</time>
      </trkpt>
      <trkpt lat="43.66524" lon="1.26632">
        <ele>187.6</ele>
        <time>2023-03-25T08:43:36Z</time>
      </trkpt>
      <trkpt lat="43.66514" lon="1.26579">
        <ele>187.8</ele>
        <time>2023-03-25T08:43:41Z</time>
      </trkpt>
      <trkpt lat="43.66512" lon="1.2657">
        <ele>187.8</ele>
        <time>2023-03-25T08:43:42Z</time>
      </trkpt>
      <trkpt lat="43.66511" lon="1.2656">
        <ele>187.8</ele>
        <time>2023-03-25T08:43:43Z</time>
      </trkpt>
      <trkpt lat="43.6651" lon="1.2653">
        <ele>187.6</ele>
        <time>2023-03-25T08:43:46Z</time>
      </trkpt>
      <trkpt lat="43.66509" lon="1.26521">
        <ele>187.6</ele>
        <time>2023-03-25T08:43:47Z</time>
      </trkpt>
      <trkpt lat="43.66505" lon="1.26502">
        <ele>187.8</ele>
        <time>2023-03-25T08:43:49Z</time>
      </trkpt>
      <trkpt lat="43.66502" lon="1.26482">
        <ele>187.4</ele>
        <time>2023-03-25T08:43:51Z</time>
      </trkpt>
      <trkpt lat="43.66503" lon="1.26471">
        <ele>187.4</ele>
        <time>2023-03-25T08:43:52Z</time>
      </trkpt>
      <trkpt lat="43.66498" lon="1.26419">
        <ele>187.2</ele>
        <time>2023-03-25T08:43:58Z</time>
      </trkpt>
      <trkpt lat="43.66497" lon="1.2641">
        <ele>187.2</ele>
        <time>2023-03-25T08:43:59Z</time>
      </trkpt>
      <trkpt lat="43.66493" lon="1.26383">
        <ele>187.2</ele>
        <time>2023-03-25T08:44:02Z</time>
      </trkpt>
      <trkpt lat="43.66485" lon="1.26311">
        <ele>187.6</ele>
        <time>2023-03-25T08:44:10Z</time>
      </trkpt>
      <trkpt lat="43.66481" lon="1.26285">
        <ele>187.4</ele>
        <time>2023-03-25T08:44:13Z</time>
      </trkpt>
      <trkpt lat="43.66475" lon="1.26268">
        <ele>187.4</ele>
        <time>2023-03-25T08:44:15Z</time>
      </trkpt>
      <trkpt lat="43.66459" lon="1.26233">
        <ele>187.4</ele>
        <time>2023-03-25T08:44:20Z</time>
      </trkpt>
      <trkpt lat="43.66452" lon="1.2622">
        <ele>187.4</ele>
        <time>2023-03-25T08:44:22Z</time>
      </trkpt>
      <trkpt lat="43.66449" lon="1.26212">
        <ele>187.4</ele>
        <time>2023-03-25T08:44:23Z</time>
      </trkpt>
      <trkpt lat="43.66424" lon="1.26164">
        <ele>188</ele>
        <time>2023-03-25T08:44:30Z</time>
      </trkpt>
      <trkpt lat="43.66408" lon="1.26132">
        <ele>188</ele>
        <time>2023-03-25T08:44:35Z</time>
      </trkpt>
      <trkpt lat="43.66375" lon="1.26075">
        <ele>187.2</ele>
        <time>2023-03-25T08:44:43Z</time>
      </trkpt>
      <trkpt lat="43.66368" lon="1.26061">
        <ele>187</ele>
        <time>2023-03-25T08:44:45Z</time>
      </trkpt>
      <trkpt lat="43.66353" lon="1.26032">
        <ele>187</ele>
        <time>2023-03-25T08:44:49Z</time>
      </trkpt>
      <trkpt lat="43.66327" lon="1.25986">
        <ele>187.4</ele>
        <time>2023-03-25T08:44:55Z</time>
      </trkpt>
      <trkpt lat="43.66299" lon="1.2594">
        <ele>187.4</ele>
        <time>2023-03-25T08:45:01Z</time>
      </trkpt>
      <trkpt lat="43.6629" lon="1.25924">
        <ele>187.4</ele>
        <time>2023-03-25T08:45:03Z</time>
      </trkpt>
      <trkpt lat="43.66278" lon="1.25902">
        <ele>187.4</ele>
        <time>2023-03-25T08:45:06Z</time>
      </trkpt>
      <trkpt lat="43.6624" lon="1.2584">
        <ele>187.4</ele>
        <time>2023-03-25T08:45:14Z</time>
      </trkpt>
      <trkpt lat="43.66208" lon="1.25781">
        <ele>187.6</ele>
        <time>2023-03-25T08:45:22Z</time>
      </trkpt>
      <trkpt lat="43.66175" lon="1.25721">
        <ele>187.8</ele>
        <time>2023-03-25T08:45:30Z</time>
      </trkpt>
      <trkpt lat="43.66171" lon="1.25714">
        <ele>187.8</ele>
        <time>2023-03-25T08:45:31Z</time>
      </trkpt>
      <trkpt lat="43.66135" lon="1.25649">
        <ele>187.8</ele>
        <time>2023-03-25T08:45:40Z</time>
      </trkpt>
      <trkpt lat="43.6611" lon="1.25604">
        <ele>187.4</ele>
        <time>2023-03-25T08:45:46Z</time>
      </trkpt>
      <trkpt lat="43.66101" lon="1.25591">
        <ele>187.2</ele>
        <time>2023-03-25T08:45:48Z</time>
      </trkpt>
      <trkpt lat="43.66077" lon="1.25548">
        <ele>187</ele>
        <time>2023-03-25T08:45:54Z</time>
      </trkpt>
      <trkpt lat="43.66074" lon="1.25541">
        <ele>187</ele>
        <time>2023-03-25T08:45:55Z</time>
      </trkpt>
      <trkpt lat="43.66062" lon="1.25519">
        <ele>187.4</ele>
        <time>2023-03-25T08:45:58Z</time>
      </trkpt>
      <trkpt lat="43.66059" lon="1.25511">
        <ele>187.6</ele>
        <time>2023-03-25T08:45:59Z</time>
      </trkpt>
      <trkpt lat="43.66035" lon="1.25467">
        <ele>187.6</ele>
        <time>2023-03-25T08:46:05Z</time>
      </trkpt>
      <trkpt lat="43.66019" lon="1.25438">
        <ele>187.6</ele>
        <time>2023-03-25T08:46:09Z</time>
      </trkpt>
      <trkpt lat="43.66015" lon="1.25431">
        <ele>187.6</ele>
        <time>2023-03-25T08:46:10Z</time>
      </trkpt>
      <trkpt lat="43.65982" lon="1.2537">
        <ele>187.6</ele>
        <time>2023-03-25T08:46:18Z</time>
      </trkpt>
      <trkpt lat="43.65977" lon="1.25363">
        <ele>187.6</ele>
        <time>2023-03-25T08:46:19Z</time>
      </trkpt>
      <trkpt lat="43.65968" lon="1.25348">
        <ele>187.6</ele>
        <time>2023-03-25T08:46:21Z</time>
      </trkpt>
      <trkpt lat="43.65955" lon="1.25325">
        <ele>187.8</ele>
        <time>2023-03-25T08:46:24Z</time>
      </trkpt>
      <trkpt lat="43.65922" lon="1.25264">
        <ele>188.4</ele>
        <time>2023-03-25T08:46:32Z</time>
      </trkpt>
      <trkpt lat="43.65888" lon="1.25203">
        <ele>188.6</ele>
        <time>2023-03-25T08:46:40Z</time>
      </trkpt>
      <trkpt lat="43.6588" lon="1.25188">
        <ele>188.4</ele>
        <time>2023-03-25T08:46:42Z</time>
      </trkpt>
      <trkpt lat="43.65852" lon="1.25138">
        <ele>188.4</ele>
        <time>2023-03-25T08:46:49Z</time>
      </trkpt>
      <trkpt lat="43.65818" lon="1.25074">
        <ele>188.6</ele>
        <time>2023-03-25T08:46:58Z</time>
      </trkpt>
      <trkpt lat="43.65814" lon="1.25067">
        <ele>188.6</ele>
        <time>2023-03-25T08:46:59Z</time>
      </trkpt>
      <trkpt lat="43.65794" lon="1.25028">
        <ele>189.4</ele>
        <time>2023-03-25T08:47:05Z</time>
      </trkpt>
      <trkpt lat="43.65791" lon="1.25015">
        <ele>189.4</ele>
        <time>2023-03-25T08:47:07Z</time>
      </trkpt>
      <trkpt lat="43.65791" lon="1.25009">
        <ele>189.4</ele>
        <time>2023-03-25T08:47:08Z</time>
      </trkpt>
      <trkpt lat="43.65793" lon="1.25003">
        <ele>189.6</ele>
        <time>2023-03-25T08:47:09Z</time>
      </trkpt>
      <trkpt lat="43.65797" lon="1.24988">
        <ele>189.8</ele>
        <time>2023-03-25T08:47:11Z</time>
      </trkpt>
      <trkpt lat="43.658" lon="1.24981">
        <ele>189.8</ele>
        <time>2023-03-25T08:47:12Z</time>
      </trkpt>
      <trkpt lat="43.65819" lon="1.24926">
        <ele>190</ele>
        <time>2023-03-25T08:47:19Z</time>
      </trkpt>
      <trkpt lat="43.65842" lon="1.24863">
        <ele>190.6</ele>
        <time>2023-03-25T08:47:27Z</time>
      </trkpt>
      <trkpt lat="43.65847" lon="1.24848">
        <ele>191</ele>
        <time>2023-03-25T08:47:29Z</time>
      </trkpt>
      <trkpt lat="43.65852" lon="1.24834">
        <ele>191.2</ele>
        <time>2023-03-25T08:47:31Z</time>
      </trkpt>
      <trkpt lat="43.65855" lon="1.24826">
        <ele>191.2</ele>
        <time>2023-03-25T08:47:32Z</time>
      </trkpt>
      <trkpt lat="43.65867" lon="1.2479">
        <ele>192</ele>
        <time>2023-03-25T08:47:37Z</time>
      </trkpt>
      <trkpt lat="43.6587" lon="1.24782">
        <ele>192.2</ele>
        <time>2023-03-25T08:47:38Z</time>
      </trkpt>
      <trkpt lat="43.6588" lon="1.24751">
        <ele>193.2</ele>
        <time>2023-03-25T08:47:42Z</time>
      </trkpt>
      <trkpt lat="43.65891" lon="1.24712">
        <ele>193.6</ele>
        <time>2023-03-25T08:47:47Z</time>
      </trkpt>
      <trkpt lat="43.65915" lon="1.24641">
        <ele>194.2</ele>
        <time>2023-03-25T08:47:56Z</time>
      </trkpt>
      <trkpt lat="43.65918" lon="1.24633">
        <ele>194.2</ele>
        <time>2023-03-25T08:47:57Z</time>
      </trkpt>
      <trkpt lat="43.65939" lon="1.24569">
        <ele>194.8</ele>
        <time>2023-03-25T08:48:05Z</time>
      </trkpt>
      <trkpt lat="43.65963" lon="1.24494">
        <ele>194.8</ele>
        <time>2023-03-25T08:48:14Z</time>
      </trkpt>
      <trkpt lat="43.65982" lon="1.24434">
        <ele>194.6</ele>
        <time>2023-03-25T08:48:21Z</time>
      </trkpt>
      <trkpt lat="43.66005" lon="1.24368">
        <ele>194.2</ele>
        <time>2023-03-25T08:48:29Z</time>
      </trkpt>
      <trkpt lat="43.66026" lon="1.24301">
        <ele>194.2</ele>
        <time>2023-03-25T08:48:37Z</time>
      </trkpt>
      <trkpt lat="43.6605" lon="1.24228">
        <ele>194.4</ele>
        <time>2023-03-25T08:48:46Z</time>
      </trkpt>
      <trkpt lat="43.66056" lon="1.24211">
        <ele>194.6</ele>
        <time>2023-03-25T08:48:48Z</time>
      </trkpt>
      <trkpt lat="43.6608" lon="1.24135">
        <ele>194.6</ele>
        <time>2023-03-25T08:48:57Z</time>
      </trkpt>
      <trkpt lat="43.66089" lon="1.24108">
        <ele>194.6</ele>
        <time>2023-03-25T08:49:00Z</time>
      </trkpt>
      <trkpt lat="43.6611" lon="1.24046">
        <ele>194.4</ele>
        <time>2023-03-25T08:49:07Z</time>
      </trkpt>
      <trkpt lat="43.66122" lon="1.2401">
        <ele>194.6</ele>
        <time>2023-03-25T08:49:11Z</time>
      </trkpt>
      <trkpt lat="43.66126" lon="1.23991">
        <ele>194.2</ele>
        <time>2023-03-25T08:49:13Z</time>
      </trkpt>
      <trkpt lat="43.66131" lon="1.23935">
        <ele>194</ele>
        <time>2023-03-25T08:49:19Z</time>
      </trkpt>
      <trkpt lat="43.66138" lon="1.23861">
        <ele>193.6</ele>
        <time>2023-03-25T08:49:27Z</time>
      </trkpt>
      <trkpt lat="43.66143" lon="1.23825">
        <ele>193</ele>
        <time>2023-03-25T08:49:31Z</time>
      </trkpt>
      <trkpt lat="43.66146" lon="1.23792">
        <ele>192</ele>
        <time>2023-03-25T08:49:35Z</time>
      </trkpt>
      <trkpt lat="43.66147" lon="1.23784">
        <ele>191.8</ele>
        <time>2023-03-25T08:49:36Z</time>
      </trkpt>
      <trkpt lat="43.66151" lon="1.23761">
        <ele>191.2</ele>
        <time>2023-03-25T08:49:40Z</time>
      </trkpt>
      <trkpt lat="43.66163" lon="1.23756">
        <ele>191</ele>
        <time>2023-03-25T08:49:43Z</time>
      </trkpt>
      <trkpt lat="43.66177" lon="1.23753">
        <ele>191</ele>
        <time>2023-03-25T08:49:46Z</time>
      </trkpt>
      <trkpt lat="43.66181" lon="1.2375">
        <ele>191</ele>
        <time>2023-03-25T08:49:47Z</time>
      </trkpt>
      <trkpt lat="43.66183" lon="1.23744">
        <ele>191</ele>
        <time>2023-03-25T08:49:48Z</time>
      </trkpt>
      <trkpt lat="43.66184" lon="1.23729">
        <ele>190.8</ele>
        <time>2023-03-25T08:49:50Z</time>
      </trkpt>
      <trkpt lat="43.66184" lon="1.23705">
        <ele>190.6</ele>
        <time>2023-03-25T08:49:53Z</time>
      </trkpt>
      <trkpt lat="43.66187" lon="1.23688">
        <ele>190.4</ele>
        <time>2023-03-25T08:49:55Z</time>
      </trkpt>
      <trkpt lat="43.66196" lon="1.23664">
        <ele>190</ele>
        <time>2023-03-25T08:49:58Z</time>
      </trkpt>
      <trkpt lat="43.66204" lon="1.2365">
        <ele>190</ele>
        <time>2023-03-25T08:50:00Z</time>
      </trkpt>
      <trkpt lat="43.66221" lon="1.23633">
        <ele>190</ele>
        <time>2023-03-25T08:50:03Z</time>
      </trkpt>
      <trkpt lat="43.66233" lon="1.23624">
        <ele>190</ele>
        <time>2023-03-25T08:50:05Z</time>
      </trkpt>
      <trkpt lat="43.6626" lon="1.23609">
        <ele>189.8</ele>
        <time>2023-03-25T08:50:09Z</time>
      </trkpt>
      <trkpt lat="43.66286" lon="1.23593">
        <ele>189.4</ele>
        <time>2023-03-25T08:50:13Z</time>
      </trkpt>
      <trkpt lat="43.6634" lon="1.23564">
        <ele>189</ele>
        <time>2023-03-25T08:50:21Z</time>
      </trkpt>
      <trkpt lat="43.66359" lon="1.23551">
        <ele>188.8</ele>
        <time>2023-03-25T08:50:24Z</time>
      </trkpt>
      <trkpt lat="43.66386" lon="1.23537">
        <ele>188.6</ele>
        <time>2023-03-25T08:50:28Z</time>
      </trkpt>
      <trkpt lat="43.6644" lon="1.23509">
        <ele>188.2</ele>
        <time>2023-03-25T08:50:36Z</time>
      </trkpt>
      <trkpt lat="43.66461" lon="1.23497">
        <ele>187.6</ele>
        <time>2023-03-25T08:50:39Z</time>
      </trkpt>
      <trkpt lat="43.66498" lon="1.23477">
        <ele>187</ele>
        <time>2023-03-25T08:50:44Z</time>
      </trkpt>
      <trkpt lat="43.6652" lon="1.23464">
        <ele>186.4</ele>
        <time>2023-03-25T08:50:47Z</time>
      </trkpt>
      <trkpt lat="43.66575" lon="1.23434">
        <ele>185.2</ele>
        <time>2023-03-25T08:50:54Z</time>
      </trkpt>
      <trkpt lat="43.66583" lon="1.2343">
        <ele>185</ele>
        <time>2023-03-25T08:50:55Z</time>
      </trkpt>
      <trkpt lat="43.66613" lon="1.23413">
        <ele>184</ele>
        <time>2023-03-25T08:50:59Z</time>
      </trkpt>
      <trkpt lat="43.66659" lon="1.23386">
        <ele>183</ele>
        <time>2023-03-25T08:51:05Z</time>
      </trkpt>
      <trkpt lat="43.66682" lon="1.23373">
        <ele>182.2</ele>
        <time>2023-03-25T08:51:08Z</time>
      </trkpt>
      <trkpt lat="43.6669" lon="1.23369">
        <ele>182</ele>
        <time>2023-03-25T08:51:09Z</time>
      </trkpt>
      <trkpt lat="43.66731" lon="1.23346">
        <ele>181</ele>
        <time>2023-03-25T08:51:14Z</time>
      </trkpt>
      <trkpt lat="43.66754" lon="1.23329">
        <ele>179.8</ele>
        <time>2023-03-25T08:51:17Z</time>
      </trkpt>
      <trkpt lat="43.66791" lon="1.23294">
        <ele>178.2</ele>
        <time>2023-03-25T08:51:22Z</time>
      </trkpt>
      <trkpt lat="43.66798" lon="1.23287">
        <ele>178</ele>
        <time>2023-03-25T08:51:23Z</time>
      </trkpt>
      <trkpt lat="43.66817" lon="1.23262">
        <ele>177</ele>
        <time>2023-03-25T08:51:26Z</time>
      </trkpt>
      <trkpt lat="43.66843" lon="1.23229">
        <ele>176</ele>
        <time>2023-03-25T08:51:30Z</time>
      </trkpt>
      <trkpt lat="43.66849" lon="1.23222">
        <ele>175.6</ele>
        <time>2023-03-25T08:51:31Z</time>
      </trkpt>
      <trkpt lat="43.66862" lon="1.23206">
        <ele>174.8</ele>
        <time>2023-03-25T08:51:33Z</time>
      </trkpt>
      <trkpt lat="43.66887" lon="1.23174">
        <ele>173.4</ele>
        <time>2023-03-25T08:51:37Z</time>
      </trkpt>
      <trkpt lat="43.66899" lon="1.23158">
        <ele>172.4</ele>
        <time>2023-03-25T08:51:39Z</time>
      </trkpt>
      <trkpt lat="43.66911" lon="1.23142">
        <ele>172</ele>
        <time>2023-03-25T08:51:41Z</time>
      </trkpt>
      <trkpt lat="43.66929" lon="1.23119">
        <ele>170.8</ele>
        <time>2023-03-25T08:51:44Z</time>
      </trkpt>
      <trkpt lat="43.6695" lon="1.23091">
        <ele>169.8</ele>
        <time>2023-03-25T08:51:48Z</time>
      </trkpt>
      <trkpt lat="43.66976" lon="1.23057">
        <ele>168.6</ele>
        <time>2023-03-25T08:51:54Z</time>
      </trkpt>
      <trkpt lat="43.67001" lon="1.23028">
        <ele>168</ele>
        <time>2023-03-25T08:52:00Z</time>
      </trkpt>
      <trkpt lat="43.67008" lon="1.23019">
        <ele>167.6</ele>
        <time>2023-03-25T08:52:02Z</time>
      </trkpt>
      <trkpt lat="43.67021" lon="1.23002">
        <ele>167</ele>
        <time>2023-03-25T08:52:06Z</time>
      </trkpt>
      <trkpt lat="43.67049" lon="1.22968">
        <ele>166.6</ele>
        <time>2023-03-25T08:52:12Z</time>
      </trkpt>
      <trkpt lat="43.67084" lon="1.22931">
        <ele>166.2</ele>
        <time>2023-03-25T08:52:18Z</time>
      </trkpt>
      <trkpt lat="43.6713" lon="1.2288">
        <ele>165.4</ele>
        <time>2023-03-25T08:52:26Z</time>
      </trkpt>
      <trkpt lat="43.67141" lon="1.22868">
        <ele>165.2</ele>
        <time>2023-03-25T08:52:28Z</time>
      </trkpt>
      <trkpt lat="43.67147" lon="1.22861">
        <ele>165.2</ele>
        <time>2023-03-25T08:52:29Z</time>
      </trkpt>
      <trkpt lat="43.67187" lon="1.22816">
        <ele>164.8</ele>
        <time>2023-03-25T08:52:36Z</time>
      </trkpt>
      <trkpt lat="43.67231" lon="1.22765">
        <ele>164.2</ele>
        <time>2023-03-25T08:52:44Z</time>
      </trkpt>
      <trkpt lat="43.67236" lon="1.22759">
        <ele>164.2</ele>
        <time>2023-03-25T08:52:45Z</time>
      </trkpt>
      <trkpt lat="43.67241" lon="1.22753">
        <ele>164</ele>
        <time>2023-03-25T08:52:46Z</time>
      </trkpt>
      <trkpt lat="43.67286" lon="1.22702">
        <ele>163.4</ele>
        <time>2023-03-25T08:52:54Z</time>
      </trkpt>
      <trkpt lat="43.67304" lon="1.22681">
        <ele>163</ele>
        <time>2023-03-25T08:52:57Z</time>
      </trkpt>
      <trkpt lat="43.67331" lon="1.22652">
        <ele>161.6</ele>
        <time>2023-03-25T08:53:01Z</time>
      </trkpt>
      <trkpt lat="43.67338" lon="1.22645">
        <ele>161.4</ele>
        <time>2023-03-25T08:53:02Z</time>
      </trkpt>
      <trkpt lat="43.67358" lon="1.22623">
        <ele>160</ele>
        <time>2023-03-25T08:53:05Z</time>
      </trkpt>
      <trkpt lat="43.67371" lon="1.2261">
        <ele>159.2</ele>
        <time>2023-03-25T08:53:07Z</time>
      </trkpt>
      <trkpt lat="43.67377" lon="1.22603">
        <ele>158.2</ele>
        <time>2023-03-25T08:53:08Z</time>
      </trkpt>
      <trkpt lat="43.67388" lon="1.22592">
        <ele>157.2</ele>
        <time>2023-03-25T08:53:10Z</time>
      </trkpt>
      <trkpt lat="43.67393" lon="1.22588">
        <ele>156.8</ele>
        <time>2023-03-25T08:53:11Z</time>
      </trkpt>
      <trkpt lat="43.67402" lon="1.22582">
        <ele>156.2</ele>
        <time>2023-03-25T08:53:13Z</time>
      </trkpt>
      <trkpt lat="43.67405" lon="1.22583">
        <ele>156</ele>
        <time>2023-03-25T08:53:14Z</time>
      </trkpt>
      <trkpt lat="43.67411" lon="1.22593">
        <ele>155.4</ele>
        <time>2023-03-25T08:53:16Z</time>
      </trkpt>
      <trkpt lat="43.67413" lon="1.226">
        <ele>155</ele>
        <time>2023-03-25T08:53:17Z</time>
      </trkpt>
      <trkpt lat="43.67415" lon="1.22607">
        <ele>154.8</ele>
        <time>2023-03-25T08:53:18Z</time>
      </trkpt>
      <trkpt lat="43.67423" lon="1.22626">
        <ele>154.2</ele>
        <time>2023-03-25T08:53:21Z</time>
      </trkpt>
      <trkpt lat="43.67426" lon="1.22631">
        <ele>154.2</ele>
        <time>2023-03-25T08:53:22Z</time>
      </trkpt>
      <trkpt lat="43.67431" lon="1.2264">
        <ele>154.2</ele>
        <time>2023-03-25T08:53:24Z</time>
      </trkpt>
      <trkpt lat="43.67435" lon="1.2265">
        <ele>154.2</ele>
        <time>2023-03-25T08:53:26Z</time>
      </trkpt>
      <trkpt lat="43.6744" lon="1.22658">
        <ele>154.8</ele>
        <time>2023-03-25T08:53:28Z</time>
      </trkpt>
      <trkpt lat="43.67447" lon="1.22664">
        <ele>155.4</ele>
        <time>2023-03-25T08:53:30Z</time>
      </trkpt>
      <trkpt lat="43.67452" lon="1.22666">
        <ele>155.4</ele>
        <time>2023-03-25T08:53:31Z</time>
      </trkpt>
      <trkpt lat="43.67458" lon="1.22667">
        <ele>155.6</ele>
        <time>2023-03-25T08:53:32Z</time>
      </trkpt>
      <trkpt lat="43.67463" lon="1.22667">
        <ele>156</ele>
        <time>2023-03-25T08:53:33Z</time>
      </trkpt>
      <trkpt lat="43.67468" lon="1.22668">
        <ele>156</ele>
        <time>2023-03-25T08:53:34Z</time>
      </trkpt>
      <trkpt lat="43.67472" lon="1.2267">
        <ele>156.2</ele>
        <time>2023-03-25T08:53:35Z</time>
      </trkpt>
      <trkpt lat="43.67482" lon="1.22681">
        <ele>156.4</ele>
        <time>2023-03-25T08:53:37Z</time>
      </trkpt>
      <trkpt lat="43.67486" lon="1.22686">
        <ele>156.4</ele>
        <time>2023-03-25T08:53:38Z</time>
      </trkpt>
      <trkpt lat="43.67491" lon="1.22691">
        <ele>156.4</ele>
        <time>2023-03-25T08:53:39Z</time>
      </trkpt>
      <trkpt lat="43.67502" lon="1.22699">
        <ele>156.4</ele>
        <time>2023-03-25T08:53:41Z</time>
      </trkpt>
      <trkpt lat="43.67507" lon="1.227">
        <ele>156.2</ele>
        <time>2023-03-25T08:53:42Z</time>
      </trkpt>
      <trkpt lat="43.67513" lon="1.22699">
        <ele>156</ele>
        <time>2023-03-25T08:53:43Z</time>
      </trkpt>
      <trkpt lat="43.67524" lon="1.22698">
        <ele>155.6</ele>
        <time>2023-03-25T08:53:45Z</time>
      </trkpt>
      <trkpt lat="43.67529" lon="1.22698">
        <ele>155.6</ele>
        <time>2023-03-25T08:53:46Z</time>
      </trkpt>
      <trkpt lat="43.67534" lon="1.22699">
        <ele>155.6</ele>
        <time>2023-03-25T08:53:47Z</time>
      </trkpt>
      <trkpt lat="43.67541" lon="1.22699">
        <ele>155.6</ele>
        <time>2023-03-25T08:53:49Z</time>
      </trkpt>
      <trkpt lat="43.67545" lon="1.227">
        <ele>155.8</ele>
        <time>2023-03-25T08:53:50Z</time>
      </trkpt>
      <trkpt lat="43.67562" lon="1.227">
        <ele>157</ele>
        <time>2023-03-25T08:53:55Z</time>
      </trkpt>
      <trkpt lat="43.67565" lon="1.22701">
        <ele>157</ele>
        <time>2023-03-25T08:53:56Z</time>
      </trkpt>
      <trkpt lat="43.67575" lon="1.22704">
        <ele>158.2</ele>
        <time>2023-03-25T08:53:59Z</time>
      </trkpt>
      <trkpt lat="43.67584" lon="1.22705">
        <ele>159.8</ele>
        <time>2023-03-25T08:54:02Z</time>
      </trkpt>
      <trkpt lat="43.67596" lon="1.22705">
        <ele>160.8</ele>
        <time>2023-03-25T08:54:06Z</time>
      </trkpt>
      <trkpt lat="43.67604" lon="1.22704">
        <ele>161.6</ele>
        <time>2023-03-25T08:54:09Z</time>
      </trkpt>
      <trkpt lat="43.67607" lon="1.22704">
        <ele>162.2</ele>
        <time>2023-03-25T08:54:10Z</time>
      </trkpt>
      <trkpt lat="43.6761" lon="1.22704">
        <ele>163.4</ele>
        <time>2023-03-25T08:54:11Z</time>
      </trkpt>
      <trkpt lat="43.67616" lon="1.22703">
        <ele>164.8</ele>
        <time>2023-03-25T08:54:13Z</time>
      </trkpt>
      <trkpt lat="43.67622" lon="1.22702">
        <ele>165.4</ele>
        <time>2023-03-25T08:54:15Z</time>
      </trkpt>
      <trkpt lat="43.6763" lon="1.22704">
        <ele>165.8</ele>
        <time>2023-03-25T08:54:17Z</time>
      </trkpt>
      <trkpt lat="43.67636" lon="1.22705">
        <ele>166.2</ele>
        <time>2023-03-25T08:54:19Z</time>
      </trkpt>
      <trkpt lat="43.67647" lon="1.22707">
        <ele>167</ele>
        <time>2023-03-25T08:54:22Z</time>
      </trkpt>
      <trkpt lat="43.67657" lon="1.22709">
        <ele>167.8</ele>
        <time>2023-03-25T08:54:25Z</time>
      </trkpt>
      <trkpt lat="43.67661" lon="1.2271">
        <ele>168.2</ele>
        <time>2023-03-25T08:54:26Z</time>
      </trkpt>
      <trkpt lat="43.67672" lon="1.22712">
        <ele>168.4</ele>
        <time>2023-03-25T08:54:29Z</time>
      </trkpt>
      <trkpt lat="43.67696" lon="1.22711">
        <ele>168.8</ele>
        <time>2023-03-25T08:54:35Z</time>
      </trkpt>
      <trkpt lat="43.6772" lon="1.2271">
        <ele>169</ele>
        <time>2023-03-25T08:54:41Z</time>
      </trkpt>
      <trkpt lat="43.67737" lon="1.22712">
        <ele>168.8</ele>
        <time>2023-03-25T08:54:45Z</time>
      </trkpt>
      <trkpt lat="43.67742" lon="1.22713">
        <ele>168.8</ele>
        <time>2023-03-25T08:54:46Z</time>
      </trkpt>
      <trkpt lat="43.67768" lon="1.22719">
        <ele>168.8</ele>
        <time>2023-03-25T08:54:52Z</time>
      </trkpt>
      <trkpt lat="43.67794" lon="1.22726">
        <ele>169.2</ele>
        <time>2023-03-25T08:54:59Z</time>
      </trkpt>
      <trkpt lat="43.67798" lon="1.22726">
        <ele>169.6</ele>
        <time>2023-03-25T08:55:00Z</time>
      </trkpt>
      <trkpt lat="43.67807" lon="1.22727">
        <ele>170.4</ele>
        <time>2023-03-25T08:55:03Z</time>
      </trkpt>
      <trkpt lat="43.67827" lon="1.22737">
        <ele>170.8</ele>
        <time>2023-03-25T08:55:07Z</time>
      </trkpt>
      <trkpt lat="43.67834" lon="1.22741">
        <ele>171</ele>
        <time>2023-03-25T08:55:09Z</time>
      </trkpt>
      <trkpt lat="43.67843" lon="1.2275">
        <ele>171.6</ele>
        <time>2023-03-25T08:55:12Z</time>
      </trkpt>
      <trkpt lat="43.67849" lon="1.22755">
        <ele>172</ele>
        <time>2023-03-25T08:55:14Z</time>
      </trkpt>
      <trkpt lat="43.6786" lon="1.22765">
        <ele>172.6</ele>
        <time>2023-03-25T08:55:18Z</time>
      </trkpt>
      <trkpt lat="43.67869" lon="1.22771">
        <ele>174</ele>
        <time>2023-03-25T08:55:21Z</time>
      </trkpt>
      <trkpt lat="43.67881" lon="1.22778">
        <ele>175</ele>
        <time>2023-03-25T08:55:25Z</time>
      </trkpt>
      <trkpt lat="43.67889" lon="1.22784">
        <ele>176.2</ele>
        <time>2023-03-25T08:55:28Z</time>
      </trkpt>
      <trkpt lat="43.67901" lon="1.22793">
        <ele>177.4</ele>
        <time>2023-03-25T08:55:32Z</time>
      </trkpt>
      <trkpt lat="43.67918" lon="1.22805">
        <ele>178.2</ele>
        <time>2023-03-25T08:55:37Z</time>
      </trkpt>
      <trkpt lat="43.67941" lon="1.22813">
        <ele>178.2</ele>
        <time>2023-03-25T08:55:43Z</time>
      </trkpt>
      <trkpt lat="43.67966" lon="1.22817">
        <ele>178.4</ele>
        <time>2023-03-25T08:55:49Z</time>
      </trkpt>
      <trkpt lat="43.67969" lon="1.22818">
        <ele>178.4</ele>
        <time>2023-03-25T08:55:50Z</time>
      </trkpt>
      <trkpt lat="43.6799" lon="1.22823">
        <ele>179.6</ele>
        <time>2023-03-25T08:55:56Z</time>
      </trkpt>
      <trkpt lat="43.67993" lon="1.22823">
        <ele>180</ele>
        <time>2023-03-25T08:55:57Z</time>
      </trkpt>
      <trkpt lat="43.68" lon="1.22826">
        <ele>180.8</ele>
        <time>2023-03-25T08:55:59Z</time>
      </trkpt>
      <trkpt lat="43.68009" lon="1.22829">
        <ele>181.8</ele>
        <time>2023-03-25T08:56:02Z</time>
      </trkpt>
      <trkpt lat="43.68013" lon="1.2283">
        <ele>182.6</ele>
        <time>2023-03-25T08:56:04Z</time>
      </trkpt>
      <trkpt lat="43.68023" lon="1.22833">
        <ele>183.4</ele>
        <time>2023-03-25T08:56:06Z</time>
      </trkpt>
      <trkpt lat="43.68034" lon="1.22838">
        <ele>184.6</ele>
        <time>2023-03-25T08:56:09Z</time>
      </trkpt>
      <trkpt lat="43.68041" lon="1.22842">
        <ele>185.2</ele>
        <time>2023-03-25T08:56:11Z</time>
      </trkpt>
      <trkpt lat="43.68049" lon="1.22847">
        <ele>185.8</ele>
        <time>2023-03-25T08:56:13Z</time>
      </trkpt>
      <trkpt lat="43.68062" lon="1.22855">
        <ele>186.4</ele>
        <time>2023-03-25T08:56:17Z</time>
      </trkpt>
      <trkpt lat="43.68067" lon="1.22843">
        <ele>186.6</ele>
        <time>2023-03-25T08:56:20Z</time>
      </trkpt>
      <trkpt lat="43.68081" lon="1.22825">
        <ele>186.6</ele>
        <time>2023-03-25T08:56:25Z</time>
      </trkpt>
      <trkpt lat="43.68097" lon="1.22818">
        <ele>186.8</ele>
        <time>2023-03-25T08:56:29Z</time>
      </trkpt>
      <trkpt lat="43.68109" lon="1.22824">
        <ele>186.6</ele>
        <time>2023-03-25T08:56:32Z</time>
      </trkpt>
      <trkpt lat="43.68117" lon="1.22824">
        <ele>186.8</ele>
        <time>2023-03-25T08:56:34Z</time>
      </trkpt>
      <trkpt lat="43.68125" lon="1.22819">
        <ele>186.8</ele>
        <time>2023-03-25T08:56:36Z</time>
      </trkpt>
      <trkpt lat="43.68136" lon="1.22809">
        <ele>186.8</ele>
        <time>2023-03-25T08:56:39Z</time>
      </trkpt>
      <trkpt lat="43.68165" lon="1.22784">
        <ele>187</ele>
        <time>2023-03-25T08:56:46Z</time>
      </trkpt>
      <trkpt lat="43.68201" lon="1.22754">
        <ele>187</ele>
        <time>2023-03-25T08:56:54Z</time>
      </trkpt>
      <trkpt lat="43.68235" lon="1.22732">
        <ele>187</ele>
        <time>2023-03-25T08:57:01Z</time>
      </trkpt>
      <trkpt lat="43.68268" lon="1.22713">
        <ele>187.2</ele>
        <time>2023-03-25T08:57:08Z</time>
      </trkpt>
      <trkpt lat="43.68295" lon="1.22686">
        <ele>187.2</ele>
        <time>2023-03-25T08:57:14Z</time>
      </trkpt>
      <trkpt lat="43.68299" lon="1.22681">
        <ele>187.2</ele>
        <time>2023-03-25T08:57:15Z</time>
      </trkpt>
      <trkpt lat="43.68331" lon="1.2263">
        <ele>187</ele>
        <time>2023-03-25T08:57:23Z</time>
      </trkpt>
      <trkpt lat="43.68341" lon="1.22606">
        <ele>186.6</ele>
        <time>2023-03-25T08:57:26Z</time>
      </trkpt>
      <trkpt lat="43.68349" lon="1.22586">
        <ele>186.2</ele>
        <time>2023-03-25T08:57:28Z</time>
      </trkpt>
      <trkpt lat="43.68358" lon="1.22564">
        <ele>185.2</ele>
        <time>2023-03-25T08:57:30Z</time>
      </trkpt>
      <trkpt lat="43.68365" lon="1.22553">
        <ele>184.6</ele>
        <time>2023-03-25T08:57:31Z</time>
      </trkpt>
      <trkpt lat="43.68372" lon="1.22543">
        <ele>183.8</ele>
        <time>2023-03-25T08:57:32Z</time>
      </trkpt>
      <trkpt lat="43.68379" lon="1.22535">
        <ele>183.6</ele>
        <time>2023-03-25T08:57:33Z</time>
      </trkpt>
      <trkpt lat="43.68387" lon="1.22528">
        <ele>182.8</ele>
        <time>2023-03-25T08:57:34Z</time>
      </trkpt>
      <trkpt lat="43.68396" lon="1.2252">
        <ele>181.4</ele>
        <time>2023-03-25T08:57:35Z</time>
      </trkpt>
      <trkpt lat="43.68405" lon="1.22511">
        <ele>181</ele>
        <time>2023-03-25T08:57:36Z</time>
      </trkpt>
      <trkpt lat="43.68413" lon="1.22503">
        <ele>180.4</ele>
        <time>2023-03-25T08:57:37Z</time>
      </trkpt>
      <trkpt lat="43.68431" lon="1.22482">
        <ele>179.4</ele>
        <time>2023-03-25T08:57:39Z</time>
      </trkpt>
      <trkpt lat="43.68438" lon="1.22468">
        <ele>179</ele>
        <time>2023-03-25T08:57:40Z</time>
      </trkpt>
      <trkpt lat="43.68445" lon="1.22453">
        <ele>177.6</ele>
        <time>2023-03-25T08:57:41Z</time>
      </trkpt>
      <trkpt lat="43.68457" lon="1.22421">
        <ele>175.8</ele>
        <time>2023-03-25T08:57:43Z</time>
      </trkpt>
      <trkpt lat="43.68464" lon="1.22405">
        <ele>173.8</ele>
        <time>2023-03-25T08:57:44Z</time>
      </trkpt>
      <trkpt lat="43.68476" lon="1.22381">
        <ele>171.4</ele>
        <time>2023-03-25T08:57:46Z</time>
      </trkpt>
      <trkpt lat="43.68483" lon="1.22371">
        <ele>170.8</ele>
        <time>2023-03-25T08:57:47Z</time>
      </trkpt>
      <trkpt lat="43.6849" lon="1.22363">
        <ele>169.2</ele>
        <time>2023-03-25T08:57:48Z</time>
      </trkpt>
      <trkpt lat="43.68499" lon="1.2236">
        <ele>168</ele>
        <time>2023-03-25T08:57:49Z</time>
      </trkpt>
      <trkpt lat="43.68509" lon="1.22359">
        <ele>165.6</ele>
        <time>2023-03-25T08:57:50Z</time>
      </trkpt>
      <trkpt lat="43.68516" lon="1.22363">
        <ele>164</ele>
        <time>2023-03-25T08:57:51Z</time>
      </trkpt>
      <trkpt lat="43.68525" lon="1.22371">
        <ele>163.4</ele>
        <time>2023-03-25T08:57:52Z</time>
      </trkpt>
      <trkpt lat="43.68533" lon="1.2238">
        <ele>162.2</ele>
        <time>2023-03-25T08:57:53Z</time>
      </trkpt>
      <trkpt lat="43.68541" lon="1.2239">
        <ele>161.2</ele>
        <time>2023-03-25T08:57:54Z</time>
      </trkpt>
      <trkpt lat="43.68551" lon="1.22401">
        <ele>159.4</ele>
        <time>2023-03-25T08:57:55Z</time>
      </trkpt>
      <trkpt lat="43.68567" lon="1.22421">
        <ele>157</ele>
        <time>2023-03-25T08:57:57Z</time>
      </trkpt>
      <trkpt lat="43.68576" lon="1.22432">
        <ele>155.6</ele>
        <time>2023-03-25T08:57:58Z</time>
      </trkpt>
      <trkpt lat="43.68584" lon="1.22443">
        <ele>154</ele>
        <time>2023-03-25T08:57:59Z</time>
      </trkpt>
      <trkpt lat="43.68591" lon="1.22453">
        <ele>151.2</ele>
        <time>2023-03-25T08:58:00Z</time>
      </trkpt>
      <trkpt lat="43.68597" lon="1.2246">
        <ele>149.8</ele>
        <time>2023-03-25T08:58:01Z</time>
      </trkpt>
      <trkpt lat="43.68606" lon="1.22466">
        <ele>148.2</ele>
        <time>2023-03-25T08:58:02Z</time>
      </trkpt>
      <trkpt lat="43.68614" lon="1.22469">
        <ele>147.2</ele>
        <time>2023-03-25T08:58:03Z</time>
      </trkpt>
      <trkpt lat="43.68623" lon="1.22469">
        <ele>145.4</ele>
        <time>2023-03-25T08:58:04Z</time>
      </trkpt>
      <trkpt lat="43.68631" lon="1.22466">
        <ele>144.4</ele>
        <time>2023-03-25T08:58:05Z</time>
      </trkpt>
      <trkpt lat="43.68639" lon="1.22462">
        <ele>142.6</ele>
        <time>2023-03-25T08:58:06Z</time>
      </trkpt>
      <trkpt lat="43.68645" lon="1.22458">
        <ele>141.4</ele>
        <time>2023-03-25T08:58:07Z</time>
      </trkpt>
      <trkpt lat="43.68652" lon="1.22454">
        <ele>139.8</ele>
        <time>2023-03-25T08:58:08Z</time>
      </trkpt>
      <trkpt lat="43.68664" lon="1.22446">
        <ele>138.2</ele>
        <time>2023-03-25T08:58:09Z</time>
      </trkpt>
      <trkpt lat="43.68681" lon="1.22435">
        <ele>136.2</ele>
        <time>2023-03-25T08:58:11Z</time>
      </trkpt>
      <trkpt lat="43.68696" lon="1.22423">
        <ele>135</ele>
        <time>2023-03-25T08:58:13Z</time>
      </trkpt>
      <trkpt lat="43.68708" lon="1.22414">
        <ele>133</ele>
        <time>2023-03-25T08:58:15Z</time>
      </trkpt>
      <trkpt lat="43.68712" lon="1.22412">
        <ele>132.4</ele>
        <time>2023-03-25T08:58:16Z</time>
      </trkpt>
      <trkpt lat="43.68719" lon="1.22413">
        <ele>131.4</ele>
        <time>2023-03-25T08:58:18Z</time>
      </trkpt>
      <trkpt lat="43.6872" lon="1.22416">
        <ele>131.2</ele>
        <time>2023-03-25T08:58:19Z</time>
      </trkpt>
      <trkpt lat="43.68721" lon="1.22421">
        <ele>130.6</ele>
        <time>2023-03-25T08:58:20Z</time>
      </trkpt>
      <trkpt lat="43.68724" lon="1.22432">
        <ele>130.4</ele>
        <time>2023-03-25T08:58:22Z</time>
      </trkpt>
      <trkpt lat="43.68725" lon="1.22439">
        <ele>130.2</ele>
        <time>2023-03-25T08:58:23Z</time>
      </trkpt>
      <trkpt lat="43.68733" lon="1.22477">
        <ele>130</ele>
        <time>2023-03-25T08:58:28Z</time>
      </trkpt>
      <trkpt lat="43.68746" lon="1.22538">
        <ele>129.8</ele>
        <time>2023-03-25T08:58:35Z</time>
      </trkpt>
      <trkpt lat="43.68761" lon="1.226">
        <ele>129.6</ele>
        <time>2023-03-25T08:58:43Z</time>
      </trkpt>
      <trkpt lat="43.68767" lon="1.22623">
        <ele>129.6</ele>
        <time>2023-03-25T08:58:48Z</time>
      </trkpt>
      <trkpt lat="43.68767" lon="1.22624">
        <ele>129.8</ele>
        <time>2023-03-25T08:58:50Z</time>
      </trkpt>
      <trkpt lat="43.68768" lon="1.2263">
        <ele>130.2</ele>
        <time>2023-03-25T08:59:24Z</time>
      </trkpt>
      <trkpt lat="43.6877" lon="1.22632">
        <ele>130.2</ele>
        <time>2023-03-25T08:59:25Z</time>
      </trkpt>
      <trkpt lat="43.68773" lon="1.2264">
        <ele>130.2</ele>
        <time>2023-03-25T08:59:27Z</time>
      </trkpt>
      <trkpt lat="43.6878" lon="1.22657">
        <ele>130.2</ele>
        <time>2023-03-25T08:59:30Z</time>
      </trkpt>
      <trkpt lat="43.68783" lon="1.22663">
        <ele>130.2</ele>
        <time>2023-03-25T08:59:31Z</time>
      </trkpt>
      <trkpt lat="43.68797" lon="1.22687">
        <ele>130.2</ele>
        <time>2023-03-25T08:59:35Z</time>
      </trkpt>
      <trkpt lat="43.68804" lon="1.22696">
        <ele>130</ele>
        <time>2023-03-25T08:59:37Z</time>
      </trkpt>
      <trkpt lat="43.68807" lon="1.22699">
        <ele>130</ele>
        <time>2023-03-25T08:59:38Z</time>
      </trkpt>
      <trkpt lat="43.68816" lon="1.2271">
        <ele>130</ele>
        <time>2023-03-25T08:59:41Z</time>
      </trkpt>
      <trkpt lat="43.68825" lon="1.22717">
        <ele>130</ele>
        <time>2023-03-25T08:59:43Z</time>
      </trkpt>
      <trkpt lat="43.68857" lon="1.22747">
        <ele>129.4</ele>
        <time>2023-03-25T08:59:50Z</time>
      </trkpt>
      <trkpt lat="43.68868" lon="1.22756">
        <ele>129.2</ele>
        <time>2023-03-25T08:59:53Z</time>
      </trkpt>
      <trkpt lat="43.689" lon="1.22785">
        <ele>128.8</ele>
        <time>2023-03-25T08:59:59Z</time>
      </trkpt>
      <trkpt lat="43.68939" lon="1.22821">
        <ele>128.2</ele>
        <time>2023-03-25T09:00:05Z</time>
      </trkpt>
      <trkpt lat="43.68945" lon="1.22826">
        <ele>128.2</ele>
        <time>2023-03-25T09:00:06Z</time>
      </trkpt>
      <trkpt lat="43.68951" lon="1.22831">
        <ele>128</ele>
        <time>2023-03-25T09:00:08Z</time>
      </trkpt>
      <trkpt lat="43.68981" lon="1.22859">
        <ele>127.8</ele>
        <time>2023-03-25T09:00:13Z</time>
      </trkpt>
      <trkpt lat="43.69033" lon="1.22906">
        <ele>127.8</ele>
        <time>2023-03-25T09:00:21Z</time>
      </trkpt>
      <trkpt lat="43.69038" lon="1.22911">
        <ele>128</ele>
        <time>2023-03-25T09:00:23Z</time>
      </trkpt>
      <trkpt lat="43.69067" lon="1.22935">
        <ele>128.2</ele>
        <time>2023-03-25T09:00:27Z</time>
      </trkpt>
      <trkpt lat="43.6907" lon="1.22937">
        <ele>128.2</ele>
        <time>2023-03-25T09:00:28Z</time>
      </trkpt>
      <trkpt lat="43.69073" lon="1.22938">
        <ele>128.2</ele>
        <time>2023-03-25T09:00:29Z</time>
      </trkpt>
      <trkpt lat="43.69093" lon="1.22943">
        <ele>128</ele>
        <time>2023-03-25T09:00:31Z</time>
      </trkpt>
      <trkpt lat="43.69096" lon="1.22945">
        <ele>128</ele>
        <time>2023-03-25T09:00:32Z</time>
      </trkpt>
      <trkpt lat="43.69099" lon="1.22947">
        <ele>128</ele>
        <time>2023-03-25T09:00:33Z</time>
      </trkpt>
      <trkpt lat="43.6911" lon="1.22958">
        <ele>128</ele>
        <time>2023-03-25T09:00:35Z</time>
      </trkpt>
      <trkpt lat="43.69132" lon="1.22982">
        <ele>128</ele>
        <time>2023-03-25T09:00:38Z</time>
      </trkpt>
      <trkpt lat="43.69137" lon="1.22989">
        <ele>127.8</ele>
        <time>2023-03-25T09:00:40Z</time>
      </trkpt>
      <trkpt lat="43.69142" lon="1.22997">
        <ele>127.8</ele>
        <time>2023-03-25T09:00:41Z</time>
      </trkpt>
      <trkpt lat="43.6915" lon="1.23011">
        <ele>127.8</ele>
        <time>2023-03-25T09:00:42Z</time>
      </trkpt>
      <trkpt lat="43.69161" lon="1.23022">
        <ele>128</ele>
        <time>2023-03-25T09:00:45Z</time>
      </trkpt>
      <trkpt lat="43.69188" lon="1.2305">
        <ele>128.4</ele>
        <time>2023-03-25T09:00:50Z</time>
      </trkpt>
      <trkpt lat="43.69213" lon="1.23077">
        <ele>128.8</ele>
        <time>2023-03-25T09:00:56Z</time>
      </trkpt>
      <trkpt lat="43.69218" lon="1.2308">
        <ele>128.8</ele>
        <time>2023-03-25T09:00:57Z</time>
      </trkpt>
      <trkpt lat="43.69236" lon="1.23085">
        <ele>128.8</ele>
        <time>2023-03-25T09:01:00Z</time>
      </trkpt>
      <trkpt lat="43.6924" lon="1.23088">
        <ele>128.6</ele>
        <time>2023-03-25T09:01:02Z</time>
      </trkpt>
      <trkpt lat="43.69251" lon="1.23088">
        <ele>128.6</ele>
        <time>2023-03-25T09:01:03Z</time>
      </trkpt>
      <trkpt lat="43.69256" lon="1.23083">
        <ele>128.4</ele>
        <time>2023-03-25T09:01:04Z</time>
      </trkpt>
      <trkpt lat="43.69278" lon="1.23047">
        <ele>128.2</ele>
        <time>2023-03-25T09:01:10Z</time>
      </trkpt>
      <trkpt lat="43.69289" lon="1.23031">
        <ele>128</ele>
        <time>2023-03-25T09:01:13Z</time>
      </trkpt>
      <trkpt lat="43.69298" lon="1.23015">
        <ele>128</ele>
        <time>2023-03-25T09:01:16Z</time>
      </trkpt>
      <trkpt lat="43.69325" lon="1.22971">
        <ele>129</ele>
        <time>2023-03-25T09:01:24Z</time>
      </trkpt>
      <trkpt lat="43.69332" lon="1.22959">
        <ele>129.2</ele>
        <time>2023-03-25T09:01:27Z</time>
      </trkpt>
      <trkpt lat="43.69352" lon="1.22928">
        <ele>129.8</ele>
        <time>2023-03-25T09:01:32Z</time>
      </trkpt>
      <trkpt lat="43.69375" lon="1.22892">
        <ele>130</ele>
        <time>2023-03-25T09:01:37Z</time>
      </trkpt>
      <trkpt lat="43.69407" lon="1.22838">
        <ele>129.2</ele>
        <time>2023-03-25T09:01:44Z</time>
      </trkpt>
      <trkpt lat="43.69435" lon="1.22781">
        <ele>128.6</ele>
        <time>2023-03-25T09:01:50Z</time>
      </trkpt>
      <trkpt lat="43.69456" lon="1.2273">
        <ele>128.2</ele>
        <time>2023-03-25T09:01:56Z</time>
      </trkpt>
      <trkpt lat="43.69467" lon="1.22704">
        <ele>128</ele>
        <time>2023-03-25T09:02:00Z</time>
      </trkpt>
      <trkpt lat="43.69494" lon="1.22639">
        <ele>128</ele>
        <time>2023-03-25T09:02:08Z</time>
      </trkpt>
      <trkpt lat="43.695" lon="1.22623">
        <ele>128</ele>
        <time>2023-03-25T09:02:10Z</time>
      </trkpt>
      <trkpt lat="43.69514" lon="1.22588">
        <ele>127.8</ele>
        <time>2023-03-25T09:02:15Z</time>
      </trkpt>
      <trkpt lat="43.69516" lon="1.22581">
        <ele>127.8</ele>
        <time>2023-03-25T09:02:16Z</time>
      </trkpt>
      <trkpt lat="43.69527" lon="1.22543">
        <ele>127.6</ele>
        <time>2023-03-25T09:02:21Z</time>
      </trkpt>
      <trkpt lat="43.69524" lon="1.22531">
        <ele>127.6</ele>
        <time>2023-03-25T09:02:23Z</time>
      </trkpt>
      <trkpt lat="43.69515" lon="1.22522">
        <ele>127.6</ele>
        <time>2023-03-25T09:02:25Z</time>
      </trkpt>
      <trkpt lat="43.69508" lon="1.22511">
        <ele>127.6</ele>
        <time>2023-03-25T09:02:27Z</time>
      </trkpt>
      <trkpt lat="43.69506" lon="1.22504">
        <ele>127.4</ele>
        <time>2023-03-25T09:02:28Z</time>
      </trkpt>
      <trkpt lat="43.69504" lon="1.22496">
        <ele>127.4</ele>
        <time>2023-03-25T09:02:29Z</time>
      </trkpt>
      <trkpt lat="43.69501" lon="1.22462">
        <ele>127.4</ele>
        <time>2023-03-25T09:02:32Z</time>
      </trkpt>
      <trkpt lat="43.69496" lon="1.22419">
        <ele>127.2</ele>
        <time>2023-03-25T09:02:38Z</time>
      </trkpt>
      <trkpt lat="43.69492" lon="1.22394">
        <ele>127.4</ele>
        <time>2023-03-25T09:02:41Z</time>
      </trkpt>
      <trkpt lat="43.69491" lon="1.22376">
        <ele>127.4</ele>
        <time>2023-03-25T09:02:43Z</time>
      </trkpt>
      <trkpt lat="43.69491" lon="1.22367">
        <ele>127.4</ele>
        <time>2023-03-25T09:02:44Z</time>
      </trkpt>
      <trkpt lat="43.69493" lon="1.2235">
        <ele>127.6</ele>
        <time>2023-03-25T09:02:46Z</time>
      </trkpt>
      <trkpt lat="43.69495" lon="1.22342">
        <ele>127.6</ele>
        <time>2023-03-25T09:02:47Z</time>
      </trkpt>
      <trkpt lat="43.69499" lon="1.22326">
        <ele>127.6</ele>
        <time>2023-03-25T09:02:48Z</time>
      </trkpt>
      <trkpt lat="43.695" lon="1.22318">
        <ele>127.8</ele>
        <time>2023-03-25T09:02:50Z</time>
      </trkpt>
      <trkpt lat="43.69501" lon="1.22311">
        <ele>127.8</ele>
        <time>2023-03-25T09:02:51Z</time>
      </trkpt>
      <trkpt lat="43.69506" lon="1.22296">
        <ele>127.8</ele>
        <time>2023-03-25T09:02:53Z</time>
      </trkpt>
      <trkpt lat="43.69506" lon="1.22296">
        <ele>128</ele>
        <time>2023-03-25T09:02:54Z</time>
      </trkpt>
      <trkpt lat="43.69506" lon="1.22293">
        <ele>128.2</ele>
        <time>2023-03-25T09:02:56Z</time>
      </trkpt>
      <trkpt lat="43.69506" lon="1.2229">
        <ele>128.2</ele>
        <time>2023-03-25T09:02:57Z</time>
      </trkpt>
      <trkpt lat="43.69506" lon="1.2229">
        <ele>128.4</ele>
        <time>2023-03-25T09:02:58Z</time>
      </trkpt>
      <trkpt lat="43.69504" lon="1.22285">
        <ele>128.2</ele>
        <time>2023-03-25T09:03:00Z</time>
      </trkpt>
      <trkpt lat="43.69501" lon="1.2228">
        <ele>128.2</ele>
        <time>2023-03-25T09:03:02Z</time>
      </trkpt>
      <trkpt lat="43.69481" lon="1.22264">
        <ele>128.4</ele>
        <time>2023-03-25T09:03:06Z</time>
      </trkpt>
      <trkpt lat="43.69465" lon="1.22251">
        <ele>128.2</ele>
        <time>2023-03-25T09:03:09Z</time>
      </trkpt>
      <trkpt lat="43.69462" lon="1.22246">
        <ele>128.4</ele>
        <time>2023-03-25T09:03:11Z</time>
      </trkpt>
      <trkpt lat="43.69458" lon="1.22241">
        <ele>128.6</ele>
        <time>2023-03-25T09:03:12Z</time>
      </trkpt>
      <trkpt lat="43.69453" lon="1.22227">
        <ele>128.6</ele>
        <time>2023-03-25T09:03:13Z</time>
      </trkpt>
      <trkpt lat="43.69452" lon="1.2222">
        <ele>128.6</ele>
        <time>2023-03-25T09:03:15Z</time>
      </trkpt>
      <trkpt lat="43.69451" lon="1.22212">
        <ele>128.6</ele>
        <time>2023-03-25T09:03:16Z</time>
      </trkpt>
      <trkpt lat="43.69451" lon="1.22195">
        <ele>128.6</ele>
        <time>2023-03-25T09:03:18Z</time>
      </trkpt>
      <trkpt lat="43.69452" lon="1.22187">
        <ele>128.6</ele>
        <time>2023-03-25T09:03:19Z</time>
      </trkpt>
      <trkpt lat="43.69455" lon="1.22179">
        <ele>128.6</ele>
        <time>2023-03-25T09:03:20Z</time>
      </trkpt>
      <trkpt lat="43.6947" lon="1.2215">
        <ele>128.6</ele>
        <time>2023-03-25T09:03:24Z</time>
      </trkpt>
      <trkpt lat="43.69488" lon="1.22101">
        <ele>128.8</ele>
        <time>2023-03-25T09:03:30Z</time>
      </trkpt>
      <trkpt lat="43.6949" lon="1.22091">
        <ele>128.8</ele>
        <time>2023-03-25T09:03:31Z</time>
      </trkpt>
      <trkpt lat="43.69492" lon="1.22072">
        <ele>128.8</ele>
        <time>2023-03-25T09:03:33Z</time>
      </trkpt>
      <trkpt lat="43.69492" lon="1.22061">
        <ele>128.8</ele>
        <time>2023-03-25T09:03:34Z</time>
      </trkpt>
      <trkpt lat="43.69486" lon="1.2198">
        <ele>128.8</ele>
        <time>2023-03-25T09:03:42Z</time>
      </trkpt>
      <trkpt lat="43.69481" lon="1.21898">
        <ele>128.8</ele>
        <time>2023-03-25T09:03:50Z</time>
      </trkpt>
      <trkpt lat="43.69479" lon="1.21867">
        <ele>128.8</ele>
        <time>2023-03-25T09:03:53Z</time>
      </trkpt>
      <trkpt lat="43.69467" lon="1.21776">
        <ele>128.8</ele>
        <time>2023-03-25T09:04:01Z</time>
      </trkpt>
      <trkpt lat="43.69466" lon="1.21766">
        <ele>129</ele>
        <time>2023-03-25T09:04:03Z</time>
      </trkpt>
      <trkpt lat="43.69465" lon="1.21756">
        <ele>129.2</ele>
        <time>2023-03-25T09:04:04Z</time>
      </trkpt>
      <trkpt lat="43.69459" lon="1.21726">
        <ele>129.2</ele>
        <time>2023-03-25T09:04:06Z</time>
      </trkpt>
      <trkpt lat="43.69455" lon="1.21707">
        <ele>129.8</ele>
        <time>2023-03-25T09:04:09Z</time>
      </trkpt>
      <trkpt lat="43.69436" lon="1.21639">
        <ele>129.8</ele>
        <time>2023-03-25T09:04:16Z</time>
      </trkpt>
      <trkpt lat="43.69413" lon="1.21565">
        <ele>129.6</ele>
        <time>2023-03-25T09:04:24Z</time>
      </trkpt>
      <trkpt lat="43.69396" lon="1.2151">
        <ele>130</ele>
        <time>2023-03-25T09:04:30Z</time>
      </trkpt>
      <trkpt lat="43.69385" lon="1.21475">
        <ele>130.2</ele>
        <time>2023-03-25T09:04:34Z</time>
      </trkpt>
      <trkpt lat="43.6937" lon="1.21419">
        <ele>130.4</ele>
        <time>2023-03-25T09:04:40Z</time>
      </trkpt>
      <trkpt lat="43.69376" lon="1.21408">
        <ele>131</ele>
        <time>2023-03-25T09:04:42Z</time>
      </trkpt>
      <trkpt lat="43.69383" lon="1.21399">
        <ele>131.6</ele>
        <time>2023-03-25T09:04:44Z</time>
      </trkpt>
      <trkpt lat="43.69397" lon="1.21384">
        <ele>133</ele>
        <time>2023-03-25T09:04:48Z</time>
      </trkpt>
      <trkpt lat="43.694" lon="1.21381">
        <ele>133.2</ele>
        <time>2023-03-25T09:04:49Z</time>
      </trkpt>
      <trkpt lat="43.69408" lon="1.21372">
        <ele>134</ele>
        <time>2023-03-25T09:04:52Z</time>
      </trkpt>
      <trkpt lat="43.69421" lon="1.21357">
        <ele>135.4</ele>
        <time>2023-03-25T09:04:57Z</time>
      </trkpt>
      <trkpt lat="43.69434" lon="1.21342">
        <ele>136.6</ele>
        <time>2023-03-25T09:05:02Z</time>
      </trkpt>
      <trkpt lat="43.69444" lon="1.21329">
        <ele>137.8</ele>
        <time>2023-03-25T09:05:06Z</time>
      </trkpt>
      <trkpt lat="43.6945" lon="1.21323">
        <ele>138.2</ele>
        <time>2023-03-25T09:05:08Z</time>
      </trkpt>
      <trkpt lat="43.69455" lon="1.21317">
        <ele>138.8</ele>
        <time>2023-03-25T09:05:10Z</time>
      </trkpt>
      <trkpt lat="43.69464" lon="1.21306">
        <ele>140</ele>
        <time>2023-03-25T09:05:14Z</time>
      </trkpt>
      <trkpt lat="43.69473" lon="1.21294">
        <ele>141</ele>
        <time>2023-03-25T09:05:18Z</time>
      </trkpt>
      <trkpt lat="43.69481" lon="1.21283">
        <ele>142.2</ele>
        <time>2023-03-25T09:05:22Z</time>
      </trkpt>
      <trkpt lat="43.69484" lon="1.21278">
        <ele>142.8</ele>
        <time>2023-03-25T09:05:24Z</time>
      </trkpt>
      <trkpt lat="43.69491" lon="1.21269">
        <ele>143.6</ele>
        <time>2023-03-25T09:05:27Z</time>
      </trkpt>
      <trkpt lat="43.69499" lon="1.21259">
        <ele>145</ele>
        <time>2023-03-25T09:05:31Z</time>
      </trkpt>
      <trkpt lat="43.69502" lon="1.21253">
        <ele>145.6</ele>
        <time>2023-03-25T09:05:33Z</time>
      </trkpt>
      <trkpt lat="43.69504" lon="1.21251">
        <ele>146.2</ele>
        <time>2023-03-25T09:05:34Z</time>
      </trkpt>
      <trkpt lat="43.69512" lon="1.21242">
        <ele>147.4</ele>
        <time>2023-03-25T09:05:38Z</time>
      </trkpt>
      <trkpt lat="43.69518" lon="1.21235">
        <ele>148.2</ele>
        <time>2023-03-25T09:05:41Z</time>
      </trkpt>
      <trkpt lat="43.69521" lon="1.21229">
        <ele>148.8</ele>
        <time>2023-03-25T09:05:43Z</time>
      </trkpt>
      <trkpt lat="43.6953" lon="1.21218">
        <ele>150</ele>
        <time>2023-03-25T09:05:48Z</time>
      </trkpt>
      <trkpt lat="43.69535" lon="1.21212">
        <ele>150.8</ele>
        <time>2023-03-25T09:05:51Z</time>
      </trkpt>
      <trkpt lat="43.69537" lon="1.2121">
        <ele>151.2</ele>
        <time>2023-03-25T09:05:52Z</time>
      </trkpt>
      <trkpt lat="43.69543" lon="1.21201">
        <ele>152.4</ele>
        <time>2023-03-25T09:05:56Z</time>
      </trkpt>
      <trkpt lat="43.69546" lon="1.21194">
        <ele>153</ele>
        <time>2023-03-25T09:05:59Z</time>
      </trkpt>
      <trkpt lat="43.6955" lon="1.21189">
        <ele>153.6</ele>
        <time>2023-03-25T09:06:01Z</time>
      </trkpt>
      <trkpt lat="43.69556" lon="1.21178">
        <ele>154.6</ele>
        <time>2023-03-25T09:06:06Z</time>
      </trkpt>
      <trkpt lat="43.69557" lon="1.21175">
        <ele>155</ele>
        <time>2023-03-25T09:06:07Z</time>
      </trkpt>
      <trkpt lat="43.6956" lon="1.21168">
        <ele>155.8</ele>
        <time>2023-03-25T09:06:10Z</time>
      </trkpt>
      <trkpt lat="43.69569" lon="1.21153">
        <ele>157.2</ele>
        <time>2023-03-25T09:06:16Z</time>
      </trkpt>
      <trkpt lat="43.6957" lon="1.2115">
        <ele>157.6</ele>
        <time>2023-03-25T09:06:17Z</time>
      </trkpt>
      <trkpt lat="43.69573" lon="1.21141">
        <ele>158.2</ele>
        <time>2023-03-25T09:06:20Z</time>
      </trkpt>
      <trkpt lat="43.69578" lon="1.2113">
        <ele>159.2</ele>
        <time>2023-03-25T09:06:24Z</time>
      </trkpt>
      <trkpt lat="43.69579" lon="1.21126">
        <ele>159.8</ele>
        <time>2023-03-25T09:06:25Z</time>
      </trkpt>
      <trkpt lat="43.69584" lon="1.21111">
        <ele>161.2</ele>
        <time>2023-03-25T09:06:30Z</time>
      </trkpt>
      <trkpt lat="43.69586" lon="1.21102">
        <ele>161.6</ele>
        <time>2023-03-25T09:06:33Z</time>
      </trkpt>
      <trkpt lat="43.69588" lon="1.21096">
        <ele>162</ele>
        <time>2023-03-25T09:06:35Z</time>
      </trkpt>
      <trkpt lat="43.6959" lon="1.21078">
        <ele>163</ele>
        <time>2023-03-25T09:06:40Z</time>
      </trkpt>
      <trkpt lat="43.6959" lon="1.21074">
        <ele>163.4</ele>
        <time>2023-03-25T09:06:41Z</time>
      </trkpt>
      <trkpt lat="43.69592" lon="1.21056">
        <ele>164.4</ele>
        <time>2023-03-25T09:06:46Z</time>
      </trkpt>
      <trkpt lat="43.69593" lon="1.21052">
        <ele>164.6</ele>
        <time>2023-03-25T09:06:47Z</time>
      </trkpt>
      <trkpt lat="43.69597" lon="1.21035">
        <ele>165.6</ele>
        <time>2023-03-25T09:06:52Z</time>
      </trkpt>
      <trkpt lat="43.69598" lon="1.2102">
        <ele>166.4</ele>
        <time>2023-03-25T09:06:56Z</time>
      </trkpt>
      <trkpt lat="43.69598" lon="1.21016">
        <ele>166.6</ele>
        <time>2023-03-25T09:06:57Z</time>
      </trkpt>
      <trkpt lat="43.69601" lon="1.20997">
        <ele>168</ele>
        <time>2023-03-25T09:07:02Z</time>
      </trkpt>
      <trkpt lat="43.69601" lon="1.2099">
        <ele>168.4</ele>
        <time>2023-03-25T09:07:04Z</time>
      </trkpt>
      <trkpt lat="43.69603" lon="1.20979">
        <ele>169</ele>
        <time>2023-03-25T09:07:07Z</time>
      </trkpt>
      <trkpt lat="43.69607" lon="1.20958">
        <ele>170</ele>
        <time>2023-03-25T09:07:12Z</time>
      </trkpt>
      <trkpt lat="43.69607" lon="1.20954">
        <ele>170.2</ele>
        <time>2023-03-25T09:07:13Z</time>
      </trkpt>
      <trkpt lat="43.69609" lon="1.20921">
        <ele>171.4</ele>
        <time>2023-03-25T09:07:19Z</time>
      </trkpt>
      <trkpt lat="43.69614" lon="1.2089">
        <ele>171.8</ele>
        <time>2023-03-25T09:07:26Z</time>
      </trkpt>
      <trkpt lat="43.69618" lon="1.20861">
        <ele>172</ele>
        <time>2023-03-25T09:07:32Z</time>
      </trkpt>
      <trkpt lat="43.69624" lon="1.20839">
        <ele>172.4</ele>
        <time>2023-03-25T09:07:36Z</time>
      </trkpt>
      <trkpt lat="43.69625" lon="1.20832">
        <ele>172.4</ele>
        <time>2023-03-25T09:07:37Z</time>
      </trkpt>
      <trkpt lat="43.69628" lon="1.20808">
        <ele>172.4</ele>
        <time>2023-03-25T09:07:41Z</time>
      </trkpt>
      <trkpt lat="43.6963" lon="1.20797">
        <ele>172.4</ele>
        <time>2023-03-25T09:07:43Z</time>
      </trkpt>
      <trkpt lat="43.69636" lon="1.2077">
        <ele>172.4</ele>
        <time>2023-03-25T09:07:47Z</time>
      </trkpt>
      <trkpt lat="43.69638" lon="1.20756">
        <ele>172</ele>
        <time>2023-03-25T09:07:49Z</time>
      </trkpt>
      <trkpt lat="43.69643" lon="1.20722">
        <ele>171.4</ele>
        <time>2023-03-25T09:07:54Z</time>
      </trkpt>
      <trkpt lat="43.69646" lon="1.20702">
        <ele>171.2</ele>
        <time>2023-03-25T09:07:57Z</time>
      </trkpt>
      <trkpt lat="43.69647" lon="1.20688">
        <ele>171</ele>
        <time>2023-03-25T09:07:59Z</time>
      </trkpt>
      <trkpt lat="43.69645" lon="1.20665">
        <ele>171</ele>
        <time>2023-03-25T09:08:02Z</time>
      </trkpt>
      <trkpt lat="43.69635" lon="1.20615">
        <ele>171</ele>
        <time>2023-03-25T09:08:08Z</time>
      </trkpt>
      <trkpt lat="43.69632" lon="1.20597">
        <ele>171</ele>
        <time>2023-03-25T09:08:10Z</time>
      </trkpt>
      <trkpt lat="43.6963" lon="1.2057">
        <ele>171</ele>
        <time>2023-03-25T09:08:13Z</time>
      </trkpt>
      <trkpt lat="43.69627" lon="1.20487">
        <ele>171.6</ele>
        <time>2023-03-25T09:08:22Z</time>
      </trkpt>
      <trkpt lat="43.69626" lon="1.20478">
        <ele>171.6</ele>
        <time>2023-03-25T09:08:23Z</time>
      </trkpt>
      <trkpt lat="43.69623" lon="1.20398">
        <ele>172.4</ele>
        <time>2023-03-25T09:08:32Z</time>
      </trkpt>
      <trkpt lat="43.69623" lon="1.20389">
        <ele>172.6</ele>
        <time>2023-03-25T09:08:33Z</time>
      </trkpt>
      <trkpt lat="43.69623" lon="1.20381">
        <ele>172.6</ele>
        <time>2023-03-25T09:08:34Z</time>
      </trkpt>
      <trkpt lat="43.69624" lon="1.20323">
        <ele>173.4</ele>
        <time>2023-03-25T09:08:41Z</time>
      </trkpt>
      <trkpt lat="43.69626" lon="1.203">
        <ele>173.8</ele>
        <time>2023-03-25T09:08:44Z</time>
      </trkpt>
      <trkpt lat="43.69629" lon="1.20269">
        <ele>174.4</ele>
        <time>2023-03-25T09:08:48Z</time>
      </trkpt>
      <trkpt lat="43.69632" lon="1.20247">
        <ele>175.2</ele>
        <time>2023-03-25T09:08:51Z</time>
      </trkpt>
      <trkpt lat="43.69635" lon="1.20218">
        <ele>176.4</ele>
        <time>2023-03-25T09:08:55Z</time>
      </trkpt>
      <trkpt lat="43.69638" lon="1.20195">
        <ele>176.8</ele>
        <time>2023-03-25T09:08:58Z</time>
      </trkpt>
      <trkpt lat="43.69641" lon="1.20159">
        <ele>177.4</ele>
        <time>2023-03-25T09:09:03Z</time>
      </trkpt>
      <trkpt lat="43.69642" lon="1.20119">
        <ele>178.4</ele>
        <time>2023-03-25T09:09:08Z</time>
      </trkpt>
      <trkpt lat="43.69642" lon="1.20112">
        <ele>178.4</ele>
        <time>2023-03-25T09:09:09Z</time>
      </trkpt>
      <trkpt lat="43.69638" lon="1.20059">
        <ele>179.6</ele>
        <time>2023-03-25T09:09:16Z</time>
      </trkpt>
      <trkpt lat="43.6962" lon="1.19984">
        <ele>180.4</ele>
        <time>2023-03-25T09:09:26Z</time>
      </trkpt>
      <trkpt lat="43.69614" lon="1.19954">
        <ele>180.6</ele>
        <time>2023-03-25T09:09:30Z</time>
      </trkpt>
      <trkpt lat="43.69602" lon="1.19902">
        <ele>181.2</ele>
        <time>2023-03-25T09:09:37Z</time>
      </trkpt>
      <trkpt lat="43.69594" lon="1.19866">
        <ele>181.6</ele>
        <time>2023-03-25T09:09:42Z</time>
      </trkpt>
      <trkpt lat="43.69584" lon="1.19822">
        <ele>182.4</ele>
        <time>2023-03-25T09:09:48Z</time>
      </trkpt>
      <trkpt lat="43.69583" lon="1.19815">
        <ele>182.6</ele>
        <time>2023-03-25T09:09:49Z</time>
      </trkpt>
      <trkpt lat="43.69575" lon="1.19774">
        <ele>183.8</ele>
        <time>2023-03-25T09:09:55Z</time>
      </trkpt>
      <trkpt lat="43.69571" lon="1.19747">
        <ele>184.8</ele>
        <time>2023-03-25T09:09:59Z</time>
      </trkpt>
      <trkpt lat="43.6957" lon="1.19739">
        <ele>184.8</ele>
        <time>2023-03-25T09:10:00Z</time>
      </trkpt>
      <trkpt lat="43.69565" lon="1.19712">
        <ele>185.2</ele>
        <time>2023-03-25T09:10:04Z</time>
      </trkpt>
      <trkpt lat="43.69563" lon="1.19698">
        <ele>185.6</ele>
        <time>2023-03-25T09:10:06Z</time>
      </trkpt>
      <trkpt lat="43.69562" lon="1.19691">
        <ele>186</ele>
        <time>2023-03-25T09:10:07Z</time>
      </trkpt>
      <trkpt lat="43.69553" lon="1.19632">
        <ele>187</ele>
        <time>2023-03-25T09:10:15Z</time>
      </trkpt>
      <trkpt lat="43.69551" lon="1.19616">
        <ele>187</ele>
        <time>2023-03-25T09:10:17Z</time>
      </trkpt>
      <trkpt lat="43.6954" lon="1.19547">
        <ele>187.4</ele>
        <time>2023-03-25T09:10:26Z</time>
      </trkpt>
      <trkpt lat="43.69529" lon="1.1947">
        <ele>188</ele>
        <time>2023-03-25T09:10:36Z</time>
      </trkpt>
      <trkpt lat="43.69528" lon="1.19462">
        <ele>188</ele>
        <time>2023-03-25T09:10:37Z</time>
      </trkpt>
      <trkpt lat="43.69526" lon="1.19447">
        <ele>188.2</ele>
        <time>2023-03-25T09:10:39Z</time>
      </trkpt>
      <trkpt lat="43.69519" lon="1.19401">
        <ele>188.8</ele>
        <time>2023-03-25T09:10:46Z</time>
      </trkpt>
      <trkpt lat="43.69519" lon="1.1939">
        <ele>189.2</ele>
        <time>2023-03-25T09:10:49Z</time>
      </trkpt>
      <trkpt lat="43.69518" lon="1.19385">
        <ele>189.2</ele>
        <time>2023-03-25T09:10:50Z</time>
      </trkpt>
      <trkpt lat="43.69519" lon="1.19353">
        <ele>189.4</ele>
        <time>2023-03-25T09:10:55Z</time>
      </trkpt>
      <trkpt lat="43.69522" lon="1.19291">
        <ele>189.8</ele>
        <time>2023-03-25T09:11:03Z</time>
      </trkpt>
      <trkpt lat="43.69527" lon="1.19213">
        <ele>190</ele>
        <time>2023-03-25T09:11:12Z</time>
      </trkpt>
      <trkpt lat="43.69527" lon="1.19204">
        <ele>190</ele>
        <time>2023-03-25T09:11:13Z</time>
      </trkpt>
      <trkpt lat="43.69526" lon="1.19167">
        <ele>190</ele>
        <time>2023-03-25T09:11:17Z</time>
      </trkpt>
      <trkpt lat="43.69524" lon="1.19158">
        <ele>190</ele>
        <time>2023-03-25T09:11:18Z</time>
      </trkpt>
      <trkpt lat="43.69521" lon="1.19149">
        <ele>190</ele>
        <time>2023-03-25T09:11:19Z</time>
      </trkpt>
      <trkpt lat="43.69517" lon="1.19142">
        <ele>190.2</ele>
        <time>2023-03-25T09:11:20Z</time>
      </trkpt>
      <trkpt lat="43.69509" lon="1.19128">
        <ele>190.2</ele>
        <time>2023-03-25T09:11:22Z</time>
      </trkpt>
      <trkpt lat="43.69501" lon="1.19114">
        <ele>190.2</ele>
        <time>2023-03-25T09:11:24Z</time>
      </trkpt>
      <trkpt lat="43.69496" lon="1.19098">
        <ele>190.6</ele>
        <time>2023-03-25T09:11:26Z</time>
      </trkpt>
      <trkpt lat="43.69492" lon="1.19056">
        <ele>190.8</ele>
        <time>2023-03-25T09:11:31Z</time>
      </trkpt>
      <trkpt lat="43.6949" lon="1.1903">
        <ele>191.2</ele>
        <time>2023-03-25T09:11:34Z</time>
      </trkpt>
      <trkpt lat="43.69488" lon="1.18989">
        <ele>192.6</ele>
        <time>2023-03-25T09:11:39Z</time>
      </trkpt>
      <trkpt lat="43.69488" lon="1.18981">
        <ele>192.8</ele>
        <time>2023-03-25T09:11:40Z</time>
      </trkpt>
      <trkpt lat="43.69486" lon="1.1894">
        <ele>193.6</ele>
        <time>2023-03-25T09:11:45Z</time>
      </trkpt>
      <trkpt lat="43.69485" lon="1.18882">
        <ele>194.4</ele>
        <time>2023-03-25T09:11:52Z</time>
      </trkpt>
      <trkpt lat="43.69483" lon="1.18819">
        <ele>194.6</ele>
        <time>2023-03-25T09:12:00Z</time>
      </trkpt>
      <trkpt lat="43.69483" lon="1.18813">
        <ele>194.6</ele>
        <time>2023-03-25T09:12:01Z</time>
      </trkpt>
      <trkpt lat="43.69483" lon="1.18801">
        <ele>194.6</ele>
        <time>2023-03-25T09:12:03Z</time>
      </trkpt>
      <trkpt lat="43.69485" lon="1.18799">
        <ele>194.6</ele>
        <time>2023-03-25T09:12:04Z</time>
      </trkpt>
      <trkpt lat="43.69491" lon="1.18804">
        <ele>194.6</ele>
        <time>2023-03-25T09:12:06Z</time>
      </trkpt>
      <trkpt lat="43.69493" lon="1.18809">
        <ele>194.6</ele>
        <time>2023-03-25T09:12:07Z</time>
      </trkpt>
      <trkpt lat="43.69506" lon="1.18847">
        <ele>194.4</ele>
        <time>2023-03-25T09:12:13Z</time>
      </trkpt>
      <trkpt lat="43.6951" lon="1.18854">
        <ele>194.2</ele>
        <time>2023-03-25T09:12:14Z</time>
      </trkpt>
      <trkpt lat="43.69521" lon="1.18873">
        <ele>193.8</ele>
        <time>2023-03-25T09:12:17Z</time>
      </trkpt>
      <trkpt lat="43.69525" lon="1.18878">
        <ele>193.8</ele>
        <time>2023-03-25T09:12:18Z</time>
      </trkpt>
      <trkpt lat="43.6953" lon="1.18882">
        <ele>193.6</ele>
        <time>2023-03-25T09:12:19Z</time>
      </trkpt>
      <trkpt lat="43.69541" lon="1.18885">
        <ele>193.2</ele>
        <time>2023-03-25T09:12:21Z</time>
      </trkpt>
      <trkpt lat="43.69572" lon="1.18884">
        <ele>192.8</ele>
        <time>2023-03-25T09:12:26Z</time>
      </trkpt>
      <trkpt lat="43.69578" lon="1.18883">
        <ele>192.8</ele>
        <time>2023-03-25T09:12:27Z</time>
      </trkpt>
      <trkpt lat="43.69583" lon="1.18883">
        <ele>192.6</ele>
        <time>2023-03-25T09:12:28Z</time>
      </trkpt>
      <trkpt lat="43.69594" lon="1.18883">
        <ele>192.2</ele>
        <time>2023-03-25T09:12:30Z</time>
      </trkpt>
      <trkpt lat="43.696" lon="1.1888">
        <ele>192</ele>
        <time>2023-03-25T09:12:31Z</time>
      </trkpt>
      <trkpt lat="43.69606" lon="1.18877">
        <ele>191.8</ele>
        <time>2023-03-25T09:12:32Z</time>
      </trkpt>
      <trkpt lat="43.69613" lon="1.18875">
        <ele>191.6</ele>
        <time>2023-03-25T09:12:33Z</time>
      </trkpt>
      <trkpt lat="43.6962" lon="1.18874">
        <ele>191.6</ele>
        <time>2023-03-25T09:12:34Z</time>
      </trkpt>
      <trkpt lat="43.69627" lon="1.18874">
        <ele>191.2</ele>
        <time>2023-03-25T09:12:35Z</time>
      </trkpt>
      <trkpt lat="43.69634" lon="1.18873">
        <ele>191.2</ele>
        <time>2023-03-25T09:12:36Z</time>
      </trkpt>
      <trkpt lat="43.69646" lon="1.18865">
        <ele>191</ele>
        <time>2023-03-25T09:12:38Z</time>
      </trkpt>
      <trkpt lat="43.69657" lon="1.18855">
        <ele>190.2</ele>
        <time>2023-03-25T09:12:40Z</time>
      </trkpt>
      <trkpt lat="43.69661" lon="1.1885">
        <ele>190</ele>
        <time>2023-03-25T09:12:41Z</time>
      </trkpt>
      <trkpt lat="43.6967" lon="1.18841">
        <ele>189.8</ele>
        <time>2023-03-25T09:12:43Z</time>
      </trkpt>
      <trkpt lat="43.69685" lon="1.18826">
        <ele>189.4</ele>
        <time>2023-03-25T09:12:46Z</time>
      </trkpt>
      <trkpt lat="43.69693" lon="1.18813">
        <ele>189.6</ele>
        <time>2023-03-25T09:12:48Z</time>
      </trkpt>
      <trkpt lat="43.69705" lon="1.18794">
        <ele>189.4</ele>
        <time>2023-03-25T09:12:51Z</time>
      </trkpt>
      <trkpt lat="43.69713" lon="1.18782">
        <ele>189.2</ele>
        <time>2023-03-25T09:12:53Z</time>
      </trkpt>
      <trkpt lat="43.69735" lon="1.18751">
        <ele>189.2</ele>
        <time>2023-03-25T09:12:58Z</time>
      </trkpt>
      <trkpt lat="43.69742" lon="1.1874">
        <ele>189</ele>
        <time>2023-03-25T09:13:00Z</time>
      </trkpt>
      <trkpt lat="43.69747" lon="1.18736">
        <ele>189</ele>
        <time>2023-03-25T09:13:01Z</time>
      </trkpt>
      <trkpt lat="43.69756" lon="1.18729">
        <ele>188.8</ele>
        <time>2023-03-25T09:13:03Z</time>
      </trkpt>
      <trkpt lat="43.69762" lon="1.18718">
        <ele>188.8</ele>
        <time>2023-03-25T09:13:05Z</time>
      </trkpt>
      <trkpt lat="43.69762" lon="1.18705">
        <ele>188.6</ele>
        <time>2023-03-25T09:13:07Z</time>
      </trkpt>
      <trkpt lat="43.6976" lon="1.18699">
        <ele>188.6</ele>
        <time>2023-03-25T09:13:08Z</time>
      </trkpt>
      <trkpt lat="43.69758" lon="1.18693">
        <ele>188.6</ele>
        <time>2023-03-25T09:13:09Z</time>
      </trkpt>
      <trkpt lat="43.6975" lon="1.18678">
        <ele>188.4</ele>
        <time>2023-03-25T09:13:12Z</time>
      </trkpt>
      <trkpt lat="43.69747" lon="1.18668">
        <ele>188.4</ele>
        <time>2023-03-25T09:13:14Z</time>
      </trkpt>
      <trkpt lat="43.69749" lon="1.18658">
        <ele>188.6</ele>
        <time>2023-03-25T09:13:16Z</time>
      </trkpt>
      <trkpt lat="43.69759" lon="1.18629">
        <ele>189</ele>
        <time>2023-03-25T09:13:21Z</time>
      </trkpt>
      <trkpt lat="43.69772" lon="1.18588">
        <ele>189.2</ele>
        <time>2023-03-25T09:13:27Z</time>
      </trkpt>
      <trkpt lat="43.69774" lon="1.1858">
        <ele>189.2</ele>
        <time>2023-03-25T09:13:28Z</time>
      </trkpt>
      <trkpt lat="43.69777" lon="1.18573">
        <ele>189.2</ele>
        <time>2023-03-25T09:13:29Z</time>
      </trkpt>
      <trkpt lat="43.6979" lon="1.18543">
        <ele>189.4</ele>
        <time>2023-03-25T09:13:33Z</time>
      </trkpt>
      <trkpt lat="43.69798" lon="1.18519">
        <ele>189.4</ele>
        <time>2023-03-25T09:13:36Z</time>
      </trkpt>
      <trkpt lat="43.69805" lon="1.18503">
        <ele>189.4</ele>
        <time>2023-03-25T09:13:38Z</time>
      </trkpt>
      <trkpt lat="43.69807" lon="1.18495">
        <ele>189.4</ele>
        <time>2023-03-25T09:13:39Z</time>
      </trkpt>
      <trkpt lat="43.69813" lon="1.18472">
        <ele>189.2</ele>
        <time>2023-03-25T09:13:42Z</time>
      </trkpt>
      <trkpt lat="43.69815" lon="1.18459">
        <ele>189</ele>
        <time>2023-03-25T09:13:44Z</time>
      </trkpt>
      <trkpt lat="43.69813" lon="1.18453">
        <ele>189</ele>
        <time>2023-03-25T09:13:45Z</time>
      </trkpt>
      <trkpt lat="43.69812" lon="1.18441">
        <ele>188.8</ele>
        <time>2023-03-25T09:13:47Z</time>
      </trkpt>
      <trkpt lat="43.69814" lon="1.18435">
        <ele>188.8</ele>
        <time>2023-03-25T09:13:48Z</time>
      </trkpt>
      <trkpt lat="43.69817" lon="1.18431">
        <ele>188.8</ele>
        <time>2023-03-25T09:13:49Z</time>
      </trkpt>
      <trkpt lat="43.69824" lon="1.18423">
        <ele>188.6</ele>
        <time>2023-03-25T09:13:51Z</time>
      </trkpt>
      <trkpt lat="43.69827" lon="1.18418">
        <ele>188.6</ele>
        <time>2023-03-25T09:13:52Z</time>
      </trkpt>
      <trkpt lat="43.69837" lon="1.18407">
        <ele>188.4</ele>
        <time>2023-03-25T09:13:55Z</time>
      </trkpt>
      <trkpt lat="43.69841" lon="1.18406">
        <ele>188.4</ele>
        <time>2023-03-25T09:13:56Z</time>
      </trkpt>
      <trkpt lat="43.69845" lon="1.18407">
        <ele>188.2</ele>
        <time>2023-03-25T09:13:57Z</time>
      </trkpt>
      <trkpt lat="43.6985" lon="1.18409">
        <ele>188.2</ele>
        <time>2023-03-25T09:13:58Z</time>
      </trkpt>
      <trkpt lat="43.69855" lon="1.1841">
        <ele>188</ele>
        <time>2023-03-25T09:13:59Z</time>
      </trkpt>
      <trkpt lat="43.69861" lon="1.18402">
        <ele>187.8</ele>
        <time>2023-03-25T09:14:01Z</time>
      </trkpt>
      <trkpt lat="43.69862" lon="1.18396">
        <ele>187.8</ele>
        <time>2023-03-25T09:14:02Z</time>
      </trkpt>
      <trkpt lat="43.69864" lon="1.18384">
        <ele>187.8</ele>
        <time>2023-03-25T09:14:04Z</time>
      </trkpt>
      <trkpt lat="43.69866" lon="1.18379">
        <ele>187.6</ele>
        <time>2023-03-25T09:14:05Z</time>
      </trkpt>
      <trkpt lat="43.69871" lon="1.18369">
        <ele>187.8</ele>
        <time>2023-03-25T09:14:07Z</time>
      </trkpt>
      <trkpt lat="43.69875" lon="1.18356">
        <ele>187.8</ele>
        <time>2023-03-25T09:14:10Z</time>
      </trkpt>
      <trkpt lat="43.69875" lon="1.18344">
        <ele>188</ele>
        <time>2023-03-25T09:14:12Z</time>
      </trkpt>
      <trkpt lat="43.69875" lon="1.18332">
        <ele>188.2</ele>
        <time>2023-03-25T09:14:14Z</time>
      </trkpt>
      <trkpt lat="43.69879" lon="1.18323">
        <ele>188.6</ele>
        <time>2023-03-25T09:14:16Z</time>
      </trkpt>
      <trkpt lat="43.69883" lon="1.18322">
        <ele>188.6</ele>
        <time>2023-03-25T09:14:17Z</time>
      </trkpt>
      <trkpt lat="43.69894" lon="1.18326">
        <ele>188.8</ele>
        <time>2023-03-25T09:14:19Z</time>
      </trkpt>
      <trkpt lat="43.69899" lon="1.1833">
        <ele>188.8</ele>
        <time>2023-03-25T09:14:20Z</time>
      </trkpt>
      <trkpt lat="43.69915" lon="1.18339">
        <ele>189</ele>
        <time>2023-03-25T09:14:23Z</time>
      </trkpt>
      <trkpt lat="43.69921" lon="1.1834">
        <ele>189.4</ele>
        <time>2023-03-25T09:14:24Z</time>
      </trkpt>
      <trkpt lat="43.69927" lon="1.1834">
        <ele>189.6</ele>
        <time>2023-03-25T09:14:25Z</time>
      </trkpt>
      <trkpt lat="43.69949" lon="1.18331">
        <ele>189.8</ele>
        <time>2023-03-25T09:14:29Z</time>
      </trkpt>
      <trkpt lat="43.69954" lon="1.18328">
        <ele>189.8</ele>
        <time>2023-03-25T09:14:30Z</time>
      </trkpt>
      <trkpt lat="43.69959" lon="1.18324">
        <ele>190</ele>
        <time>2023-03-25T09:14:31Z</time>
      </trkpt>
      <trkpt lat="43.69971" lon="1.18308">
        <ele>190.4</ele>
        <time>2023-03-25T09:14:34Z</time>
      </trkpt>
      <trkpt lat="43.6998" lon="1.1829">
        <ele>190.8</ele>
        <time>2023-03-25T09:14:37Z</time>
      </trkpt>
      <trkpt lat="43.69986" lon="1.18276">
        <ele>191</ele>
        <time>2023-03-25T09:14:39Z</time>
      </trkpt>
      <trkpt lat="43.6999" lon="1.18271">
        <ele>191</ele>
        <time>2023-03-25T09:14:40Z</time>
      </trkpt>
      <trkpt lat="43.70001" lon="1.18247">
        <ele>191.2</ele>
        <time>2023-03-25T09:14:44Z</time>
      </trkpt>
      <trkpt lat="43.70006" lon="1.18233">
        <ele>191.2</ele>
        <time>2023-03-25T09:14:46Z</time>
      </trkpt>
      <trkpt lat="43.70008" lon="1.18226">
        <ele>191.2</ele>
        <time>2023-03-25T09:14:47Z</time>
      </trkpt>
      <trkpt lat="43.70016" lon="1.18205">
        <ele>191.2</ele>
        <time>2023-03-25T09:14:50Z</time>
      </trkpt>
      <trkpt lat="43.70018" lon="1.18197">
        <ele>191.2</ele>
        <time>2023-03-25T09:14:51Z</time>
      </trkpt>
      <trkpt lat="43.70021" lon="1.18183">
        <ele>191.2</ele>
        <time>2023-03-25T09:14:53Z</time>
      </trkpt>
      <trkpt lat="43.70024" lon="1.18171">
        <ele>191.2</ele>
        <time>2023-03-25T09:14:55Z</time>
      </trkpt>
      <trkpt lat="43.70023" lon="1.18164">
        <ele>191</ele>
        <time>2023-03-25T09:14:56Z</time>
      </trkpt>
      <trkpt lat="43.70022" lon="1.18158">
        <ele>190.8</ele>
        <time>2023-03-25T09:14:57Z</time>
      </trkpt>
      <trkpt lat="43.70016" lon="1.18152">
        <ele>190.6</ele>
        <time>2023-03-25T09:14:59Z</time>
      </trkpt>
      <trkpt lat="43.69994" lon="1.18141">
        <ele>190.4</ele>
        <time>2023-03-25T09:15:04Z</time>
      </trkpt>
      <trkpt lat="43.6999" lon="1.18137">
        <ele>190.6</ele>
        <time>2023-03-25T09:15:05Z</time>
      </trkpt>
      <trkpt lat="43.69982" lon="1.18115">
        <ele>190.8</ele>
        <time>2023-03-25T09:15:09Z</time>
      </trkpt>
      <trkpt lat="43.69982" lon="1.18108">
        <ele>191</ele>
        <time>2023-03-25T09:15:10Z</time>
      </trkpt>
      <trkpt lat="43.69982" lon="1.18084">
        <ele>191.4</ele>
        <time>2023-03-25T09:15:13Z</time>
      </trkpt>
      <trkpt lat="43.69982" lon="1.18077">
        <ele>191.6</ele>
        <time>2023-03-25T09:15:14Z</time>
      </trkpt>
      <trkpt lat="43.69981" lon="1.18063">
        <ele>191.8</ele>
        <time>2023-03-25T09:15:16Z</time>
      </trkpt>
      <trkpt lat="43.69982" lon="1.18049">
        <ele>192.2</ele>
        <time>2023-03-25T09:15:18Z</time>
      </trkpt>
      <trkpt lat="43.69982" lon="1.18042">
        <ele>192.6</ele>
        <time>2023-03-25T09:15:19Z</time>
      </trkpt>
      <trkpt lat="43.69983" lon="1.18021">
        <ele>193.2</ele>
        <time>2023-03-25T09:15:22Z</time>
      </trkpt>
      <trkpt lat="43.69987" lon="1.1801">
        <ele>193.4</ele>
        <time>2023-03-25T09:15:24Z</time>
      </trkpt>
      <trkpt lat="43.69989" lon="1.18005">
        <ele>193.6</ele>
        <time>2023-03-25T09:15:25Z</time>
      </trkpt>
      <trkpt lat="43.7" lon="1.17998">
        <ele>193.6</ele>
        <time>2023-03-25T09:15:27Z</time>
      </trkpt>
      <trkpt lat="43.70004" lon="1.17994">
        <ele>193.8</ele>
        <time>2023-03-25T09:15:28Z</time>
      </trkpt>
      <trkpt lat="43.70023" lon="1.17983">
        <ele>194.8</ele>
        <time>2023-03-25T09:15:32Z</time>
      </trkpt>
      <trkpt lat="43.70028" lon="1.17979">
        <ele>194.8</ele>
        <time>2023-03-25T09:15:33Z</time>
      </trkpt>
      <trkpt lat="43.70041" lon="1.17963">
        <ele>195</ele>
        <time>2023-03-25T09:15:36Z</time>
      </trkpt>
      <trkpt lat="43.70046" lon="1.17951">
        <ele>195</ele>
        <time>2023-03-25T09:15:38Z</time>
      </trkpt>
      <trkpt lat="43.70058" lon="1.17903">
        <ele>195</ele>
        <time>2023-03-25T09:15:45Z</time>
      </trkpt>
      <trkpt lat="43.70065" lon="1.17864">
        <ele>195.6</ele>
        <time>2023-03-25T09:15:51Z</time>
      </trkpt>
      <trkpt lat="43.70066" lon="1.17858">
        <ele>195.8</ele>
        <time>2023-03-25T09:15:52Z</time>
      </trkpt>
      <trkpt lat="43.70071" lon="1.17829">
        <ele>196</ele>
        <time>2023-03-25T09:15:57Z</time>
      </trkpt>
      <trkpt lat="43.70072" lon="1.17823">
        <ele>196.2</ele>
        <time>2023-03-25T09:15:58Z</time>
      </trkpt>
      <trkpt lat="43.70069" lon="1.17796">
        <ele>196.6</ele>
        <time>2023-03-25T09:16:03Z</time>
      </trkpt>
      <trkpt lat="43.70062" lon="1.17792">
        <ele>196.6</ele>
        <time>2023-03-25T09:16:06Z</time>
      </trkpt>
      <trkpt lat="43.70057" lon="1.17791">
        <ele>196.8</ele>
        <time>2023-03-25T09:16:08Z</time>
      </trkpt>
      <trkpt lat="43.70046" lon="1.17785">
        <ele>198</ele>
        <time>2023-03-25T09:16:12Z</time>
      </trkpt>
      <trkpt lat="43.70024" lon="1.17776">
        <ele>199.2</ele>
        <time>2023-03-25T09:16:20Z</time>
      </trkpt>
      <trkpt lat="43.70018" lon="1.17774">
        <ele>199.8</ele>
        <time>2023-03-25T09:16:22Z</time>
      </trkpt>
      <trkpt lat="43.70015" lon="1.17773">
        <ele>200.2</ele>
        <time>2023-03-25T09:16:23Z</time>
      </trkpt>
      <trkpt lat="43.70006" lon="1.17769">
        <ele>201.4</ele>
        <time>2023-03-25T09:16:27Z</time>
      </trkpt>
      <trkpt lat="43.70001" lon="1.17766">
        <ele>202.2</ele>
        <time>2023-03-25T09:16:29Z</time>
      </trkpt>
      <trkpt lat="43.69999" lon="1.17764">
        <ele>202.6</ele>
        <time>2023-03-25T09:16:30Z</time>
      </trkpt>
      <trkpt lat="43.6999" lon="1.17761">
        <ele>203.8</ele>
        <time>2023-03-25T09:16:34Z</time>
      </trkpt>
      <trkpt lat="43.69988" lon="1.1776">
        <ele>204</ele>
        <time>2023-03-25T09:16:35Z</time>
      </trkpt>
      <trkpt lat="43.69976" lon="1.17759">
        <ele>205</ele>
        <time>2023-03-25T09:16:40Z</time>
      </trkpt>
      <trkpt lat="43.69969" lon="1.17759">
        <ele>206.4</ele>
        <time>2023-03-25T09:16:43Z</time>
      </trkpt>
      <trkpt lat="43.69965" lon="1.17759">
        <ele>207.8</ele>
        <time>2023-03-25T09:16:45Z</time>
      </trkpt>
      <trkpt lat="43.69956" lon="1.17759">
        <ele>209</ele>
        <time>2023-03-25T09:16:48Z</time>
      </trkpt>
      <trkpt lat="43.69954" lon="1.17758">
        <ele>209.2</ele>
        <time>2023-03-25T09:16:49Z</time>
      </trkpt>
      <trkpt lat="43.69946" lon="1.17757">
        <ele>210.2</ele>
        <time>2023-03-25T09:16:52Z</time>
      </trkpt>
      <trkpt lat="43.69936" lon="1.17754">
        <ele>211.4</ele>
        <time>2023-03-25T09:16:56Z</time>
      </trkpt>
      <trkpt lat="43.69929" lon="1.1775">
        <ele>212</ele>
        <time>2023-03-25T09:16:59Z</time>
      </trkpt>
      <trkpt lat="43.69921" lon="1.17747">
        <ele>212.4</ele>
        <time>2023-03-25T09:17:02Z</time>
      </trkpt>
      <trkpt lat="43.69901" lon="1.1774">
        <ele>213.4</ele>
        <time>2023-03-25T09:17:09Z</time>
      </trkpt>
      <trkpt lat="43.6987" lon="1.17728">
        <ele>214.2</ele>
        <time>2023-03-25T09:17:18Z</time>
      </trkpt>
      <trkpt lat="43.69844" lon="1.17719">
        <ele>214.4</ele>
        <time>2023-03-25T09:17:25Z</time>
      </trkpt>
      <trkpt lat="43.69819" lon="1.17712">
        <ele>214.6</ele>
        <time>2023-03-25T09:17:32Z</time>
      </trkpt>
      <trkpt lat="43.69815" lon="1.17711">
        <ele>214.8</ele>
        <time>2023-03-25T09:17:33Z</time>
      </trkpt>
      <trkpt lat="43.69789" lon="1.17704">
        <ele>214.8</ele>
        <time>2023-03-25T09:17:40Z</time>
      </trkpt>
      <trkpt lat="43.6977" lon="1.17702">
        <ele>214.8</ele>
        <time>2023-03-25T09:17:46Z</time>
      </trkpt>
      <trkpt lat="43.69767" lon="1.17704">
        <ele>214.8</ele>
        <time>2023-03-25T09:17:47Z</time>
      </trkpt>
      <trkpt lat="43.6976" lon="1.17718">
        <ele>214.8</ele>
        <time>2023-03-25T09:17:51Z</time>
      </trkpt>
      <trkpt lat="43.69748" lon="1.17746">
        <ele>214.8</ele>
        <time>2023-03-25T09:17:57Z</time>
      </trkpt>
      <trkpt lat="43.69735" lon="1.17789">
        <ele>215</ele>
        <time>2023-03-25T09:18:04Z</time>
      </trkpt>
      <trkpt lat="43.69717" lon="1.17841">
        <ele>215</ele>
        <time>2023-03-25T09:18:12Z</time>
      </trkpt>
      <trkpt lat="43.69713" lon="1.17851">
        <ele>215</ele>
        <time>2023-03-25T09:18:14Z</time>
      </trkpt>
      <trkpt lat="43.69708" lon="1.17867">
        <ele>215</ele>
        <time>2023-03-25T09:18:17Z</time>
      </trkpt>
      <trkpt lat="43.69686" lon="1.17915">
        <ele>215.2</ele>
        <time>2023-03-25T09:18:25Z</time>
      </trkpt>
      <trkpt lat="43.69661" lon="1.17972">
        <ele>215.2</ele>
        <time>2023-03-25T09:18:34Z</time>
      </trkpt>
      <trkpt lat="43.69653" lon="1.17992">
        <ele>215.4</ele>
        <time>2023-03-25T09:18:37Z</time>
      </trkpt>
      <trkpt lat="43.69641" lon="1.1802">
        <ele>215</ele>
        <time>2023-03-25T09:18:42Z</time>
      </trkpt>
      <trkpt lat="43.69627" lon="1.18054">
        <ele>214.4</ele>
        <time>2023-03-25T09:18:49Z</time>
      </trkpt>
      <trkpt lat="43.69626" lon="1.18059">
        <ele>214.4</ele>
        <time>2023-03-25T09:18:50Z</time>
      </trkpt>
      <trkpt lat="43.69628" lon="1.18069">
        <ele>214.4</ele>
        <time>2023-03-25T09:18:52Z</time>
      </trkpt>
      <trkpt lat="43.69631" lon="1.18074">
        <ele>214.2</ele>
        <time>2023-03-25T09:18:55Z</time>
      </trkpt>
      <trkpt lat="43.69631" lon="1.18074">
        <ele>214.2</ele>
        <time>2023-03-25T09:18:56Z</time>
      </trkpt>
      <trkpt lat="43.69634" lon="1.18082">
        <ele>213.8</ele>
        <time>2023-03-25T09:19:01Z</time>
      </trkpt>
      <trkpt lat="43.69635" lon="1.18086">
        <ele>213.6</ele>
        <time>2023-03-25T09:19:02Z</time>
      </trkpt>
      <trkpt lat="43.69638" lon="1.18091">
        <ele>213.6</ele>
        <time>2023-03-25T09:19:03Z</time>
      </trkpt>
      <trkpt lat="43.69647" lon="1.18113">
        <ele>212.6</ele>
        <time>2023-03-25T09:19:08Z</time>
      </trkpt>
      <trkpt lat="43.69648" lon="1.18116">
        <ele>211.8</ele>
        <time>2023-03-25T09:19:09Z</time>
      </trkpt>
      <trkpt lat="43.69649" lon="1.18123">
        <ele>211</ele>
        <time>2023-03-25T09:19:11Z</time>
      </trkpt>
      <trkpt lat="43.6965" lon="1.18125">
        <ele>210.6</ele>
        <time>2023-03-25T09:19:12Z</time>
      </trkpt>
      <trkpt lat="43.69651" lon="1.1813">
        <ele>209.8</ele>
        <time>2023-03-25T09:19:14Z</time>
      </trkpt>
      <trkpt lat="43.6965" lon="1.18141">
        <ele>209.6</ele>
        <time>2023-03-25T09:19:17Z</time>
      </trkpt>
      <trkpt lat="43.69646" lon="1.18159">
        <ele>209.6</ele>
        <time>2023-03-25T09:19:21Z</time>
      </trkpt>
      <trkpt lat="43.69643" lon="1.18169">
        <ele>209.6</ele>
        <time>2023-03-25T09:19:23Z</time>
      </trkpt>
      <trkpt lat="43.69641" lon="1.18188">
        <ele>209</ele>
        <time>2023-03-25T09:19:26Z</time>
      </trkpt>
      <trkpt lat="43.69641" lon="1.18193">
        <ele>209</ele>
        <time>2023-03-25T09:19:27Z</time>
      </trkpt>
      <trkpt lat="43.69641" lon="1.182">
        <ele>209</ele>
        <time>2023-03-25T09:19:28Z</time>
      </trkpt>
      <trkpt lat="43.69641" lon="1.18214">
        <ele>208.8</ele>
        <time>2023-03-25T09:19:30Z</time>
      </trkpt>
      <trkpt lat="43.69642" lon="1.18222">
        <ele>208.6</ele>
        <time>2023-03-25T09:19:31Z</time>
      </trkpt>
      <trkpt lat="43.69642" lon="1.18237">
        <ele>208.2</ele>
        <time>2023-03-25T09:19:33Z</time>
      </trkpt>
      <trkpt lat="43.6964" lon="1.18254">
        <ele>208</ele>
        <time>2023-03-25T09:19:35Z</time>
      </trkpt>
      <trkpt lat="43.69636" lon="1.1828">
        <ele>207.6</ele>
        <time>2023-03-25T09:19:38Z</time>
      </trkpt>
      <trkpt lat="43.69635" lon="1.18288">
        <ele>207.2</ele>
        <time>2023-03-25T09:19:39Z</time>
      </trkpt>
      <trkpt lat="43.69632" lon="1.18296">
        <ele>207</ele>
        <time>2023-03-25T09:19:40Z</time>
      </trkpt>
      <trkpt lat="43.69617" lon="1.18324">
        <ele>206.8</ele>
        <time>2023-03-25T09:19:44Z</time>
      </trkpt>
      <trkpt lat="43.69613" lon="1.18331">
        <ele>206.6</ele>
        <time>2023-03-25T09:19:45Z</time>
      </trkpt>
      <trkpt lat="43.69589" lon="1.18372">
        <ele>206.2</ele>
        <time>2023-03-25T09:19:50Z</time>
      </trkpt>
      <trkpt lat="43.69565" lon="1.18417">
        <ele>205.4</ele>
        <time>2023-03-25T09:19:55Z</time>
      </trkpt>
      <trkpt lat="43.69556" lon="1.18434">
        <ele>205.2</ele>
        <time>2023-03-25T09:19:57Z</time>
      </trkpt>
      <trkpt lat="43.69548" lon="1.18451">
        <ele>204.8</ele>
        <time>2023-03-25T09:19:59Z</time>
      </trkpt>
      <trkpt lat="43.69537" lon="1.18466">
        <ele>204.4</ele>
        <time>2023-03-25T09:20:01Z</time>
      </trkpt>
      <trkpt lat="43.6953" lon="1.18473">
        <ele>204.2</ele>
        <time>2023-03-25T09:20:02Z</time>
      </trkpt>
      <trkpt lat="43.69496" lon="1.18504">
        <ele>204.2</ele>
        <time>2023-03-25T09:20:08Z</time>
      </trkpt>
      <trkpt lat="43.69466" lon="1.18533">
        <ele>204.4</ele>
        <time>2023-03-25T09:20:14Z</time>
      </trkpt>
      <trkpt lat="43.69458" lon="1.18542">
        <ele>204.4</ele>
        <time>2023-03-25T09:20:16Z</time>
      </trkpt>
      <trkpt lat="43.69446" lon="1.18553">
        <ele>204.6</ele>
        <time>2023-03-25T09:20:19Z</time>
      </trkpt>
      <trkpt lat="43.69418" lon="1.18581">
        <ele>204.6</ele>
        <time>2023-03-25T09:20:26Z</time>
      </trkpt>
      <trkpt lat="43.69411" lon="1.18587">
        <ele>204.4</ele>
        <time>2023-03-25T09:20:28Z</time>
      </trkpt>
      <trkpt lat="43.69409" lon="1.18588">
        <ele>204.2</ele>
        <time>2023-03-25T09:20:29Z</time>
      </trkpt>
      <trkpt lat="43.69405" lon="1.18586">
        <ele>203.6</ele>
        <time>2023-03-25T09:20:31Z</time>
      </trkpt>
      <trkpt lat="43.69403" lon="1.18581">
        <ele>203.2</ele>
        <time>2023-03-25T09:20:33Z</time>
      </trkpt>
      <trkpt lat="43.69395" lon="1.18558">
        <ele>203.4</ele>
        <time>2023-03-25T09:20:39Z</time>
      </trkpt>
      <trkpt lat="43.69391" lon="1.18542">
        <ele>204.4</ele>
        <time>2023-03-25T09:20:43Z</time>
      </trkpt>
      <trkpt lat="43.69391" lon="1.18539">
        <ele>204.6</ele>
        <time>2023-03-25T09:20:44Z</time>
      </trkpt>
      <trkpt lat="43.69389" lon="1.18534">
        <ele>205.4</ele>
        <time>2023-03-25T09:20:46Z</time>
      </trkpt>
      <trkpt lat="43.69387" lon="1.18532">
        <ele>205.6</ele>
        <time>2023-03-25T09:20:47Z</time>
      </trkpt>
      <trkpt lat="43.69384" lon="1.18532">
        <ele>205.8</ele>
        <time>2023-03-25T09:20:48Z</time>
      </trkpt>
      <trkpt lat="43.69372" lon="1.18537">
        <ele>206.8</ele>
        <time>2023-03-25T09:20:52Z</time>
      </trkpt>
      <trkpt lat="43.69359" lon="1.18554">
        <ele>207.2</ele>
        <time>2023-03-25T09:20:56Z</time>
      </trkpt>
      <trkpt lat="43.69354" lon="1.18556">
        <ele>207.6</ele>
        <time>2023-03-25T09:20:57Z</time>
      </trkpt>
      <trkpt lat="43.69343" lon="1.18561">
        <ele>207.6</ele>
        <time>2023-03-25T09:20:59Z</time>
      </trkpt>
      <trkpt lat="43.69338" lon="1.18563">
        <ele>207.4</ele>
        <time>2023-03-25T09:21:00Z</time>
      </trkpt>
      <trkpt lat="43.69332" lon="1.18564">
        <ele>207.2</ele>
        <time>2023-03-25T09:21:01Z</time>
      </trkpt>
      <trkpt lat="43.6932" lon="1.18567">
        <ele>206.8</ele>
        <time>2023-03-25T09:21:03Z</time>
      </trkpt>
      <trkpt lat="43.69314" lon="1.18572">
        <ele>206.4</ele>
        <time>2023-03-25T09:21:04Z</time>
      </trkpt>
      <trkpt lat="43.69305" lon="1.18583">
        <ele>205.8</ele>
        <time>2023-03-25T09:21:06Z</time>
      </trkpt>
      <trkpt lat="43.69301" lon="1.18587">
        <ele>205.6</ele>
        <time>2023-03-25T09:21:07Z</time>
      </trkpt>
      <trkpt lat="43.69291" lon="1.18598">
        <ele>205</ele>
        <time>2023-03-25T09:21:09Z</time>
      </trkpt>
      <trkpt lat="43.69288" lon="1.18604">
        <ele>204.6</ele>
        <time>2023-03-25T09:21:10Z</time>
      </trkpt>
      <trkpt lat="43.69288" lon="1.18613">
        <ele>204.6</ele>
        <time>2023-03-25T09:21:12Z</time>
      </trkpt>
      <trkpt lat="43.69295" lon="1.18633">
        <ele>204</ele>
        <time>2023-03-25T09:21:16Z</time>
      </trkpt>
      <trkpt lat="43.69298" lon="1.18638">
        <ele>203.6</ele>
        <time>2023-03-25T09:21:17Z</time>
      </trkpt>
      <trkpt lat="43.69298" lon="1.18646">
        <ele>203</ele>
        <time>2023-03-25T09:21:19Z</time>
      </trkpt>
      <trkpt lat="43.69299" lon="1.1865">
        <ele>202.4</ele>
        <time>2023-03-25T09:21:20Z</time>
      </trkpt>
      <trkpt lat="43.69298" lon="1.18655">
        <ele>201.2</ele>
        <time>2023-03-25T09:21:23Z</time>
      </trkpt>
      <trkpt lat="43.69297" lon="1.18655">
        <ele>201</ele>
        <time>2023-03-25T09:21:24Z</time>
      </trkpt>
      <trkpt lat="43.69294" lon="1.18657">
        <ele>200.8</ele>
        <time>2023-03-25T09:21:25Z</time>
      </trkpt>
      <trkpt lat="43.69284" lon="1.18666">
        <ele>200</ele>
        <time>2023-03-25T09:21:29Z</time>
      </trkpt>
      <trkpt lat="43.69283" lon="1.18671">
        <ele>198.4</ele>
        <time>2023-03-25T09:21:31Z</time>
      </trkpt>
      <trkpt lat="43.69283" lon="1.18674">
        <ele>197.6</ele>
        <time>2023-03-25T09:21:32Z</time>
      </trkpt>
      <trkpt lat="43.69281" lon="1.18679">
        <ele>196.6</ele>
        <time>2023-03-25T09:21:33Z</time>
      </trkpt>
      <trkpt lat="43.6928" lon="1.18697">
        <ele>195.4</ele>
        <time>2023-03-25T09:21:36Z</time>
      </trkpt>
      <trkpt lat="43.69279" lon="1.18702">
        <ele>195.2</ele>
        <time>2023-03-25T09:21:37Z</time>
      </trkpt>
      <trkpt lat="43.69275" lon="1.18714">
        <ele>194.4</ele>
        <time>2023-03-25T09:21:39Z</time>
      </trkpt>
      <trkpt lat="43.69274" lon="1.18716">
        <ele>193.8</ele>
        <time>2023-03-25T09:21:40Z</time>
      </trkpt>
      <trkpt lat="43.69272" lon="1.18719">
        <ele>193.6</ele>
        <time>2023-03-25T09:21:41Z</time>
      </trkpt>
      <trkpt lat="43.69267" lon="1.18736">
        <ele>192.2</ele>
        <time>2023-03-25T09:21:44Z</time>
      </trkpt>
      <trkpt lat="43.69266" lon="1.1874">
        <ele>191.4</ele>
        <time>2023-03-25T09:21:45Z</time>
      </trkpt>
      <trkpt lat="43.69263" lon="1.18747">
        <ele>190</ele>
        <time>2023-03-25T09:21:47Z</time>
      </trkpt>
      <trkpt lat="43.69258" lon="1.18753">
        <ele>189.6</ele>
        <time>2023-03-25T09:21:49Z</time>
      </trkpt>
      <trkpt lat="43.69259" lon="1.18757">
        <ele>189.4</ele>
        <time>2023-03-25T09:21:50Z</time>
      </trkpt>
      <trkpt lat="43.69258" lon="1.18771">
        <ele>188.8</ele>
        <time>2023-03-25T09:21:52Z</time>
      </trkpt>
      <trkpt lat="43.69255" lon="1.18796">
        <ele>188</ele>
        <time>2023-03-25T09:21:56Z</time>
      </trkpt>
      <trkpt lat="43.69257" lon="1.188">
        <ele>187.8</ele>
        <time>2023-03-25T09:21:57Z</time>
      </trkpt>
      <trkpt lat="43.69259" lon="1.18805">
        <ele>187.2</ele>
        <time>2023-03-25T09:21:58Z</time>
      </trkpt>
      <trkpt lat="43.6926" lon="1.1881">
        <ele>187</ele>
        <time>2023-03-25T09:21:59Z</time>
      </trkpt>
      <trkpt lat="43.69258" lon="1.18821">
        <ele>186.8</ele>
        <time>2023-03-25T09:22:01Z</time>
      </trkpt>
      <trkpt lat="43.69257" lon="1.18862">
        <ele>186</ele>
        <time>2023-03-25T09:22:07Z</time>
      </trkpt>
      <trkpt lat="43.69255" lon="1.18869">
        <ele>186</ele>
        <time>2023-03-25T09:22:08Z</time>
      </trkpt>
      <trkpt lat="43.6925" lon="1.18881">
        <ele>185.8</ele>
        <time>2023-03-25T09:22:10Z</time>
      </trkpt>
      <trkpt lat="43.69247" lon="1.18906">
        <ele>186</ele>
        <time>2023-03-25T09:22:14Z</time>
      </trkpt>
      <trkpt lat="43.6924" lon="1.18939">
        <ele>185.8</ele>
        <time>2023-03-25T09:22:19Z</time>
      </trkpt>
      <trkpt lat="43.69226" lon="1.1897">
        <ele>185</ele>
        <time>2023-03-25T09:22:24Z</time>
      </trkpt>
      <trkpt lat="43.69224" lon="1.18973">
        <ele>184.8</ele>
        <time>2023-03-25T09:22:25Z</time>
      </trkpt>
      <trkpt lat="43.69222" lon="1.18978">
        <ele>184</ele>
        <time>2023-03-25T09:22:27Z</time>
      </trkpt>
      <trkpt lat="43.6922" lon="1.18981">
        <ele>184</ele>
        <time>2023-03-25T09:22:28Z</time>
      </trkpt>
      <trkpt lat="43.69217" lon="1.18987">
        <ele>183.6</ele>
        <time>2023-03-25T09:22:30Z</time>
      </trkpt>
      <trkpt lat="43.69213" lon="1.18996">
        <ele>183.4</ele>
        <time>2023-03-25T09:22:32Z</time>
      </trkpt>
      <trkpt lat="43.69202" lon="1.19022">
        <ele>182.8</ele>
        <time>2023-03-25T09:22:37Z</time>
      </trkpt>
      <trkpt lat="43.69198" lon="1.19038">
        <ele>182.4</ele>
        <time>2023-03-25T09:22:40Z</time>
      </trkpt>
      <trkpt lat="43.69196" lon="1.19043">
        <ele>182.4</ele>
        <time>2023-03-25T09:22:41Z</time>
      </trkpt>
      <trkpt lat="43.69193" lon="1.19049">
        <ele>182</ele>
        <time>2023-03-25T09:22:42Z</time>
      </trkpt>
      <trkpt lat="43.69189" lon="1.1907">
        <ele>181.6</ele>
        <time>2023-03-25T09:22:45Z</time>
      </trkpt>
      <trkpt lat="43.69188" lon="1.19077">
        <ele>181.4</ele>
        <time>2023-03-25T09:22:46Z</time>
      </trkpt>
      <trkpt lat="43.69188" lon="1.19105">
        <ele>181.6</ele>
        <time>2023-03-25T09:22:51Z</time>
      </trkpt>
      <trkpt lat="43.69191" lon="1.19122">
        <ele>182.6</ele>
        <time>2023-03-25T09:22:55Z</time>
      </trkpt>
      <trkpt lat="43.69192" lon="1.19127">
        <ele>183.4</ele>
        <time>2023-03-25T09:22:57Z</time>
      </trkpt>
      <trkpt lat="43.69192" lon="1.19132">
        <ele>184</ele>
        <time>2023-03-25T09:22:58Z</time>
      </trkpt>
      <trkpt lat="43.69193" lon="1.19141">
        <ele>185.2</ele>
        <time>2023-03-25T09:23:00Z</time>
      </trkpt>
      <trkpt lat="43.69196" lon="1.19149">
        <ele>186.6</ele>
        <time>2023-03-25T09:23:03Z</time>
      </trkpt>
      <trkpt lat="43.69196" lon="1.19153">
        <ele>187</ele>
        <time>2023-03-25T09:23:04Z</time>
      </trkpt>
      <trkpt lat="43.69196" lon="1.19157">
        <ele>187.8</ele>
        <time>2023-03-25T09:23:05Z</time>
      </trkpt>
      <trkpt lat="43.69197" lon="1.1916">
        <ele>188</ele>
        <time>2023-03-25T09:23:06Z</time>
      </trkpt>
      <trkpt lat="43.69198" lon="1.19166">
        <ele>188.8</ele>
        <time>2023-03-25T09:23:08Z</time>
      </trkpt>
      <trkpt lat="43.69198" lon="1.19169">
        <ele>189.4</ele>
        <time>2023-03-25T09:23:09Z</time>
      </trkpt>
      <trkpt lat="43.69199" lon="1.19176">
        <ele>190</ele>
        <time>2023-03-25T09:23:11Z</time>
      </trkpt>
      <trkpt lat="43.69203" lon="1.19184">
        <ele>191</ele>
        <time>2023-03-25T09:23:14Z</time>
      </trkpt>
      <trkpt lat="43.69204" lon="1.19187">
        <ele>191</ele>
        <time>2023-03-25T09:23:15Z</time>
      </trkpt>
      <trkpt lat="43.69208" lon="1.19194">
        <ele>191.8</ele>
        <time>2023-03-25T09:23:17Z</time>
      </trkpt>
      <trkpt lat="43.6921" lon="1.19196">
        <ele>192.2</ele>
        <time>2023-03-25T09:23:18Z</time>
      </trkpt>
      <trkpt lat="43.69212" lon="1.19197">
        <ele>192.6</ele>
        <time>2023-03-25T09:23:19Z</time>
      </trkpt>
      <trkpt lat="43.69215" lon="1.19202">
        <ele>193.4</ele>
        <time>2023-03-25T09:23:23Z</time>
      </trkpt>
      <trkpt lat="43.69216" lon="1.19204">
        <ele>193.6</ele>
        <time>2023-03-25T09:23:24Z</time>
      </trkpt>
      <trkpt lat="43.69216" lon="1.19206">
        <ele>194</ele>
        <time>2023-03-25T09:23:25Z</time>
      </trkpt>
      <trkpt lat="43.69214" lon="1.19211">
        <ele>194.4</ele>
        <time>2023-03-25T09:23:27Z</time>
      </trkpt>
      <trkpt lat="43.69213" lon="1.19213">
        <ele>194.8</ele>
        <time>2023-03-25T09:23:28Z</time>
      </trkpt>
      <trkpt lat="43.69213" lon="1.19215">
        <ele>195</ele>
        <time>2023-03-25T09:23:29Z</time>
      </trkpt>
      <trkpt lat="43.69206" lon="1.19227">
        <ele>195.8</ele>
        <time>2023-03-25T09:23:34Z</time>
      </trkpt>
      <trkpt lat="43.69196" lon="1.19243">
        <ele>195.8</ele>
        <time>2023-03-25T09:23:39Z</time>
      </trkpt>
      <trkpt lat="43.6918" lon="1.19265">
        <ele>195.6</ele>
        <time>2023-03-25T09:23:45Z</time>
      </trkpt>
      <trkpt lat="43.69168" lon="1.1928">
        <ele>195.4</ele>
        <time>2023-03-25T09:23:49Z</time>
      </trkpt>
      <trkpt lat="43.69153" lon="1.193">
        <ele>195.4</ele>
        <time>2023-03-25T09:23:54Z</time>
      </trkpt>
      <trkpt lat="43.6915" lon="1.19312">
        <ele>195.2</ele>
        <time>2023-03-25T09:23:57Z</time>
      </trkpt>
      <trkpt lat="43.69152" lon="1.19317">
        <ele>195.2</ele>
        <time>2023-03-25T09:23:58Z</time>
      </trkpt>
      <trkpt lat="43.69152" lon="1.19332">
        <ele>194.8</ele>
        <time>2023-03-25T09:24:01Z</time>
      </trkpt>
      <trkpt lat="43.69151" lon="1.19337">
        <ele>194.8</ele>
        <time>2023-03-25T09:24:02Z</time>
      </trkpt>
      <trkpt lat="43.69142" lon="1.19355">
        <ele>194.2</ele>
        <time>2023-03-25T09:24:06Z</time>
      </trkpt>
      <trkpt lat="43.69138" lon="1.19367">
        <ele>194</ele>
        <time>2023-03-25T09:24:08Z</time>
      </trkpt>
      <trkpt lat="43.69134" lon="1.1938">
        <ele>194</ele>
        <time>2023-03-25T09:24:10Z</time>
      </trkpt>
      <trkpt lat="43.69133" lon="1.19387">
        <ele>193.8</ele>
        <time>2023-03-25T09:24:11Z</time>
      </trkpt>
      <trkpt lat="43.69131" lon="1.19394">
        <ele>193.8</ele>
        <time>2023-03-25T09:24:12Z</time>
      </trkpt>
      <trkpt lat="43.69129" lon="1.19401">
        <ele>193.8</ele>
        <time>2023-03-25T09:24:13Z</time>
      </trkpt>
      <trkpt lat="43.69127" lon="1.19417">
        <ele>193.4</ele>
        <time>2023-03-25T09:24:16Z</time>
      </trkpt>
      <trkpt lat="43.69126" lon="1.1942">
        <ele>192.8</ele>
        <time>2023-03-25T09:24:18Z</time>
      </trkpt>
      <trkpt lat="43.69125" lon="1.19421">
        <ele>192.8</ele>
        <time>2023-03-25T09:24:19Z</time>
      </trkpt>
      <trkpt lat="43.69122" lon="1.19432">
        <ele>191.6</ele>
        <time>2023-03-25T09:24:26Z</time>
      </trkpt>
      <trkpt lat="43.69113" lon="1.19447">
        <ele>190.6</ele>
        <time>2023-03-25T09:24:31Z</time>
      </trkpt>
      <trkpt lat="43.69111" lon="1.19454">
        <ele>190.2</ele>
        <time>2023-03-25T09:24:32Z</time>
      </trkpt>
      <trkpt lat="43.69101" lon="1.19478">
        <ele>189.6</ele>
        <time>2023-03-25T09:24:35Z</time>
      </trkpt>
      <trkpt lat="43.69097" lon="1.19486">
        <ele>189.2</ele>
        <time>2023-03-25T09:24:36Z</time>
      </trkpt>
      <trkpt lat="43.69088" lon="1.19503">
        <ele>188.6</ele>
        <time>2023-03-25T09:24:38Z</time>
      </trkpt>
      <trkpt lat="43.69076" lon="1.1952">
        <ele>188</ele>
        <time>2023-03-25T09:24:40Z</time>
      </trkpt>
      <trkpt lat="43.69057" lon="1.19543">
        <ele>186.6</ele>
        <time>2023-03-25T09:24:43Z</time>
      </trkpt>
      <trkpt lat="43.69043" lon="1.19557">
        <ele>185.8</ele>
        <time>2023-03-25T09:24:45Z</time>
      </trkpt>
      <trkpt lat="43.69034" lon="1.19562">
        <ele>185.4</ele>
        <time>2023-03-25T09:24:46Z</time>
      </trkpt>
      <trkpt lat="43.69025" lon="1.19565">
        <ele>185</ele>
        <time>2023-03-25T09:24:47Z</time>
      </trkpt>
      <trkpt lat="43.69016" lon="1.19566">
        <ele>184.6</ele>
        <time>2023-03-25T09:24:48Z</time>
      </trkpt>
      <trkpt lat="43.68996" lon="1.19567">
        <ele>183.8</ele>
        <time>2023-03-25T09:24:50Z</time>
      </trkpt>
      <trkpt lat="43.68975" lon="1.19569">
        <ele>182.8</ele>
        <time>2023-03-25T09:24:52Z</time>
      </trkpt>
      <trkpt lat="43.68965" lon="1.19571">
        <ele>182.2</ele>
        <time>2023-03-25T09:24:53Z</time>
      </trkpt>
      <trkpt lat="43.68954" lon="1.19574">
        <ele>181.8</ele>
        <time>2023-03-25T09:24:54Z</time>
      </trkpt>
      <trkpt lat="43.68945" lon="1.1958">
        <ele>181.2</ele>
        <time>2023-03-25T09:24:55Z</time>
      </trkpt>
      <trkpt lat="43.68936" lon="1.19587">
        <ele>180.6</ele>
        <time>2023-03-25T09:24:56Z</time>
      </trkpt>
      <trkpt lat="43.68927" lon="1.19595">
        <ele>179.8</ele>
        <time>2023-03-25T09:24:57Z</time>
      </trkpt>
      <trkpt lat="43.68909" lon="1.19615">
        <ele>178.4</ele>
        <time>2023-03-25T09:24:59Z</time>
      </trkpt>
      <trkpt lat="43.6889" lon="1.19636">
        <ele>176.6</ele>
        <time>2023-03-25T09:25:01Z</time>
      </trkpt>
      <trkpt lat="43.68872" lon="1.19657">
        <ele>175.4</ele>
        <time>2023-03-25T09:25:03Z</time>
      </trkpt>
      <trkpt lat="43.68863" lon="1.19668">
        <ele>174</ele>
        <time>2023-03-25T09:25:04Z</time>
      </trkpt>
      <trkpt lat="43.68843" lon="1.19689">
        <ele>172.2</ele>
        <time>2023-03-25T09:25:06Z</time>
      </trkpt>
      <trkpt lat="43.68833" lon="1.19698">
        <ele>171.4</ele>
        <time>2023-03-25T09:25:07Z</time>
      </trkpt>
      <trkpt lat="43.68822" lon="1.19707">
        <ele>170.2</ele>
        <time>2023-03-25T09:25:08Z</time>
      </trkpt>
      <trkpt lat="43.68811" lon="1.19715">
        <ele>169</ele>
        <time>2023-03-25T09:25:09Z</time>
      </trkpt>
      <trkpt lat="43.68789" lon="1.19732">
        <ele>167.4</ele>
        <time>2023-03-25T09:25:11Z</time>
      </trkpt>
      <trkpt lat="43.68778" lon="1.19741">
        <ele>167</ele>
        <time>2023-03-25T09:25:12Z</time>
      </trkpt>
      <trkpt lat="43.68767" lon="1.19751">
        <ele>165.2</ele>
        <time>2023-03-25T09:25:13Z</time>
      </trkpt>
      <trkpt lat="43.68745" lon="1.19774">
        <ele>162.8</ele>
        <time>2023-03-25T09:25:15Z</time>
      </trkpt>
      <trkpt lat="43.68734" lon="1.19785">
        <ele>161.4</ele>
        <time>2023-03-25T09:25:16Z</time>
      </trkpt>
      <trkpt lat="43.68712" lon="1.1981">
        <ele>159.4</ele>
        <time>2023-03-25T09:25:18Z</time>
      </trkpt>
      <trkpt lat="43.68689" lon="1.19836">
        <ele>157.6</ele>
        <time>2023-03-25T09:25:20Z</time>
      </trkpt>
      <trkpt lat="43.68677" lon="1.19848">
        <ele>156.8</ele>
        <time>2023-03-25T09:25:21Z</time>
      </trkpt>
      <trkpt lat="43.68665" lon="1.19861">
        <ele>154.8</ele>
        <time>2023-03-25T09:25:22Z</time>
      </trkpt>
      <trkpt lat="43.68653" lon="1.19873">
        <ele>154</ele>
        <time>2023-03-25T09:25:23Z</time>
      </trkpt>
      <trkpt lat="43.68641" lon="1.19886">
        <ele>152.2</ele>
        <time>2023-03-25T09:25:24Z</time>
      </trkpt>
      <trkpt lat="43.68629" lon="1.19899">
        <ele>150.4</ele>
        <time>2023-03-25T09:25:25Z</time>
      </trkpt>
      <trkpt lat="43.68616" lon="1.19909">
        <ele>149.4</ele>
        <time>2023-03-25T09:25:26Z</time>
      </trkpt>
      <trkpt lat="43.68603" lon="1.19917">
        <ele>147.4</ele>
        <time>2023-03-25T09:25:27Z</time>
      </trkpt>
      <trkpt lat="43.6859" lon="1.19922">
        <ele>146.6</ele>
        <time>2023-03-25T09:25:28Z</time>
      </trkpt>
      <trkpt lat="43.68576" lon="1.19926">
        <ele>145.6</ele>
        <time>2023-03-25T09:25:29Z</time>
      </trkpt>
      <trkpt lat="43.68563" lon="1.19927">
        <ele>145</ele>
        <time>2023-03-25T09:25:30Z</time>
      </trkpt>
      <trkpt lat="43.6855" lon="1.19927">
        <ele>144</ele>
        <time>2023-03-25T09:25:31Z</time>
      </trkpt>
      <trkpt lat="43.68538" lon="1.19925">
        <ele>143</ele>
        <time>2023-03-25T09:25:32Z</time>
      </trkpt>
      <trkpt lat="43.68526" lon="1.19921">
        <ele>142.6</ele>
        <time>2023-03-25T09:25:33Z</time>
      </trkpt>
      <trkpt lat="43.68515" lon="1.19916">
        <ele>142</ele>
        <time>2023-03-25T09:25:34Z</time>
      </trkpt>
      <trkpt lat="43.68495" lon="1.19906">
        <ele>141.2</ele>
        <time>2023-03-25T09:25:36Z</time>
      </trkpt>
      <trkpt lat="43.68458" lon="1.19889">
        <ele>140</ele>
        <time>2023-03-25T09:25:40Z</time>
      </trkpt>
      <trkpt lat="43.68441" lon="1.19883">
        <ele>139.8</ele>
        <time>2023-03-25T09:25:42Z</time>
      </trkpt>
      <trkpt lat="43.6841" lon="1.19871">
        <ele>139</ele>
        <time>2023-03-25T09:25:46Z</time>
      </trkpt>
      <trkpt lat="43.68397" lon="1.19865">
        <ele>138</ele>
        <time>2023-03-25T09:25:48Z</time>
      </trkpt>
      <trkpt lat="43.6839" lon="1.19861">
        <ele>138</ele>
        <time>2023-03-25T09:25:49Z</time>
      </trkpt>
      <trkpt lat="43.68351" lon="1.19842">
        <ele>137.4</ele>
        <time>2023-03-25T09:25:55Z</time>
      </trkpt>
      <trkpt lat="43.68309" lon="1.19821">
        <ele>137.4</ele>
        <time>2023-03-25T09:26:02Z</time>
      </trkpt>
      <trkpt lat="43.68257" lon="1.19799">
        <ele>137.6</ele>
        <time>2023-03-25T09:26:11Z</time>
      </trkpt>
      <trkpt lat="43.68251" lon="1.19797">
        <ele>137.6</ele>
        <time>2023-03-25T09:26:12Z</time>
      </trkpt>
      <trkpt lat="43.68212" lon="1.19774">
        <ele>138</ele>
        <time>2023-03-25T09:26:19Z</time>
      </trkpt>
      <trkpt lat="43.68179" lon="1.19738">
        <ele>138</ele>
        <time>2023-03-25T09:26:26Z</time>
      </trkpt>
      <trkpt lat="43.68135" lon="1.19688">
        <ele>137.8</ele>
        <time>2023-03-25T09:26:35Z</time>
      </trkpt>
      <trkpt lat="43.68092" lon="1.19633">
        <ele>137.2</ele>
        <time>2023-03-25T09:26:44Z</time>
      </trkpt>
      <trkpt lat="43.68066" lon="1.19571">
        <ele>137.2</ele>
        <time>2023-03-25T09:26:52Z</time>
      </trkpt>
      <trkpt lat="43.68043" lon="1.19513">
        <ele>137.4</ele>
        <time>2023-03-25T09:27:00Z</time>
      </trkpt>
      <trkpt lat="43.6804" lon="1.19506">
        <ele>137.4</ele>
        <time>2023-03-25T09:27:01Z</time>
      </trkpt>
      <trkpt lat="43.68033" lon="1.19493">
        <ele>137.4</ele>
        <time>2023-03-25T09:27:03Z</time>
      </trkpt>
      <trkpt lat="43.68031" lon="1.1948">
        <ele>137.6</ele>
        <time>2023-03-25T09:27:05Z</time>
      </trkpt>
      <trkpt lat="43.68037" lon="1.1947">
        <ele>137.6</ele>
        <time>2023-03-25T09:27:07Z</time>
      </trkpt>
      <trkpt lat="43.68041" lon="1.19466">
        <ele>137.8</ele>
        <time>2023-03-25T09:27:08Z</time>
      </trkpt>
      <trkpt lat="43.68061" lon="1.1945">
        <ele>139.2</ele>
        <time>2023-03-25T09:27:13Z</time>
      </trkpt>
      <trkpt lat="43.68065" lon="1.19446">
        <ele>139.2</ele>
        <time>2023-03-25T09:27:14Z</time>
      </trkpt>
      <trkpt lat="43.68071" lon="1.19439">
        <ele>139.6</ele>
        <time>2023-03-25T09:27:16Z</time>
      </trkpt>
      <trkpt lat="43.68088" lon="1.19422">
        <ele>140.6</ele>
        <time>2023-03-25T09:27:21Z</time>
      </trkpt>
      <trkpt lat="43.68097" lon="1.19411">
        <ele>141.2</ele>
        <time>2023-03-25T09:27:24Z</time>
      </trkpt>
      <trkpt lat="43.68099" lon="1.19407">
        <ele>141.2</ele>
        <time>2023-03-25T09:27:25Z</time>
      </trkpt>
      <trkpt lat="43.681" lon="1.19399">
        <ele>141.6</ele>
        <time>2023-03-25T09:27:27Z</time>
      </trkpt>
      <trkpt lat="43.68099" lon="1.19395">
        <ele>141.8</ele>
        <time>2023-03-25T09:27:28Z</time>
      </trkpt>
      <trkpt lat="43.68091" lon="1.19382">
        <ele>142</ele>
        <time>2023-03-25T09:27:32Z</time>
      </trkpt>
      <trkpt lat="43.68085" lon="1.19364">
        <ele>142.2</ele>
        <time>2023-03-25T09:27:37Z</time>
      </trkpt>
      <trkpt lat="43.68095" lon="1.19352">
        <ele>142.2</ele>
        <time>2023-03-25T09:27:41Z</time>
      </trkpt>
      <trkpt lat="43.68107" lon="1.1934">
        <ele>142.8</ele>
        <time>2023-03-25T09:27:45Z</time>
      </trkpt>
      <trkpt lat="43.68122" lon="1.19324">
        <ele>143.4</ele>
        <time>2023-03-25T09:27:50Z</time>
      </trkpt>
      <trkpt lat="43.68128" lon="1.19318">
        <ele>143.8</ele>
        <time>2023-03-25T09:27:52Z</time>
      </trkpt>
      <trkpt lat="43.68151" lon="1.19296">
        <ele>145</ele>
        <time>2023-03-25T09:27:59Z</time>
      </trkpt>
      <trkpt lat="43.68158" lon="1.19291">
        <ele>145.4</ele>
        <time>2023-03-25T09:28:01Z</time>
      </trkpt>
      <trkpt lat="43.68168" lon="1.19282">
        <ele>146</ele>
        <time>2023-03-25T09:28:04Z</time>
      </trkpt>
      <trkpt lat="43.68178" lon="1.19275">
        <ele>147.2</ele>
        <time>2023-03-25T09:28:07Z</time>
      </trkpt>
      <trkpt lat="43.68186" lon="1.19269">
        <ele>147.8</ele>
        <time>2023-03-25T09:28:10Z</time>
      </trkpt>
      <trkpt lat="43.68192" lon="1.19264">
        <ele>148.4</ele>
        <time>2023-03-25T09:28:12Z</time>
      </trkpt>
      <trkpt lat="43.682" lon="1.19258">
        <ele>149.8</ele>
        <time>2023-03-25T09:28:15Z</time>
      </trkpt>
      <trkpt lat="43.68206" lon="1.19255">
        <ele>150.6</ele>
        <time>2023-03-25T09:28:17Z</time>
      </trkpt>
      <trkpt lat="43.68211" lon="1.19251">
        <ele>151.2</ele>
        <time>2023-03-25T09:28:19Z</time>
      </trkpt>
      <trkpt lat="43.68221" lon="1.19243">
        <ele>152.2</ele>
        <time>2023-03-25T09:28:23Z</time>
      </trkpt>
      <trkpt lat="43.68227" lon="1.19239">
        <ele>153</ele>
        <time>2023-03-25T09:28:26Z</time>
      </trkpt>
      <trkpt lat="43.68229" lon="1.19237">
        <ele>153.2</ele>
        <time>2023-03-25T09:28:27Z</time>
      </trkpt>
      <trkpt lat="43.68237" lon="1.19231">
        <ele>154.8</ele>
        <time>2023-03-25T09:28:31Z</time>
      </trkpt>
      <trkpt lat="43.68239" lon="1.19229">
        <ele>155</ele>
        <time>2023-03-25T09:28:32Z</time>
      </trkpt>
      <trkpt lat="43.68244" lon="1.19224">
        <ele>156.2</ele>
        <time>2023-03-25T09:28:35Z</time>
      </trkpt>
      <trkpt lat="43.6825" lon="1.19218">
        <ele>157.2</ele>
        <time>2023-03-25T09:28:39Z</time>
      </trkpt>
      <trkpt lat="43.68253" lon="1.19216">
        <ele>157.8</ele>
        <time>2023-03-25T09:28:41Z</time>
      </trkpt>
      <trkpt lat="43.68255" lon="1.19215">
        <ele>158.6</ele>
        <time>2023-03-25T09:28:42Z</time>
      </trkpt>
      <trkpt lat="43.6826" lon="1.19211">
        <ele>159.6</ele>
        <time>2023-03-25T09:28:45Z</time>
      </trkpt>
      <trkpt lat="43.68266" lon="1.19205">
        <ele>160.8</ele>
        <time>2023-03-25T09:28:49Z</time>
      </trkpt>
      <trkpt lat="43.68269" lon="1.19203">
        <ele>161.6</ele>
        <time>2023-03-25T09:28:51Z</time>
      </trkpt>
      <trkpt lat="43.68273" lon="1.192">
        <ele>162.4</ele>
        <time>2023-03-25T09:28:53Z</time>
      </trkpt>
      <trkpt lat="43.68278" lon="1.19195">
        <ele>163.6</ele>
        <time>2023-03-25T09:28:56Z</time>
      </trkpt>
      <trkpt lat="43.68281" lon="1.19192">
        <ele>164</ele>
        <time>2023-03-25T09:28:58Z</time>
      </trkpt>
      <trkpt lat="43.68284" lon="1.19189">
        <ele>164.6</ele>
        <time>2023-03-25T09:29:00Z</time>
      </trkpt>
      <trkpt lat="43.6829" lon="1.19183">
        <ele>165.6</ele>
        <time>2023-03-25T09:29:04Z</time>
      </trkpt>
      <trkpt lat="43.68293" lon="1.19181">
        <ele>166.4</ele>
        <time>2023-03-25T09:29:06Z</time>
      </trkpt>
      <trkpt lat="43.68295" lon="1.1918">
        <ele>167</ele>
        <time>2023-03-25T09:29:07Z</time>
      </trkpt>
      <trkpt lat="43.68299" lon="1.19174">
        <ele>168</ele>
        <time>2023-03-25T09:29:11Z</time>
      </trkpt>
      <trkpt lat="43.68301" lon="1.19172">
        <ele>168.2</ele>
        <time>2023-03-25T09:29:12Z</time>
      </trkpt>
      <trkpt lat="43.68306" lon="1.19166">
        <ele>169.2</ele>
        <time>2023-03-25T09:29:16Z</time>
      </trkpt>
      <trkpt lat="43.68311" lon="1.19162">
        <ele>170.2</ele>
        <time>2023-03-25T09:29:19Z</time>
      </trkpt>
      <trkpt lat="43.68316" lon="1.19155">
        <ele>171</ele>
        <time>2023-03-25T09:29:23Z</time>
      </trkpt>
      <trkpt lat="43.68318" lon="1.19151">
        <ele>171.4</ele>
        <time>2023-03-25T09:29:25Z</time>
      </trkpt>
      <trkpt lat="43.68323" lon="1.19143">
        <ele>172.6</ele>
        <time>2023-03-25T09:29:29Z</time>
      </trkpt>
      <trkpt lat="43.68325" lon="1.19141">
        <ele>173</ele>
        <time>2023-03-25T09:29:30Z</time>
      </trkpt>
      <trkpt lat="43.68328" lon="1.19134">
        <ele>173.8</ele>
        <time>2023-03-25T09:29:34Z</time>
      </trkpt>
      <trkpt lat="43.68333" lon="1.19126">
        <ele>174.6</ele>
        <time>2023-03-25T09:29:37Z</time>
      </trkpt>
      <trkpt lat="43.68335" lon="1.19121">
        <ele>175.2</ele>
        <time>2023-03-25T09:29:39Z</time>
      </trkpt>
      <trkpt lat="43.68341" lon="1.1911">
        <ele>176.2</ele>
        <time>2023-03-25T09:29:43Z</time>
      </trkpt>
      <trkpt lat="43.68345" lon="1.19101">
        <ele>177</ele>
        <time>2023-03-25T09:29:46Z</time>
      </trkpt>
      <trkpt lat="43.68351" lon="1.1909">
        <ele>177.8</ele>
        <time>2023-03-25T09:29:50Z</time>
      </trkpt>
      <trkpt lat="43.68353" lon="1.19087">
        <ele>178</ele>
        <time>2023-03-25T09:29:51Z</time>
      </trkpt>
      <trkpt lat="43.68355" lon="1.19083">
        <ele>178.4</ele>
        <time>2023-03-25T09:29:52Z</time>
      </trkpt>
      <trkpt lat="43.68361" lon="1.19074">
        <ele>179.2</ele>
        <time>2023-03-25T09:29:55Z</time>
      </trkpt>
      <trkpt lat="43.68364" lon="1.19071">
        <ele>179</ele>
        <time>2023-03-25T09:29:56Z</time>
      </trkpt>
      <trkpt lat="43.68373" lon="1.19049">
        <ele>180</ele>
        <time>2023-03-25T09:30:02Z</time>
      </trkpt>
      <trkpt lat="43.68378" lon="1.19037">
        <ele>180.2</ele>
        <time>2023-03-25T09:30:05Z</time>
      </trkpt>
      <trkpt lat="43.68382" lon="1.19024">
        <ele>180.4</ele>
        <time>2023-03-25T09:30:08Z</time>
      </trkpt>
      <trkpt lat="43.68388" lon="1.19003">
        <ele>181.2</ele>
        <time>2023-03-25T09:30:13Z</time>
      </trkpt>
      <trkpt lat="43.68391" lon="1.18994">
        <ele>181.8</ele>
        <time>2023-03-25T09:30:15Z</time>
      </trkpt>
      <trkpt lat="43.68396" lon="1.18977">
        <ele>182.2</ele>
        <time>2023-03-25T09:30:19Z</time>
      </trkpt>
      <trkpt lat="43.68402" lon="1.18961">
        <ele>183</ele>
        <time>2023-03-25T09:30:23Z</time>
      </trkpt>
      <trkpt lat="43.68403" lon="1.18957">
        <ele>183.2</ele>
        <time>2023-03-25T09:30:24Z</time>
      </trkpt>
      <trkpt lat="43.68411" lon="1.18935">
        <ele>184.2</ele>
        <time>2023-03-25T09:30:29Z</time>
      </trkpt>
      <trkpt lat="43.68412" lon="1.18932">
        <ele>184.4</ele>
        <time>2023-03-25T09:30:30Z</time>
      </trkpt>
      <trkpt lat="43.6842" lon="1.18906">
        <ele>185.2</ele>
        <time>2023-03-25T09:30:36Z</time>
      </trkpt>
      <trkpt lat="43.68423" lon="1.18898">
        <ele>185.6</ele>
        <time>2023-03-25T09:30:38Z</time>
      </trkpt>
      <trkpt lat="43.68428" lon="1.18886">
        <ele>186.4</ele>
        <time>2023-03-25T09:30:41Z</time>
      </trkpt>
      <trkpt lat="43.68432" lon="1.18873">
        <ele>187.4</ele>
        <time>2023-03-25T09:30:44Z</time>
      </trkpt>
      <trkpt lat="43.68433" lon="1.1887">
        <ele>187.8</ele>
        <time>2023-03-25T09:30:45Z</time>
      </trkpt>
      <trkpt lat="43.6844" lon="1.1885">
        <ele>188.8</ele>
        <time>2023-03-25T09:30:50Z</time>
      </trkpt>
      <trkpt lat="43.68447" lon="1.18832">
        <ele>190</ele>
        <time>2023-03-25T09:30:55Z</time>
      </trkpt>
      <trkpt lat="43.68451" lon="1.1882">
        <ele>190.6</ele>
        <time>2023-03-25T09:30:58Z</time>
      </trkpt>
      <trkpt lat="43.68454" lon="1.18811">
        <ele>191.2</ele>
        <time>2023-03-25T09:31:00Z</time>
      </trkpt>
      <trkpt lat="43.68463" lon="1.18788">
        <ele>192.8</ele>
        <time>2023-03-25T09:31:06Z</time>
      </trkpt>
      <trkpt lat="43.68465" lon="1.18781">
        <ele>193.2</ele>
        <time>2023-03-25T09:31:08Z</time>
      </trkpt>
      <trkpt lat="43.68469" lon="1.1877">
        <ele>194</ele>
        <time>2023-03-25T09:31:11Z</time>
      </trkpt>
      <trkpt lat="43.68474" lon="1.18755">
        <ele>194.8</ele>
        <time>2023-03-25T09:31:15Z</time>
      </trkpt>
      <trkpt lat="43.68475" lon="1.18752">
        <ele>195</ele>
        <time>2023-03-25T09:31:16Z</time>
      </trkpt>
      <trkpt lat="43.68479" lon="1.1874">
        <ele>196.2</ele>
        <time>2023-03-25T09:31:19Z</time>
      </trkpt>
      <trkpt lat="43.68483" lon="1.18726">
        <ele>197</ele>
        <time>2023-03-25T09:31:23Z</time>
      </trkpt>
      <trkpt lat="43.68485" lon="1.18722">
        <ele>197.4</ele>
        <time>2023-03-25T09:31:24Z</time>
      </trkpt>
      <trkpt lat="43.68491" lon="1.18703">
        <ele>198.6</ele>
        <time>2023-03-25T09:31:29Z</time>
      </trkpt>
      <trkpt lat="43.68493" lon="1.18696">
        <ele>198.8</ele>
        <time>2023-03-25T09:31:31Z</time>
      </trkpt>
      <trkpt lat="43.68497" lon="1.18684">
        <ele>199.6</ele>
        <time>2023-03-25T09:31:35Z</time>
      </trkpt>
      <trkpt lat="43.68498" lon="1.18678">
        <ele>200</ele>
        <time>2023-03-25T09:31:37Z</time>
      </trkpt>
      <trkpt lat="43.68499" lon="1.1867">
        <ele>200.8</ele>
        <time>2023-03-25T09:31:40Z</time>
      </trkpt>
      <trkpt lat="43.68503" lon="1.18657">
        <ele>202</ele>
        <time>2023-03-25T09:31:44Z</time>
      </trkpt>
      <trkpt lat="43.68505" lon="1.1865">
        <ele>203</ele>
        <time>2023-03-25T09:31:47Z</time>
      </trkpt>
      <trkpt lat="43.68507" lon="1.18639">
        <ele>204</ele>
        <time>2023-03-25T09:31:51Z</time>
      </trkpt>
      <trkpt lat="43.68508" lon="1.18635">
        <ele>204.2</ele>
        <time>2023-03-25T09:31:52Z</time>
      </trkpt>
      <trkpt lat="43.68509" lon="1.18627">
        <ele>205</ele>
        <time>2023-03-25T09:31:55Z</time>
      </trkpt>
      <trkpt lat="43.6851" lon="1.1862">
        <ele>205.6</ele>
        <time>2023-03-25T09:31:57Z</time>
      </trkpt>
      <trkpt lat="43.68511" lon="1.18613">
        <ele>206.2</ele>
        <time>2023-03-25T09:31:59Z</time>
      </trkpt>
      <trkpt lat="43.68513" lon="1.18601">
        <ele>207.2</ele>
        <time>2023-03-25T09:32:03Z</time>
      </trkpt>
      <trkpt lat="43.68515" lon="1.18585">
        <ele>208.4</ele>
        <time>2023-03-25T09:32:08Z</time>
      </trkpt>
      <trkpt lat="43.68515" lon="1.18576">
        <ele>209</ele>
        <time>2023-03-25T09:32:11Z</time>
      </trkpt>
      <trkpt lat="43.68516" lon="1.18568">
        <ele>209.6</ele>
        <time>2023-03-25T09:32:14Z</time>
      </trkpt>
      <trkpt lat="43.68517" lon="1.18561">
        <ele>210.4</ele>
        <time>2023-03-25T09:32:17Z</time>
      </trkpt>
      <trkpt lat="43.68518" lon="1.18558">
        <ele>210.6</ele>
        <time>2023-03-25T09:32:18Z</time>
      </trkpt>
      <trkpt lat="43.6852" lon="1.18551">
        <ele>211.8</ele>
        <time>2023-03-25T09:32:21Z</time>
      </trkpt>
      <trkpt lat="43.68522" lon="1.18544">
        <ele>212.8</ele>
        <time>2023-03-25T09:32:24Z</time>
      </trkpt>
      <trkpt lat="43.68522" lon="1.18542">
        <ele>213</ele>
        <time>2023-03-25T09:32:25Z</time>
      </trkpt>
      <trkpt lat="43.68524" lon="1.18533">
        <ele>214.2</ele>
        <time>2023-03-25T09:32:29Z</time>
      </trkpt>
      <trkpt lat="43.68524" lon="1.1853">
        <ele>214.4</ele>
        <time>2023-03-25T09:32:30Z</time>
      </trkpt>
      <trkpt lat="43.68528" lon="1.1852">
        <ele>215.2</ele>
        <time>2023-03-25T09:32:34Z</time>
      </trkpt>
      <trkpt lat="43.68531" lon="1.18512">
        <ele>216.4</ele>
        <time>2023-03-25T09:32:37Z</time>
      </trkpt>
      <trkpt lat="43.68532" lon="1.18506">
        <ele>216.8</ele>
        <time>2023-03-25T09:32:39Z</time>
      </trkpt>
      <trkpt lat="43.68536" lon="1.18498">
        <ele>217.4</ele>
        <time>2023-03-25T09:32:42Z</time>
      </trkpt>
      <trkpt lat="43.68541" lon="1.1848">
        <ele>218.6</ele>
        <time>2023-03-25T09:32:47Z</time>
      </trkpt>
      <trkpt lat="43.68548" lon="1.18461">
        <ele>219.6</ele>
        <time>2023-03-25T09:32:53Z</time>
      </trkpt>
      <trkpt lat="43.68548" lon="1.18454">
        <ele>219.8</ele>
        <time>2023-03-25T09:32:55Z</time>
      </trkpt>
      <trkpt lat="43.68552" lon="1.18422">
        <ele>220.8</ele>
        <time>2023-03-25T09:33:03Z</time>
      </trkpt>
      <trkpt lat="43.68555" lon="1.18398">
        <ele>221</ele>
        <time>2023-03-25T09:33:09Z</time>
      </trkpt>
      <trkpt lat="43.68561" lon="1.18356">
        <ele>221.2</ele>
        <time>2023-03-25T09:33:19Z</time>
      </trkpt>
      <trkpt lat="43.68573" lon="1.18314">
        <ele>221.4</ele>
        <time>2023-03-25T09:33:29Z</time>
      </trkpt>
      <trkpt lat="43.68585" lon="1.18271">
        <ele>221.4</ele>
        <time>2023-03-25T09:33:39Z</time>
      </trkpt>
      <trkpt lat="43.68594" lon="1.18238">
        <ele>221.2</ele>
        <time>2023-03-25T09:33:47Z</time>
      </trkpt>
      <trkpt lat="43.68598" lon="1.18226">
        <ele>221.4</ele>
        <time>2023-03-25T09:33:52Z</time>
      </trkpt>
      <trkpt lat="43.68598" lon="1.18226">
        <ele>221.4</ele>
        <time>2023-03-25T09:33:53Z</time>
      </trkpt>
      <trkpt lat="43.68601" lon="1.18212">
        <ele>222.2</ele>
        <time>2023-03-25T09:42:39Z</time>
      </trkpt>
      <trkpt lat="43.68603" lon="1.18204">
        <ele>222.2</ele>
        <time>2023-03-25T09:42:41Z</time>
      </trkpt>
      <trkpt lat="43.68612" lon="1.18173">
        <ele>222.4</ele>
        <time>2023-03-25T09:42:47Z</time>
      </trkpt>
      <trkpt lat="43.68626" lon="1.18127">
        <ele>222.6</ele>
        <time>2023-03-25T09:42:55Z</time>
      </trkpt>
      <trkpt lat="43.68642" lon="1.18069">
        <ele>222.6</ele>
        <time>2023-03-25T09:43:04Z</time>
      </trkpt>
      <trkpt lat="43.6866" lon="1.18009">
        <ele>222.2</ele>
        <time>2023-03-25T09:43:13Z</time>
      </trkpt>
      <trkpt lat="43.68678" lon="1.17952">
        <ele>221.4</ele>
        <time>2023-03-25T09:43:21Z</time>
      </trkpt>
      <trkpt lat="43.68681" lon="1.17946">
        <ele>221</ele>
        <time>2023-03-25T09:43:22Z</time>
      </trkpt>
      <trkpt lat="43.68683" lon="1.1794">
        <ele>220.8</ele>
        <time>2023-03-25T09:43:23Z</time>
      </trkpt>
      <trkpt lat="43.6869" lon="1.17905">
        <ele>220</ele>
        <time>2023-03-25T09:43:28Z</time>
      </trkpt>
      <trkpt lat="43.68691" lon="1.17897">
        <ele>220</ele>
        <time>2023-03-25T09:43:29Z</time>
      </trkpt>
      <trkpt lat="43.68697" lon="1.17846">
        <ele>219.8</ele>
        <time>2023-03-25T09:43:36Z</time>
      </trkpt>
      <trkpt lat="43.68707" lon="1.17768">
        <ele>220.6</ele>
        <time>2023-03-25T09:43:47Z</time>
      </trkpt>
      <trkpt lat="43.68708" lon="1.17762">
        <ele>220.8</ele>
        <time>2023-03-25T09:43:48Z</time>
      </trkpt>
      <trkpt lat="43.68709" lon="1.17755">
        <ele>220.8</ele>
        <time>2023-03-25T09:43:49Z</time>
      </trkpt>
      <trkpt lat="43.6871" lon="1.17748">
        <ele>221</ele>
        <time>2023-03-25T09:43:50Z</time>
      </trkpt>
      <trkpt lat="43.68714" lon="1.17729">
        <ele>221.4</ele>
        <time>2023-03-25T09:43:53Z</time>
      </trkpt>
      <trkpt lat="43.68718" lon="1.17704">
        <ele>221.6</ele>
        <time>2023-03-25T09:43:57Z</time>
      </trkpt>
      <trkpt lat="43.68722" lon="1.17678">
        <ele>222</ele>
        <time>2023-03-25T09:44:01Z</time>
      </trkpt>
      <trkpt lat="43.68723" lon="1.17665">
        <ele>222</ele>
        <time>2023-03-25T09:44:03Z</time>
      </trkpt>
      <trkpt lat="43.68723" lon="1.17645">
        <ele>222</ele>
        <time>2023-03-25T09:44:06Z</time>
      </trkpt>
      <trkpt lat="43.68725" lon="1.17631">
        <ele>222.2</ele>
        <time>2023-03-25T09:44:08Z</time>
      </trkpt>
      <trkpt lat="43.68734" lon="1.17561">
        <ele>222.4</ele>
        <time>2023-03-25T09:44:18Z</time>
      </trkpt>
      <trkpt lat="43.68736" lon="1.17542">
        <ele>222.2</ele>
        <time>2023-03-25T09:44:21Z</time>
      </trkpt>
      <trkpt lat="43.68734" lon="1.17531">
        <ele>221.8</ele>
        <time>2023-03-25T09:44:23Z</time>
      </trkpt>
      <trkpt lat="43.68728" lon="1.17524">
        <ele>221.4</ele>
        <time>2023-03-25T09:44:25Z</time>
      </trkpt>
      <trkpt lat="43.68725" lon="1.17522">
        <ele>221.4</ele>
        <time>2023-03-25T09:44:26Z</time>
      </trkpt>
      <trkpt lat="43.6872" lon="1.17519">
        <ele>221.2</ele>
        <time>2023-03-25T09:44:28Z</time>
      </trkpt>
      <trkpt lat="43.68718" lon="1.17516">
        <ele>221</ele>
        <time>2023-03-25T09:44:29Z</time>
      </trkpt>
      <trkpt lat="43.68717" lon="1.17514">
        <ele>221</ele>
        <time>2023-03-25T09:44:30Z</time>
      </trkpt>
      <trkpt lat="43.68717" lon="1.1751">
        <ele>221</ele>
        <time>2023-03-25T09:44:31Z</time>
      </trkpt>
      <trkpt lat="43.6872" lon="1.17499">
        <ele>221.4</ele>
        <time>2023-03-25T09:44:34Z</time>
      </trkpt>
      <trkpt lat="43.68724" lon="1.17485">
        <ele>221.4</ele>
        <time>2023-03-25T09:44:37Z</time>
      </trkpt>
      <trkpt lat="43.68726" lon="1.17477">
        <ele>221.6</ele>
        <time>2023-03-25T09:44:39Z</time>
      </trkpt>
      <trkpt lat="43.68733" lon="1.17452">
        <ele>221.6</ele>
        <time>2023-03-25T09:44:45Z</time>
      </trkpt>
      <trkpt lat="43.68734" lon="1.17443">
        <ele>221.6</ele>
        <time>2023-03-25T09:44:50Z</time>
      </trkpt>
      <trkpt lat="43.68734" lon="1.17443">
        <ele>221.6</ele>
        <time>2023-03-25T09:44:51Z</time>
      </trkpt>
      <trkpt lat="43.68734" lon="1.17451">
        <ele>221.6</ele>
        <time>2023-03-25T09:45:02Z</time>
      </trkpt>
      <trkpt lat="43.68734" lon="1.17457">
        <ele>221.6</ele>
        <time>2023-03-25T09:45:04Z</time>
      </trkpt>
      <trkpt lat="43.68727" lon="1.17481">
        <ele>221.4</ele>
        <time>2023-03-25T09:45:09Z</time>
      </trkpt>
      <trkpt lat="43.68718" lon="1.1751">
        <ele>221.4</ele>
        <time>2023-03-25T09:45:15Z</time>
      </trkpt>
      <trkpt lat="43.68716" lon="1.17511">
        <ele>221.4</ele>
        <time>2023-03-25T09:45:16Z</time>
      </trkpt>
      <trkpt lat="43.6871" lon="1.17507">
        <ele>221.4</ele>
        <time>2023-03-25T09:45:18Z</time>
      </trkpt>
      <trkpt lat="43.68709" lon="1.17504">
        <ele>221.2</ele>
        <time>2023-03-25T09:45:20Z</time>
      </trkpt>
      <trkpt lat="43.68708" lon="1.17482">
        <ele>221.2</ele>
        <time>2023-03-25T09:45:26Z</time>
      </trkpt>
      <trkpt lat="43.68709" lon="1.17474">
        <ele>221.2</ele>
        <time>2023-03-25T09:45:29Z</time>
      </trkpt>
      <trkpt lat="43.68708" lon="1.17468">
        <ele>221.4</ele>
        <time>2023-03-25T09:45:31Z</time>
      </trkpt>
      <trkpt lat="43.68704" lon="1.17461">
        <ele>221.4</ele>
        <time>2023-03-25T09:45:34Z</time>
      </trkpt>
      <trkpt lat="43.68701" lon="1.17459">
        <ele>221.4</ele>
        <time>2023-03-25T09:45:36Z</time>
      </trkpt>
      <trkpt lat="43.68685" lon="1.17453">
        <ele>221.6</ele>
        <time>2023-03-25T09:45:39Z</time>
      </trkpt>
      <trkpt lat="43.68681" lon="1.17452">
        <ele>221.6</ele>
        <time>2023-03-25T09:45:40Z</time>
      </trkpt>
      <trkpt lat="43.6866" lon="1.17444">
        <ele>222.6</ele>
        <time>2023-03-25T09:45:45Z</time>
      </trkpt>
      <trkpt lat="43.68652" lon="1.17437">
        <ele>223</ele>
        <time>2023-03-25T09:45:47Z</time>
      </trkpt>
      <trkpt lat="43.68643" lon="1.17432">
        <ele>223.2</ele>
        <time>2023-03-25T09:45:49Z</time>
      </trkpt>
      <trkpt lat="43.68643" lon="1.17432">
        <ele>223.2</ele>
        <time>2023-03-25T09:45:50Z</time>
      </trkpt>
      <trkpt lat="43.68631" lon="1.17423">
        <ele>224</ele>
        <time>2023-03-25T09:45:53Z</time>
      </trkpt>
      <trkpt lat="43.68628" lon="1.17421">
        <ele>224.6</ele>
        <time>2023-03-25T09:45:54Z</time>
      </trkpt>
      <trkpt lat="43.68617" lon="1.17422">
        <ele>225.2</ele>
        <time>2023-03-25T09:45:57Z</time>
      </trkpt>
      <trkpt lat="43.68611" lon="1.17421">
        <ele>225.4</ele>
        <time>2023-03-25T09:45:59Z</time>
      </trkpt>
      <trkpt lat="43.68608" lon="1.1742">
        <ele>225.6</ele>
        <time>2023-03-25T09:46:00Z</time>
      </trkpt>
      <trkpt lat="43.68597" lon="1.17417">
        <ele>226.2</ele>
        <time>2023-03-25T09:46:05Z</time>
      </trkpt>
      <trkpt lat="43.6859" lon="1.17412">
        <ele>226.2</ele>
        <time>2023-03-25T09:46:06Z</time>
      </trkpt>
      <trkpt lat="43.68578" lon="1.17407">
        <ele>226.8</ele>
        <time>2023-03-25T09:46:10Z</time>
      </trkpt>
      <trkpt lat="43.68566" lon="1.17406">
        <ele>227.4</ele>
        <time>2023-03-25T09:46:13Z</time>
      </trkpt>
      <trkpt lat="43.68553" lon="1.17407">
        <ele>227.8</ele>
        <time>2023-03-25T09:46:15Z</time>
      </trkpt>
      <trkpt lat="43.68545" lon="1.17404">
        <ele>228</ele>
        <time>2023-03-25T09:46:17Z</time>
      </trkpt>
      <trkpt lat="43.68542" lon="1.17401">
        <ele>228.2</ele>
        <time>2023-03-25T09:46:19Z</time>
      </trkpt>
      <trkpt lat="43.68539" lon="1.17401">
        <ele>228.4</ele>
        <time>2023-03-25T09:46:20Z</time>
      </trkpt>
      <trkpt lat="43.68537" lon="1.17402">
        <ele>228.6</ele>
        <time>2023-03-25T09:46:21Z</time>
      </trkpt>
      <trkpt lat="43.68525" lon="1.17398">
        <ele>229.2</ele>
        <time>2023-03-25T09:46:25Z</time>
      </trkpt>
      <trkpt lat="43.68513" lon="1.17391">
        <ele>229.6</ele>
        <time>2023-03-25T09:46:27Z</time>
      </trkpt>
      <trkpt lat="43.68506" lon="1.17387">
        <ele>230</ele>
        <time>2023-03-25T09:46:29Z</time>
      </trkpt>
      <trkpt lat="43.68502" lon="1.17387">
        <ele>230</ele>
        <time>2023-03-25T09:46:30Z</time>
      </trkpt>
      <trkpt lat="43.68483" lon="1.17386">
        <ele>230.6</ele>
        <time>2023-03-25T09:46:35Z</time>
      </trkpt>
      <trkpt lat="43.68478" lon="1.17386">
        <ele>230.8</ele>
        <time>2023-03-25T09:46:36Z</time>
      </trkpt>
      <trkpt lat="43.68469" lon="1.17388">
        <ele>230.6</ele>
        <time>2023-03-25T09:46:37Z</time>
      </trkpt>
      <trkpt lat="43.68465" lon="1.17389">
        <ele>231</ele>
        <time>2023-03-25T09:46:38Z</time>
      </trkpt>
      <trkpt lat="43.68461" lon="1.17389">
        <ele>231</ele>
        <time>2023-03-25T09:46:39Z</time>
      </trkpt>
      <trkpt lat="43.68436" lon="1.17383">
        <ele>231.4</ele>
        <time>2023-03-25T09:46:45Z</time>
      </trkpt>
      <trkpt lat="43.68414" lon="1.17376">
        <ele>231.8</ele>
        <time>2023-03-25T09:46:49Z</time>
      </trkpt>
      <trkpt lat="43.68409" lon="1.17376">
        <ele>231.8</ele>
        <time>2023-03-25T09:46:50Z</time>
      </trkpt>
      <trkpt lat="43.68399" lon="1.17377">
        <ele>232.2</ele>
        <time>2023-03-25T09:46:52Z</time>
      </trkpt>
      <trkpt lat="43.68391" lon="1.17375">
        <ele>232.2</ele>
        <time>2023-03-25T09:46:54Z</time>
      </trkpt>
      <trkpt lat="43.68387" lon="1.17373">
        <ele>232.2</ele>
        <time>2023-03-25T09:46:55Z</time>
      </trkpt>
      <trkpt lat="43.68379" lon="1.17372">
        <ele>232.4</ele>
        <time>2023-03-25T09:46:57Z</time>
      </trkpt>
      <trkpt lat="43.68366" lon="1.1737">
        <ele>232.6</ele>
        <time>2023-03-25T09:47:00Z</time>
      </trkpt>
      <trkpt lat="43.68351" lon="1.17371">
        <ele>232.8</ele>
        <time>2023-03-25T09:47:04Z</time>
      </trkpt>
      <trkpt lat="43.68343" lon="1.17369">
        <ele>233.4</ele>
        <time>2023-03-25T09:47:09Z</time>
      </trkpt>
      <trkpt lat="43.68341" lon="1.17367">
        <ele>233.6</ele>
        <time>2023-03-25T09:47:10Z</time>
      </trkpt>
      <trkpt lat="43.68334" lon="1.17354">
        <ele>234</ele>
        <time>2023-03-25T09:47:14Z</time>
      </trkpt>
      <trkpt lat="43.68332" lon="1.17338">
        <ele>233.8</ele>
        <time>2023-03-25T09:47:17Z</time>
      </trkpt>
      <trkpt lat="43.68329" lon="1.17334">
        <ele>233.8</ele>
        <time>2023-03-25T09:47:18Z</time>
      </trkpt>
      <trkpt lat="43.68325" lon="1.17331">
        <ele>233.8</ele>
        <time>2023-03-25T09:47:19Z</time>
      </trkpt>
      <trkpt lat="43.68315" lon="1.17327">
        <ele>233.6</ele>
        <time>2023-03-25T09:47:22Z</time>
      </trkpt>
      <trkpt lat="43.68302" lon="1.17322">
        <ele>233.6</ele>
        <time>2023-03-25T09:47:24Z</time>
      </trkpt>
      <trkpt lat="43.68296" lon="1.17318">
        <ele>233.4</ele>
        <time>2023-03-25T09:47:26Z</time>
      </trkpt>
      <trkpt lat="43.68295" lon="1.17319">
        <ele>233.2</ele>
        <time>2023-03-25T09:47:28Z</time>
      </trkpt>
      <trkpt lat="43.68292" lon="1.17334">
        <ele>232.8</ele>
        <time>2023-03-25T09:47:32Z</time>
      </trkpt>
      <trkpt lat="43.68291" lon="1.17339">
        <ele>232.2</ele>
        <time>2023-03-25T09:47:34Z</time>
      </trkpt>
      <trkpt lat="43.6829" lon="1.17341">
        <ele>232.2</ele>
        <time>2023-03-25T09:47:35Z</time>
      </trkpt>
      <trkpt lat="43.68286" lon="1.17362">
        <ele>231.8</ele>
        <time>2023-03-25T09:47:42Z</time>
      </trkpt>
      <trkpt lat="43.68282" lon="1.17378">
        <ele>231.8</ele>
        <time>2023-03-25T09:47:44Z</time>
      </trkpt>
      <trkpt lat="43.68277" lon="1.17395">
        <ele>231.8</ele>
        <time>2023-03-25T09:47:47Z</time>
      </trkpt>
      <trkpt lat="43.68275" lon="1.17401">
        <ele>231.8</ele>
        <time>2023-03-25T09:47:48Z</time>
      </trkpt>
      <trkpt lat="43.6827" lon="1.1743">
        <ele>231.8</ele>
        <time>2023-03-25T09:47:52Z</time>
      </trkpt>
      <trkpt lat="43.68269" lon="1.17441">
        <ele>231.8</ele>
        <time>2023-03-25T09:47:54Z</time>
      </trkpt>
      <trkpt lat="43.68268" lon="1.17449">
        <ele>231.6</ele>
        <time>2023-03-25T09:47:56Z</time>
      </trkpt>
      <trkpt lat="43.68261" lon="1.17466">
        <ele>231.6</ele>
        <time>2023-03-25T09:48:00Z</time>
      </trkpt>
      <trkpt lat="43.68256" lon="1.17478">
        <ele>231.4</ele>
        <time>2023-03-25T09:48:02Z</time>
      </trkpt>
      <trkpt lat="43.68245" lon="1.17516">
        <ele>230.8</ele>
        <time>2023-03-25T09:48:08Z</time>
      </trkpt>
      <trkpt lat="43.68241" lon="1.17529">
        <ele>230.4</ele>
        <time>2023-03-25T09:48:12Z</time>
      </trkpt>
      <trkpt lat="43.68236" lon="1.17547">
        <ele>230.2</ele>
        <time>2023-03-25T09:48:18Z</time>
      </trkpt>
      <trkpt lat="43.6823" lon="1.17579">
        <ele>230.2</ele>
        <time>2023-03-25T09:48:23Z</time>
      </trkpt>
      <trkpt lat="43.68232" lon="1.17606">
        <ele>230.2</ele>
        <time>2023-03-25T09:48:27Z</time>
      </trkpt>
      <trkpt lat="43.68234" lon="1.17614">
        <ele>230.2</ele>
        <time>2023-03-25T09:48:28Z</time>
      </trkpt>
      <trkpt lat="43.68238" lon="1.17635">
        <ele>230.6</ele>
        <time>2023-03-25T09:48:31Z</time>
      </trkpt>
      <trkpt lat="43.68239" lon="1.17642">
        <ele>230.8</ele>
        <time>2023-03-25T09:48:32Z</time>
      </trkpt>
      <trkpt lat="43.68241" lon="1.17657">
        <ele>231.2</ele>
        <time>2023-03-25T09:48:34Z</time>
      </trkpt>
      <trkpt lat="43.68241" lon="1.17673">
        <ele>231.4</ele>
        <time>2023-03-25T09:48:37Z</time>
      </trkpt>
      <trkpt lat="43.6824" lon="1.17691">
        <ele>231.4</ele>
        <time>2023-03-25T09:48:38Z</time>
      </trkpt>
      <trkpt lat="43.68236" lon="1.17716">
        <ele>231.2</ele>
        <time>2023-03-25T09:48:41Z</time>
      </trkpt>
      <trkpt lat="43.68233" lon="1.17733">
        <ele>231</ele>
        <time>2023-03-25T09:48:43Z</time>
      </trkpt>
      <trkpt lat="43.68227" lon="1.17748">
        <ele>231</ele>
        <time>2023-03-25T09:48:45Z</time>
      </trkpt>
      <trkpt lat="43.68221" lon="1.17764">
        <ele>230.4</ele>
        <time>2023-03-25T09:48:47Z</time>
      </trkpt>
      <trkpt lat="43.68217" lon="1.1778">
        <ele>229.8</ele>
        <time>2023-03-25T09:48:49Z</time>
      </trkpt>
      <trkpt lat="43.68215" lon="1.1779">
        <ele>229.8</ele>
        <time>2023-03-25T09:48:50Z</time>
      </trkpt>
      <trkpt lat="43.68213" lon="1.178">
        <ele>229.2</ele>
        <time>2023-03-25T09:48:51Z</time>
      </trkpt>
      <trkpt lat="43.6821" lon="1.17821">
        <ele>228.6</ele>
        <time>2023-03-25T09:48:53Z</time>
      </trkpt>
      <trkpt lat="43.68207" lon="1.1783">
        <ele>228.4</ele>
        <time>2023-03-25T09:48:54Z</time>
      </trkpt>
      <trkpt lat="43.68204" lon="1.1784">
        <ele>227.6</ele>
        <time>2023-03-25T09:48:55Z</time>
      </trkpt>
      <trkpt lat="43.682" lon="1.17851">
        <ele>226.6</ele>
        <time>2023-03-25T09:48:56Z</time>
      </trkpt>
      <trkpt lat="43.68192" lon="1.17873">
        <ele>225.6</ele>
        <time>2023-03-25T09:48:58Z</time>
      </trkpt>
      <trkpt lat="43.68188" lon="1.17881">
        <ele>224</ele>
        <time>2023-03-25T09:49:00Z</time>
      </trkpt>
      <trkpt lat="43.68173" lon="1.17904">
        <ele>222</ele>
        <time>2023-03-25T09:49:02Z</time>
      </trkpt>
      <trkpt lat="43.68163" lon="1.1792">
        <ele>220.4</ele>
        <time>2023-03-25T09:49:04Z</time>
      </trkpt>
      <trkpt lat="43.68147" lon="1.17943">
        <ele>219.6</ele>
        <time>2023-03-25T09:49:07Z</time>
      </trkpt>
      <trkpt lat="43.68142" lon="1.17952">
        <ele>219.4</ele>
        <time>2023-03-25T09:49:08Z</time>
      </trkpt>
      <trkpt lat="43.68136" lon="1.17961">
        <ele>218.4</ele>
        <time>2023-03-25T09:49:09Z</time>
      </trkpt>
      <trkpt lat="43.68125" lon="1.17974">
        <ele>217</ele>
        <time>2023-03-25T09:49:11Z</time>
      </trkpt>
      <trkpt lat="43.68121" lon="1.17979">
        <ele>214.6</ele>
        <time>2023-03-25T09:49:12Z</time>
      </trkpt>
      <trkpt lat="43.68118" lon="1.17985">
        <ele>212.6</ele>
        <time>2023-03-25T09:49:14Z</time>
      </trkpt>
      <trkpt lat="43.6811" lon="1.18">
        <ele>211</ele>
        <time>2023-03-25T09:49:16Z</time>
      </trkpt>
      <trkpt lat="43.68104" lon="1.18014">
        <ele>209.8</ele>
        <time>2023-03-25T09:49:18Z</time>
      </trkpt>
      <trkpt lat="43.68096" lon="1.1803">
        <ele>208.6</ele>
        <time>2023-03-25T09:49:20Z</time>
      </trkpt>
      <trkpt lat="43.68085" lon="1.18057">
        <ele>206.4</ele>
        <time>2023-03-25T09:49:23Z</time>
      </trkpt>
      <trkpt lat="43.68079" lon="1.18074">
        <ele>204</ele>
        <time>2023-03-25T09:49:25Z</time>
      </trkpt>
      <trkpt lat="43.68075" lon="1.18083">
        <ele>203.2</ele>
        <time>2023-03-25T09:49:26Z</time>
      </trkpt>
      <trkpt lat="43.68072" lon="1.18091">
        <ele>202</ele>
        <time>2023-03-25T09:49:27Z</time>
      </trkpt>
      <trkpt lat="43.68068" lon="1.18099">
        <ele>200.8</ele>
        <time>2023-03-25T09:49:28Z</time>
      </trkpt>
      <trkpt lat="43.68061" lon="1.18114">
        <ele>199.2</ele>
        <time>2023-03-25T09:49:30Z</time>
      </trkpt>
      <trkpt lat="43.68055" lon="1.1813">
        <ele>198.2</ele>
        <time>2023-03-25T09:49:32Z</time>
      </trkpt>
      <trkpt lat="43.68051" lon="1.18139">
        <ele>197.4</ele>
        <time>2023-03-25T09:49:33Z</time>
      </trkpt>
      <trkpt lat="43.68047" lon="1.18148">
        <ele>196</ele>
        <time>2023-03-25T09:49:34Z</time>
      </trkpt>
      <trkpt lat="43.68043" lon="1.18159">
        <ele>195</ele>
        <time>2023-03-25T09:49:35Z</time>
      </trkpt>
      <trkpt lat="43.6804" lon="1.18167">
        <ele>194.4</ele>
        <time>2023-03-25T09:49:36Z</time>
      </trkpt>
      <trkpt lat="43.68037" lon="1.18177">
        <ele>193.6</ele>
        <time>2023-03-25T09:49:37Z</time>
      </trkpt>
      <trkpt lat="43.68033" lon="1.18188">
        <ele>193</ele>
        <time>2023-03-25T09:49:38Z</time>
      </trkpt>
      <trkpt lat="43.68023" lon="1.1821">
        <ele>192</ele>
        <time>2023-03-25T09:49:40Z</time>
      </trkpt>
      <trkpt lat="43.68018" lon="1.18221">
        <ele>190.6</ele>
        <time>2023-03-25T09:49:41Z</time>
      </trkpt>
      <trkpt lat="43.68007" lon="1.18245">
        <ele>188.8</ele>
        <time>2023-03-25T09:49:43Z</time>
      </trkpt>
      <trkpt lat="43.67996" lon="1.1827">
        <ele>187.6</ele>
        <time>2023-03-25T09:49:45Z</time>
      </trkpt>
      <trkpt lat="43.6799" lon="1.18283">
        <ele>186.8</ele>
        <time>2023-03-25T09:49:46Z</time>
      </trkpt>
      <trkpt lat="43.67987" lon="1.18289">
        <ele>186.2</ele>
        <time>2023-03-25T09:49:47Z</time>
      </trkpt>
      <trkpt lat="43.67985" lon="1.18295">
        <ele>184.8</ele>
        <time>2023-03-25T09:49:48Z</time>
      </trkpt>
      <trkpt lat="43.67973" lon="1.18321">
        <ele>182.8</ele>
        <time>2023-03-25T09:49:50Z</time>
      </trkpt>
      <trkpt lat="43.67966" lon="1.18337">
        <ele>181.6</ele>
        <time>2023-03-25T09:49:51Z</time>
      </trkpt>
      <trkpt lat="43.67944" lon="1.18385">
        <ele>180.4</ele>
        <time>2023-03-25T09:49:54Z</time>
      </trkpt>
      <trkpt lat="43.67928" lon="1.18423">
        <ele>178.8</ele>
        <time>2023-03-25T09:49:57Z</time>
      </trkpt>
      <trkpt lat="43.67916" lon="1.1845">
        <ele>177.4</ele>
        <time>2023-03-25T09:49:59Z</time>
      </trkpt>
      <trkpt lat="43.6791" lon="1.18463">
        <ele>175.8</ele>
        <time>2023-03-25T09:50:01Z</time>
      </trkpt>
      <trkpt lat="43.679" lon="1.18485">
        <ele>175.2</ele>
        <time>2023-03-25T09:50:02Z</time>
      </trkpt>
      <trkpt lat="43.6789" lon="1.18507">
        <ele>174.6</ele>
        <time>2023-03-25T09:50:03Z</time>
      </trkpt>
      <trkpt lat="43.67883" lon="1.18521">
        <ele>173.2</ele>
        <time>2023-03-25T09:50:04Z</time>
      </trkpt>
      <trkpt lat="43.6787" lon="1.18552">
        <ele>171</ele>
        <time>2023-03-25T09:50:06Z</time>
      </trkpt>
      <trkpt lat="43.67863" lon="1.18568">
        <ele>169.6</ele>
        <time>2023-03-25T09:50:07Z</time>
      </trkpt>
      <trkpt lat="43.67848" lon="1.18601">
        <ele>167.6</ele>
        <time>2023-03-25T09:50:09Z</time>
      </trkpt>
      <trkpt lat="43.67833" lon="1.18635">
        <ele>165.6</ele>
        <time>2023-03-25T09:50:11Z</time>
      </trkpt>
      <trkpt lat="43.67825" lon="1.18653">
        <ele>163.8</ele>
        <time>2023-03-25T09:50:13Z</time>
      </trkpt>
      <trkpt lat="43.67813" lon="1.18679">
        <ele>161.4</ele>
        <time>2023-03-25T09:50:14Z</time>
      </trkpt>
      <trkpt lat="43.67801" lon="1.18706">
        <ele>160.4</ele>
        <time>2023-03-25T09:50:15Z</time>
      </trkpt>
      <trkpt lat="43.67792" lon="1.18727">
        <ele>158.2</ele>
        <time>2023-03-25T09:50:16Z</time>
      </trkpt>
      <trkpt lat="43.67783" lon="1.18748">
        <ele>155.2</ele>
        <time>2023-03-25T09:50:18Z</time>
      </trkpt>
      <trkpt lat="43.67764" lon="1.1879">
        <ele>152.2</ele>
        <time>2023-03-25T09:50:20Z</time>
      </trkpt>
      <trkpt lat="43.67757" lon="1.18806">
        <ele>150.2</ele>
        <time>2023-03-25T09:50:21Z</time>
      </trkpt>
      <trkpt lat="43.67751" lon="1.18822">
        <ele>149.4</ele>
        <time>2023-03-25T09:50:22Z</time>
      </trkpt>
      <trkpt lat="43.67745" lon="1.18839">
        <ele>147.8</ele>
        <time>2023-03-25T09:50:23Z</time>
      </trkpt>
      <trkpt lat="43.67736" lon="1.18874">
        <ele>146.2</ele>
        <time>2023-03-25T09:50:25Z</time>
      </trkpt>
      <trkpt lat="43.67732" lon="1.18891">
        <ele>145.2</ele>
        <time>2023-03-25T09:50:27Z</time>
      </trkpt>
      <trkpt lat="43.67716" lon="1.18973">
        <ele>144.2</ele>
        <time>2023-03-25T09:50:31Z</time>
      </trkpt>
      <trkpt lat="43.67713" lon="1.18987">
        <ele>143.6</ele>
        <time>2023-03-25T09:50:32Z</time>
      </trkpt>
      <trkpt lat="43.677" lon="1.19043">
        <ele>142.2</ele>
        <time>2023-03-25T09:50:36Z</time>
      </trkpt>
      <trkpt lat="43.67695" lon="1.19054">
        <ele>141.8</ele>
        <time>2023-03-25T09:50:37Z</time>
      </trkpt>
      <trkpt lat="43.67691" lon="1.19065">
        <ele>141</ele>
        <time>2023-03-25T09:50:39Z</time>
      </trkpt>
      <trkpt lat="43.67684" lon="1.1908">
        <ele>140.8</ele>
        <time>2023-03-25T09:50:40Z</time>
      </trkpt>
      <trkpt lat="43.6768" lon="1.19085">
        <ele>140.6</ele>
        <time>2023-03-25T09:50:41Z</time>
      </trkpt>
      <trkpt lat="43.67675" lon="1.19086">
        <ele>140.4</ele>
        <time>2023-03-25T09:50:42Z</time>
      </trkpt>
      <trkpt lat="43.67671" lon="1.19083">
        <ele>140</ele>
        <time>2023-03-25T09:50:43Z</time>
      </trkpt>
      <trkpt lat="43.67667" lon="1.19078">
        <ele>139.8</ele>
        <time>2023-03-25T09:50:44Z</time>
      </trkpt>
      <trkpt lat="43.67647" lon="1.19053">
        <ele>139.4</ele>
        <time>2023-03-25T09:50:49Z</time>
      </trkpt>
      <trkpt lat="43.67604" lon="1.19002">
        <ele>139</ele>
        <time>2023-03-25T09:50:59Z</time>
      </trkpt>
      <trkpt lat="43.67562" lon="1.18959">
        <ele>139.4</ele>
        <time>2023-03-25T09:51:08Z</time>
      </trkpt>
      <trkpt lat="43.67529" lon="1.1893">
        <ele>139.8</ele>
        <time>2023-03-25T09:51:15Z</time>
      </trkpt>
      <trkpt lat="43.67483" lon="1.18891">
        <ele>140.2</ele>
        <time>2023-03-25T09:51:24Z</time>
      </trkpt>
      <trkpt lat="43.67443" lon="1.18851">
        <ele>141</ele>
        <time>2023-03-25T09:51:32Z</time>
      </trkpt>
      <trkpt lat="43.67438" lon="1.18846">
        <ele>141</ele>
        <time>2023-03-25T09:51:33Z</time>
      </trkpt>
      <trkpt lat="43.67399" lon="1.18807">
        <ele>141.6</ele>
        <time>2023-03-25T09:51:41Z</time>
      </trkpt>
      <trkpt lat="43.67354" lon="1.1876">
        <ele>141</ele>
        <time>2023-03-25T09:51:50Z</time>
      </trkpt>
      <trkpt lat="43.67344" lon="1.18747">
        <ele>141</ele>
        <time>2023-03-25T09:51:54Z</time>
      </trkpt>
      <trkpt lat="43.67332" lon="1.18731">
        <ele>141</ele>
        <time>2023-03-25T09:51:58Z</time>
      </trkpt>
      <trkpt lat="43.67326" lon="1.1872">
        <ele>141</ele>
        <time>2023-03-25T09:52:00Z</time>
      </trkpt>
      <trkpt lat="43.67321" lon="1.18707">
        <ele>141</ele>
        <time>2023-03-25T09:52:02Z</time>
      </trkpt>
      <trkpt lat="43.673" lon="1.18656">
        <ele>140.8</ele>
        <time>2023-03-25T09:52:09Z</time>
      </trkpt>
      <trkpt lat="43.67277" lon="1.18604">
        <ele>140.6</ele>
        <time>2023-03-25T09:52:16Z</time>
      </trkpt>
      <trkpt lat="43.67249" lon="1.18536">
        <ele>141</ele>
        <time>2023-03-25T09:52:25Z</time>
      </trkpt>
      <trkpt lat="43.67243" lon="1.18521">
        <ele>141</ele>
        <time>2023-03-25T09:52:27Z</time>
      </trkpt>
      <trkpt lat="43.67227" lon="1.18481">
        <ele>141.2</ele>
        <time>2023-03-25T09:52:33Z</time>
      </trkpt>
      <trkpt lat="43.67226" lon="1.18474">
        <ele>141.4</ele>
        <time>2023-03-25T09:52:34Z</time>
      </trkpt>
      <trkpt lat="43.67227" lon="1.18468">
        <ele>141.4</ele>
        <time>2023-03-25T09:52:35Z</time>
      </trkpt>
      <trkpt lat="43.67233" lon="1.18459">
        <ele>141.6</ele>
        <time>2023-03-25T09:52:37Z</time>
      </trkpt>
      <trkpt lat="43.6724" lon="1.1845">
        <ele>142.4</ele>
        <time>2023-03-25T09:52:40Z</time>
      </trkpt>
      <trkpt lat="43.67247" lon="1.18442">
        <ele>142.8</ele>
        <time>2023-03-25T09:52:41Z</time>
      </trkpt>
      <trkpt lat="43.67262" lon="1.18427">
        <ele>143.6</ele>
        <time>2023-03-25T09:52:45Z</time>
      </trkpt>
      <trkpt lat="43.67292" lon="1.18389">
        <ele>144.4</ele>
        <time>2023-03-25T09:52:54Z</time>
      </trkpt>
      <trkpt lat="43.67297" lon="1.18381">
        <ele>144.6</ele>
        <time>2023-03-25T09:52:56Z</time>
      </trkpt>
      <trkpt lat="43.67305" lon="1.18367">
        <ele>145.2</ele>
        <time>2023-03-25T09:52:59Z</time>
      </trkpt>
      <trkpt lat="43.67311" lon="1.18356">
        <ele>145.6</ele>
        <time>2023-03-25T09:53:01Z</time>
      </trkpt>
      <trkpt lat="43.67316" lon="1.18345">
        <ele>146</ele>
        <time>2023-03-25T09:53:03Z</time>
      </trkpt>
      <trkpt lat="43.67318" lon="1.1834">
        <ele>146.2</ele>
        <time>2023-03-25T09:53:04Z</time>
      </trkpt>
      <trkpt lat="43.67325" lon="1.18325">
        <ele>146.6</ele>
        <time>2023-03-25T09:53:07Z</time>
      </trkpt>
      <trkpt lat="43.6733" lon="1.18314">
        <ele>147</ele>
        <time>2023-03-25T09:53:09Z</time>
      </trkpt>
      <trkpt lat="43.67333" lon="1.18309">
        <ele>147.6</ele>
        <time>2023-03-25T09:53:10Z</time>
      </trkpt>
      <trkpt lat="43.67337" lon="1.18299">
        <ele>148</ele>
        <time>2023-03-25T09:53:12Z</time>
      </trkpt>
      <trkpt lat="43.67339" lon="1.18294">
        <ele>148.2</ele>
        <time>2023-03-25T09:53:13Z</time>
      </trkpt>
      <trkpt lat="43.67342" lon="1.18283">
        <ele>148.6</ele>
        <time>2023-03-25T09:53:15Z</time>
      </trkpt>
      <trkpt lat="43.67345" lon="1.18272">
        <ele>149</ele>
        <time>2023-03-25T09:53:17Z</time>
      </trkpt>
      <trkpt lat="43.67347" lon="1.18257">
        <ele>149.8</ele>
        <time>2023-03-25T09:53:20Z</time>
      </trkpt>
      <trkpt lat="43.67347" lon="1.18246">
        <ele>150.8</ele>
        <time>2023-03-25T09:53:22Z</time>
      </trkpt>
      <trkpt lat="43.67348" lon="1.18231">
        <ele>152</ele>
        <time>2023-03-25T09:53:25Z</time>
      </trkpt>
      <trkpt lat="43.67348" lon="1.18221">
        <ele>153.2</ele>
        <time>2023-03-25T09:53:27Z</time>
      </trkpt>
      <trkpt lat="43.67349" lon="1.18216">
        <ele>153.4</ele>
        <time>2023-03-25T09:53:28Z</time>
      </trkpt>
      <trkpt lat="43.6735" lon="1.182">
        <ele>154.2</ele>
        <time>2023-03-25T09:53:31Z</time>
      </trkpt>
      <trkpt lat="43.67353" lon="1.18182">
        <ele>155.4</ele>
        <time>2023-03-25T09:53:35Z</time>
      </trkpt>
      <trkpt lat="43.67356" lon="1.1816">
        <ele>156.6</ele>
        <time>2023-03-25T09:53:40Z</time>
      </trkpt>
      <trkpt lat="43.67358" lon="1.18147">
        <ele>157.4</ele>
        <time>2023-03-25T09:53:43Z</time>
      </trkpt>
      <trkpt lat="43.67359" lon="1.18143">
        <ele>157.8</ele>
        <time>2023-03-25T09:53:44Z</time>
      </trkpt>
      <trkpt lat="43.67363" lon="1.18127">
        <ele>158.8</ele>
        <time>2023-03-25T09:53:48Z</time>
      </trkpt>
      <trkpt lat="43.67365" lon="1.18123">
        <ele>159.2</ele>
        <time>2023-03-25T09:53:49Z</time>
      </trkpt>
      <trkpt lat="43.67368" lon="1.18106">
        <ele>159.8</ele>
        <time>2023-03-25T09:53:53Z</time>
      </trkpt>
      <trkpt lat="43.6737" lon="1.18089">
        <ele>160.6</ele>
        <time>2023-03-25T09:53:57Z</time>
      </trkpt>
      <trkpt lat="43.67373" lon="1.18081">
        <ele>161.4</ele>
        <time>2023-03-25T09:53:59Z</time>
      </trkpt>
      <trkpt lat="43.67375" lon="1.18063">
        <ele>162.2</ele>
        <time>2023-03-25T09:54:04Z</time>
      </trkpt>
      <trkpt lat="43.67375" lon="1.18059">
        <ele>162.6</ele>
        <time>2023-03-25T09:54:05Z</time>
      </trkpt>
      <trkpt lat="43.67375" lon="1.18047">
        <ele>163.6</ele>
        <time>2023-03-25T09:54:08Z</time>
      </trkpt>
      <trkpt lat="43.67376" lon="1.1804">
        <ele>164.2</ele>
        <time>2023-03-25T09:54:10Z</time>
      </trkpt>
      <trkpt lat="43.67376" lon="1.18032">
        <ele>164.8</ele>
        <time>2023-03-25T09:54:12Z</time>
      </trkpt>
      <trkpt lat="43.67377" lon="1.18018">
        <ele>166</ele>
        <time>2023-03-25T09:54:15Z</time>
      </trkpt>
      <trkpt lat="43.67379" lon="1.17998">
        <ele>166.8</ele>
        <time>2023-03-25T09:54:20Z</time>
      </trkpt>
      <trkpt lat="43.6738" lon="1.17989">
        <ele>167</ele>
        <time>2023-03-25T09:54:22Z</time>
      </trkpt>
      <trkpt lat="43.67381" lon="1.17964">
        <ele>168.4</ele>
        <time>2023-03-25T09:54:28Z</time>
      </trkpt>
      <trkpt lat="43.67381" lon="1.17955">
        <ele>169</ele>
        <time>2023-03-25T09:54:30Z</time>
      </trkpt>
      <trkpt lat="43.67381" lon="1.17947">
        <ele>169.6</ele>
        <time>2023-03-25T09:54:32Z</time>
      </trkpt>
      <trkpt lat="43.67381" lon="1.17926">
        <ele>170.6</ele>
        <time>2023-03-25T09:54:37Z</time>
      </trkpt>
      <trkpt lat="43.6738" lon="1.17908">
        <ele>171.4</ele>
        <time>2023-03-25T09:54:41Z</time>
      </trkpt>
      <trkpt lat="43.67379" lon="1.17894">
        <ele>171.8</ele>
        <time>2023-03-25T09:54:44Z</time>
      </trkpt>
      <trkpt lat="43.67379" lon="1.17875">
        <ele>173</ele>
        <time>2023-03-25T09:54:48Z</time>
      </trkpt>
      <trkpt lat="43.67379" lon="1.17868">
        <ele>173.2</ele>
        <time>2023-03-25T09:54:50Z</time>
      </trkpt>
      <trkpt lat="43.67379" lon="1.17851">
        <ele>173.8</ele>
        <time>2023-03-25T09:54:54Z</time>
      </trkpt>
      <trkpt lat="43.67379" lon="1.17847">
        <ele>174</ele>
        <time>2023-03-25T09:54:55Z</time>
      </trkpt>
      <trkpt lat="43.67378" lon="1.1782">
        <ele>174.6</ele>
        <time>2023-03-25T09:55:01Z</time>
      </trkpt>
      <trkpt lat="43.6738" lon="1.17801">
        <ele>175</ele>
        <time>2023-03-25T09:55:05Z</time>
      </trkpt>
      <trkpt lat="43.67382" lon="1.17771">
        <ele>175.8</ele>
        <time>2023-03-25T09:55:09Z</time>
      </trkpt>
      <trkpt lat="43.67383" lon="1.17764">
        <ele>176.2</ele>
        <time>2023-03-25T09:55:10Z</time>
      </trkpt>
      <trkpt lat="43.67386" lon="1.17732">
        <ele>177.4</ele>
        <time>2023-03-25T09:55:15Z</time>
      </trkpt>
      <trkpt lat="43.67387" lon="1.17725">
        <ele>177.6</ele>
        <time>2023-03-25T09:55:16Z</time>
      </trkpt>
      <trkpt lat="43.67392" lon="1.17685">
        <ele>178.2</ele>
        <time>2023-03-25T09:55:22Z</time>
      </trkpt>
      <trkpt lat="43.67393" lon="1.17673">
        <ele>178.8</ele>
        <time>2023-03-25T09:55:24Z</time>
      </trkpt>
      <trkpt lat="43.67398" lon="1.17647">
        <ele>179.4</ele>
        <time>2023-03-25T09:55:28Z</time>
      </trkpt>
      <trkpt lat="43.674" lon="1.17635">
        <ele>180</ele>
        <time>2023-03-25T09:55:30Z</time>
      </trkpt>
      <trkpt lat="43.67404" lon="1.17598">
        <ele>181</ele>
        <time>2023-03-25T09:55:36Z</time>
      </trkpt>
      <trkpt lat="43.67405" lon="1.17592">
        <ele>181.2</ele>
        <time>2023-03-25T09:55:37Z</time>
      </trkpt>
      <trkpt lat="43.67417" lon="1.1755">
        <ele>182.2</ele>
        <time>2023-03-25T09:55:44Z</time>
      </trkpt>
      <trkpt lat="43.6743" lon="1.17507">
        <ele>183.2</ele>
        <time>2023-03-25T09:55:51Z</time>
      </trkpt>
      <trkpt lat="43.67434" lon="1.17495">
        <ele>183.6</ele>
        <time>2023-03-25T09:55:53Z</time>
      </trkpt>
      <trkpt lat="43.67447" lon="1.17451">
        <ele>184.4</ele>
        <time>2023-03-25T09:56:00Z</time>
      </trkpt>
      <trkpt lat="43.67451" lon="1.17439">
        <ele>184.8</ele>
        <time>2023-03-25T09:56:02Z</time>
      </trkpt>
      <trkpt lat="43.67458" lon="1.17417">
        <ele>185.4</ele>
        <time>2023-03-25T09:56:06Z</time>
      </trkpt>
      <trkpt lat="43.67463" lon="1.17401">
        <ele>185.8</ele>
        <time>2023-03-25T09:56:09Z</time>
      </trkpt>
      <trkpt lat="43.67467" lon="1.17388">
        <ele>186.6</ele>
        <time>2023-03-25T09:56:12Z</time>
      </trkpt>
      <trkpt lat="43.67469" lon="1.17381">
        <ele>187.2</ele>
        <time>2023-03-25T09:56:14Z</time>
      </trkpt>
      <trkpt lat="43.67472" lon="1.17373">
        <ele>187.8</ele>
        <time>2023-03-25T09:56:16Z</time>
      </trkpt>
      <trkpt lat="43.67475" lon="1.17359">
        <ele>189.2</ele>
        <time>2023-03-25T09:56:20Z</time>
      </trkpt>
      <trkpt lat="43.67476" lon="1.17356">
        <ele>189.6</ele>
        <time>2023-03-25T09:56:21Z</time>
      </trkpt>
      <trkpt lat="43.67478" lon="1.17345">
        <ele>190.4</ele>
        <time>2023-03-25T09:56:24Z</time>
      </trkpt>
      <trkpt lat="43.67479" lon="1.17326">
        <ele>191.2</ele>
        <time>2023-03-25T09:56:28Z</time>
      </trkpt>
      <trkpt lat="43.67479" lon="1.17303">
        <ele>191.4</ele>
        <time>2023-03-25T09:56:33Z</time>
      </trkpt>
      <trkpt lat="43.67479" lon="1.17298">
        <ele>191.6</ele>
        <time>2023-03-25T09:56:34Z</time>
      </trkpt>
      <trkpt lat="43.67481" lon="1.17286">
        <ele>192.2</ele>
        <time>2023-03-25T09:56:37Z</time>
      </trkpt>
      <trkpt lat="43.67483" lon="1.17272">
        <ele>192.8</ele>
        <time>2023-03-25T09:56:40Z</time>
      </trkpt>
      <trkpt lat="43.67486" lon="1.17259">
        <ele>194</ele>
        <time>2023-03-25T09:56:43Z</time>
      </trkpt>
      <trkpt lat="43.67488" lon="1.1725">
        <ele>194.6</ele>
        <time>2023-03-25T09:56:45Z</time>
      </trkpt>
      <trkpt lat="43.67492" lon="1.17238">
        <ele>195.2</ele>
        <time>2023-03-25T09:56:48Z</time>
      </trkpt>
      <trkpt lat="43.67496" lon="1.17229">
        <ele>196</ele>
        <time>2023-03-25T09:56:51Z</time>
      </trkpt>
      <trkpt lat="43.67497" lon="1.17227">
        <ele>196.2</ele>
        <time>2023-03-25T09:56:52Z</time>
      </trkpt>
      <trkpt lat="43.67499" lon="1.17224">
        <ele>196.6</ele>
        <time>2023-03-25T09:56:53Z</time>
      </trkpt>
      <trkpt lat="43.675" lon="1.17215">
        <ele>197.8</ele>
        <time>2023-03-25T09:56:58Z</time>
      </trkpt>
      <trkpt lat="43.67499" lon="1.17214">
        <ele>197.8</ele>
        <time>2023-03-25T09:56:59Z</time>
      </trkpt>
      <trkpt lat="43.67498" lon="1.17213">
        <ele>198.4</ele>
        <time>2023-03-25T09:57:01Z</time>
      </trkpt>
      <trkpt lat="43.67498" lon="1.17213">
        <ele>198.6</ele>
        <time>2023-03-25T09:57:03Z</time>
      </trkpt>
      <trkpt lat="43.67494" lon="1.1721">
        <ele>198.6</ele>
        <time>2023-03-25T09:57:33Z</time>
      </trkpt>
      <trkpt lat="43.67479" lon="1.172">
        <ele>198.8</ele>
        <time>2023-03-25T09:57:39Z</time>
      </trkpt>
      <trkpt lat="43.67473" lon="1.17195">
        <ele>198.8</ele>
        <time>2023-03-25T09:57:41Z</time>
      </trkpt>
      <trkpt lat="43.67461" lon="1.17186">
        <ele>198.8</ele>
        <time>2023-03-25T09:57:44Z</time>
      </trkpt>
      <trkpt lat="43.67434" lon="1.17158">
        <ele>198.4</ele>
        <time>2023-03-25T09:57:51Z</time>
      </trkpt>
      <trkpt lat="43.67416" lon="1.17137">
        <ele>198.4</ele>
        <time>2023-03-25T09:57:56Z</time>
      </trkpt>
      <trkpt lat="43.67414" lon="1.17132">
        <ele>198.6</ele>
        <time>2023-03-25T09:57:57Z</time>
      </trkpt>
      <trkpt lat="43.67409" lon="1.17112">
        <ele>198.6</ele>
        <time>2023-03-25T09:58:00Z</time>
      </trkpt>
      <trkpt lat="43.67406" lon="1.17092">
        <ele>199.4</ele>
        <time>2023-03-25T09:58:04Z</time>
      </trkpt>
      <trkpt lat="43.67406" lon="1.17087">
        <ele>199.6</ele>
        <time>2023-03-25T09:58:05Z</time>
      </trkpt>
      <trkpt lat="43.67403" lon="1.17062">
        <ele>200.8</ele>
        <time>2023-03-25T09:58:10Z</time>
      </trkpt>
      <trkpt lat="43.67405" lon="1.1705">
        <ele>201.8</ele>
        <time>2023-03-25T09:58:13Z</time>
      </trkpt>
      <trkpt lat="43.67405" lon="1.17048">
        <ele>202.2</ele>
        <time>2023-03-25T09:58:14Z</time>
      </trkpt>
      <trkpt lat="43.67405" lon="1.17038">
        <ele>203.6</ele>
        <time>2023-03-25T09:58:17Z</time>
      </trkpt>
      <trkpt lat="43.67406" lon="1.17028">
        <ele>204.4</ele>
        <time>2023-03-25T09:58:20Z</time>
      </trkpt>
      <trkpt lat="43.67406" lon="1.17024">
        <ele>204.6</ele>
        <time>2023-03-25T09:58:21Z</time>
      </trkpt>
      <trkpt lat="43.67406" lon="1.16999">
        <ele>205.6</ele>
        <time>2023-03-25T09:58:26Z</time>
      </trkpt>
      <trkpt lat="43.67407" lon="1.16994">
        <ele>205.8</ele>
        <time>2023-03-25T09:58:27Z</time>
      </trkpt>
      <trkpt lat="43.6741" lon="1.16965">
        <ele>205.8</ele>
        <time>2023-03-25T09:58:32Z</time>
      </trkpt>
      <trkpt lat="43.67412" lon="1.16933">
        <ele>205.4</ele>
        <time>2023-03-25T09:58:37Z</time>
      </trkpt>
      <trkpt lat="43.67414" lon="1.1691">
        <ele>205.4</ele>
        <time>2023-03-25T09:58:40Z</time>
      </trkpt>
      <trkpt lat="43.67416" lon="1.16896">
        <ele>205.8</ele>
        <time>2023-03-25T09:58:42Z</time>
      </trkpt>
      <trkpt lat="43.67417" lon="1.16876">
        <ele>205</ele>
        <time>2023-03-25T09:58:45Z</time>
      </trkpt>
      <trkpt lat="43.6742" lon="1.1686">
        <ele>205</ele>
        <time>2023-03-25T09:58:47Z</time>
      </trkpt>
      <trkpt lat="43.67421" lon="1.16845">
        <ele>205</ele>
        <time>2023-03-25T09:58:49Z</time>
      </trkpt>
      <trkpt lat="43.67425" lon="1.16813">
        <ele>204.8</ele>
        <time>2023-03-25T09:58:54Z</time>
      </trkpt>
      <trkpt lat="43.6743" lon="1.16777">
        <ele>204.4</ele>
        <time>2023-03-25T09:58:59Z</time>
      </trkpt>
      <trkpt lat="43.67431" lon="1.16761">
        <ele>204.4</ele>
        <time>2023-03-25T09:59:01Z</time>
      </trkpt>
      <trkpt lat="43.67432" lon="1.16747">
        <ele>204.2</ele>
        <time>2023-03-25T09:59:03Z</time>
      </trkpt>
      <trkpt lat="43.67431" lon="1.16738">
        <ele>204.2</ele>
        <time>2023-03-25T09:59:04Z</time>
      </trkpt>
      <trkpt lat="43.67429" lon="1.16718">
        <ele>204</ele>
        <time>2023-03-25T09:59:06Z</time>
      </trkpt>
      <trkpt lat="43.67427" lon="1.16701">
        <ele>203.8</ele>
        <time>2023-03-25T09:59:08Z</time>
      </trkpt>
      <trkpt lat="43.67427" lon="1.16685">
        <ele>203.2</ele>
        <time>2023-03-25T09:59:10Z</time>
      </trkpt>
      <trkpt lat="43.67427" lon="1.16668">
        <ele>203.2</ele>
        <time>2023-03-25T09:59:12Z</time>
      </trkpt>
      <trkpt lat="43.67427" lon="1.16658">
        <ele>203</ele>
        <time>2023-03-25T09:59:13Z</time>
      </trkpt>
      <trkpt lat="43.67427" lon="1.16641">
        <ele>202.2</ele>
        <time>2023-03-25T09:59:15Z</time>
      </trkpt>
      <trkpt lat="43.67427" lon="1.1663">
        <ele>201.6</ele>
        <time>2023-03-25T09:59:16Z</time>
      </trkpt>
      <trkpt lat="43.67431" lon="1.16612">
        <ele>200.8</ele>
        <time>2023-03-25T09:59:18Z</time>
      </trkpt>
      <trkpt lat="43.67432" lon="1.16604">
        <ele>200.8</ele>
        <time>2023-03-25T09:59:19Z</time>
      </trkpt>
      <trkpt lat="43.67433" lon="1.16595">
        <ele>199.4</ele>
        <time>2023-03-25T09:59:20Z</time>
      </trkpt>
      <trkpt lat="43.67434" lon="1.16587">
        <ele>199</ele>
        <time>2023-03-25T09:59:21Z</time>
      </trkpt>
      <trkpt lat="43.67442" lon="1.16561">
        <ele>197.4</ele>
        <time>2023-03-25T09:59:24Z</time>
      </trkpt>
      <trkpt lat="43.67444" lon="1.16552">
        <ele>196.8</ele>
        <time>2023-03-25T09:59:25Z</time>
      </trkpt>
      <trkpt lat="43.67449" lon="1.16535">
        <ele>195.8</ele>
        <time>2023-03-25T09:59:27Z</time>
      </trkpt>
      <trkpt lat="43.67451" lon="1.16526">
        <ele>195.6</ele>
        <time>2023-03-25T09:59:28Z</time>
      </trkpt>
      <trkpt lat="43.67452" lon="1.1652">
        <ele>195.2</ele>
        <time>2023-03-25T09:59:29Z</time>
      </trkpt>
      <trkpt lat="43.67454" lon="1.16514">
        <ele>194.8</ele>
        <time>2023-03-25T09:59:30Z</time>
      </trkpt>
      <trkpt lat="43.67459" lon="1.16499">
        <ele>193.8</ele>
        <time>2023-03-25T09:59:32Z</time>
      </trkpt>
      <trkpt lat="43.67462" lon="1.16487">
        <ele>193.6</ele>
        <time>2023-03-25T09:59:33Z</time>
      </trkpt>
      <trkpt lat="43.67469" lon="1.16467">
        <ele>192.8</ele>
        <time>2023-03-25T09:59:35Z</time>
      </trkpt>
      <trkpt lat="43.67472" lon="1.1646">
        <ele>191.4</ele>
        <time>2023-03-25T09:59:36Z</time>
      </trkpt>
      <trkpt lat="43.67479" lon="1.16443">
        <ele>188.8</ele>
        <time>2023-03-25T09:59:38Z</time>
      </trkpt>
      <trkpt lat="43.67486" lon="1.16428">
        <ele>187.8</ele>
        <time>2023-03-25T09:59:40Z</time>
      </trkpt>
      <trkpt lat="43.67493" lon="1.16415">
        <ele>186.6</ele>
        <time>2023-03-25T09:59:42Z</time>
      </trkpt>
      <trkpt lat="43.67495" lon="1.16405">
        <ele>185.8</ele>
        <time>2023-03-25T09:59:43Z</time>
      </trkpt>
      <trkpt lat="43.67494" lon="1.16398">
        <ele>185.4</ele>
        <time>2023-03-25T09:59:44Z</time>
      </trkpt>
      <trkpt lat="43.67493" lon="1.16392">
        <ele>184.4</ele>
        <time>2023-03-25T09:59:45Z</time>
      </trkpt>
      <trkpt lat="43.67492" lon="1.16383">
        <ele>184</ele>
        <time>2023-03-25T09:59:46Z</time>
      </trkpt>
      <trkpt lat="43.67491" lon="1.16375">
        <ele>183.6</ele>
        <time>2023-03-25T09:59:47Z</time>
      </trkpt>
      <trkpt lat="43.67495" lon="1.16361">
        <ele>183.2</ele>
        <time>2023-03-25T09:59:49Z</time>
      </trkpt>
      <trkpt lat="43.67497" lon="1.16357">
        <ele>183</ele>
        <time>2023-03-25T09:59:50Z</time>
      </trkpt>
      <trkpt lat="43.67499" lon="1.16351">
        <ele>183</ele>
        <time>2023-03-25T09:59:51Z</time>
      </trkpt>
      <trkpt lat="43.675" lon="1.16344">
        <ele>182.4</ele>
        <time>2023-03-25T09:59:52Z</time>
      </trkpt>
      <trkpt lat="43.67504" lon="1.16327">
        <ele>181.6</ele>
        <time>2023-03-25T09:59:54Z</time>
      </trkpt>
      <trkpt lat="43.67511" lon="1.16298">
        <ele>180.4</ele>
        <time>2023-03-25T09:59:57Z</time>
      </trkpt>
      <trkpt lat="43.67514" lon="1.16289">
        <ele>180.2</ele>
        <time>2023-03-25T09:59:58Z</time>
      </trkpt>
      <trkpt lat="43.67516" lon="1.16282">
        <ele>180</ele>
        <time>2023-03-25T09:59:59Z</time>
      </trkpt>
      <trkpt lat="43.67517" lon="1.16277">
        <ele>179.2</ele>
        <time>2023-03-25T10:00:00Z</time>
      </trkpt>
      <trkpt lat="43.67518" lon="1.16271">
        <ele>178.2</ele>
        <time>2023-03-25T10:00:01Z</time>
      </trkpt>
      <trkpt lat="43.67519" lon="1.16266">
        <ele>177.6</ele>
        <time>2023-03-25T10:00:02Z</time>
      </trkpt>
      <trkpt lat="43.6752" lon="1.16263">
        <ele>177.2</ele>
        <time>2023-03-25T10:00:03Z</time>
      </trkpt>
      <trkpt lat="43.67517" lon="1.16258">
        <ele>176.6</ele>
        <time>2023-03-25T10:00:05Z</time>
      </trkpt>
      <trkpt lat="43.67517" lon="1.16255">
        <ele>175.8</ele>
        <time>2023-03-25T10:00:06Z</time>
      </trkpt>
      <trkpt lat="43.67519" lon="1.16249">
        <ele>175</ele>
        <time>2023-03-25T10:00:08Z</time>
      </trkpt>
      <trkpt lat="43.67521" lon="1.16241">
        <ele>174</ele>
        <time>2023-03-25T10:00:10Z</time>
      </trkpt>
      <trkpt lat="43.67523" lon="1.16232">
        <ele>172.6</ele>
        <time>2023-03-25T10:00:12Z</time>
      </trkpt>
      <trkpt lat="43.67527" lon="1.16219">
        <ele>171.4</ele>
        <time>2023-03-25T10:00:15Z</time>
      </trkpt>
      <trkpt lat="43.6753" lon="1.16204">
        <ele>170.8</ele>
        <time>2023-03-25T10:00:18Z</time>
      </trkpt>
      <trkpt lat="43.67531" lon="1.16194">
        <ele>170.6</ele>
        <time>2023-03-25T10:00:21Z</time>
      </trkpt>
      <trkpt lat="43.67537" lon="1.16181">
        <ele>170.4</ele>
        <time>2023-03-25T10:00:26Z</time>
      </trkpt>
      <trkpt lat="43.67539" lon="1.16176">
        <ele>170.2</ele>
        <time>2023-03-25T10:00:27Z</time>
      </trkpt>
      <trkpt lat="43.67543" lon="1.16153">
        <ele>170</ele>
        <time>2023-03-25T10:00:31Z</time>
      </trkpt>
      <trkpt lat="43.67552" lon="1.16105">
        <ele>169.6</ele>
        <time>2023-03-25T10:00:38Z</time>
      </trkpt>
      <trkpt lat="43.67554" lon="1.161">
        <ele>169.6</ele>
        <time>2023-03-25T10:00:39Z</time>
      </trkpt>
      <trkpt lat="43.67568" lon="1.16059">
        <ele>170</ele>
        <time>2023-03-25T10:00:45Z</time>
      </trkpt>
      <trkpt lat="43.67581" lon="1.15995">
        <ele>170.6</ele>
        <time>2023-03-25T10:00:54Z</time>
      </trkpt>
      <trkpt lat="43.67583" lon="1.15986">
        <ele>170.4</ele>
        <time>2023-03-25T10:00:57Z</time>
      </trkpt>
      <trkpt lat="43.67586" lon="1.15964">
        <ele>169.2</ele>
        <time>2023-03-25T10:01:02Z</time>
      </trkpt>
      <trkpt lat="43.6759" lon="1.15937">
        <ele>168</ele>
        <time>2023-03-25T10:01:06Z</time>
      </trkpt>
      <trkpt lat="43.67592" lon="1.15921">
        <ele>167.8</ele>
        <time>2023-03-25T10:01:08Z</time>
      </trkpt>
      <trkpt lat="43.67595" lon="1.15873">
        <ele>167</ele>
        <time>2023-03-25T10:01:14Z</time>
      </trkpt>
      <trkpt lat="43.67595" lon="1.15837">
        <ele>166</ele>
        <time>2023-03-25T10:01:19Z</time>
      </trkpt>
      <trkpt lat="43.67595" lon="1.1583">
        <ele>166</ele>
        <time>2023-03-25T10:01:20Z</time>
      </trkpt>
      <trkpt lat="43.67597" lon="1.15788">
        <ele>166</ele>
        <time>2023-03-25T10:01:25Z</time>
      </trkpt>
      <trkpt lat="43.67603" lon="1.15731">
        <ele>166.2</ele>
        <time>2023-03-25T10:01:31Z</time>
      </trkpt>
      <trkpt lat="43.67617" lon="1.15676">
        <ele>166.4</ele>
        <time>2023-03-25T10:01:37Z</time>
      </trkpt>
      <trkpt lat="43.67632" lon="1.15606">
        <ele>167.2</ele>
        <time>2023-03-25T10:01:45Z</time>
      </trkpt>
      <trkpt lat="43.67634" lon="1.15598">
        <ele>167.2</ele>
        <time>2023-03-25T10:01:46Z</time>
      </trkpt>
      <trkpt lat="43.67643" lon="1.15524">
        <ele>167.6</ele>
        <time>2023-03-25T10:01:55Z</time>
      </trkpt>
      <trkpt lat="43.67653" lon="1.15474">
        <ele>168.2</ele>
        <time>2023-03-25T10:02:01Z</time>
      </trkpt>
      <trkpt lat="43.67661" lon="1.15423">
        <ele>168.8</ele>
        <time>2023-03-25T10:02:07Z</time>
      </trkpt>
      <trkpt lat="43.67673" lon="1.1536">
        <ele>169.4</ele>
        <time>2023-03-25T10:02:15Z</time>
      </trkpt>
      <trkpt lat="43.67678" lon="1.15335">
        <ele>169.6</ele>
        <time>2023-03-25T10:02:18Z</time>
      </trkpt>
      <trkpt lat="43.67685" lon="1.15305">
        <ele>170</ele>
        <time>2023-03-25T10:02:22Z</time>
      </trkpt>
      <trkpt lat="43.6769" lon="1.15275">
        <ele>170.4</ele>
        <time>2023-03-25T10:02:26Z</time>
      </trkpt>
      <trkpt lat="43.67692" lon="1.15268">
        <ele>170.4</ele>
        <time>2023-03-25T10:02:27Z</time>
      </trkpt>
      <trkpt lat="43.67694" lon="1.1526">
        <ele>170.6</ele>
        <time>2023-03-25T10:02:28Z</time>
      </trkpt>
      <trkpt lat="43.67701" lon="1.15239">
        <ele>171</ele>
        <time>2023-03-25T10:02:31Z</time>
      </trkpt>
      <trkpt lat="43.67704" lon="1.15223">
        <ele>171.2</ele>
        <time>2023-03-25T10:02:33Z</time>
      </trkpt>
      <trkpt lat="43.67711" lon="1.15193">
        <ele>171.4</ele>
        <time>2023-03-25T10:02:37Z</time>
      </trkpt>
      <trkpt lat="43.67714" lon="1.15179">
        <ele>171.4</ele>
        <time>2023-03-25T10:02:39Z</time>
      </trkpt>
      <trkpt lat="43.67721" lon="1.15166">
        <ele>171.6</ele>
        <time>2023-03-25T10:02:41Z</time>
      </trkpt>
      <trkpt lat="43.67728" lon="1.15157">
        <ele>171.6</ele>
        <time>2023-03-25T10:02:43Z</time>
      </trkpt>
      <trkpt lat="43.67742" lon="1.15142">
        <ele>171.8</ele>
        <time>2023-03-25T10:02:46Z</time>
      </trkpt>
      <trkpt lat="43.67755" lon="1.15131">
        <ele>172.6</ele>
        <time>2023-03-25T10:02:49Z</time>
      </trkpt>
      <trkpt lat="43.67776" lon="1.1511">
        <ele>173</ele>
        <time>2023-03-25T10:02:54Z</time>
      </trkpt>
      <trkpt lat="43.67787" lon="1.15093">
        <ele>173.4</ele>
        <time>2023-03-25T10:02:58Z</time>
      </trkpt>
      <trkpt lat="43.67788" lon="1.15079">
        <ele>173.6</ele>
        <time>2023-03-25T10:03:01Z</time>
      </trkpt>
      <trkpt lat="43.67789" lon="1.15072">
        <ele>174</ele>
        <time>2023-03-25T10:03:03Z</time>
      </trkpt>
      <trkpt lat="43.67792" lon="1.15055">
        <ele>174.4</ele>
        <time>2023-03-25T10:03:08Z</time>
      </trkpt>
      <trkpt lat="43.67792" lon="1.15052">
        <ele>174.8</ele>
        <time>2023-03-25T10:03:09Z</time>
      </trkpt>
      <trkpt lat="43.67794" lon="1.15043">
        <ele>175.8</ele>
        <time>2023-03-25T10:03:12Z</time>
      </trkpt>
      <trkpt lat="43.67796" lon="1.15032">
        <ele>177</ele>
        <time>2023-03-25T10:03:16Z</time>
      </trkpt>
      <trkpt lat="43.67799" lon="1.15021">
        <ele>178</ele>
        <time>2023-03-25T10:03:20Z</time>
      </trkpt>
      <trkpt lat="43.67803" lon="1.15012">
        <ele>179.2</ele>
        <time>2023-03-25T10:03:24Z</time>
      </trkpt>
      <trkpt lat="43.67804" lon="1.1501">
        <ele>179.6</ele>
        <time>2023-03-25T10:03:25Z</time>
      </trkpt>
      <trkpt lat="43.67808" lon="1.15004">
        <ele>180.6</ele>
        <time>2023-03-25T10:03:28Z</time>
      </trkpt>
      <trkpt lat="43.67814" lon="1.14998">
        <ele>181.8</ele>
        <time>2023-03-25T10:03:32Z</time>
      </trkpt>
      <trkpt lat="43.67816" lon="1.14997">
        <ele>182</ele>
        <time>2023-03-25T10:03:33Z</time>
      </trkpt>
      <trkpt lat="43.67819" lon="1.14995">
        <ele>183</ele>
        <time>2023-03-25T10:03:35Z</time>
      </trkpt>
      <trkpt lat="43.67825" lon="1.14988">
        <ele>184.4</ele>
        <time>2023-03-25T10:03:39Z</time>
      </trkpt>
      <trkpt lat="43.67827" lon="1.14986">
        <ele>184.8</ele>
        <time>2023-03-25T10:03:41Z</time>
      </trkpt>
      <trkpt lat="43.67829" lon="1.14984">
        <ele>185.4</ele>
        <time>2023-03-25T10:03:42Z</time>
      </trkpt>
      <trkpt lat="43.67835" lon="1.14978">
        <ele>186.6</ele>
        <time>2023-03-25T10:03:46Z</time>
      </trkpt>
      <trkpt lat="43.6784" lon="1.14973">
        <ele>187.4</ele>
        <time>2023-03-25T10:03:49Z</time>
      </trkpt>
      <trkpt lat="43.67841" lon="1.14971">
        <ele>187.6</ele>
        <time>2023-03-25T10:03:50Z</time>
      </trkpt>
      <trkpt lat="43.67847" lon="1.14963">
        <ele>188.8</ele>
        <time>2023-03-25T10:03:55Z</time>
      </trkpt>
      <trkpt lat="43.67851" lon="1.14958">
        <ele>189.6</ele>
        <time>2023-03-25T10:03:58Z</time>
      </trkpt>
      <trkpt lat="43.67854" lon="1.14954">
        <ele>190</ele>
        <time>2023-03-25T10:04:00Z</time>
      </trkpt>
      <trkpt lat="43.67859" lon="1.14947">
        <ele>191</ele>
        <time>2023-03-25T10:04:04Z</time>
      </trkpt>
      <trkpt lat="43.67861" lon="1.14944">
        <ele>191.6</ele>
        <time>2023-03-25T10:04:06Z</time>
      </trkpt>
      <trkpt lat="43.67863" lon="1.14941">
        <ele>192.2</ele>
        <time>2023-03-25T10:04:08Z</time>
      </trkpt>
      <trkpt lat="43.67868" lon="1.14933">
        <ele>193.2</ele>
        <time>2023-03-25T10:04:12Z</time>
      </trkpt>
      <trkpt lat="43.67874" lon="1.14923">
        <ele>194.2</ele>
        <time>2023-03-25T10:04:17Z</time>
      </trkpt>
      <trkpt lat="43.67879" lon="1.14916">
        <ele>195.6</ele>
        <time>2023-03-25T10:04:21Z</time>
      </trkpt>
      <trkpt lat="43.67883" lon="1.14907">
        <ele>196.8</ele>
        <time>2023-03-25T10:04:25Z</time>
      </trkpt>
      <trkpt lat="43.67885" lon="1.14905">
        <ele>196.8</ele>
        <time>2023-03-25T10:04:26Z</time>
      </trkpt>
      <trkpt lat="43.67889" lon="1.14899">
        <ele>197.8</ele>
        <time>2023-03-25T10:04:29Z</time>
      </trkpt>
      <trkpt lat="43.67894" lon="1.14888">
        <ele>199</ele>
        <time>2023-03-25T10:04:34Z</time>
      </trkpt>
      <trkpt lat="43.67896" lon="1.14884">
        <ele>199.4</ele>
        <time>2023-03-25T10:04:36Z</time>
      </trkpt>
      <trkpt lat="43.67901" lon="1.14878">
        <ele>200.2</ele>
        <time>2023-03-25T10:04:39Z</time>
      </trkpt>
      <trkpt lat="43.67906" lon="1.14866">
        <ele>201.2</ele>
        <time>2023-03-25T10:04:44Z</time>
      </trkpt>
      <trkpt lat="43.67907" lon="1.14864">
        <ele>201.4</ele>
        <time>2023-03-25T10:04:45Z</time>
      </trkpt>
      <trkpt lat="43.67912" lon="1.14851">
        <ele>202.6</ele>
        <time>2023-03-25T10:04:50Z</time>
      </trkpt>
      <trkpt lat="43.67914" lon="1.14842">
        <ele>203.2</ele>
        <time>2023-03-25T10:04:53Z</time>
      </trkpt>
      <trkpt lat="43.67916" lon="1.14836">
        <ele>203.6</ele>
        <time>2023-03-25T10:04:55Z</time>
      </trkpt>
      <trkpt lat="43.67917" lon="1.14822">
        <ele>204.6</ele>
        <time>2023-03-25T10:05:00Z</time>
      </trkpt>
      <trkpt lat="43.67918" lon="1.14819">
        <ele>204.8</ele>
        <time>2023-03-25T10:05:01Z</time>
      </trkpt>
      <trkpt lat="43.67918" lon="1.14798">
        <ele>206</ele>
        <time>2023-03-25T10:05:07Z</time>
      </trkpt>
      <trkpt lat="43.67918" lon="1.1479">
        <ele>206.2</ele>
        <time>2023-03-25T10:05:09Z</time>
      </trkpt>
      <trkpt lat="43.67919" lon="1.14766">
        <ele>207</ele>
        <time>2023-03-25T10:05:15Z</time>
      </trkpt>
      <trkpt lat="43.6792" lon="1.14754">
        <ele>207.4</ele>
        <time>2023-03-25T10:05:18Z</time>
      </trkpt>
      <trkpt lat="43.67926" lon="1.14725">
        <ele>208.2</ele>
        <time>2023-03-25T10:05:25Z</time>
      </trkpt>
      <trkpt lat="43.67933" lon="1.14694">
        <ele>209.4</ele>
        <time>2023-03-25T10:05:32Z</time>
      </trkpt>
      <trkpt lat="43.67937" lon="1.1468">
        <ele>209.8</ele>
        <time>2023-03-25T10:05:35Z</time>
      </trkpt>
      <trkpt lat="43.67943" lon="1.14662">
        <ele>210.4</ele>
        <time>2023-03-25T10:05:39Z</time>
      </trkpt>
      <trkpt lat="43.6795" lon="1.14639">
        <ele>211.2</ele>
        <time>2023-03-25T10:05:44Z</time>
      </trkpt>
      <trkpt lat="43.67954" lon="1.14625">
        <ele>211.6</ele>
        <time>2023-03-25T10:05:47Z</time>
      </trkpt>
      <trkpt lat="43.67962" lon="1.146">
        <ele>212.8</ele>
        <time>2023-03-25T10:05:52Z</time>
      </trkpt>
      <trkpt lat="43.67967" lon="1.14585">
        <ele>213.2</ele>
        <time>2023-03-25T10:05:55Z</time>
      </trkpt>
      <trkpt lat="43.67979" lon="1.14545">
        <ele>214.2</ele>
        <time>2023-03-25T10:06:04Z</time>
      </trkpt>
      <trkpt lat="43.67986" lon="1.14524">
        <ele>215.2</ele>
        <time>2023-03-25T10:06:09Z</time>
      </trkpt>
      <trkpt lat="43.67991" lon="1.14507">
        <ele>216.4</ele>
        <time>2023-03-25T10:06:13Z</time>
      </trkpt>
      <trkpt lat="43.67992" lon="1.14503">
        <ele>216.4</ele>
        <time>2023-03-25T10:06:14Z</time>
      </trkpt>
      <trkpt lat="43.67996" lon="1.1449">
        <ele>217.4</ele>
        <time>2023-03-25T10:06:17Z</time>
      </trkpt>
      <trkpt lat="43.67999" lon="1.14479">
        <ele>218.6</ele>
        <time>2023-03-25T10:06:20Z</time>
      </trkpt>
      <trkpt lat="43.68002" lon="1.14462">
        <ele>219.4</ele>
        <time>2023-03-25T10:06:24Z</time>
      </trkpt>
      <trkpt lat="43.68003" lon="1.14458">
        <ele>219.6</ele>
        <time>2023-03-25T10:06:25Z</time>
      </trkpt>
      <trkpt lat="43.68007" lon="1.14439">
        <ele>220.6</ele>
        <time>2023-03-25T10:06:30Z</time>
      </trkpt>
      <trkpt lat="43.68009" lon="1.14431">
        <ele>221</ele>
        <time>2023-03-25T10:06:32Z</time>
      </trkpt>
      <trkpt lat="43.6801" lon="1.14424">
        <ele>221.6</ele>
        <time>2023-03-25T10:06:34Z</time>
      </trkpt>
      <trkpt lat="43.68012" lon="1.144">
        <ele>222.8</ele>
        <time>2023-03-25T10:06:40Z</time>
      </trkpt>
      <trkpt lat="43.68013" lon="1.14396">
        <ele>222.8</ele>
        <time>2023-03-25T10:06:41Z</time>
      </trkpt>
      <trkpt lat="43.68014" lon="1.14378">
        <ele>223.8</ele>
        <time>2023-03-25T10:06:46Z</time>
      </trkpt>
      <trkpt lat="43.68014" lon="1.14367">
        <ele>224.2</ele>
        <time>2023-03-25T10:06:49Z</time>
      </trkpt>
      <trkpt lat="43.68015" lon="1.14355">
        <ele>225</ele>
        <time>2023-03-25T10:06:52Z</time>
      </trkpt>
      <trkpt lat="43.68015" lon="1.14334">
        <ele>226.2</ele>
        <time>2023-03-25T10:06:58Z</time>
      </trkpt>
      <trkpt lat="43.68016" lon="1.14321">
        <ele>227.2</ele>
        <time>2023-03-25T10:07:03Z</time>
      </trkpt>
      <trkpt lat="43.68015" lon="1.14317">
        <ele>227.4</ele>
        <time>2023-03-25T10:07:05Z</time>
      </trkpt>
      <trkpt lat="43.68008" lon="1.14315">
        <ele>228</ele>
        <time>2023-03-25T10:07:10Z</time>
      </trkpt>
      <trkpt lat="43.68001" lon="1.14315">
        <ele>228.2</ele>
        <time>2023-03-25T10:07:14Z</time>
      </trkpt>
      <trkpt lat="43.67997" lon="1.14315">
        <ele>228.4</ele>
        <time>2023-03-25T10:07:16Z</time>
      </trkpt>
      <trkpt lat="43.67978" lon="1.14315">
        <ele>229.4</ele>
        <time>2023-03-25T10:07:23Z</time>
      </trkpt>
      <trkpt lat="43.67974" lon="1.14315">
        <ele>229.4</ele>
        <time>2023-03-25T10:07:24Z</time>
      </trkpt>
      <trkpt lat="43.67953" lon="1.14314">
        <ele>229.4</ele>
        <time>2023-03-25T10:07:29Z</time>
      </trkpt>
      <trkpt lat="43.67933" lon="1.14315">
        <ele>228</ele>
        <time>2023-03-25T10:07:33Z</time>
      </trkpt>
      <trkpt lat="43.67922" lon="1.14315">
        <ele>226.8</ele>
        <time>2023-03-25T10:07:35Z</time>
      </trkpt>
      <trkpt lat="43.67912" lon="1.14315">
        <ele>224.6</ele>
        <time>2023-03-25T10:07:37Z</time>
      </trkpt>
      <trkpt lat="43.67907" lon="1.14315">
        <ele>222.8</ele>
        <time>2023-03-25T10:07:38Z</time>
      </trkpt>
      <trkpt lat="43.67896" lon="1.14315">
        <ele>220.8</ele>
        <time>2023-03-25T10:07:40Z</time>
      </trkpt>
      <trkpt lat="43.67892" lon="1.14315">
        <ele>220.2</ele>
        <time>2023-03-25T10:07:41Z</time>
      </trkpt>
      <trkpt lat="43.67887" lon="1.14316">
        <ele>219.2</ele>
        <time>2023-03-25T10:07:42Z</time>
      </trkpt>
      <trkpt lat="43.67878" lon="1.14315">
        <ele>218</ele>
        <time>2023-03-25T10:07:44Z</time>
      </trkpt>
      <trkpt lat="43.67868" lon="1.14315">
        <ele>216.4</ele>
        <time>2023-03-25T10:07:46Z</time>
      </trkpt>
      <trkpt lat="43.67864" lon="1.14316">
        <ele>215.2</ele>
        <time>2023-03-25T10:07:47Z</time>
      </trkpt>
      <trkpt lat="43.67858" lon="1.14316">
        <ele>214</ele>
        <time>2023-03-25T10:07:48Z</time>
      </trkpt>
      <trkpt lat="43.67854" lon="1.14316">
        <ele>212.8</ele>
        <time>2023-03-25T10:07:49Z</time>
      </trkpt>
      <trkpt lat="43.67843" lon="1.14316">
        <ele>210.6</ele>
        <time>2023-03-25T10:07:51Z</time>
      </trkpt>
      <trkpt lat="43.67829" lon="1.14316">
        <ele>209</ele>
        <time>2023-03-25T10:07:53Z</time>
      </trkpt>
      <trkpt lat="43.67823" lon="1.14316">
        <ele>207</ele>
        <time>2023-03-25T10:07:54Z</time>
      </trkpt>
      <trkpt lat="43.67809" lon="1.14317">
        <ele>203.8</ele>
        <time>2023-03-25T10:07:56Z</time>
      </trkpt>
      <trkpt lat="43.67794" lon="1.14319">
        <ele>201.8</ele>
        <time>2023-03-25T10:07:58Z</time>
      </trkpt>
      <trkpt lat="43.6778" lon="1.1432">
        <ele>199.2</ele>
        <time>2023-03-25T10:08:00Z</time>
      </trkpt>
      <trkpt lat="43.67775" lon="1.1432">
        <ele>198</ele>
        <time>2023-03-25T10:08:01Z</time>
      </trkpt>
      <trkpt lat="43.67767" lon="1.14321">
        <ele>196.8</ele>
        <time>2023-03-25T10:08:02Z</time>
      </trkpt>
      <trkpt lat="43.67763" lon="1.1432">
        <ele>194.6</ele>
        <time>2023-03-25T10:08:03Z</time>
      </trkpt>
      <trkpt lat="43.67759" lon="1.1432">
        <ele>193.6</ele>
        <time>2023-03-25T10:08:04Z</time>
      </trkpt>
      <trkpt lat="43.67752" lon="1.1432">
        <ele>191.8</ele>
        <time>2023-03-25T10:08:05Z</time>
      </trkpt>
      <trkpt lat="43.67741" lon="1.14318">
        <ele>189.8</ele>
        <time>2023-03-25T10:08:07Z</time>
      </trkpt>
      <trkpt lat="43.67733" lon="1.14313">
        <ele>188</ele>
        <time>2023-03-25T10:08:09Z</time>
      </trkpt>
      <trkpt lat="43.67731" lon="1.1431">
        <ele>187.4</ele>
        <time>2023-03-25T10:08:10Z</time>
      </trkpt>
      <trkpt lat="43.67729" lon="1.14303">
        <ele>186.6</ele>
        <time>2023-03-25T10:08:12Z</time>
      </trkpt>
      <trkpt lat="43.67728" lon="1.14299">
        <ele>186.2</ele>
        <time>2023-03-25T10:08:13Z</time>
      </trkpt>
      <trkpt lat="43.67728" lon="1.14295">
        <ele>185.6</ele>
        <time>2023-03-25T10:08:14Z</time>
      </trkpt>
      <trkpt lat="43.67728" lon="1.14291">
        <ele>185.6</ele>
        <time>2023-03-25T10:08:15Z</time>
      </trkpt>
      <trkpt lat="43.67721" lon="1.14259">
        <ele>185.2</ele>
        <time>2023-03-25T10:08:21Z</time>
      </trkpt>
      <trkpt lat="43.67715" lon="1.14224">
        <ele>185.4</ele>
        <time>2023-03-25T10:08:28Z</time>
      </trkpt>
      <trkpt lat="43.67708" lon="1.14196">
        <ele>185.8</ele>
        <time>2023-03-25T10:08:33Z</time>
      </trkpt>
      <trkpt lat="43.67703" lon="1.14166">
        <ele>186.4</ele>
        <time>2023-03-25T10:08:38Z</time>
      </trkpt>
      <trkpt lat="43.67702" lon="1.14157">
        <ele>186.6</ele>
        <time>2023-03-25T10:08:40Z</time>
      </trkpt>
      <trkpt lat="43.67697" lon="1.1414">
        <ele>187.2</ele>
        <time>2023-03-25T10:08:43Z</time>
      </trkpt>
      <trkpt lat="43.67692" lon="1.14114">
        <ele>187.4</ele>
        <time>2023-03-25T10:08:48Z</time>
      </trkpt>
      <trkpt lat="43.6769" lon="1.14109">
        <ele>187.4</ele>
        <time>2023-03-25T10:08:49Z</time>
      </trkpt>
      <trkpt lat="43.67683" lon="1.14098">
        <ele>187.6</ele>
        <time>2023-03-25T10:08:53Z</time>
      </trkpt>
      <trkpt lat="43.67675" lon="1.14095">
        <ele>188.6</ele>
        <time>2023-03-25T10:08:58Z</time>
      </trkpt>
      <trkpt lat="43.67665" lon="1.14093">
        <ele>189.8</ele>
        <time>2023-03-25T10:09:03Z</time>
      </trkpt>
      <trkpt lat="43.67659" lon="1.14091">
        <ele>190.8</ele>
        <time>2023-03-25T10:09:06Z</time>
      </trkpt>
      <trkpt lat="43.67657" lon="1.1409">
        <ele>191.4</ele>
        <time>2023-03-25T10:09:07Z</time>
      </trkpt>
      <trkpt lat="43.67654" lon="1.1409">
        <ele>192</ele>
        <time>2023-03-25T10:09:09Z</time>
      </trkpt>
      <trkpt lat="43.67651" lon="1.14089">
        <ele>193.2</ele>
        <time>2023-03-25T10:09:11Z</time>
      </trkpt>
      <trkpt lat="43.67646" lon="1.14087">
        <ele>194.6</ele>
        <time>2023-03-25T10:09:14Z</time>
      </trkpt>
      <trkpt lat="43.67644" lon="1.14086">
        <ele>194.8</ele>
        <time>2023-03-25T10:09:15Z</time>
      </trkpt>
      <trkpt lat="43.6764" lon="1.14084">
        <ele>196.2</ele>
        <time>2023-03-25T10:09:18Z</time>
      </trkpt>
      <trkpt lat="43.67636" lon="1.14081">
        <ele>197.6</ele>
        <time>2023-03-25T10:09:21Z</time>
      </trkpt>
      <trkpt lat="43.6763" lon="1.14078">
        <ele>198.8</ele>
        <time>2023-03-25T10:09:25Z</time>
      </trkpt>
      <trkpt lat="43.67626" lon="1.14076">
        <ele>199.2</ele>
        <time>2023-03-25T10:09:27Z</time>
      </trkpt>
      <trkpt lat="43.67623" lon="1.14074">
        <ele>200</ele>
        <time>2023-03-25T10:09:30Z</time>
      </trkpt>
      <trkpt lat="43.67617" lon="1.14071">
        <ele>201.6</ele>
        <time>2023-03-25T10:09:34Z</time>
      </trkpt>
      <trkpt lat="43.67615" lon="1.1407">
        <ele>201.8</ele>
        <time>2023-03-25T10:09:35Z</time>
      </trkpt>
      <trkpt lat="43.67614" lon="1.14069">
        <ele>202.2</ele>
        <time>2023-03-25T10:09:36Z</time>
      </trkpt>
      <trkpt lat="43.67611" lon="1.14068">
        <ele>202.6</ele>
        <time>2023-03-25T10:09:38Z</time>
      </trkpt>
      <trkpt lat="43.6761" lon="1.14067">
        <ele>203.2</ele>
        <time>2023-03-25T10:09:39Z</time>
      </trkpt>
      <trkpt lat="43.67607" lon="1.14065">
        <ele>203.8</ele>
        <time>2023-03-25T10:09:42Z</time>
      </trkpt>
      <trkpt lat="43.67605" lon="1.14064">
        <ele>204.2</ele>
        <time>2023-03-25T10:09:43Z</time>
      </trkpt>
      <trkpt lat="43.67599" lon="1.14062">
        <ele>205.4</ele>
        <time>2023-03-25T10:09:48Z</time>
      </trkpt>
      <trkpt lat="43.67596" lon="1.1406">
        <ele>206</ele>
        <time>2023-03-25T10:09:50Z</time>
      </trkpt>
      <trkpt lat="43.67592" lon="1.14058">
        <ele>206.6</ele>
        <time>2023-03-25T10:09:53Z</time>
      </trkpt>
      <trkpt lat="43.67583" lon="1.14055">
        <ele>207.8</ele>
        <time>2023-03-25T10:09:59Z</time>
      </trkpt>
      <trkpt lat="43.67581" lon="1.14054">
        <ele>208</ele>
        <time>2023-03-25T10:10:00Z</time>
      </trkpt>
      <trkpt lat="43.67572" lon="1.1405">
        <ele>208.8</ele>
        <time>2023-03-25T10:10:06Z</time>
      </trkpt>
      <trkpt lat="43.67566" lon="1.14048">
        <ele>209.4</ele>
        <time>2023-03-25T10:10:10Z</time>
      </trkpt>
      <trkpt lat="43.67559" lon="1.14045">
        <ele>210</ele>
        <time>2023-03-25T10:10:14Z</time>
      </trkpt>
      <trkpt lat="43.67552" lon="1.14042">
        <ele>210.8</ele>
        <time>2023-03-25T10:10:19Z</time>
      </trkpt>
      <trkpt lat="43.67548" lon="1.1404">
        <ele>211.2</ele>
        <time>2023-03-25T10:10:21Z</time>
      </trkpt>
      <trkpt lat="43.67543" lon="1.14037">
        <ele>212.4</ele>
        <time>2023-03-25T10:10:25Z</time>
      </trkpt>
      <trkpt lat="43.67538" lon="1.14034">
        <ele>213</ele>
        <time>2023-03-25T10:10:29Z</time>
      </trkpt>
      <trkpt lat="43.67535" lon="1.14033">
        <ele>213.8</ele>
        <time>2023-03-25T10:10:31Z</time>
      </trkpt>
      <trkpt lat="43.67529" lon="1.1403">
        <ele>215.4</ele>
        <time>2023-03-25T10:10:36Z</time>
      </trkpt>
      <trkpt lat="43.67526" lon="1.14029">
        <ele>215.8</ele>
        <time>2023-03-25T10:10:38Z</time>
      </trkpt>
      <trkpt lat="43.67523" lon="1.14028">
        <ele>216.8</ele>
        <time>2023-03-25T10:10:40Z</time>
      </trkpt>
      <trkpt lat="43.67516" lon="1.14025">
        <ele>217.8</ele>
        <time>2023-03-25T10:10:45Z</time>
      </trkpt>
      <trkpt lat="43.67508" lon="1.14021">
        <ele>219</ele>
        <time>2023-03-25T10:10:51Z</time>
      </trkpt>
      <trkpt lat="43.67504" lon="1.1402">
        <ele>219.2</ele>
        <time>2023-03-25T10:10:53Z</time>
      </trkpt>
      <trkpt lat="43.67499" lon="1.14017">
        <ele>220</ele>
        <time>2023-03-25T10:10:57Z</time>
      </trkpt>
      <trkpt lat="43.67493" lon="1.14014">
        <ele>221</ele>
        <time>2023-03-25T10:11:01Z</time>
      </trkpt>
      <trkpt lat="43.6749" lon="1.14012">
        <ele>221.4</ele>
        <time>2023-03-25T10:11:03Z</time>
      </trkpt>
      <trkpt lat="43.67481" lon="1.14008">
        <ele>222.2</ele>
        <time>2023-03-25T10:11:09Z</time>
      </trkpt>
      <trkpt lat="43.67479" lon="1.14007">
        <ele>222.4</ele>
        <time>2023-03-25T10:11:10Z</time>
      </trkpt>
      <trkpt lat="43.67467" lon="1.14001">
        <ele>223.6</ele>
        <time>2023-03-25T10:11:17Z</time>
      </trkpt>
      <trkpt lat="43.67464" lon="1.13999">
        <ele>223.8</ele>
        <time>2023-03-25T10:11:19Z</time>
      </trkpt>
      <trkpt lat="43.67457" lon="1.13996">
        <ele>224.8</ele>
        <time>2023-03-25T10:11:24Z</time>
      </trkpt>
      <trkpt lat="43.67453" lon="1.13993">
        <ele>225.4</ele>
        <time>2023-03-25T10:11:27Z</time>
      </trkpt>
      <trkpt lat="43.67449" lon="1.13991">
        <ele>226</ele>
        <time>2023-03-25T10:11:30Z</time>
      </trkpt>
      <trkpt lat="43.67445" lon="1.13989">
        <ele>226.8</ele>
        <time>2023-03-25T10:11:33Z</time>
      </trkpt>
      <trkpt lat="43.67443" lon="1.13987">
        <ele>227.2</ele>
        <time>2023-03-25T10:11:35Z</time>
      </trkpt>
      <trkpt lat="43.67442" lon="1.13987">
        <ele>227.6</ele>
        <time>2023-03-25T10:11:36Z</time>
      </trkpt>
      <trkpt lat="43.67439" lon="1.13986">
        <ele>228.2</ele>
        <time>2023-03-25T10:11:38Z</time>
      </trkpt>
      <trkpt lat="43.67432" lon="1.13982">
        <ele>229.4</ele>
        <time>2023-03-25T10:11:44Z</time>
      </trkpt>
      <trkpt lat="43.67428" lon="1.1398">
        <ele>230</ele>
        <time>2023-03-25T10:11:47Z</time>
      </trkpt>
      <trkpt lat="43.67426" lon="1.13978">
        <ele>230.8</ele>
        <time>2023-03-25T10:11:49Z</time>
      </trkpt>
      <trkpt lat="43.67422" lon="1.13976">
        <ele>231.8</ele>
        <time>2023-03-25T10:11:52Z</time>
      </trkpt>
      <trkpt lat="43.6742" lon="1.13976">
        <ele>232.4</ele>
        <time>2023-03-25T10:11:54Z</time>
      </trkpt>
      <trkpt lat="43.67418" lon="1.13976">
        <ele>233.2</ele>
        <time>2023-03-25T10:11:56Z</time>
      </trkpt>
      <trkpt lat="43.67415" lon="1.13974">
        <ele>234.6</ele>
        <time>2023-03-25T10:12:00Z</time>
      </trkpt>
      <trkpt lat="43.67412" lon="1.13974">
        <ele>235.4</ele>
        <time>2023-03-25T10:12:02Z</time>
      </trkpt>
      <trkpt lat="43.67411" lon="1.13973">
        <ele>235.8</ele>
        <time>2023-03-25T10:12:03Z</time>
      </trkpt>
      <trkpt lat="43.67407" lon="1.13972">
        <ele>236.8</ele>
        <time>2023-03-25T10:12:07Z</time>
      </trkpt>
      <trkpt lat="43.67406" lon="1.13971">
        <ele>237.2</ele>
        <time>2023-03-25T10:12:08Z</time>
      </trkpt>
      <trkpt lat="43.67404" lon="1.1397">
        <ele>237.6</ele>
        <time>2023-03-25T10:12:09Z</time>
      </trkpt>
      <trkpt lat="43.67403" lon="1.13969">
        <ele>238</ele>
        <time>2023-03-25T10:12:10Z</time>
      </trkpt>
      <trkpt lat="43.67399" lon="1.13967">
        <ele>239.2</ele>
        <time>2023-03-25T10:12:13Z</time>
      </trkpt>
      <trkpt lat="43.67394" lon="1.13966">
        <ele>240</ele>
        <time>2023-03-25T10:12:17Z</time>
      </trkpt>
      <trkpt lat="43.67392" lon="1.13965">
        <ele>240.6</ele>
        <time>2023-03-25T10:12:19Z</time>
      </trkpt>
      <trkpt lat="43.67388" lon="1.13964">
        <ele>241.6</ele>
        <time>2023-03-25T10:12:22Z</time>
      </trkpt>
      <trkpt lat="43.67385" lon="1.13963">
        <ele>242</ele>
        <time>2023-03-25T10:12:24Z</time>
      </trkpt>
      <trkpt lat="43.67382" lon="1.13963">
        <ele>242.6</ele>
        <time>2023-03-25T10:12:27Z</time>
      </trkpt>
      <trkpt lat="43.67375" lon="1.13963">
        <ele>243.2</ele>
        <time>2023-03-25T10:12:32Z</time>
      </trkpt>
      <trkpt lat="43.67374" lon="1.13963">
        <ele>243.8</ele>
        <time>2023-03-25T10:12:33Z</time>
      </trkpt>
      <trkpt lat="43.6737" lon="1.13963">
        <ele>245</ele>
        <time>2023-03-25T10:12:36Z</time>
      </trkpt>
      <trkpt lat="43.67361" lon="1.13962">
        <ele>246</ele>
        <time>2023-03-25T10:12:42Z</time>
      </trkpt>
      <trkpt lat="43.67356" lon="1.13962">
        <ele>246.6</ele>
        <time>2023-03-25T10:12:45Z</time>
      </trkpt>
      <trkpt lat="43.67353" lon="1.13963">
        <ele>247.2</ele>
        <time>2023-03-25T10:12:47Z</time>
      </trkpt>
      <trkpt lat="43.67351" lon="1.13963">
        <ele>247.4</ele>
        <time>2023-03-25T10:12:48Z</time>
      </trkpt>
      <trkpt lat="43.67345" lon="1.13965">
        <ele>248.6</ele>
        <time>2023-03-25T10:12:52Z</time>
      </trkpt>
      <trkpt lat="43.67333" lon="1.13967">
        <ele>249.8</ele>
        <time>2023-03-25T10:12:59Z</time>
      </trkpt>
      <trkpt lat="43.67323" lon="1.13968">
        <ele>250.8</ele>
        <time>2023-03-25T10:13:05Z</time>
      </trkpt>
      <trkpt lat="43.67313" lon="1.13966">
        <ele>252</ele>
        <time>2023-03-25T10:13:10Z</time>
      </trkpt>
      <trkpt lat="43.67302" lon="1.13963">
        <ele>252.6</ele>
        <time>2023-03-25T10:13:15Z</time>
      </trkpt>
      <trkpt lat="43.67291" lon="1.13957">
        <ele>253.4</ele>
        <time>2023-03-25T10:13:21Z</time>
      </trkpt>
      <trkpt lat="43.67287" lon="1.13956">
        <ele>253.8</ele>
        <time>2023-03-25T10:13:23Z</time>
      </trkpt>
      <trkpt lat="43.67282" lon="1.13955">
        <ele>254.4</ele>
        <time>2023-03-25T10:13:26Z</time>
      </trkpt>
      <trkpt lat="43.67275" lon="1.13955">
        <ele>255.6</ele>
        <time>2023-03-25T10:13:30Z</time>
      </trkpt>
      <trkpt lat="43.67273" lon="1.13955">
        <ele>255.8</ele>
        <time>2023-03-25T10:13:31Z</time>
      </trkpt>
      <trkpt lat="43.67266" lon="1.13954">
        <ele>256.4</ele>
        <time>2023-03-25T10:13:35Z</time>
      </trkpt>
      <trkpt lat="43.6726" lon="1.13952">
        <ele>257.2</ele>
        <time>2023-03-25T10:13:38Z</time>
      </trkpt>
      <trkpt lat="43.67257" lon="1.13951">
        <ele>258</ele>
        <time>2023-03-25T10:13:40Z</time>
      </trkpt>
      <trkpt lat="43.67251" lon="1.13948">
        <ele>258.8</ele>
        <time>2023-03-25T10:13:44Z</time>
      </trkpt>
      <trkpt lat="43.67243" lon="1.13944">
        <ele>260</ele>
        <time>2023-03-25T10:13:48Z</time>
      </trkpt>
      <trkpt lat="43.67237" lon="1.1394">
        <ele>261</ele>
        <time>2023-03-25T10:13:51Z</time>
      </trkpt>
      <trkpt lat="43.67236" lon="1.13939">
        <ele>261.4</ele>
        <time>2023-03-25T10:13:52Z</time>
      </trkpt>
      <trkpt lat="43.67231" lon="1.13934">
        <ele>262.4</ele>
        <time>2023-03-25T10:13:57Z</time>
      </trkpt>
      <trkpt lat="43.6723" lon="1.13932">
        <ele>262.4</ele>
        <time>2023-03-25T10:13:58Z</time>
      </trkpt>
      <trkpt lat="43.67226" lon="1.1392">
        <ele>263.6</ele>
        <time>2023-03-25T10:14:05Z</time>
      </trkpt>
      <trkpt lat="43.67226" lon="1.13919">
        <ele>263.4</ele>
        <time>2023-03-25T10:14:06Z</time>
      </trkpt>
      <trkpt lat="43.67227" lon="1.13917">
        <ele>263.4</ele>
        <time>2023-03-25T10:14:07Z</time>
      </trkpt>
      <trkpt lat="43.67226" lon="1.13914">
        <ele>263.6</ele>
        <time>2023-03-25T10:14:09Z</time>
      </trkpt>
      <trkpt lat="43.67226" lon="1.13912">
        <ele>263.8</ele>
        <time>2023-03-25T10:14:10Z</time>
      </trkpt>
      <trkpt lat="43.67226" lon="1.1391">
        <ele>263.8</ele>
        <time>2023-03-25T10:14:11Z</time>
      </trkpt>
      <trkpt lat="43.67222" lon="1.13904">
        <ele>264.2</ele>
        <time>2023-03-25T10:14:14Z</time>
      </trkpt>
      <trkpt lat="43.6722" lon="1.13903">
        <ele>264.2</ele>
        <time>2023-03-25T10:14:15Z</time>
      </trkpt>
      <trkpt lat="43.67219" lon="1.13903">
        <ele>264.4</ele>
        <time>2023-03-25T10:14:16Z</time>
      </trkpt>
      <trkpt lat="43.67214" lon="1.13904">
        <ele>264.4</ele>
        <time>2023-03-25T10:14:19Z</time>
      </trkpt>
      <trkpt lat="43.67213" lon="1.13906">
        <ele>264.2</ele>
        <time>2023-03-25T10:14:20Z</time>
      </trkpt>
      <trkpt lat="43.67211" lon="1.13918">
        <ele>264</ele>
        <time>2023-03-25T10:14:25Z</time>
      </trkpt>
      <trkpt lat="43.67211" lon="1.13924">
        <ele>263.6</ele>
        <time>2023-03-25T10:14:28Z</time>
      </trkpt>
      <trkpt lat="43.67211" lon="1.13927">
        <ele>263</ele>
        <time>2023-03-25T10:14:31Z</time>
      </trkpt>
      <trkpt lat="43.67211" lon="1.13928">
        <ele>262.8</ele>
        <time>2023-03-25T10:14:33Z</time>
      </trkpt>
      <trkpt lat="43.67205" lon="1.13927">
        <ele>262.2</ele>
        <time>2023-03-25T10:14:41Z</time>
      </trkpt>
      <trkpt lat="43.67203" lon="1.13927">
        <ele>262.2</ele>
        <time>2023-03-25T10:14:42Z</time>
      </trkpt>
      <trkpt lat="43.67191" lon="1.13933">
        <ele>261.8</ele>
        <time>2023-03-25T10:14:47Z</time>
      </trkpt>
      <trkpt lat="43.67192" lon="1.13942">
        <ele>261.8</ele>
        <time>2023-03-25T10:14:50Z</time>
      </trkpt>
      <trkpt lat="43.67193" lon="1.13944">
        <ele>261.8</ele>
        <time>2023-03-25T10:14:51Z</time>
      </trkpt>
      <trkpt lat="43.67195" lon="1.13945">
        <ele>261.8</ele>
        <time>2023-03-25T10:14:52Z</time>
      </trkpt>
      <trkpt lat="43.67197" lon="1.13942">
        <ele>261.8</ele>
        <time>2023-03-25T10:14:54Z</time>
      </trkpt>
      <trkpt lat="43.67198" lon="1.13937">
        <ele>262</ele>
        <time>2023-03-25T10:14:57Z</time>
      </trkpt>
      <trkpt lat="43.672" lon="1.13933">
        <ele>262.2</ele>
        <time>2023-03-25T10:14:59Z</time>
      </trkpt>
      <trkpt lat="43.6721" lon="1.13923">
        <ele>262.4</ele>
        <time>2023-03-25T10:15:06Z</time>
      </trkpt>
      <trkpt lat="43.67215" lon="1.13926">
        <ele>262.4</ele>
        <time>2023-03-25T10:15:10Z</time>
      </trkpt>
      <trkpt lat="43.67217" lon="1.13926">
        <ele>262.4</ele>
        <time>2023-03-25T10:15:12Z</time>
      </trkpt>
      <trkpt lat="43.67217" lon="1.13926">
        <ele>262.6</ele>
        <time>2023-03-25T10:15:14Z</time>
      </trkpt>
      <trkpt lat="43.6722" lon="1.1393">
        <ele>262.8</ele>
        <time>2023-03-25T10:15:23Z</time>
      </trkpt>
      <trkpt lat="43.67221" lon="1.13931">
        <ele>262.8</ele>
        <time>2023-03-25T10:15:24Z</time>
      </trkpt>
      <trkpt lat="43.67224" lon="1.13933">
        <ele>262.8</ele>
        <time>2023-03-25T10:15:27Z</time>
      </trkpt>
      <trkpt lat="43.67226" lon="1.13932">
        <ele>263</ele>
        <time>2023-03-25T10:15:29Z</time>
      </trkpt>
      <trkpt lat="43.67227" lon="1.13929">
        <ele>263</ele>
        <time>2023-03-25T10:15:31Z</time>
      </trkpt>
      <trkpt lat="43.67228" lon="1.13923">
        <ele>263.2</ele>
        <time>2023-03-25T10:15:34Z</time>
      </trkpt>
      <trkpt lat="43.67228" lon="1.13922">
        <ele>263.4</ele>
        <time>2023-03-25T10:15:35Z</time>
      </trkpt>
      <trkpt lat="43.67227" lon="1.1392">
        <ele>263.4</ele>
        <time>2023-03-25T10:15:36Z</time>
      </trkpt>
      <trkpt lat="43.67227" lon="1.13919">
        <ele>263.6</ele>
        <time>2023-03-25T10:15:37Z</time>
      </trkpt>
      <trkpt lat="43.67226" lon="1.1391">
        <ele>264.2</ele>
        <time>2023-03-25T10:15:42Z</time>
      </trkpt>
      <trkpt lat="43.67217" lon="1.13899">
        <ele>264.4</ele>
        <time>2023-03-25T10:15:47Z</time>
      </trkpt>
      <trkpt lat="43.67215" lon="1.13895">
        <ele>264.6</ele>
        <time>2023-03-25T10:15:48Z</time>
      </trkpt>
      <trkpt lat="43.67212" lon="1.13882">
        <ele>264.6</ele>
        <time>2023-03-25T10:15:51Z</time>
      </trkpt>
      <trkpt lat="43.67204" lon="1.13836">
        <ele>264.4</ele>
        <time>2023-03-25T10:16:00Z</time>
      </trkpt>
      <trkpt lat="43.67196" lon="1.13803">
        <ele>263.8</ele>
        <time>2023-03-25T10:16:06Z</time>
      </trkpt>
      <trkpt lat="43.67192" lon="1.13782">
        <ele>263.6</ele>
        <time>2023-03-25T10:16:11Z</time>
      </trkpt>
      <trkpt lat="43.67186" lon="1.13762">
        <ele>263.8</ele>
        <time>2023-03-25T10:16:17Z</time>
      </trkpt>
      <trkpt lat="43.6718" lon="1.13749">
        <ele>265.4</ele>
        <time>2023-03-25T10:16:23Z</time>
      </trkpt>
      <trkpt lat="43.67179" lon="1.13747">
        <ele>265.8</ele>
        <time>2023-03-25T10:16:24Z</time>
      </trkpt>
      <trkpt lat="43.67179" lon="1.13747">
        <ele>266.2</ele>
        <time>2023-03-25T10:16:27Z</time>
      </trkpt>
      <trkpt lat="43.67182" lon="1.13764">
        <ele>266.2</ele>
        <time>2023-03-25T10:20:33Z</time>
      </trkpt>
      <trkpt lat="43.67191" lon="1.1379">
        <ele>265.8</ele>
        <time>2023-03-25T10:20:37Z</time>
      </trkpt>
      <trkpt lat="43.67196" lon="1.13826">
        <ele>265</ele>
        <time>2023-03-25T10:20:41Z</time>
      </trkpt>
      <trkpt lat="43.67199" lon="1.13842">
        <ele>264.4</ele>
        <time>2023-03-25T10:20:43Z</time>
      </trkpt>
      <trkpt lat="43.67205" lon="1.13869">
        <ele>263.6</ele>
        <time>2023-03-25T10:20:47Z</time>
      </trkpt>
      <trkpt lat="43.67209" lon="1.13895">
        <ele>263.6</ele>
        <time>2023-03-25T10:20:51Z</time>
      </trkpt>
      <trkpt lat="43.6721" lon="1.13908">
        <ele>263.6</ele>
        <time>2023-03-25T10:20:53Z</time>
      </trkpt>
      <trkpt lat="43.67206" lon="1.13957">
        <ele>263.6</ele>
        <time>2023-03-25T10:20:59Z</time>
      </trkpt>
      <trkpt lat="43.67204" lon="1.13977">
        <ele>263.4</ele>
        <time>2023-03-25T10:21:01Z</time>
      </trkpt>
      <trkpt lat="43.67202" lon="1.13987">
        <ele>263.4</ele>
        <time>2023-03-25T10:21:02Z</time>
      </trkpt>
      <trkpt lat="43.67201" lon="1.13998">
        <ele>263.2</ele>
        <time>2023-03-25T10:21:03Z</time>
      </trkpt>
      <trkpt lat="43.67198" lon="1.1401">
        <ele>263</ele>
        <time>2023-03-25T10:21:04Z</time>
      </trkpt>
      <trkpt lat="43.6719" lon="1.14038">
        <ele>261.8</ele>
        <time>2023-03-25T10:21:07Z</time>
      </trkpt>
      <trkpt lat="43.67182" lon="1.14073">
        <ele>260.6</ele>
        <time>2023-03-25T10:21:10Z</time>
      </trkpt>
      <trkpt lat="43.67181" lon="1.14084">
        <ele>260.4</ele>
        <time>2023-03-25T10:21:11Z</time>
      </trkpt>
      <trkpt lat="43.6718" lon="1.14105">
        <ele>259.6</ele>
        <time>2023-03-25T10:21:13Z</time>
      </trkpt>
      <trkpt lat="43.6718" lon="1.14119">
        <ele>259</ele>
        <time>2023-03-25T10:21:14Z</time>
      </trkpt>
      <trkpt lat="43.67182" lon="1.14129">
        <ele>258.6</ele>
        <time>2023-03-25T10:21:15Z</time>
      </trkpt>
      <trkpt lat="43.67184" lon="1.14149">
        <ele>258</ele>
        <time>2023-03-25T10:21:17Z</time>
      </trkpt>
      <trkpt lat="43.67192" lon="1.14192">
        <ele>256.8</ele>
        <time>2023-03-25T10:21:21Z</time>
      </trkpt>
      <trkpt lat="43.67194" lon="1.142">
        <ele>256.6</ele>
        <time>2023-03-25T10:21:22Z</time>
      </trkpt>
      <trkpt lat="43.67213" lon="1.14268">
        <ele>256</ele>
        <time>2023-03-25T10:21:29Z</time>
      </trkpt>
      <trkpt lat="43.67215" lon="1.14277">
        <ele>256</ele>
        <time>2023-03-25T10:21:30Z</time>
      </trkpt>
      <trkpt lat="43.67232" lon="1.14332">
        <ele>256</ele>
        <time>2023-03-25T10:21:36Z</time>
      </trkpt>
      <trkpt lat="43.6725" lon="1.14397">
        <ele>255.8</ele>
        <time>2023-03-25T10:21:43Z</time>
      </trkpt>
      <trkpt lat="43.67266" lon="1.1447">
        <ele>255.4</ele>
        <time>2023-03-25T10:21:50Z</time>
      </trkpt>
      <trkpt lat="43.67271" lon="1.14495">
        <ele>254.6</ele>
        <time>2023-03-25T10:21:52Z</time>
      </trkpt>
      <trkpt lat="43.67272" lon="1.14519">
        <ele>254.2</ele>
        <time>2023-03-25T10:21:54Z</time>
      </trkpt>
      <trkpt lat="43.67268" lon="1.14554">
        <ele>253.4</ele>
        <time>2023-03-25T10:21:57Z</time>
      </trkpt>
      <trkpt lat="43.67265" lon="1.14569">
        <ele>253.2</ele>
        <time>2023-03-25T10:21:58Z</time>
      </trkpt>
      <trkpt lat="43.67253" lon="1.14603">
        <ele>252</ele>
        <time>2023-03-25T10:22:01Z</time>
      </trkpt>
      <trkpt lat="43.67247" lon="1.14614">
        <ele>251.8</ele>
        <time>2023-03-25T10:22:02Z</time>
      </trkpt>
      <trkpt lat="43.67234" lon="1.14635">
        <ele>251</ele>
        <time>2023-03-25T10:22:04Z</time>
      </trkpt>
      <trkpt lat="43.67214" lon="1.14666">
        <ele>249.8</ele>
        <time>2023-03-25T10:22:07Z</time>
      </trkpt>
      <trkpt lat="43.67202" lon="1.14687">
        <ele>248.6</ele>
        <time>2023-03-25T10:22:09Z</time>
      </trkpt>
      <trkpt lat="43.6719" lon="1.1471">
        <ele>247.6</ele>
        <time>2023-03-25T10:22:11Z</time>
      </trkpt>
      <trkpt lat="43.67181" lon="1.14736">
        <ele>245.8</ele>
        <time>2023-03-25T10:22:13Z</time>
      </trkpt>
      <trkpt lat="43.67175" lon="1.14763">
        <ele>244.8</ele>
        <time>2023-03-25T10:22:15Z</time>
      </trkpt>
      <trkpt lat="43.67169" lon="1.14807">
        <ele>243.6</ele>
        <time>2023-03-25T10:22:18Z</time>
      </trkpt>
      <trkpt lat="43.67167" lon="1.14836">
        <ele>242.4</ele>
        <time>2023-03-25T10:22:20Z</time>
      </trkpt>
      <trkpt lat="43.67163" lon="1.14882">
        <ele>241</ele>
        <time>2023-03-25T10:22:23Z</time>
      </trkpt>
      <trkpt lat="43.67162" lon="1.14908">
        <ele>240</ele>
        <time>2023-03-25T10:22:25Z</time>
      </trkpt>
      <trkpt lat="43.6716" lon="1.14937">
        <ele>239</ele>
        <time>2023-03-25T10:22:27Z</time>
      </trkpt>
      <trkpt lat="43.67159" lon="1.14951">
        <ele>238.8</ele>
        <time>2023-03-25T10:22:28Z</time>
      </trkpt>
      <trkpt lat="43.67157" lon="1.14979">
        <ele>237.8</ele>
        <time>2023-03-25T10:22:30Z</time>
      </trkpt>
      <trkpt lat="43.67153" lon="1.15021">
        <ele>236.4</ele>
        <time>2023-03-25T10:22:33Z</time>
      </trkpt>
      <trkpt lat="43.67147" lon="1.1506">
        <ele>235.4</ele>
        <time>2023-03-25T10:22:36Z</time>
      </trkpt>
      <trkpt lat="43.67142" lon="1.15083">
        <ele>235</ele>
        <time>2023-03-25T10:22:38Z</time>
      </trkpt>
      <trkpt lat="43.67138" lon="1.15094">
        <ele>235</ele>
        <time>2023-03-25T10:22:39Z</time>
      </trkpt>
      <trkpt lat="43.67129" lon="1.15114">
        <ele>234.4</ele>
        <time>2023-03-25T10:22:41Z</time>
      </trkpt>
      <trkpt lat="43.67129" lon="1.15114">
        <ele>234.2</ele>
        <time>2023-03-25T10:22:42Z</time>
      </trkpt>
      <trkpt lat="43.67112" lon="1.15151">
        <ele>233.4</ele>
        <time>2023-03-25T10:22:45Z</time>
      </trkpt>
      <trkpt lat="43.67109" lon="1.15159">
        <ele>233.4</ele>
        <time>2023-03-25T10:22:46Z</time>
      </trkpt>
      <trkpt lat="43.67105" lon="1.15167">
        <ele>233.4</ele>
        <time>2023-03-25T10:22:47Z</time>
      </trkpt>
      <trkpt lat="43.67095" lon="1.15186">
        <ele>233.8</ele>
        <time>2023-03-25T10:22:50Z</time>
      </trkpt>
      <trkpt lat="43.67083" lon="1.15214">
        <ele>234.8</ele>
        <time>2023-03-25T10:22:54Z</time>
      </trkpt>
      <trkpt lat="43.67081" lon="1.1522">
        <ele>235.2</ele>
        <time>2023-03-25T10:22:55Z</time>
      </trkpt>
      <trkpt lat="43.67078" lon="1.15228">
        <ele>235.8</ele>
        <time>2023-03-25T10:22:56Z</time>
      </trkpt>
      <trkpt lat="43.67076" lon="1.15233">
        <ele>236.4</ele>
        <time>2023-03-25T10:22:57Z</time>
      </trkpt>
      <trkpt lat="43.67071" lon="1.15246">
        <ele>237.2</ele>
        <time>2023-03-25T10:22:59Z</time>
      </trkpt>
      <trkpt lat="43.67058" lon="1.15281">
        <ele>238.4</ele>
        <time>2023-03-25T10:23:04Z</time>
      </trkpt>
      <trkpt lat="43.67051" lon="1.15302">
        <ele>239</ele>
        <time>2023-03-25T10:23:07Z</time>
      </trkpt>
      <trkpt lat="43.67044" lon="1.15325">
        <ele>239.2</ele>
        <time>2023-03-25T10:23:10Z</time>
      </trkpt>
      <trkpt lat="43.67036" lon="1.15351">
        <ele>239.2</ele>
        <time>2023-03-25T10:23:13Z</time>
      </trkpt>
      <trkpt lat="43.6703" lon="1.15368">
        <ele>239.2</ele>
        <time>2023-03-25T10:23:15Z</time>
      </trkpt>
      <trkpt lat="43.67021" lon="1.1538">
        <ele>239</ele>
        <time>2023-03-25T10:23:17Z</time>
      </trkpt>
      <trkpt lat="43.67011" lon="1.15385">
        <ele>238.8</ele>
        <time>2023-03-25T10:23:19Z</time>
      </trkpt>
      <trkpt lat="43.67006" lon="1.15386">
        <ele>238.6</ele>
        <time>2023-03-25T10:23:20Z</time>
      </trkpt>
      <trkpt lat="43.6697" lon="1.15389">
        <ele>238.4</ele>
        <time>2023-03-25T10:23:26Z</time>
      </trkpt>
      <trkpt lat="43.66932" lon="1.15393">
        <ele>237</ele>
        <time>2023-03-25T10:23:31Z</time>
      </trkpt>
      <trkpt lat="43.66924" lon="1.15396">
        <ele>236.8</ele>
        <time>2023-03-25T10:23:32Z</time>
      </trkpt>
      <trkpt lat="43.6691" lon="1.15406">
        <ele>235</ele>
        <time>2023-03-25T10:23:34Z</time>
      </trkpt>
      <trkpt lat="43.66895" lon="1.15418">
        <ele>233.8</ele>
        <time>2023-03-25T10:23:36Z</time>
      </trkpt>
      <trkpt lat="43.66879" lon="1.1543">
        <ele>233.2</ele>
        <time>2023-03-25T10:23:38Z</time>
      </trkpt>
      <trkpt lat="43.66869" lon="1.15435">
        <ele>233</ele>
        <time>2023-03-25T10:23:39Z</time>
      </trkpt>
      <trkpt lat="43.6686" lon="1.1544">
        <ele>232.4</ele>
        <time>2023-03-25T10:23:40Z</time>
      </trkpt>
      <trkpt lat="43.66842" lon="1.15451">
        <ele>231</ele>
        <time>2023-03-25T10:23:42Z</time>
      </trkpt>
      <trkpt lat="43.66825" lon="1.15462">
        <ele>229.8</ele>
        <time>2023-03-25T10:23:44Z</time>
      </trkpt>
      <trkpt lat="43.66816" lon="1.15468">
        <ele>228.4</ele>
        <time>2023-03-25T10:23:45Z</time>
      </trkpt>
      <trkpt lat="43.66798" lon="1.15478">
        <ele>227</ele>
        <time>2023-03-25T10:23:47Z</time>
      </trkpt>
      <trkpt lat="43.6677" lon="1.15491">
        <ele>225.6</ele>
        <time>2023-03-25T10:23:50Z</time>
      </trkpt>
      <trkpt lat="43.66753" lon="1.15503">
        <ele>224.4</ele>
        <time>2023-03-25T10:23:52Z</time>
      </trkpt>
      <trkpt lat="43.66746" lon="1.15509">
        <ele>224.2</ele>
        <time>2023-03-25T10:23:53Z</time>
      </trkpt>
      <trkpt lat="43.66737" lon="1.15519">
        <ele>223.6</ele>
        <time>2023-03-25T10:23:54Z</time>
      </trkpt>
      <trkpt lat="43.6673" lon="1.15528">
        <ele>223.2</ele>
        <time>2023-03-25T10:23:55Z</time>
      </trkpt>
      <trkpt lat="43.66713" lon="1.15561">
        <ele>222.4</ele>
        <time>2023-03-25T10:23:58Z</time>
      </trkpt>
      <trkpt lat="43.66708" lon="1.15573">
        <ele>221.6</ele>
        <time>2023-03-25T10:23:59Z</time>
      </trkpt>
      <trkpt lat="43.66686" lon="1.15619">
        <ele>220.2</ele>
        <time>2023-03-25T10:24:03Z</time>
      </trkpt>
      <trkpt lat="43.66676" lon="1.15641">
        <ele>219.8</ele>
        <time>2023-03-25T10:24:05Z</time>
      </trkpt>
      <trkpt lat="43.66666" lon="1.15663">
        <ele>218.8</ele>
        <time>2023-03-25T10:24:07Z</time>
      </trkpt>
      <trkpt lat="43.66656" lon="1.15684">
        <ele>217.8</ele>
        <time>2023-03-25T10:24:09Z</time>
      </trkpt>
      <trkpt lat="43.66645" lon="1.15717">
        <ele>217</ele>
        <time>2023-03-25T10:24:12Z</time>
      </trkpt>
      <trkpt lat="43.66642" lon="1.15728">
        <ele>216.2</ele>
        <time>2023-03-25T10:24:13Z</time>
      </trkpt>
      <trkpt lat="43.66631" lon="1.1578">
        <ele>215.8</ele>
        <time>2023-03-25T10:24:18Z</time>
      </trkpt>
      <trkpt lat="43.66617" lon="1.15853">
        <ele>216.2</ele>
        <time>2023-03-25T10:24:25Z</time>
      </trkpt>
      <trkpt lat="43.66615" lon="1.15864">
        <ele>216.2</ele>
        <time>2023-03-25T10:24:26Z</time>
      </trkpt>
      <trkpt lat="43.66592" lon="1.15939">
        <ele>215.8</ele>
        <time>2023-03-25T10:24:33Z</time>
      </trkpt>
      <trkpt lat="43.6659" lon="1.15951">
        <ele>215.2</ele>
        <time>2023-03-25T10:24:34Z</time>
      </trkpt>
      <trkpt lat="43.66582" lon="1.16002">
        <ele>214.6</ele>
        <time>2023-03-25T10:24:38Z</time>
      </trkpt>
      <trkpt lat="43.66576" lon="1.16045">
        <ele>214</ele>
        <time>2023-03-25T10:24:41Z</time>
      </trkpt>
      <trkpt lat="43.66571" lon="1.16075">
        <ele>213.4</ele>
        <time>2023-03-25T10:24:43Z</time>
      </trkpt>
      <trkpt lat="43.66566" lon="1.16107">
        <ele>212.2</ele>
        <time>2023-03-25T10:24:45Z</time>
      </trkpt>
      <trkpt lat="43.66561" lon="1.16138">
        <ele>210.4</ele>
        <time>2023-03-25T10:24:47Z</time>
      </trkpt>
      <trkpt lat="43.66558" lon="1.16153">
        <ele>209.2</ele>
        <time>2023-03-25T10:24:48Z</time>
      </trkpt>
      <trkpt lat="43.66555" lon="1.16185">
        <ele>207.2</ele>
        <time>2023-03-25T10:24:50Z</time>
      </trkpt>
      <trkpt lat="43.66554" lon="1.16217">
        <ele>206</ele>
        <time>2023-03-25T10:24:52Z</time>
      </trkpt>
      <trkpt lat="43.66556" lon="1.16251">
        <ele>205.2</ele>
        <time>2023-03-25T10:24:54Z</time>
      </trkpt>
      <trkpt lat="43.66559" lon="1.16268">
        <ele>204.8</ele>
        <time>2023-03-25T10:24:55Z</time>
      </trkpt>
      <trkpt lat="43.66564" lon="1.16301">
        <ele>203.4</ele>
        <time>2023-03-25T10:24:57Z</time>
      </trkpt>
      <trkpt lat="43.66566" lon="1.16331">
        <ele>201.2</ele>
        <time>2023-03-25T10:24:59Z</time>
      </trkpt>
      <trkpt lat="43.66561" lon="1.16362">
        <ele>199.8</ele>
        <time>2023-03-25T10:25:01Z</time>
      </trkpt>
      <trkpt lat="43.66557" lon="1.16378">
        <ele>198</ele>
        <time>2023-03-25T10:25:02Z</time>
      </trkpt>
      <trkpt lat="43.66547" lon="1.16409">
        <ele>195.8</ele>
        <time>2023-03-25T10:25:04Z</time>
      </trkpt>
      <trkpt lat="43.66541" lon="1.16423">
        <ele>194.6</ele>
        <time>2023-03-25T10:25:05Z</time>
      </trkpt>
      <trkpt lat="43.66535" lon="1.16438">
        <ele>192.8</ele>
        <time>2023-03-25T10:25:06Z</time>
      </trkpt>
      <trkpt lat="43.66529" lon="1.16452">
        <ele>192.2</ele>
        <time>2023-03-25T10:25:07Z</time>
      </trkpt>
      <trkpt lat="43.66522" lon="1.16465">
        <ele>190.8</ele>
        <time>2023-03-25T10:25:08Z</time>
      </trkpt>
      <trkpt lat="43.66509" lon="1.16493">
        <ele>189.8</ele>
        <time>2023-03-25T10:25:10Z</time>
      </trkpt>
      <trkpt lat="43.66503" lon="1.16508">
        <ele>188.4</ele>
        <time>2023-03-25T10:25:11Z</time>
      </trkpt>
      <trkpt lat="43.6649" lon="1.16537">
        <ele>186.4</ele>
        <time>2023-03-25T10:25:13Z</time>
      </trkpt>
      <trkpt lat="43.66476" lon="1.16566">
        <ele>184.8</ele>
        <time>2023-03-25T10:25:15Z</time>
      </trkpt>
      <trkpt lat="43.66462" lon="1.16593">
        <ele>182.6</ele>
        <time>2023-03-25T10:25:17Z</time>
      </trkpt>
      <trkpt lat="43.66453" lon="1.16606">
        <ele>181.6</ele>
        <time>2023-03-25T10:25:18Z</time>
      </trkpt>
      <trkpt lat="43.66432" lon="1.16629">
        <ele>180.2</ele>
        <time>2023-03-25T10:25:20Z</time>
      </trkpt>
      <trkpt lat="43.66409" lon="1.16651">
        <ele>178.4</ele>
        <time>2023-03-25T10:25:22Z</time>
      </trkpt>
      <trkpt lat="43.66385" lon="1.16674">
        <ele>176.2</ele>
        <time>2023-03-25T10:25:24Z</time>
      </trkpt>
      <trkpt lat="43.66373" lon="1.16685">
        <ele>175.2</ele>
        <time>2023-03-25T10:25:25Z</time>
      </trkpt>
      <trkpt lat="43.66362" lon="1.16696">
        <ele>173.8</ele>
        <time>2023-03-25T10:25:26Z</time>
      </trkpt>
      <trkpt lat="43.66352" lon="1.16709">
        <ele>171</ele>
        <time>2023-03-25T10:25:27Z</time>
      </trkpt>
      <trkpt lat="43.66343" lon="1.16723">
        <ele>170</ele>
        <time>2023-03-25T10:25:28Z</time>
      </trkpt>
      <trkpt lat="43.66335" lon="1.16738">
        <ele>168.8</ele>
        <time>2023-03-25T10:25:29Z</time>
      </trkpt>
      <trkpt lat="43.66321" lon="1.16771">
        <ele>166.6</ele>
        <time>2023-03-25T10:25:31Z</time>
      </trkpt>
      <trkpt lat="43.66314" lon="1.16786">
        <ele>165.4</ele>
        <time>2023-03-25T10:25:32Z</time>
      </trkpt>
      <trkpt lat="43.66295" lon="1.16812">
        <ele>162.2</ele>
        <time>2023-03-25T10:25:34Z</time>
      </trkpt>
      <trkpt lat="43.66276" lon="1.16831">
        <ele>160.2</ele>
        <time>2023-03-25T10:25:36Z</time>
      </trkpt>
      <trkpt lat="43.66267" lon="1.16839">
        <ele>159.4</ele>
        <time>2023-03-25T10:25:37Z</time>
      </trkpt>
      <trkpt lat="43.66259" lon="1.16844">
        <ele>157</ele>
        <time>2023-03-25T10:25:38Z</time>
      </trkpt>
      <trkpt lat="43.66252" lon="1.16848">
        <ele>156.4</ele>
        <time>2023-03-25T10:25:39Z</time>
      </trkpt>
      <trkpt lat="43.66245" lon="1.1685">
        <ele>154.8</ele>
        <time>2023-03-25T10:25:40Z</time>
      </trkpt>
      <trkpt lat="43.66239" lon="1.16851">
        <ele>153.4</ele>
        <time>2023-03-25T10:25:41Z</time>
      </trkpt>
      <trkpt lat="43.66235" lon="1.16852">
        <ele>152.6</ele>
        <time>2023-03-25T10:25:42Z</time>
      </trkpt>
      <trkpt lat="43.66232" lon="1.16852">
        <ele>151</ele>
        <time>2023-03-25T10:25:43Z</time>
      </trkpt>
      <trkpt lat="43.66229" lon="1.16852">
        <ele>150.6</ele>
        <time>2023-03-25T10:25:44Z</time>
      </trkpt>
      <trkpt lat="43.66228" lon="1.16852">
        <ele>149.8</ele>
        <time>2023-03-25T10:25:45Z</time>
      </trkpt>
      <trkpt lat="43.66222" lon="1.1685">
        <ele>148.8</ele>
        <time>2023-03-25T10:25:47Z</time>
      </trkpt>
      <trkpt lat="43.66215" lon="1.16852">
        <ele>148</ele>
        <time>2023-03-25T10:25:49Z</time>
      </trkpt>
      <trkpt lat="43.66211" lon="1.16852">
        <ele>147.6</ele>
        <time>2023-03-25T10:25:50Z</time>
      </trkpt>
      <trkpt lat="43.66193" lon="1.16855">
        <ele>147</ele>
        <time>2023-03-25T10:25:54Z</time>
      </trkpt>
      <trkpt lat="43.66178" lon="1.16856">
        <ele>146.6</ele>
        <time>2023-03-25T10:25:57Z</time>
      </trkpt>
      <trkpt lat="43.66172" lon="1.16856">
        <ele>146.6</ele>
        <time>2023-03-25T10:25:58Z</time>
      </trkpt>
      <trkpt lat="43.66166" lon="1.16855">
        <ele>146.4</ele>
        <time>2023-03-25T10:25:59Z</time>
      </trkpt>
      <trkpt lat="43.66144" lon="1.16849">
        <ele>145.4</ele>
        <time>2023-03-25T10:26:03Z</time>
      </trkpt>
      <trkpt lat="43.66139" lon="1.1685">
        <ele>145</ele>
        <time>2023-03-25T10:26:04Z</time>
      </trkpt>
      <trkpt lat="43.66136" lon="1.16853">
        <ele>144.8</ele>
        <time>2023-03-25T10:26:05Z</time>
      </trkpt>
      <trkpt lat="43.66133" lon="1.16858">
        <ele>144.2</ele>
        <time>2023-03-25T10:26:06Z</time>
      </trkpt>
      <trkpt lat="43.66129" lon="1.16862">
        <ele>143.8</ele>
        <time>2023-03-25T10:26:07Z</time>
      </trkpt>
      <trkpt lat="43.66126" lon="1.16866">
        <ele>143.4</ele>
        <time>2023-03-25T10:26:08Z</time>
      </trkpt>
      <trkpt lat="43.66116" lon="1.16871">
        <ele>142.8</ele>
        <time>2023-03-25T10:26:10Z</time>
      </trkpt>
      <trkpt lat="43.66112" lon="1.1687">
        <ele>142.4</ele>
        <time>2023-03-25T10:26:11Z</time>
      </trkpt>
      <trkpt lat="43.66107" lon="1.16867">
        <ele>142.2</ele>
        <time>2023-03-25T10:26:12Z</time>
      </trkpt>
      <trkpt lat="43.66096" lon="1.16861">
        <ele>141.8</ele>
        <time>2023-03-25T10:26:14Z</time>
      </trkpt>
      <trkpt lat="43.6609" lon="1.16859">
        <ele>141.4</ele>
        <time>2023-03-25T10:26:15Z</time>
      </trkpt>
      <trkpt lat="43.66084" lon="1.1686">
        <ele>141.4</ele>
        <time>2023-03-25T10:26:16Z</time>
      </trkpt>
      <trkpt lat="43.66069" lon="1.16867">
        <ele>140.6</ele>
        <time>2023-03-25T10:26:19Z</time>
      </trkpt>
      <trkpt lat="43.66064" lon="1.16871">
        <ele>140.2</ele>
        <time>2023-03-25T10:26:20Z</time>
      </trkpt>
      <trkpt lat="43.66035" lon="1.16896">
        <ele>140.2</ele>
        <time>2023-03-25T10:26:26Z</time>
      </trkpt>
      <trkpt lat="43.65993" lon="1.16931">
        <ele>140.2</ele>
        <time>2023-03-25T10:26:34Z</time>
      </trkpt>
      <trkpt lat="43.65968" lon="1.16952">
        <ele>140.2</ele>
        <time>2023-03-25T10:26:39Z</time>
      </trkpt>
      <trkpt lat="43.65938" lon="1.16977">
        <ele>139.6</ele>
        <time>2023-03-25T10:26:45Z</time>
      </trkpt>
      <trkpt lat="43.65903" lon="1.17007">
        <ele>140</ele>
        <time>2023-03-25T10:26:52Z</time>
      </trkpt>
      <trkpt lat="43.65894" lon="1.17013">
        <ele>140.4</ele>
        <time>2023-03-25T10:26:54Z</time>
      </trkpt>
      <trkpt lat="43.65887" lon="1.17021">
        <ele>140.6</ele>
        <time>2023-03-25T10:26:56Z</time>
      </trkpt>
      <trkpt lat="43.65877" lon="1.1704">
        <ele>141.6</ele>
        <time>2023-03-25T10:27:01Z</time>
      </trkpt>
      <trkpt lat="43.65867" lon="1.17059">
        <ele>142.6</ele>
        <time>2023-03-25T10:27:06Z</time>
      </trkpt>
      <trkpt lat="43.65863" lon="1.17067">
        <ele>143</ele>
        <time>2023-03-25T10:27:08Z</time>
      </trkpt>
      <trkpt lat="43.65847" lon="1.1708">
        <ele>142.8</ele>
        <time>2023-03-25T10:27:12Z</time>
      </trkpt>
      <trkpt lat="43.65829" lon="1.17088">
        <ele>142.2</ele>
        <time>2023-03-25T10:27:15Z</time>
      </trkpt>
      <trkpt lat="43.65816" lon="1.17094">
        <ele>141.8</ele>
        <time>2023-03-25T10:27:17Z</time>
      </trkpt>
      <trkpt lat="43.65798" lon="1.17101">
        <ele>141.4</ele>
        <time>2023-03-25T10:27:20Z</time>
      </trkpt>
      <trkpt lat="43.65779" lon="1.17108">
        <ele>141</ele>
        <time>2023-03-25T10:27:23Z</time>
      </trkpt>
      <trkpt lat="43.6573" lon="1.17124">
        <ele>140.8</ele>
        <time>2023-03-25T10:27:31Z</time>
      </trkpt>
      <trkpt lat="43.65701" lon="1.17128">
        <ele>141</ele>
        <time>2023-03-25T10:27:36Z</time>
      </trkpt>
      <trkpt lat="43.65663" lon="1.17127">
        <ele>141</ele>
        <time>2023-03-25T10:27:43Z</time>
      </trkpt>
      <trkpt lat="43.65653" lon="1.17132">
        <ele>141</ele>
        <time>2023-03-25T10:27:45Z</time>
      </trkpt>
      <trkpt lat="43.65645" lon="1.17138">
        <ele>141</ele>
        <time>2023-03-25T10:27:47Z</time>
      </trkpt>
      <trkpt lat="43.65637" lon="1.17143">
        <ele>141</ele>
        <time>2023-03-25T10:27:49Z</time>
      </trkpt>
      <trkpt lat="43.65625" lon="1.17153">
        <ele>141.2</ele>
        <time>2023-03-25T10:27:52Z</time>
      </trkpt>
      <trkpt lat="43.65616" lon="1.1716">
        <ele>141.2</ele>
        <time>2023-03-25T10:27:54Z</time>
      </trkpt>
      <trkpt lat="43.65598" lon="1.17172">
        <ele>141.2</ele>
        <time>2023-03-25T10:27:58Z</time>
      </trkpt>
      <trkpt lat="43.6555" lon="1.17207">
        <ele>141.6</ele>
        <time>2023-03-25T10:28:09Z</time>
      </trkpt>
      <trkpt lat="43.65541" lon="1.17212">
        <ele>141.6</ele>
        <time>2023-03-25T10:28:11Z</time>
      </trkpt>
      <trkpt lat="43.65519" lon="1.17229">
        <ele>141.4</ele>
        <time>2023-03-25T10:28:16Z</time>
      </trkpt>
      <trkpt lat="43.65476" lon="1.1726">
        <ele>141.6</ele>
        <time>2023-03-25T10:28:25Z</time>
      </trkpt>
      <trkpt lat="43.65425" lon="1.173">
        <ele>142.2</ele>
        <time>2023-03-25T10:28:36Z</time>
      </trkpt>
      <trkpt lat="43.65411" lon="1.1731">
        <ele>142.6</ele>
        <time>2023-03-25T10:28:39Z</time>
      </trkpt>
      <trkpt lat="43.65396" lon="1.17324">
        <ele>143.2</ele>
        <time>2023-03-25T10:28:43Z</time>
      </trkpt>
      <trkpt lat="43.65393" lon="1.17329">
        <ele>143.2</ele>
        <time>2023-03-25T10:28:44Z</time>
      </trkpt>
      <trkpt lat="43.65391" lon="1.17334">
        <ele>143.4</ele>
        <time>2023-03-25T10:28:45Z</time>
      </trkpt>
      <trkpt lat="43.65386" lon="1.17345">
        <ele>143.4</ele>
        <time>2023-03-25T10:28:47Z</time>
      </trkpt>
      <trkpt lat="43.65383" lon="1.17351">
        <ele>143.4</ele>
        <time>2023-03-25T10:28:48Z</time>
      </trkpt>
      <trkpt lat="43.65372" lon="1.17364">
        <ele>143.8</ele>
        <time>2023-03-25T10:28:51Z</time>
      </trkpt>
      <trkpt lat="43.65361" lon="1.17378">
        <ele>144</ele>
        <time>2023-03-25T10:28:54Z</time>
      </trkpt>
      <trkpt lat="43.65336" lon="1.17407">
        <ele>144.8</ele>
        <time>2023-03-25T10:29:01Z</time>
      </trkpt>
      <trkpt lat="43.6533" lon="1.17414">
        <ele>145</ele>
        <time>2023-03-25T10:29:03Z</time>
      </trkpt>
      <trkpt lat="43.65307" lon="1.17442">
        <ele>146</ele>
        <time>2023-03-25T10:29:10Z</time>
      </trkpt>
      <trkpt lat="43.65304" lon="1.17445">
        <ele>146</ele>
        <time>2023-03-25T10:29:11Z</time>
      </trkpt>
      <trkpt lat="43.65289" lon="1.17458">
        <ele>147</ele>
        <time>2023-03-25T10:29:16Z</time>
      </trkpt>
      <trkpt lat="43.65287" lon="1.1746">
        <ele>147.2</ele>
        <time>2023-03-25T10:29:17Z</time>
      </trkpt>
      <trkpt lat="43.65272" lon="1.17481">
        <ele>148</ele>
        <time>2023-03-25T10:29:23Z</time>
      </trkpt>
      <trkpt lat="43.65259" lon="1.17503">
        <ele>148.4</ele>
        <time>2023-03-25T10:29:28Z</time>
      </trkpt>
      <trkpt lat="43.65225" lon="1.17541">
        <ele>149.2</ele>
        <time>2023-03-25T10:29:37Z</time>
      </trkpt>
      <trkpt lat="43.65221" lon="1.17544">
        <ele>149.4</ele>
        <time>2023-03-25T10:29:38Z</time>
      </trkpt>
      <trkpt lat="43.6518" lon="1.17571">
        <ele>150</ele>
        <time>2023-03-25T10:29:47Z</time>
      </trkpt>
      <trkpt lat="43.65175" lon="1.17574">
        <ele>150</ele>
        <time>2023-03-25T10:29:48Z</time>
      </trkpt>
      <trkpt lat="43.65161" lon="1.17581">
        <ele>150.4</ele>
        <time>2023-03-25T10:29:51Z</time>
      </trkpt>
      <trkpt lat="43.65156" lon="1.17582">
        <ele>150.6</ele>
        <time>2023-03-25T10:29:52Z</time>
      </trkpt>
      <trkpt lat="43.65136" lon="1.17586">
        <ele>151</ele>
        <time>2023-03-25T10:29:56Z</time>
      </trkpt>
      <trkpt lat="43.65131" lon="1.17587">
        <ele>151</ele>
        <time>2023-03-25T10:29:57Z</time>
      </trkpt>
      <trkpt lat="43.65115" lon="1.17587">
        <ele>151.6</ele>
        <time>2023-03-25T10:30:00Z</time>
      </trkpt>
      <trkpt lat="43.65099" lon="1.17587">
        <ele>152.2</ele>
        <time>2023-03-25T10:30:03Z</time>
      </trkpt>
      <trkpt lat="43.65067" lon="1.17583">
        <ele>152.6</ele>
        <time>2023-03-25T10:30:09Z</time>
      </trkpt>
      <trkpt lat="43.65056" lon="1.17582">
        <ele>152.8</ele>
        <time>2023-03-25T10:30:11Z</time>
      </trkpt>
      <trkpt lat="43.65013" lon="1.17577">
        <ele>153.8</ele>
        <time>2023-03-25T10:30:19Z</time>
      </trkpt>
      <trkpt lat="43.65002" lon="1.17576">
        <ele>153.8</ele>
        <time>2023-03-25T10:30:21Z</time>
      </trkpt>
      <trkpt lat="43.64992" lon="1.17575">
        <ele>154</ele>
        <time>2023-03-25T10:30:23Z</time>
      </trkpt>
      <trkpt lat="43.64954" lon="1.17572">
        <ele>154.8</ele>
        <time>2023-03-25T10:30:30Z</time>
      </trkpt>
      <trkpt lat="43.64916" lon="1.17571">
        <ele>155.8</ele>
        <time>2023-03-25T10:30:37Z</time>
      </trkpt>
      <trkpt lat="43.649" lon="1.17571">
        <ele>156.2</ele>
        <time>2023-03-25T10:30:40Z</time>
      </trkpt>
      <trkpt lat="43.6488" lon="1.17571">
        <ele>156.8</ele>
        <time>2023-03-25T10:30:44Z</time>
      </trkpt>
      <trkpt lat="43.64855" lon="1.17568">
        <ele>157.6</ele>
        <time>2023-03-25T10:30:49Z</time>
      </trkpt>
      <trkpt lat="43.64844" lon="1.17566">
        <ele>158</ele>
        <time>2023-03-25T10:30:51Z</time>
      </trkpt>
      <trkpt lat="43.64814" lon="1.17556">
        <ele>159</ele>
        <time>2023-03-25T10:30:57Z</time>
      </trkpt>
      <trkpt lat="43.64763" lon="1.17538">
        <ele>160</ele>
        <time>2023-03-25T10:31:07Z</time>
      </trkpt>
      <trkpt lat="43.64757" lon="1.17537">
        <ele>160.2</ele>
        <time>2023-03-25T10:31:08Z</time>
      </trkpt>
      <trkpt lat="43.64699" lon="1.17528">
        <ele>161.2</ele>
        <time>2023-03-25T10:31:19Z</time>
      </trkpt>
      <trkpt lat="43.64662" lon="1.17529">
        <ele>161.8</ele>
        <time>2023-03-25T10:31:26Z</time>
      </trkpt>
      <trkpt lat="43.64643" lon="1.17533">
        <ele>162.2</ele>
        <time>2023-03-25T10:31:30Z</time>
      </trkpt>
      <trkpt lat="43.64639" lon="1.17535">
        <ele>162.4</ele>
        <time>2023-03-25T10:31:31Z</time>
      </trkpt>
      <trkpt lat="43.6463" lon="1.17538">
        <ele>162.8</ele>
        <time>2023-03-25T10:31:33Z</time>
      </trkpt>
      <trkpt lat="43.6462" lon="1.17542">
        <ele>163.4</ele>
        <time>2023-03-25T10:31:35Z</time>
      </trkpt>
      <trkpt lat="43.6459" lon="1.17551">
        <ele>164.2</ele>
        <time>2023-03-25T10:31:41Z</time>
      </trkpt>
      <trkpt lat="43.64586" lon="1.17552">
        <ele>164.4</ele>
        <time>2023-03-25T10:31:42Z</time>
      </trkpt>
      <trkpt lat="43.64561" lon="1.17561">
        <ele>165.6</ele>
        <time>2023-03-25T10:31:47Z</time>
      </trkpt>
      <trkpt lat="43.64546" lon="1.17565">
        <ele>165.8</ele>
        <time>2023-03-25T10:31:50Z</time>
      </trkpt>
      <trkpt lat="43.64526" lon="1.17566">
        <ele>166.4</ele>
        <time>2023-03-25T10:31:54Z</time>
      </trkpt>
      <trkpt lat="43.64517" lon="1.17566">
        <ele>166.8</ele>
        <time>2023-03-25T10:31:56Z</time>
      </trkpt>
      <trkpt lat="43.64506" lon="1.17564">
        <ele>167</ele>
        <time>2023-03-25T10:31:58Z</time>
      </trkpt>
      <trkpt lat="43.64467" lon="1.17547">
        <ele>168</ele>
        <time>2023-03-25T10:32:06Z</time>
      </trkpt>
      <trkpt lat="43.64431" lon="1.17525">
        <ele>169</ele>
        <time>2023-03-25T10:32:14Z</time>
      </trkpt>
      <trkpt lat="43.64428" lon="1.17522">
        <ele>169</ele>
        <time>2023-03-25T10:32:15Z</time>
      </trkpt>
      <trkpt lat="43.64406" lon="1.17507">
        <ele>170</ele>
        <time>2023-03-25T10:32:20Z</time>
      </trkpt>
      <trkpt lat="43.64388" lon="1.17496">
        <ele>170.6</ele>
        <time>2023-03-25T10:32:24Z</time>
      </trkpt>
      <trkpt lat="43.64374" lon="1.17488">
        <ele>171</ele>
        <time>2023-03-25T10:32:27Z</time>
      </trkpt>
      <trkpt lat="43.64346" lon="1.17473">
        <ele>172</ele>
        <time>2023-03-25T10:32:33Z</time>
      </trkpt>
      <trkpt lat="43.64341" lon="1.17471">
        <ele>172</ele>
        <time>2023-03-25T10:32:34Z</time>
      </trkpt>
      <trkpt lat="43.64313" lon="1.17458">
        <ele>173</ele>
        <time>2023-03-25T10:32:40Z</time>
      </trkpt>
      <trkpt lat="43.64297" lon="1.17451">
        <ele>173.6</ele>
        <time>2023-03-25T10:32:43Z</time>
      </trkpt>
      <trkpt lat="43.64282" lon="1.17444">
        <ele>174.2</ele>
        <time>2023-03-25T10:32:46Z</time>
      </trkpt>
      <trkpt lat="43.64262" lon="1.17435">
        <ele>174.4</ele>
        <time>2023-03-25T10:32:50Z</time>
      </trkpt>
      <trkpt lat="43.6421" lon="1.17412">
        <ele>174.8</ele>
        <time>2023-03-25T10:33:00Z</time>
      </trkpt>
      <trkpt lat="43.642" lon="1.17407">
        <ele>175</ele>
        <time>2023-03-25T10:33:02Z</time>
      </trkpt>
      <trkpt lat="43.64159" lon="1.17383">
        <ele>175.2</ele>
        <time>2023-03-25T10:33:10Z</time>
      </trkpt>
      <trkpt lat="43.64123" lon="1.17351">
        <ele>176.2</ele>
        <time>2023-03-25T10:33:18Z</time>
      </trkpt>
      <trkpt lat="43.64077" lon="1.17311">
        <ele>177</ele>
        <time>2023-03-25T10:33:28Z</time>
      </trkpt>
      <trkpt lat="43.64055" lon="1.17292">
        <ele>177.2</ele>
        <time>2023-03-25T10:33:33Z</time>
      </trkpt>
      <trkpt lat="43.64051" lon="1.17289">
        <ele>177.4</ele>
        <time>2023-03-25T10:33:34Z</time>
      </trkpt>
      <trkpt lat="43.64043" lon="1.17288">
        <ele>177.6</ele>
        <time>2023-03-25T10:33:36Z</time>
      </trkpt>
      <trkpt lat="43.6404" lon="1.17291">
        <ele>177.8</ele>
        <time>2023-03-25T10:33:37Z</time>
      </trkpt>
      <trkpt lat="43.64039" lon="1.17295">
        <ele>177.8</ele>
        <time>2023-03-25T10:33:38Z</time>
      </trkpt>
      <trkpt lat="43.64041" lon="1.17305">
        <ele>178</ele>
        <time>2023-03-25T10:33:40Z</time>
      </trkpt>
      <trkpt lat="43.64047" lon="1.17323">
        <ele>178.2</ele>
        <time>2023-03-25T10:33:43Z</time>
      </trkpt>
      <trkpt lat="43.64053" lon="1.17338">
        <ele>178.6</ele>
        <time>2023-03-25T10:33:45Z</time>
      </trkpt>
      <trkpt lat="43.64071" lon="1.17393">
        <ele>179.2</ele>
        <time>2023-03-25T10:33:53Z</time>
      </trkpt>
      <trkpt lat="43.64079" lon="1.17414">
        <ele>179.2</ele>
        <time>2023-03-25T10:33:56Z</time>
      </trkpt>
      <trkpt lat="43.64088" lon="1.17452">
        <ele>179.6</ele>
        <time>2023-03-25T10:34:01Z</time>
      </trkpt>
      <trkpt lat="43.64099" lon="1.17505">
        <ele>180.2</ele>
        <time>2023-03-25T10:34:08Z</time>
      </trkpt>
      <trkpt lat="43.64105" lon="1.17537">
        <ele>180.4</ele>
        <time>2023-03-25T10:34:12Z</time>
      </trkpt>
      <trkpt lat="43.6412" lon="1.17614">
        <ele>180.8</ele>
        <time>2023-03-25T10:34:22Z</time>
      </trkpt>
      <trkpt lat="43.64125" lon="1.17634">
        <ele>181.2</ele>
        <time>2023-03-25T10:34:25Z</time>
      </trkpt>
      <trkpt lat="43.64133" lon="1.17657">
        <ele>181.4</ele>
        <time>2023-03-25T10:34:28Z</time>
      </trkpt>
      <trkpt lat="43.64136" lon="1.17664">
        <ele>181.4</ele>
        <time>2023-03-25T10:34:29Z</time>
      </trkpt>
      <trkpt lat="43.64139" lon="1.1767">
        <ele>181.6</ele>
        <time>2023-03-25T10:34:30Z</time>
      </trkpt>
      <trkpt lat="43.64166" lon="1.17709">
        <ele>182</ele>
        <time>2023-03-25T10:34:37Z</time>
      </trkpt>
      <trkpt lat="43.64204" lon="1.17772">
        <ele>182</ele>
        <time>2023-03-25T10:34:47Z</time>
      </trkpt>
      <trkpt lat="43.64229" lon="1.1781">
        <ele>182.6</ele>
        <time>2023-03-25T10:34:54Z</time>
      </trkpt>
      <trkpt lat="43.6424" lon="1.17828">
        <ele>183</ele>
        <time>2023-03-25T10:34:57Z</time>
      </trkpt>
      <trkpt lat="43.64259" lon="1.17856">
        <ele>183.8</ele>
        <time>2023-03-25T10:35:02Z</time>
      </trkpt>
      <trkpt lat="43.64281" lon="1.17892">
        <ele>184.4</ele>
        <time>2023-03-25T10:35:08Z</time>
      </trkpt>
      <trkpt lat="43.64319" lon="1.17942">
        <ele>184.8</ele>
        <time>2023-03-25T10:35:17Z</time>
      </trkpt>
      <trkpt lat="43.64342" lon="1.17963">
        <ele>185</ele>
        <time>2023-03-25T10:35:22Z</time>
      </trkpt>
      <trkpt lat="43.64355" lon="1.17975">
        <ele>185</ele>
        <time>2023-03-25T10:35:25Z</time>
      </trkpt>
      <trkpt lat="43.64401" lon="1.18018">
        <ele>186</ele>
        <time>2023-03-25T10:35:35Z</time>
      </trkpt>
      <trkpt lat="43.64405" lon="1.18023">
        <ele>186</ele>
        <time>2023-03-25T10:35:36Z</time>
      </trkpt>
      <trkpt lat="43.6441" lon="1.18028">
        <ele>186</ele>
        <time>2023-03-25T10:35:37Z</time>
      </trkpt>
      <trkpt lat="43.64445" lon="1.18066">
        <ele>186.2</ele>
        <time>2023-03-25T10:35:45Z</time>
      </trkpt>
      <trkpt lat="43.64477" lon="1.181">
        <ele>187</ele>
        <time>2023-03-25T10:35:53Z</time>
      </trkpt>
      <trkpt lat="43.64501" lon="1.18128">
        <ele>188</ele>
        <time>2023-03-25T10:36:00Z</time>
      </trkpt>
      <trkpt lat="43.64504" lon="1.18132">
        <ele>188.4</ele>
        <time>2023-03-25T10:36:01Z</time>
      </trkpt>
      <trkpt lat="43.6451" lon="1.1814">
        <ele>188.8</ele>
        <time>2023-03-25T10:36:03Z</time>
      </trkpt>
      <trkpt lat="43.64515" lon="1.18152">
        <ele>189.2</ele>
        <time>2023-03-25T10:36:05Z</time>
      </trkpt>
      <trkpt lat="43.64516" lon="1.18159">
        <ele>189.2</ele>
        <time>2023-03-25T10:36:06Z</time>
      </trkpt>
      <trkpt lat="43.64517" lon="1.18166">
        <ele>189.4</ele>
        <time>2023-03-25T10:36:07Z</time>
      </trkpt>
      <trkpt lat="43.64514" lon="1.18184">
        <ele>189.8</ele>
        <time>2023-03-25T10:36:10Z</time>
      </trkpt>
      <trkpt lat="43.64513" lon="1.18189">
        <ele>189.8</ele>
        <time>2023-03-25T10:36:11Z</time>
      </trkpt>
      <trkpt lat="43.64509" lon="1.18201">
        <ele>190.4</ele>
        <time>2023-03-25T10:36:14Z</time>
      </trkpt>
      <trkpt lat="43.64507" lon="1.18208">
        <ele>190.6</ele>
        <time>2023-03-25T10:36:16Z</time>
      </trkpt>
      <trkpt lat="43.64506" lon="1.18214">
        <ele>191.4</ele>
        <time>2023-03-25T10:36:18Z</time>
      </trkpt>
      <trkpt lat="43.64505" lon="1.18223">
        <ele>192.8</ele>
        <time>2023-03-25T10:36:21Z</time>
      </trkpt>
      <trkpt lat="43.64504" lon="1.18226">
        <ele>193</ele>
        <time>2023-03-25T10:36:22Z</time>
      </trkpt>
      <trkpt lat="43.64503" lon="1.18236">
        <ele>193.8</ele>
        <time>2023-03-25T10:36:25Z</time>
      </trkpt>
      <trkpt lat="43.645" lon="1.18253">
        <ele>194.6</ele>
        <time>2023-03-25T10:36:29Z</time>
      </trkpt>
      <trkpt lat="43.64498" lon="1.18262">
        <ele>195.4</ele>
        <time>2023-03-25T10:36:31Z</time>
      </trkpt>
      <trkpt lat="43.64495" lon="1.18281">
        <ele>196.4</ele>
        <time>2023-03-25T10:36:35Z</time>
      </trkpt>
      <trkpt lat="43.64493" lon="1.18291">
        <ele>196.6</ele>
        <time>2023-03-25T10:36:37Z</time>
      </trkpt>
      <trkpt lat="43.64488" lon="1.18322">
        <ele>197.8</ele>
        <time>2023-03-25T10:36:43Z</time>
      </trkpt>
      <trkpt lat="43.64487" lon="1.18327">
        <ele>198</ele>
        <time>2023-03-25T10:36:44Z</time>
      </trkpt>
      <trkpt lat="43.64491" lon="1.18359">
        <ele>198.8</ele>
        <time>2023-03-25T10:36:50Z</time>
      </trkpt>
      <trkpt lat="43.64493" lon="1.18364">
        <ele>199</ele>
        <time>2023-03-25T10:36:51Z</time>
      </trkpt>
      <trkpt lat="43.645" lon="1.18375">
        <ele>199</ele>
        <time>2023-03-25T10:36:54Z</time>
      </trkpt>
      <trkpt lat="43.64515" lon="1.18389">
        <ele>199.6</ele>
        <time>2023-03-25T10:37:00Z</time>
      </trkpt>
      <trkpt lat="43.64519" lon="1.18393">
        <ele>200.2</ele>
        <time>2023-03-25T10:37:02Z</time>
      </trkpt>
      <trkpt lat="43.64524" lon="1.18399">
        <ele>200.8</ele>
        <time>2023-03-25T10:37:05Z</time>
      </trkpt>
      <trkpt lat="43.64529" lon="1.18403">
        <ele>201.6</ele>
        <time>2023-03-25T10:37:07Z</time>
      </trkpt>
      <trkpt lat="43.64535" lon="1.1841">
        <ele>203</ele>
        <time>2023-03-25T10:37:10Z</time>
      </trkpt>
      <trkpt lat="43.64537" lon="1.18412">
        <ele>203.2</ele>
        <time>2023-03-25T10:37:11Z</time>
      </trkpt>
      <trkpt lat="43.6454" lon="1.18418">
        <ele>204.2</ele>
        <time>2023-03-25T10:37:13Z</time>
      </trkpt>
      <trkpt lat="43.6454" lon="1.18424">
        <ele>205</ele>
        <time>2023-03-25T10:37:15Z</time>
      </trkpt>
      <trkpt lat="43.6454" lon="1.18427">
        <ele>205.4</ele>
        <time>2023-03-25T10:37:16Z</time>
      </trkpt>
      <trkpt lat="43.6454" lon="1.1843">
        <ele>205.6</ele>
        <time>2023-03-25T10:37:17Z</time>
      </trkpt>
      <trkpt lat="43.64538" lon="1.18435">
        <ele>206.4</ele>
        <time>2023-03-25T10:37:19Z</time>
      </trkpt>
      <trkpt lat="43.64537" lon="1.18438">
        <ele>206.6</ele>
        <time>2023-03-25T10:37:20Z</time>
      </trkpt>
      <trkpt lat="43.64533" lon="1.18446">
        <ele>208</ele>
        <time>2023-03-25T10:37:23Z</time>
      </trkpt>
      <trkpt lat="43.64525" lon="1.18457">
        <ele>208.4</ele>
        <time>2023-03-25T10:37:27Z</time>
      </trkpt>
      <trkpt lat="43.64522" lon="1.18461">
        <ele>208.8</ele>
        <time>2023-03-25T10:37:29Z</time>
      </trkpt>
      <trkpt lat="43.64515" lon="1.18474">
        <ele>209.8</ele>
        <time>2023-03-25T10:37:33Z</time>
      </trkpt>
      <trkpt lat="43.64507" lon="1.18486">
        <ele>211</ele>
        <time>2023-03-25T10:37:37Z</time>
      </trkpt>
      <trkpt lat="43.64502" lon="1.18496">
        <ele>211.4</ele>
        <time>2023-03-25T10:37:40Z</time>
      </trkpt>
      <trkpt lat="43.64494" lon="1.1851">
        <ele>212.2</ele>
        <time>2023-03-25T10:37:44Z</time>
      </trkpt>
      <trkpt lat="43.64484" lon="1.18527">
        <ele>213.4</ele>
        <time>2023-03-25T10:37:49Z</time>
      </trkpt>
      <trkpt lat="43.6448" lon="1.18535">
        <ele>213.6</ele>
        <time>2023-03-25T10:37:51Z</time>
      </trkpt>
      <trkpt lat="43.64474" lon="1.18552">
        <ele>214.2</ele>
        <time>2023-03-25T10:37:56Z</time>
      </trkpt>
      <trkpt lat="43.64471" lon="1.18561">
        <ele>214.6</ele>
        <time>2023-03-25T10:37:58Z</time>
      </trkpt>
      <trkpt lat="43.64463" lon="1.18578">
        <ele>215</ele>
        <time>2023-03-25T10:38:02Z</time>
      </trkpt>
      <trkpt lat="43.64456" lon="1.18599">
        <ele>215.6</ele>
        <time>2023-03-25T10:38:07Z</time>
      </trkpt>
      <trkpt lat="43.64454" lon="1.18602">
        <ele>215.8</ele>
        <time>2023-03-25T10:38:08Z</time>
      </trkpt>
      <trkpt lat="43.64447" lon="1.18621">
        <ele>216.8</ele>
        <time>2023-03-25T10:38:13Z</time>
      </trkpt>
      <trkpt lat="43.6444" lon="1.18639">
        <ele>217.6</ele>
        <time>2023-03-25T10:38:18Z</time>
      </trkpt>
      <trkpt lat="43.64438" lon="1.18643">
        <ele>218</ele>
        <time>2023-03-25T10:38:19Z</time>
      </trkpt>
      <trkpt lat="43.64427" lon="1.1866">
        <ele>218.8</ele>
        <time>2023-03-25T10:38:24Z</time>
      </trkpt>
      <trkpt lat="43.64426" lon="1.18664">
        <ele>219</ele>
        <time>2023-03-25T10:38:25Z</time>
      </trkpt>
      <trkpt lat="43.6442" lon="1.18679">
        <ele>219.8</ele>
        <time>2023-03-25T10:38:29Z</time>
      </trkpt>
      <trkpt lat="43.64418" lon="1.18683">
        <ele>220</ele>
        <time>2023-03-25T10:38:30Z</time>
      </trkpt>
      <trkpt lat="43.64408" lon="1.18702">
        <ele>221.2</ele>
        <time>2023-03-25T10:38:35Z</time>
      </trkpt>
      <trkpt lat="43.64403" lon="1.1871">
        <ele>221.4</ele>
        <time>2023-03-25T10:38:37Z</time>
      </trkpt>
      <trkpt lat="43.64398" lon="1.1872">
        <ele>222.4</ele>
        <time>2023-03-25T10:38:40Z</time>
      </trkpt>
      <trkpt lat="43.64395" lon="1.18731">
        <ele>223</ele>
        <time>2023-03-25T10:38:42Z</time>
      </trkpt>
      <trkpt lat="43.64387" lon="1.18751">
        <ele>223.6</ele>
        <time>2023-03-25T10:38:47Z</time>
      </trkpt>
      <trkpt lat="43.64382" lon="1.18766">
        <ele>224.2</ele>
        <time>2023-03-25T10:38:51Z</time>
      </trkpt>
      <trkpt lat="43.6438" lon="1.18778">
        <ele>224.8</ele>
        <time>2023-03-25T10:38:54Z</time>
      </trkpt>
      <trkpt lat="43.64376" lon="1.18798">
        <ele>226</ele>
        <time>2023-03-25T10:39:00Z</time>
      </trkpt>
      <trkpt lat="43.64375" lon="1.18806">
        <ele>226.2</ele>
        <time>2023-03-25T10:39:01Z</time>
      </trkpt>
      <trkpt lat="43.64371" lon="1.18823">
        <ele>227.2</ele>
        <time>2023-03-25T10:39:05Z</time>
      </trkpt>
      <trkpt lat="43.64367" lon="1.18841">
        <ele>228.2</ele>
        <time>2023-03-25T10:39:09Z</time>
      </trkpt>
      <trkpt lat="43.64366" lon="1.18845">
        <ele>228.4</ele>
        <time>2023-03-25T10:39:10Z</time>
      </trkpt>
      <trkpt lat="43.64359" lon="1.18871">
        <ele>229.4</ele>
        <time>2023-03-25T10:39:16Z</time>
      </trkpt>
      <trkpt lat="43.64357" lon="1.18876">
        <ele>230</ele>
        <time>2023-03-25T10:39:17Z</time>
      </trkpt>
      <trkpt lat="43.64352" lon="1.18892">
        <ele>230.6</ele>
        <time>2023-03-25T10:39:21Z</time>
      </trkpt>
      <trkpt lat="43.6434" lon="1.18921">
        <ele>231.8</ele>
        <time>2023-03-25T10:39:28Z</time>
      </trkpt>
      <trkpt lat="43.64334" lon="1.18932">
        <ele>232.8</ele>
        <time>2023-03-25T10:39:31Z</time>
      </trkpt>
      <trkpt lat="43.64326" lon="1.18947">
        <ele>233.8</ele>
        <time>2023-03-25T10:39:35Z</time>
      </trkpt>
      <trkpt lat="43.64324" lon="1.18951">
        <ele>234</ele>
        <time>2023-03-25T10:39:36Z</time>
      </trkpt>
      <trkpt lat="43.64315" lon="1.18977">
        <ele>235</ele>
        <time>2023-03-25T10:39:42Z</time>
      </trkpt>
      <trkpt lat="43.64314" lon="1.18982">
        <ele>235.2</ele>
        <time>2023-03-25T10:39:43Z</time>
      </trkpt>
      <trkpt lat="43.64314" lon="1.19012">
        <ele>236</ele>
        <time>2023-03-25T10:39:49Z</time>
      </trkpt>
      <trkpt lat="43.64314" lon="1.19017">
        <ele>236.2</ele>
        <time>2023-03-25T10:39:50Z</time>
      </trkpt>
      <trkpt lat="43.64315" lon="1.19038">
        <ele>237.2</ele>
        <time>2023-03-25T10:39:54Z</time>
      </trkpt>
      <trkpt lat="43.64315" lon="1.19053">
        <ele>237.6</ele>
        <time>2023-03-25T10:39:57Z</time>
      </trkpt>
      <trkpt lat="43.64315" lon="1.19069">
        <ele>238.4</ele>
        <time>2023-03-25T10:40:00Z</time>
      </trkpt>
      <trkpt lat="43.64318" lon="1.19087">
        <ele>239.2</ele>
        <time>2023-03-25T10:40:04Z</time>
      </trkpt>
      <trkpt lat="43.6432" lon="1.19096">
        <ele>239.6</ele>
        <time>2023-03-25T10:40:07Z</time>
      </trkpt>
      <trkpt lat="43.6432" lon="1.19098">
        <ele>239.8</ele>
        <time>2023-03-25T10:40:09Z</time>
      </trkpt>
      <trkpt lat="43.6432" lon="1.19098">
        <ele>240.2</ele>
        <time>2023-03-25T10:40:11Z</time>
      </trkpt>
      <trkpt lat="43.64317" lon="1.19102">
        <ele>240</ele>
        <time>2023-03-25T10:46:18Z</time>
      </trkpt>
      <trkpt lat="43.64314" lon="1.19102">
        <ele>240</ele>
        <time>2023-03-25T10:46:19Z</time>
      </trkpt>
      <trkpt lat="43.64297" lon="1.19102">
        <ele>239.8</ele>
        <time>2023-03-25T10:46:24Z</time>
      </trkpt>
      <trkpt lat="43.64266" lon="1.191">
        <ele>240</ele>
        <time>2023-03-25T10:46:31Z</time>
      </trkpt>
      <trkpt lat="43.64258" lon="1.19101">
        <ele>240.2</ele>
        <time>2023-03-25T10:46:33Z</time>
      </trkpt>
      <trkpt lat="43.64251" lon="1.19107">
        <ele>240.4</ele>
        <time>2023-03-25T10:46:35Z</time>
      </trkpt>
      <trkpt lat="43.64242" lon="1.19121">
        <ele>240.4</ele>
        <time>2023-03-25T10:46:38Z</time>
      </trkpt>
      <trkpt lat="43.64239" lon="1.19126">
        <ele>240.4</ele>
        <time>2023-03-25T10:46:39Z</time>
      </trkpt>
      <trkpt lat="43.64205" lon="1.19163">
        <ele>241.2</ele>
        <time>2023-03-25T10:46:48Z</time>
      </trkpt>
      <trkpt lat="43.64198" lon="1.19171">
        <ele>241.4</ele>
        <time>2023-03-25T10:46:50Z</time>
      </trkpt>
      <trkpt lat="43.64164" lon="1.19209">
        <ele>242</ele>
        <time>2023-03-25T10:46:59Z</time>
      </trkpt>
      <trkpt lat="43.6416" lon="1.19213">
        <ele>242</ele>
        <time>2023-03-25T10:47:00Z</time>
      </trkpt>
      <trkpt lat="43.64152" lon="1.19222">
        <ele>242.2</ele>
        <time>2023-03-25T10:47:02Z</time>
      </trkpt>
      <trkpt lat="43.64141" lon="1.19235">
        <ele>242.2</ele>
        <time>2023-03-25T10:47:05Z</time>
      </trkpt>
      <trkpt lat="43.6411" lon="1.1927">
        <ele>243.2</ele>
        <time>2023-03-25T10:47:13Z</time>
      </trkpt>
      <trkpt lat="43.64098" lon="1.19283">
        <ele>243.4</ele>
        <time>2023-03-25T10:47:16Z</time>
      </trkpt>
      <trkpt lat="43.64077" lon="1.19312">
        <ele>243.4</ele>
        <time>2023-03-25T10:47:22Z</time>
      </trkpt>
      <trkpt lat="43.64069" lon="1.1932">
        <ele>243.6</ele>
        <time>2023-03-25T10:47:24Z</time>
      </trkpt>
      <trkpt lat="43.64032" lon="1.19366">
        <ele>243.6</ele>
        <time>2023-03-25T10:47:34Z</time>
      </trkpt>
      <trkpt lat="43.63998" lon="1.19415">
        <ele>243.2</ele>
        <time>2023-03-25T10:47:43Z</time>
      </trkpt>
      <trkpt lat="43.63992" lon="1.19427">
        <ele>243</ele>
        <time>2023-03-25T10:47:45Z</time>
      </trkpt>
      <trkpt lat="43.6399" lon="1.19438">
        <ele>242.6</ele>
        <time>2023-03-25T10:47:47Z</time>
      </trkpt>
      <trkpt lat="43.63989" lon="1.19449">
        <ele>242.4</ele>
        <time>2023-03-25T10:47:49Z</time>
      </trkpt>
      <trkpt lat="43.63988" lon="1.19454">
        <ele>242.2</ele>
        <time>2023-03-25T10:47:50Z</time>
      </trkpt>
      <trkpt lat="43.63986" lon="1.19462">
        <ele>241.8</ele>
        <time>2023-03-25T10:47:52Z</time>
      </trkpt>
      <trkpt lat="43.63986" lon="1.19468">
        <ele>241.2</ele>
        <time>2023-03-25T10:47:54Z</time>
      </trkpt>
      <trkpt lat="43.63984" lon="1.19469">
        <ele>241</ele>
        <time>2023-03-25T10:47:55Z</time>
      </trkpt>
      <trkpt lat="43.63981" lon="1.19476">
        <ele>239.8</ele>
        <time>2023-03-25T10:47:57Z</time>
      </trkpt>
      <trkpt lat="43.63977" lon="1.19483">
        <ele>239.4</ele>
        <time>2023-03-25T10:47:59Z</time>
      </trkpt>
      <trkpt lat="43.63975" lon="1.19485">
        <ele>239</ele>
        <time>2023-03-25T10:48:00Z</time>
      </trkpt>
      <trkpt lat="43.63973" lon="1.19486">
        <ele>238.8</ele>
        <time>2023-03-25T10:48:01Z</time>
      </trkpt>
      <trkpt lat="43.63973" lon="1.19486">
        <ele>238.2</ele>
        <time>2023-03-25T10:48:03Z</time>
      </trkpt>
      <trkpt lat="43.63969" lon="1.19494">
        <ele>235.8</ele>
        <time>2023-03-25T10:48:11Z</time>
      </trkpt>
      <trkpt lat="43.63969" lon="1.195">
        <ele>235.4</ele>
        <time>2023-03-25T10:48:14Z</time>
      </trkpt>
      <trkpt lat="43.63969" lon="1.19504">
        <ele>235.4</ele>
        <time>2023-03-25T10:48:16Z</time>
      </trkpt>
      <trkpt lat="43.63969" lon="1.1951">
        <ele>235.2</ele>
        <time>2023-03-25T10:48:19Z</time>
      </trkpt>
      <trkpt lat="43.63969" lon="1.19515">
        <ele>235</ele>
        <time>2023-03-25T10:48:21Z</time>
      </trkpt>
      <trkpt lat="43.6397" lon="1.1952">
        <ele>235.2</ele>
        <time>2023-03-25T10:48:23Z</time>
      </trkpt>
      <trkpt lat="43.6397" lon="1.19522">
        <ele>235.2</ele>
        <time>2023-03-25T10:48:24Z</time>
      </trkpt>
      <trkpt lat="43.63972" lon="1.19539">
        <ele>235.4</ele>
        <time>2023-03-25T10:48:30Z</time>
      </trkpt>
      <trkpt lat="43.63972" lon="1.19543">
        <ele>235.4</ele>
        <time>2023-03-25T10:48:31Z</time>
      </trkpt>
      <trkpt lat="43.63978" lon="1.19564">
        <ele>235.4</ele>
        <time>2023-03-25T10:48:36Z</time>
      </trkpt>
      <trkpt lat="43.63983" lon="1.19588">
        <ele>235.6</ele>
        <time>2023-03-25T10:48:41Z</time>
      </trkpt>
      <trkpt lat="43.63985" lon="1.19599">
        <ele>235.8</ele>
        <time>2023-03-25T10:48:44Z</time>
      </trkpt>
      <trkpt lat="43.63989" lon="1.19607">
        <ele>236</ele>
        <time>2023-03-25T10:48:46Z</time>
      </trkpt>
      <trkpt lat="43.63991" lon="1.19621">
        <ele>235.6</ele>
        <time>2023-03-25T10:48:50Z</time>
      </trkpt>
      <trkpt lat="43.63996" lon="1.19632">
        <ele>235.4</ele>
        <time>2023-03-25T10:48:52Z</time>
      </trkpt>
      <trkpt lat="43.63999" lon="1.19641">
        <ele>235.2</ele>
        <time>2023-03-25T10:48:54Z</time>
      </trkpt>
      <trkpt lat="43.64002" lon="1.19652">
        <ele>235.2</ele>
        <time>2023-03-25T10:48:57Z</time>
      </trkpt>
      <trkpt lat="43.64005" lon="1.19658">
        <ele>235.2</ele>
        <time>2023-03-25T10:48:59Z</time>
      </trkpt>
      <trkpt lat="43.64006" lon="1.19661">
        <ele>235.2</ele>
        <time>2023-03-25T10:49:00Z</time>
      </trkpt>
      <trkpt lat="43.64015" lon="1.19685">
        <ele>234.8</ele>
        <time>2023-03-25T10:49:06Z</time>
      </trkpt>
      <trkpt lat="43.64017" lon="1.19691">
        <ele>234.4</ele>
        <time>2023-03-25T10:49:08Z</time>
      </trkpt>
      <trkpt lat="43.64019" lon="1.19695">
        <ele>234</ele>
        <time>2023-03-25T10:49:11Z</time>
      </trkpt>
      <trkpt lat="43.64026" lon="1.1971">
        <ele>233.6</ele>
        <time>2023-03-25T10:49:16Z</time>
      </trkpt>
      <trkpt lat="43.6403" lon="1.19718">
        <ele>233.4</ele>
        <time>2023-03-25T10:49:18Z</time>
      </trkpt>
      <trkpt lat="43.64033" lon="1.19719">
        <ele>233.4</ele>
        <time>2023-03-25T10:49:19Z</time>
      </trkpt>
      <trkpt lat="43.64034" lon="1.19721">
        <ele>233.4</ele>
        <time>2023-03-25T10:49:20Z</time>
      </trkpt>
      <trkpt lat="43.64038" lon="1.19735">
        <ele>233</ele>
        <time>2023-03-25T10:49:25Z</time>
      </trkpt>
      <trkpt lat="43.64044" lon="1.19751">
        <ele>232.6</ele>
        <time>2023-03-25T10:49:29Z</time>
      </trkpt>
      <trkpt lat="43.64045" lon="1.19755">
        <ele>232.6</ele>
        <time>2023-03-25T10:49:30Z</time>
      </trkpt>
      <trkpt lat="43.64042" lon="1.19773">
        <ele>232.6</ele>
        <time>2023-03-25T10:49:35Z</time>
      </trkpt>
      <trkpt lat="43.64036" lon="1.19792">
        <ele>234</ele>
        <time>2023-03-25T10:49:42Z</time>
      </trkpt>
      <trkpt lat="43.64035" lon="1.19794">
        <ele>234.2</ele>
        <time>2023-03-25T10:49:43Z</time>
      </trkpt>
      <trkpt lat="43.64033" lon="1.19797">
        <ele>234.8</ele>
        <time>2023-03-25T10:49:45Z</time>
      </trkpt>
      <trkpt lat="43.64031" lon="1.19799">
        <ele>235.2</ele>
        <time>2023-03-25T10:49:46Z</time>
      </trkpt>
      <trkpt lat="43.64028" lon="1.19805">
        <ele>236.2</ele>
        <time>2023-03-25T10:49:49Z</time>
      </trkpt>
      <trkpt lat="43.64024" lon="1.19812">
        <ele>237.4</ele>
        <time>2023-03-25T10:49:52Z</time>
      </trkpt>
      <trkpt lat="43.6402" lon="1.19818">
        <ele>238.6</ele>
        <time>2023-03-25T10:49:55Z</time>
      </trkpt>
      <trkpt lat="43.64016" lon="1.19824">
        <ele>239.8</ele>
        <time>2023-03-25T10:49:58Z</time>
      </trkpt>
      <trkpt lat="43.64013" lon="1.19834">
        <ele>240.8</ele>
        <time>2023-03-25T10:50:01Z</time>
      </trkpt>
      <trkpt lat="43.64005" lon="1.19852">
        <ele>242</ele>
        <time>2023-03-25T10:50:06Z</time>
      </trkpt>
      <trkpt lat="43.63987" lon="1.19891">
        <ele>242.8</ele>
        <time>2023-03-25T10:50:15Z</time>
      </trkpt>
      <trkpt lat="43.63986" lon="1.19895">
        <ele>243</ele>
        <time>2023-03-25T10:50:16Z</time>
      </trkpt>
      <trkpt lat="43.63982" lon="1.19905">
        <ele>243</ele>
        <time>2023-03-25T10:50:18Z</time>
      </trkpt>
      <trkpt lat="43.63976" lon="1.19923">
        <ele>243.2</ele>
        <time>2023-03-25T10:50:22Z</time>
      </trkpt>
      <trkpt lat="43.63956" lon="1.19962">
        <ele>243.8</ele>
        <time>2023-03-25T10:50:32Z</time>
      </trkpt>
      <trkpt lat="43.6394" lon="1.19998">
        <ele>244</ele>
        <time>2023-03-25T10:50:39Z</time>
      </trkpt>
      <trkpt lat="43.63938" lon="1.20004">
        <ele>244</ele>
        <time>2023-03-25T10:50:40Z</time>
      </trkpt>
      <trkpt lat="43.63914" lon="1.20061">
        <ele>244.2</ele>
        <time>2023-03-25T10:50:50Z</time>
      </trkpt>
      <trkpt lat="43.63891" lon="1.20116">
        <ele>244</ele>
        <time>2023-03-25T10:50:59Z</time>
      </trkpt>
      <trkpt lat="43.63873" lon="1.2016">
        <ele>243.2</ele>
        <time>2023-03-25T10:51:07Z</time>
      </trkpt>
      <trkpt lat="43.63845" lon="1.20225">
        <ele>243.4</ele>
        <time>2023-03-25T10:51:18Z</time>
      </trkpt>
      <trkpt lat="43.6382" lon="1.20286">
        <ele>242.8</ele>
        <time>2023-03-25T10:51:27Z</time>
      </trkpt>
      <trkpt lat="43.63817" lon="1.20295">
        <ele>242.6</ele>
        <time>2023-03-25T10:51:28Z</time>
      </trkpt>
      <trkpt lat="43.63797" lon="1.20343">
        <ele>241.6</ele>
        <time>2023-03-25T10:51:34Z</time>
      </trkpt>
      <trkpt lat="43.63793" lon="1.20351">
        <ele>241.6</ele>
        <time>2023-03-25T10:51:35Z</time>
      </trkpt>
      <trkpt lat="43.63787" lon="1.20367">
        <ele>241.6</ele>
        <time>2023-03-25T10:51:37Z</time>
      </trkpt>
      <trkpt lat="43.63784" lon="1.20376">
        <ele>241.2</ele>
        <time>2023-03-25T10:51:38Z</time>
      </trkpt>
      <trkpt lat="43.6378" lon="1.20383">
        <ele>240.6</ele>
        <time>2023-03-25T10:51:40Z</time>
      </trkpt>
      <trkpt lat="43.63773" lon="1.20397">
        <ele>240.4</ele>
        <time>2023-03-25T10:51:41Z</time>
      </trkpt>
      <trkpt lat="43.63764" lon="1.20414">
        <ele>239.8</ele>
        <time>2023-03-25T10:51:44Z</time>
      </trkpt>
      <trkpt lat="43.63762" lon="1.20418">
        <ele>239.6</ele>
        <time>2023-03-25T10:51:45Z</time>
      </trkpt>
      <trkpt lat="43.63749" lon="1.20445">
        <ele>239.2</ele>
        <time>2023-03-25T10:51:50Z</time>
      </trkpt>
      <trkpt lat="43.63739" lon="1.20474">
        <ele>238.8</ele>
        <time>2023-03-25T10:51:55Z</time>
      </trkpt>
      <trkpt lat="43.63734" lon="1.20485">
        <ele>239</ele>
        <time>2023-03-25T10:51:57Z</time>
      </trkpt>
      <trkpt lat="43.63729" lon="1.205">
        <ele>238.8</ele>
        <time>2023-03-25T10:52:00Z</time>
      </trkpt>
      <trkpt lat="43.63719" lon="1.2052">
        <ele>238.6</ele>
        <time>2023-03-25T10:52:05Z</time>
      </trkpt>
      <trkpt lat="43.63714" lon="1.20531">
        <ele>238.6</ele>
        <time>2023-03-25T10:52:08Z</time>
      </trkpt>
      <trkpt lat="43.63709" lon="1.2054">
        <ele>238.6</ele>
        <time>2023-03-25T10:52:10Z</time>
      </trkpt>
      <trkpt lat="43.63702" lon="1.20559">
        <ele>238.2</ele>
        <time>2023-03-25T10:52:15Z</time>
      </trkpt>
      <trkpt lat="43.637" lon="1.20564">
        <ele>238.2</ele>
        <time>2023-03-25T10:52:16Z</time>
      </trkpt>
      <trkpt lat="43.63697" lon="1.20572">
        <ele>238.2</ele>
        <time>2023-03-25T10:52:18Z</time>
      </trkpt>
      <trkpt lat="43.63688" lon="1.20593">
        <ele>238.2</ele>
        <time>2023-03-25T10:52:23Z</time>
      </trkpt>
      <trkpt lat="43.63676" lon="1.20618">
        <ele>238.4</ele>
        <time>2023-03-25T10:52:28Z</time>
      </trkpt>
      <trkpt lat="43.63667" lon="1.2064">
        <ele>238.6</ele>
        <time>2023-03-25T10:52:32Z</time>
      </trkpt>
      <trkpt lat="43.63664" lon="1.20646">
        <ele>238.6</ele>
        <time>2023-03-25T10:52:33Z</time>
      </trkpt>
      <trkpt lat="43.63654" lon="1.20667">
        <ele>238.8</ele>
        <time>2023-03-25T10:52:37Z</time>
      </trkpt>
      <trkpt lat="43.63647" lon="1.20679">
        <ele>238.8</ele>
        <time>2023-03-25T10:52:39Z</time>
      </trkpt>
      <trkpt lat="43.63628" lon="1.20728">
        <ele>238.6</ele>
        <time>2023-03-25T10:52:46Z</time>
      </trkpt>
      <trkpt lat="43.63617" lon="1.20757">
        <ele>238.4</ele>
        <time>2023-03-25T10:52:50Z</time>
      </trkpt>
      <trkpt lat="43.63611" lon="1.20774">
        <ele>238.2</ele>
        <time>2023-03-25T10:52:52Z</time>
      </trkpt>
      <trkpt lat="43.63604" lon="1.2079">
        <ele>238</ele>
        <time>2023-03-25T10:52:54Z</time>
      </trkpt>
      <trkpt lat="43.63597" lon="1.20805">
        <ele>237.8</ele>
        <time>2023-03-25T10:52:56Z</time>
      </trkpt>
      <trkpt lat="43.6359" lon="1.20817">
        <ele>237.6</ele>
        <time>2023-03-25T10:52:58Z</time>
      </trkpt>
      <trkpt lat="43.63588" lon="1.2082">
        <ele>237.4</ele>
        <time>2023-03-25T10:52:59Z</time>
      </trkpt>
      <trkpt lat="43.63579" lon="1.20836">
        <ele>237</ele>
        <time>2023-03-25T10:53:03Z</time>
      </trkpt>
      <trkpt lat="43.63575" lon="1.20849">
        <ele>236.8</ele>
        <time>2023-03-25T10:53:05Z</time>
      </trkpt>
      <trkpt lat="43.6357" lon="1.20863">
        <ele>236.6</ele>
        <time>2023-03-25T10:53:07Z</time>
      </trkpt>
      <trkpt lat="43.63567" lon="1.20871">
        <ele>236.6</ele>
        <time>2023-03-25T10:53:08Z</time>
      </trkpt>
      <trkpt lat="43.63562" lon="1.20887">
        <ele>236.4</ele>
        <time>2023-03-25T10:53:10Z</time>
      </trkpt>
      <trkpt lat="43.63558" lon="1.20901">
        <ele>236</ele>
        <time>2023-03-25T10:53:12Z</time>
      </trkpt>
      <trkpt lat="43.63552" lon="1.20926">
        <ele>235.4</ele>
        <time>2023-03-25T10:53:15Z</time>
      </trkpt>
      <trkpt lat="43.6355" lon="1.20935">
        <ele>235.4</ele>
        <time>2023-03-25T10:53:16Z</time>
      </trkpt>
      <trkpt lat="43.63546" lon="1.20953">
        <ele>235.2</ele>
        <time>2023-03-25T10:53:18Z</time>
      </trkpt>
      <trkpt lat="43.63531" lon="1.21003">
        <ele>234.4</ele>
        <time>2023-03-25T10:53:24Z</time>
      </trkpt>
      <trkpt lat="43.63528" lon="1.2102">
        <ele>234.2</ele>
        <time>2023-03-25T10:53:26Z</time>
      </trkpt>
      <trkpt lat="43.6353" lon="1.21027">
        <ele>234.2</ele>
        <time>2023-03-25T10:53:27Z</time>
      </trkpt>
      <trkpt lat="43.63533" lon="1.21033">
        <ele>234.2</ele>
        <time>2023-03-25T10:53:28Z</time>
      </trkpt>
      <trkpt lat="43.63541" lon="1.2104">
        <ele>234</ele>
        <time>2023-03-25T10:53:30Z</time>
      </trkpt>
      <trkpt lat="43.63572" lon="1.21063">
        <ele>234.6</ele>
        <time>2023-03-25T10:53:36Z</time>
      </trkpt>
      <trkpt lat="43.636" lon="1.21086">
        <ele>234.4</ele>
        <time>2023-03-25T10:53:41Z</time>
      </trkpt>
      <trkpt lat="43.63611" lon="1.21095">
        <ele>234.2</ele>
        <time>2023-03-25T10:53:43Z</time>
      </trkpt>
      <trkpt lat="43.6363" lon="1.2111">
        <ele>234.2</ele>
        <time>2023-03-25T10:53:46Z</time>
      </trkpt>
      <trkpt lat="43.63642" lon="1.21121">
        <ele>234</ele>
        <time>2023-03-25T10:53:48Z</time>
      </trkpt>
      <trkpt lat="43.63657" lon="1.21131">
        <ele>234</ele>
        <time>2023-03-25T10:53:51Z</time>
      </trkpt>
      <trkpt lat="43.63662" lon="1.21134">
        <ele>234.2</ele>
        <time>2023-03-25T10:53:52Z</time>
      </trkpt>
      <trkpt lat="43.63674" lon="1.21144">
        <ele>234.2</ele>
        <time>2023-03-25T10:53:55Z</time>
      </trkpt>
      <trkpt lat="43.63683" lon="1.21153">
        <ele>234.4</ele>
        <time>2023-03-25T10:53:57Z</time>
      </trkpt>
      <trkpt lat="43.63709" lon="1.2118">
        <ele>235</ele>
        <time>2023-03-25T10:54:04Z</time>
      </trkpt>
      <trkpt lat="43.63704" lon="1.21212">
        <ele>234.8</ele>
        <time>2023-03-25T10:54:10Z</time>
      </trkpt>
      <trkpt lat="43.63689" lon="1.21241">
        <ele>234.2</ele>
        <time>2023-03-25T10:54:14Z</time>
      </trkpt>
      <trkpt lat="43.63685" lon="1.21247">
        <ele>233.2</ele>
        <time>2023-03-25T10:54:16Z</time>
      </trkpt>
      <trkpt lat="43.63679" lon="1.21265">
        <ele>232.8</ele>
        <time>2023-03-25T10:54:18Z</time>
      </trkpt>
      <trkpt lat="43.63677" lon="1.21272">
        <ele>232.4</ele>
        <time>2023-03-25T10:54:20Z</time>
      </trkpt>
      <trkpt lat="43.63668" lon="1.21294">
        <ele>233.4</ele>
        <time>2023-03-25T10:54:25Z</time>
      </trkpt>
      <trkpt lat="43.63659" lon="1.21311">
        <ele>234.4</ele>
        <time>2023-03-25T10:54:29Z</time>
      </trkpt>
      <trkpt lat="43.63653" lon="1.21327">
        <ele>235.6</ele>
        <time>2023-03-25T10:54:32Z</time>
      </trkpt>
      <trkpt lat="43.63639" lon="1.21355">
        <ele>236.4</ele>
        <time>2023-03-25T10:54:37Z</time>
      </trkpt>
      <trkpt lat="43.63635" lon="1.21362">
        <ele>236.6</ele>
        <time>2023-03-25T10:54:38Z</time>
      </trkpt>
      <trkpt lat="43.63624" lon="1.21388">
        <ele>237</ele>
        <time>2023-03-25T10:54:42Z</time>
      </trkpt>
      <trkpt lat="43.63621" lon="1.21394">
        <ele>237</ele>
        <time>2023-03-25T10:54:43Z</time>
      </trkpt>
      <trkpt lat="43.636" lon="1.21443">
        <ele>237.6</ele>
        <time>2023-03-25T10:54:51Z</time>
      </trkpt>
      <trkpt lat="43.636" lon="1.21443">
        <ele>237.6</ele>
        <time>2023-03-25T10:54:52Z</time>
      </trkpt>
      <trkpt lat="43.63575" lon="1.21501">
        <ele>238.4</ele>
        <time>2023-03-25T10:55:00Z</time>
      </trkpt>
      <trkpt lat="43.63553" lon="1.21554">
        <ele>238.6</ele>
        <time>2023-03-25T10:55:08Z</time>
      </trkpt>
      <trkpt lat="43.6353" lon="1.21605">
        <ele>238.2</ele>
        <time>2023-03-25T10:55:16Z</time>
      </trkpt>
      <trkpt lat="43.63521" lon="1.21629">
        <ele>237.8</ele>
        <time>2023-03-25T10:55:20Z</time>
      </trkpt>
      <trkpt lat="43.63518" lon="1.21638">
        <ele>237.8</ele>
        <time>2023-03-25T10:55:22Z</time>
      </trkpt>
      <trkpt lat="43.63516" lon="1.2164">
        <ele>237.8</ele>
        <time>2023-03-25T10:55:23Z</time>
      </trkpt>
      <trkpt lat="43.6351" lon="1.21638">
        <ele>238</ele>
        <time>2023-03-25T10:55:25Z</time>
      </trkpt>
      <trkpt lat="43.63494" lon="1.21624">
        <ele>238</ele>
        <time>2023-03-25T10:55:29Z</time>
      </trkpt>
      <trkpt lat="43.63469" lon="1.21605">
        <ele>238.2</ele>
        <time>2023-03-25T10:55:34Z</time>
      </trkpt>
      <trkpt lat="43.63464" lon="1.21601">
        <ele>238.2</ele>
        <time>2023-03-25T10:55:35Z</time>
      </trkpt>
      <trkpt lat="43.63439" lon="1.2158">
        <ele>238.6</ele>
        <time>2023-03-25T10:55:40Z</time>
      </trkpt>
      <trkpt lat="43.63434" lon="1.21575">
        <ele>238.6</ele>
        <time>2023-03-25T10:55:41Z</time>
      </trkpt>
      <trkpt lat="43.63393" lon="1.21542">
        <ele>239</ele>
        <time>2023-03-25T10:55:48Z</time>
      </trkpt>
      <trkpt lat="43.63353" lon="1.21509">
        <ele>238.6</ele>
        <time>2023-03-25T10:55:55Z</time>
      </trkpt>
      <trkpt lat="43.63309" lon="1.21473">
        <ele>237.6</ele>
        <time>2023-03-25T10:56:03Z</time>
      </trkpt>
      <trkpt lat="43.63265" lon="1.21434">
        <ele>237.6</ele>
        <time>2023-03-25T10:56:11Z</time>
      </trkpt>
      <trkpt lat="43.63217" lon="1.21393">
        <ele>238.2</ele>
        <time>2023-03-25T10:56:20Z</time>
      </trkpt>
      <trkpt lat="43.63204" lon="1.21384">
        <ele>238.4</ele>
        <time>2023-03-25T10:56:22Z</time>
      </trkpt>
      <trkpt lat="43.632" lon="1.2138">
        <ele>238.6</ele>
        <time>2023-03-25T10:56:23Z</time>
      </trkpt>
      <trkpt lat="43.63151" lon="1.21339">
        <ele>239.6</ele>
        <time>2023-03-25T10:56:32Z</time>
      </trkpt>
      <trkpt lat="43.63121" lon="1.21314">
        <ele>240.4</ele>
        <time>2023-03-25T10:56:38Z</time>
      </trkpt>
      <trkpt lat="43.63116" lon="1.21309">
        <ele>240.6</ele>
        <time>2023-03-25T10:56:39Z</time>
      </trkpt>
      <trkpt lat="43.63081" lon="1.2128">
        <ele>241.6</ele>
        <time>2023-03-25T10:56:46Z</time>
      </trkpt>
      <trkpt lat="43.63056" lon="1.21259">
        <ele>242.4</ele>
        <time>2023-03-25T10:56:51Z</time>
      </trkpt>
      <trkpt lat="43.63046" lon="1.21251">
        <ele>242.6</ele>
        <time>2023-03-25T10:56:53Z</time>
      </trkpt>
      <trkpt lat="43.6302" lon="1.21229">
        <ele>243.8</ele>
        <time>2023-03-25T10:56:58Z</time>
      </trkpt>
      <trkpt lat="43.63" lon="1.21213">
        <ele>244.2</ele>
        <time>2023-03-25T10:57:02Z</time>
      </trkpt>
      <trkpt lat="43.62978" lon="1.21193">
        <ele>244.8</ele>
        <time>2023-03-25T10:57:07Z</time>
      </trkpt>
      <trkpt lat="43.62964" lon="1.21181">
        <ele>245</ele>
        <time>2023-03-25T10:57:10Z</time>
      </trkpt>
      <trkpt lat="43.62959" lon="1.21177">
        <ele>245</ele>
        <time>2023-03-25T10:57:11Z</time>
      </trkpt>
      <trkpt lat="43.62924" lon="1.21147">
        <ele>245.4</ele>
        <time>2023-03-25T10:57:18Z</time>
      </trkpt>
      <trkpt lat="43.62877" lon="1.21108">
        <ele>245.2</ele>
        <time>2023-03-25T10:57:27Z</time>
      </trkpt>
      <trkpt lat="43.62872" lon="1.21104">
        <ele>245.2</ele>
        <time>2023-03-25T10:57:28Z</time>
      </trkpt>
      <trkpt lat="43.62834" lon="1.21073">
        <ele>245.2</ele>
        <time>2023-03-25T10:57:35Z</time>
      </trkpt>
      <trkpt lat="43.62784" lon="1.21032">
        <ele>245.4</ele>
        <time>2023-03-25T10:57:45Z</time>
      </trkpt>
      <trkpt lat="43.62738" lon="1.20994">
        <ele>245.8</ele>
        <time>2023-03-25T10:57:54Z</time>
      </trkpt>
      <trkpt lat="43.62728" lon="1.20986">
        <ele>245.8</ele>
        <time>2023-03-25T10:57:56Z</time>
      </trkpt>
      <trkpt lat="43.62709" lon="1.20972">
        <ele>246</ele>
        <time>2023-03-25T10:58:00Z</time>
      </trkpt>
      <trkpt lat="43.62704" lon="1.20971">
        <ele>246</ele>
        <time>2023-03-25T10:58:01Z</time>
      </trkpt>
      <trkpt lat="43.627" lon="1.20972">
        <ele>246</ele>
        <time>2023-03-25T10:58:02Z</time>
      </trkpt>
      <trkpt lat="43.62697" lon="1.20975">
        <ele>246</ele>
        <time>2023-03-25T10:58:03Z</time>
      </trkpt>
      <trkpt lat="43.62694" lon="1.2098">
        <ele>246</ele>
        <time>2023-03-25T10:58:05Z</time>
      </trkpt>
      <trkpt lat="43.62676" lon="1.21016">
        <ele>246</ele>
        <time>2023-03-25T10:58:09Z</time>
      </trkpt>
      <trkpt lat="43.62661" lon="1.21048">
        <ele>246</ele>
        <time>2023-03-25T10:58:13Z</time>
      </trkpt>
      <trkpt lat="43.62658" lon="1.21057">
        <ele>246</ele>
        <time>2023-03-25T10:58:14Z</time>
      </trkpt>
      <trkpt lat="43.62637" lon="1.2111">
        <ele>246</ele>
        <time>2023-03-25T10:58:20Z</time>
      </trkpt>
      <trkpt lat="43.62614" lon="1.21163">
        <ele>246.4</ele>
        <time>2023-03-25T10:58:26Z</time>
      </trkpt>
      <trkpt lat="43.62603" lon="1.21187">
        <ele>246.6</ele>
        <time>2023-03-25T10:58:29Z</time>
      </trkpt>
      <trkpt lat="43.62596" lon="1.21201">
        <ele>246.6</ele>
        <time>2023-03-25T10:58:31Z</time>
      </trkpt>
      <trkpt lat="43.62575" lon="1.21251">
        <ele>246.4</ele>
        <time>2023-03-25T10:58:38Z</time>
      </trkpt>
      <trkpt lat="43.62549" lon="1.21313">
        <ele>246.4</ele>
        <time>2023-03-25T10:58:46Z</time>
      </trkpt>
      <trkpt lat="43.62543" lon="1.21329">
        <ele>246.2</ele>
        <time>2023-03-25T10:58:48Z</time>
      </trkpt>
      <trkpt lat="43.62535" lon="1.21346">
        <ele>246.2</ele>
        <time>2023-03-25T10:58:50Z</time>
      </trkpt>
      <trkpt lat="43.6253" lon="1.21355">
        <ele>246</ele>
        <time>2023-03-25T10:58:51Z</time>
      </trkpt>
      <trkpt lat="43.62518" lon="1.2138">
        <ele>245.8</ele>
        <time>2023-03-25T10:58:54Z</time>
      </trkpt>
      <trkpt lat="43.62509" lon="1.21397">
        <ele>245.6</ele>
        <time>2023-03-25T10:58:56Z</time>
      </trkpt>
      <trkpt lat="43.62504" lon="1.21406">
        <ele>245.6</ele>
        <time>2023-03-25T10:58:57Z</time>
      </trkpt>
      <trkpt lat="43.62493" lon="1.21435">
        <ele>244.2</ele>
        <time>2023-03-25T10:59:00Z</time>
      </trkpt>
      <trkpt lat="43.62488" lon="1.21445">
        <ele>243.4</ele>
        <time>2023-03-25T10:59:01Z</time>
      </trkpt>
      <trkpt lat="43.62482" lon="1.21458">
        <ele>243</ele>
        <time>2023-03-25T10:59:02Z</time>
      </trkpt>
      <trkpt lat="43.62477" lon="1.21467">
        <ele>241.8</ele>
        <time>2023-03-25T10:59:03Z</time>
      </trkpt>
      <trkpt lat="43.62463" lon="1.21501">
        <ele>240</ele>
        <time>2023-03-25T10:59:06Z</time>
      </trkpt>
      <trkpt lat="43.62452" lon="1.21525">
        <ele>237.6</ele>
        <time>2023-03-25T10:59:08Z</time>
      </trkpt>
      <trkpt lat="43.62441" lon="1.2155">
        <ele>235.6</ele>
        <time>2023-03-25T10:59:10Z</time>
      </trkpt>
      <trkpt lat="43.62436" lon="1.21562">
        <ele>234.8</ele>
        <time>2023-03-25T10:59:11Z</time>
      </trkpt>
      <trkpt lat="43.62432" lon="1.21574">
        <ele>233.2</ele>
        <time>2023-03-25T10:59:12Z</time>
      </trkpt>
      <trkpt lat="43.62421" lon="1.21596">
        <ele>230.8</ele>
        <time>2023-03-25T10:59:14Z</time>
      </trkpt>
      <trkpt lat="43.62416" lon="1.21606">
        <ele>229.8</ele>
        <time>2023-03-25T10:59:15Z</time>
      </trkpt>
      <trkpt lat="43.62411" lon="1.21616">
        <ele>229.2</ele>
        <time>2023-03-25T10:59:16Z</time>
      </trkpt>
      <trkpt lat="43.62408" lon="1.21625">
        <ele>227.6</ele>
        <time>2023-03-25T10:59:17Z</time>
      </trkpt>
      <trkpt lat="43.62401" lon="1.21642">
        <ele>226</ele>
        <time>2023-03-25T10:59:19Z</time>
      </trkpt>
      <trkpt lat="43.62398" lon="1.21651">
        <ele>225.8</ele>
        <time>2023-03-25T10:59:20Z</time>
      </trkpt>
      <trkpt lat="43.62395" lon="1.21658">
        <ele>225</ele>
        <time>2023-03-25T10:59:21Z</time>
      </trkpt>
      <trkpt lat="43.62385" lon="1.21679">
        <ele>224</ele>
        <time>2023-03-25T10:59:24Z</time>
      </trkpt>
      <trkpt lat="43.62382" lon="1.21684">
        <ele>224</ele>
        <time>2023-03-25T10:59:25Z</time>
      </trkpt>
      <trkpt lat="43.62379" lon="1.21688">
        <ele>223.4</ele>
        <time>2023-03-25T10:59:26Z</time>
      </trkpt>
      <trkpt lat="43.62373" lon="1.21689">
        <ele>223</ele>
        <time>2023-03-25T10:59:28Z</time>
      </trkpt>
      <trkpt lat="43.62356" lon="1.21675">
        <ele>222</ele>
        <time>2023-03-25T10:59:33Z</time>
      </trkpt>
      <trkpt lat="43.62349" lon="1.21668">
        <ele>222</ele>
        <time>2023-03-25T10:59:35Z</time>
      </trkpt>
      <trkpt lat="43.62334" lon="1.21657">
        <ele>221.8</ele>
        <time>2023-03-25T10:59:38Z</time>
      </trkpt>
      <trkpt lat="43.62307" lon="1.21633">
        <ele>222.6</ele>
        <time>2023-03-25T10:59:44Z</time>
      </trkpt>
      <trkpt lat="43.62302" lon="1.21629">
        <ele>222.8</ele>
        <time>2023-03-25T10:59:45Z</time>
      </trkpt>
      <trkpt lat="43.62297" lon="1.21625">
        <ele>223</ele>
        <time>2023-03-25T10:59:46Z</time>
      </trkpt>
      <trkpt lat="43.62287" lon="1.21617">
        <ele>223.4</ele>
        <time>2023-03-25T10:59:48Z</time>
      </trkpt>
      <trkpt lat="43.62277" lon="1.2161">
        <ele>223.6</ele>
        <time>2023-03-25T10:59:50Z</time>
      </trkpt>
      <trkpt lat="43.62242" lon="1.2158">
        <ele>223.4</ele>
        <time>2023-03-25T10:59:56Z</time>
      </trkpt>
      <trkpt lat="43.62202" lon="1.2155">
        <ele>222.8</ele>
        <time>2023-03-25T11:00:02Z</time>
      </trkpt>
      <trkpt lat="43.62155" lon="1.21511">
        <ele>222</ele>
        <time>2023-03-25T11:00:09Z</time>
      </trkpt>
      <trkpt lat="43.62148" lon="1.21506">
        <ele>221.8</ele>
        <time>2023-03-25T11:00:10Z</time>
      </trkpt>
      <trkpt lat="43.62111" lon="1.21473">
        <ele>221.4</ele>
        <time>2023-03-25T11:00:16Z</time>
      </trkpt>
      <trkpt lat="43.62078" lon="1.21448">
        <ele>221.6</ele>
        <time>2023-03-25T11:00:22Z</time>
      </trkpt>
      <trkpt lat="43.62073" lon="1.21444">
        <ele>221.6</ele>
        <time>2023-03-25T11:00:23Z</time>
      </trkpt>
      <trkpt lat="43.62051" lon="1.21437">
        <ele>221.6</ele>
        <time>2023-03-25T11:00:27Z</time>
      </trkpt>
      <trkpt lat="43.62023" lon="1.21435">
        <ele>220.8</ele>
        <time>2023-03-25T11:00:31Z</time>
      </trkpt>
      <trkpt lat="43.62001" lon="1.21431">
        <ele>220</ele>
        <time>2023-03-25T11:00:34Z</time>
      </trkpt>
      <trkpt lat="43.61995" lon="1.21428">
        <ele>219.8</ele>
        <time>2023-03-25T11:00:35Z</time>
      </trkpt>
      <trkpt lat="43.61969" lon="1.21412">
        <ele>219.4</ele>
        <time>2023-03-25T11:00:39Z</time>
      </trkpt>
      <trkpt lat="43.61964" lon="1.21408">
        <ele>219.4</ele>
        <time>2023-03-25T11:00:40Z</time>
      </trkpt>
      <trkpt lat="43.61958" lon="1.21403">
        <ele>219.4</ele>
        <time>2023-03-25T11:00:41Z</time>
      </trkpt>
      <trkpt lat="43.61945" lon="1.21399">
        <ele>219.4</ele>
        <time>2023-03-25T11:00:43Z</time>
      </trkpt>
      <trkpt lat="43.61915" lon="1.21395">
        <ele>218.6</ele>
        <time>2023-03-25T11:00:47Z</time>
      </trkpt>
      <trkpt lat="43.61907" lon="1.21393">
        <ele>218.4</ele>
        <time>2023-03-25T11:00:48Z</time>
      </trkpt>
      <trkpt lat="43.619" lon="1.2139">
        <ele>218</ele>
        <time>2023-03-25T11:00:49Z</time>
      </trkpt>
      <trkpt lat="43.61871" lon="1.21375">
        <ele>217.8</ele>
        <time>2023-03-25T11:00:53Z</time>
      </trkpt>
      <trkpt lat="43.6185" lon="1.21364">
        <ele>217.6</ele>
        <time>2023-03-25T11:00:56Z</time>
      </trkpt>
      <trkpt lat="43.61836" lon="1.21357">
        <ele>217.4</ele>
        <time>2023-03-25T11:00:58Z</time>
      </trkpt>
      <trkpt lat="43.61829" lon="1.21355">
        <ele>217.2</ele>
        <time>2023-03-25T11:00:59Z</time>
      </trkpt>
      <trkpt lat="43.61823" lon="1.21351">
        <ele>217</ele>
        <time>2023-03-25T11:01:00Z</time>
      </trkpt>
      <trkpt lat="43.61812" lon="1.2134">
        <ele>216.8</ele>
        <time>2023-03-25T11:01:02Z</time>
      </trkpt>
      <trkpt lat="43.61807" lon="1.21335">
        <ele>217</ele>
        <time>2023-03-25T11:01:03Z</time>
      </trkpt>
      <trkpt lat="43.61772" lon="1.21307">
        <ele>217.8</ele>
        <time>2023-03-25T11:01:10Z</time>
      </trkpt>
      <trkpt lat="43.61743" lon="1.21283">
        <ele>218</ele>
        <time>2023-03-25T11:01:16Z</time>
      </trkpt>
      <trkpt lat="43.61716" lon="1.21261">
        <ele>217.8</ele>
        <time>2023-03-25T11:01:22Z</time>
      </trkpt>
      <trkpt lat="43.61688" lon="1.21232">
        <ele>217</ele>
        <time>2023-03-25T11:01:27Z</time>
      </trkpt>
      <trkpt lat="43.61683" lon="1.21221">
        <ele>216.8</ele>
        <time>2023-03-25T11:01:29Z</time>
      </trkpt>
      <trkpt lat="43.6168" lon="1.21216">
        <ele>216.8</ele>
        <time>2023-03-25T11:01:31Z</time>
      </trkpt>
      <trkpt lat="43.61677" lon="1.21214">
        <ele>216.6</ele>
        <time>2023-03-25T11:01:32Z</time>
      </trkpt>
      <trkpt lat="43.61669" lon="1.2121">
        <ele>216.4</ele>
        <time>2023-03-25T11:01:35Z</time>
      </trkpt>
      <trkpt lat="43.61667" lon="1.21211">
        <ele>216.4</ele>
        <time>2023-03-25T11:01:36Z</time>
      </trkpt>
      <trkpt lat="43.61664" lon="1.21213">
        <ele>216.2</ele>
        <time>2023-03-25T11:01:37Z</time>
      </trkpt>
      <trkpt lat="43.61658" lon="1.21228">
        <ele>215.8</ele>
        <time>2023-03-25T11:01:40Z</time>
      </trkpt>
      <trkpt lat="43.6165" lon="1.21258">
        <ele>215.8</ele>
        <time>2023-03-25T11:01:45Z</time>
      </trkpt>
      <trkpt lat="43.61648" lon="1.21263">
        <ele>215.6</ele>
        <time>2023-03-25T11:01:46Z</time>
      </trkpt>
      <trkpt lat="43.61646" lon="1.21269">
        <ele>215.6</ele>
        <time>2023-03-25T11:01:47Z</time>
      </trkpt>
      <trkpt lat="43.61636" lon="1.21278">
        <ele>215.4</ele>
        <time>2023-03-25T11:01:49Z</time>
      </trkpt>
      <trkpt lat="43.6163" lon="1.21285">
        <ele>215.4</ele>
        <time>2023-03-25T11:01:50Z</time>
      </trkpt>
      <trkpt lat="43.61618" lon="1.21302">
        <ele>215.4</ele>
        <time>2023-03-25T11:01:52Z</time>
      </trkpt>
      <trkpt lat="43.61613" lon="1.21309">
        <ele>215.4</ele>
        <time>2023-03-25T11:01:54Z</time>
      </trkpt>
      <trkpt lat="43.6157" lon="1.21378">
        <ele>215</ele>
        <time>2023-03-25T11:02:02Z</time>
      </trkpt>
      <trkpt lat="43.61535" lon="1.21438">
        <ele>214.4</ele>
        <time>2023-03-25T11:02:09Z</time>
      </trkpt>
      <trkpt lat="43.61524" lon="1.21455">
        <ele>214.4</ele>
        <time>2023-03-25T11:02:11Z</time>
      </trkpt>
      <trkpt lat="43.6152" lon="1.21461">
        <ele>214</ele>
        <time>2023-03-25T11:02:12Z</time>
      </trkpt>
      <trkpt lat="43.61507" lon="1.21484">
        <ele>213</ele>
        <time>2023-03-25T11:02:15Z</time>
      </trkpt>
      <trkpt lat="43.61497" lon="1.215">
        <ele>212.2</ele>
        <time>2023-03-25T11:02:17Z</time>
      </trkpt>
      <trkpt lat="43.61487" lon="1.21516">
        <ele>212</ele>
        <time>2023-03-25T11:02:20Z</time>
      </trkpt>
      <trkpt lat="43.61457" lon="1.21565">
        <ele>211.2</ele>
        <time>2023-03-25T11:02:25Z</time>
      </trkpt>
      <trkpt lat="43.61441" lon="1.2159">
        <ele>210.8</ele>
        <time>2023-03-25T11:02:28Z</time>
      </trkpt>
      <trkpt lat="43.61411" lon="1.21641">
        <ele>210.4</ele>
        <time>2023-03-25T11:02:34Z</time>
      </trkpt>
      <trkpt lat="43.6139" lon="1.21679">
        <ele>210</ele>
        <time>2023-03-25T11:02:39Z</time>
      </trkpt>
      <trkpt lat="43.61387" lon="1.21686">
        <ele>210</ele>
        <time>2023-03-25T11:02:40Z</time>
      </trkpt>
      <trkpt lat="43.61388" lon="1.21699">
        <ele>209.6</ele>
        <time>2023-03-25T11:02:42Z</time>
      </trkpt>
      <trkpt lat="43.61401" lon="1.21731">
        <ele>209.2</ele>
        <time>2023-03-25T11:02:47Z</time>
      </trkpt>
      <trkpt lat="43.61405" lon="1.21744">
        <ele>209</ele>
        <time>2023-03-25T11:02:49Z</time>
      </trkpt>
      <trkpt lat="43.61405" lon="1.21748">
        <ele>208.8</ele>
        <time>2023-03-25T11:02:50Z</time>
      </trkpt>
      <trkpt lat="43.61406" lon="1.21752">
        <ele>208.8</ele>
        <time>2023-03-25T11:02:51Z</time>
      </trkpt>
      <trkpt lat="43.61404" lon="1.21767">
        <ele>208.8</ele>
        <time>2023-03-25T11:02:52Z</time>
      </trkpt>
      <trkpt lat="43.61394" lon="1.2183">
        <ele>208.6</ele>
        <time>2023-03-25T11:02:59Z</time>
      </trkpt>
      <trkpt lat="43.61386" lon="1.21876">
        <ele>207.8</ele>
        <time>2023-03-25T11:03:04Z</time>
      </trkpt>
      <trkpt lat="43.61381" lon="1.21908">
        <ele>207.6</ele>
        <time>2023-03-25T11:03:08Z</time>
      </trkpt>
      <trkpt lat="43.61378" lon="1.21927">
        <ele>207.2</ele>
        <time>2023-03-25T11:03:12Z</time>
      </trkpt>
      <trkpt lat="43.61379" lon="1.21945">
        <ele>206.8</ele>
        <time>2023-03-25T11:03:17Z</time>
      </trkpt>
      <trkpt lat="43.61374" lon="1.21972">
        <ele>206.6</ele>
        <time>2023-03-25T11:03:22Z</time>
      </trkpt>
      <trkpt lat="43.61367" lon="1.22009">
        <ele>206.6</ele>
        <time>2023-03-25T11:03:27Z</time>
      </trkpt>
      <trkpt lat="43.61366" lon="1.22025">
        <ele>206.8</ele>
        <time>2023-03-25T11:03:28Z</time>
      </trkpt>
      <trkpt lat="43.61365" lon="1.22048">
        <ele>206.8</ele>
        <time>2023-03-25T11:03:31Z</time>
      </trkpt>
      <trkpt lat="43.61364" lon="1.22056">
        <ele>206.6</ele>
        <time>2023-03-25T11:03:32Z</time>
      </trkpt>
      <trkpt lat="43.61361" lon="1.22063">
        <ele>206.4</ele>
        <time>2023-03-25T11:03:33Z</time>
      </trkpt>
      <trkpt lat="43.61356" lon="1.22076">
        <ele>206.4</ele>
        <time>2023-03-25T11:03:35Z</time>
      </trkpt>
      <trkpt lat="43.61353" lon="1.22089">
        <ele>206.4</ele>
        <time>2023-03-25T11:03:37Z</time>
      </trkpt>
      <trkpt lat="43.61352" lon="1.22096">
        <ele>206.4</ele>
        <time>2023-03-25T11:03:38Z</time>
      </trkpt>
      <trkpt lat="43.61347" lon="1.22125">
        <ele>206.4</ele>
        <time>2023-03-25T11:03:42Z</time>
      </trkpt>
      <trkpt lat="43.61341" lon="1.22168">
        <ele>206.6</ele>
        <time>2023-03-25T11:03:48Z</time>
      </trkpt>
      <trkpt lat="43.61339" lon="1.22188">
        <ele>206.4</ele>
        <time>2023-03-25T11:03:51Z</time>
      </trkpt>
      <trkpt lat="43.61337" lon="1.222">
        <ele>206.2</ele>
        <time>2023-03-25T11:03:53Z</time>
      </trkpt>
      <trkpt lat="43.61333" lon="1.22223">
        <ele>205.8</ele>
        <time>2023-03-25T11:03:57Z</time>
      </trkpt>
      <trkpt lat="43.61331" lon="1.22228">
        <ele>206</ele>
        <time>2023-03-25T11:03:58Z</time>
      </trkpt>
      <trkpt lat="43.61325" lon="1.22237">
        <ele>206.2</ele>
        <time>2023-03-25T11:04:00Z</time>
      </trkpt>
      <trkpt lat="43.61319" lon="1.22243">
        <ele>206.2</ele>
        <time>2023-03-25T11:04:02Z</time>
      </trkpt>
      <trkpt lat="43.61306" lon="1.22249">
        <ele>206</ele>
        <time>2023-03-25T11:04:05Z</time>
      </trkpt>
      <trkpt lat="43.61287" lon="1.22269">
        <ele>206</ele>
        <time>2023-03-25T11:04:10Z</time>
      </trkpt>
      <trkpt lat="43.61255" lon="1.22302">
        <ele>205.4</ele>
        <time>2023-03-25T11:04:18Z</time>
      </trkpt>
      <trkpt lat="43.6122" lon="1.2233">
        <ele>205.8</ele>
        <time>2023-03-25T11:04:25Z</time>
      </trkpt>
      <trkpt lat="43.61179" lon="1.22361">
        <ele>205</ele>
        <time>2023-03-25T11:04:33Z</time>
      </trkpt>
      <trkpt lat="43.61144" lon="1.22392">
        <ele>205</ele>
        <time>2023-03-25T11:04:40Z</time>
      </trkpt>
      <trkpt lat="43.61137" lon="1.22403">
        <ele>205</ele>
        <time>2023-03-25T11:04:42Z</time>
      </trkpt>
      <trkpt lat="43.61131" lon="1.22416">
        <ele>205</ele>
        <time>2023-03-25T11:04:44Z</time>
      </trkpt>
      <trkpt lat="43.61127" lon="1.22431">
        <ele>204.8</ele>
        <time>2023-03-25T11:04:46Z</time>
      </trkpt>
      <trkpt lat="43.6111" lon="1.22479">
        <ele>204.6</ele>
        <time>2023-03-25T11:04:52Z</time>
      </trkpt>
      <trkpt lat="43.61091" lon="1.22539">
        <ele>204.4</ele>
        <time>2023-03-25T11:04:59Z</time>
      </trkpt>
      <trkpt lat="43.61071" lon="1.22605">
        <ele>204.6</ele>
        <time>2023-03-25T11:05:06Z</time>
      </trkpt>
      <trkpt lat="43.61062" lon="1.22632">
        <ele>204.6</ele>
        <time>2023-03-25T11:05:09Z</time>
      </trkpt>
      <trkpt lat="43.61053" lon="1.22649">
        <ele>204.4</ele>
        <time>2023-03-25T11:05:11Z</time>
      </trkpt>
      <trkpt lat="43.6102" lon="1.22708">
        <ele>204.6</ele>
        <time>2023-03-25T11:05:19Z</time>
      </trkpt>
      <trkpt lat="43.61016" lon="1.22715">
        <ele>204.6</ele>
        <time>2023-03-25T11:05:20Z</time>
      </trkpt>
      <trkpt lat="43.61003" lon="1.22739">
        <ele>204.6</ele>
        <time>2023-03-25T11:05:24Z</time>
      </trkpt>
      <trkpt lat="43.61001" lon="1.22743">
        <ele>204.6</ele>
        <time>2023-03-25T11:05:25Z</time>
      </trkpt>
      <trkpt lat="43.60998" lon="1.22746">
        <ele>204.6</ele>
        <time>2023-03-25T11:05:26Z</time>
      </trkpt>
      <trkpt lat="43.60997" lon="1.22745">
        <ele>204.6</ele>
        <time>2023-03-25T11:05:27Z</time>
      </trkpt>
      <trkpt lat="43.60993" lon="1.22742">
        <ele>204.4</ele>
        <time>2023-03-25T11:05:29Z</time>
      </trkpt>
      <trkpt lat="43.60991" lon="1.22743">
        <ele>204.4</ele>
        <time>2023-03-25T11:05:30Z</time>
      </trkpt>
      <trkpt lat="43.60982" lon="1.22763">
        <ele>204</ele>
        <time>2023-03-25T11:05:35Z</time>
      </trkpt>
      <trkpt lat="43.60976" lon="1.22775">
        <ele>203.8</ele>
        <time>2023-03-25T11:05:37Z</time>
      </trkpt>
      <trkpt lat="43.60966" lon="1.22793">
        <ele>203.8</ele>
        <time>2023-03-25T11:05:40Z</time>
      </trkpt>
      <trkpt lat="43.60951" lon="1.22819">
        <ele>203.6</ele>
        <time>2023-03-25T11:05:44Z</time>
      </trkpt>
      <trkpt lat="43.60948" lon="1.22827">
        <ele>203.6</ele>
        <time>2023-03-25T11:05:45Z</time>
      </trkpt>
      <trkpt lat="43.60945" lon="1.22834">
        <ele>203.6</ele>
        <time>2023-03-25T11:05:46Z</time>
      </trkpt>
      <trkpt lat="43.60936" lon="1.22848">
        <ele>203.6</ele>
        <time>2023-03-25T11:05:48Z</time>
      </trkpt>
      <trkpt lat="43.60931" lon="1.22855">
        <ele>203.8</ele>
        <time>2023-03-25T11:05:49Z</time>
      </trkpt>
      <trkpt lat="43.60926" lon="1.22862">
        <ele>203.8</ele>
        <time>2023-03-25T11:05:50Z</time>
      </trkpt>
      <trkpt lat="43.6091" lon="1.22883">
        <ele>203.4</ele>
        <time>2023-03-25T11:05:53Z</time>
      </trkpt>
      <trkpt lat="43.60878" lon="1.22927">
        <ele>203</ele>
        <time>2023-03-25T11:05:59Z</time>
      </trkpt>
      <trkpt lat="43.60874" lon="1.22932">
        <ele>203</ele>
        <time>2023-03-25T11:06:01Z</time>
      </trkpt>
      <trkpt lat="43.60868" lon="1.22939">
        <ele>202.8</ele>
        <time>2023-03-25T11:06:02Z</time>
      </trkpt>
      <trkpt lat="43.60858" lon="1.22959">
        <ele>202.8</ele>
        <time>2023-03-25T11:06:06Z</time>
      </trkpt>
      <trkpt lat="43.60857" lon="1.22965">
        <ele>202.6</ele>
        <time>2023-03-25T11:06:07Z</time>
      </trkpt>
      <trkpt lat="43.60852" lon="1.22978">
        <ele>202.6</ele>
        <time>2023-03-25T11:06:09Z</time>
      </trkpt>
      <trkpt lat="43.6085" lon="1.22985">
        <ele>202.4</ele>
        <time>2023-03-25T11:06:11Z</time>
      </trkpt>
      <trkpt lat="43.60845" lon="1.23">
        <ele>202.4</ele>
        <time>2023-03-25T11:06:12Z</time>
      </trkpt>
      <trkpt lat="43.60838" lon="1.23022">
        <ele>202.4</ele>
        <time>2023-03-25T11:06:15Z</time>
      </trkpt>
      <trkpt lat="43.60835" lon="1.23025">
        <ele>202.6</ele>
        <time>2023-03-25T11:06:16Z</time>
      </trkpt>
      <trkpt lat="43.60832" lon="1.23028">
        <ele>202.6</ele>
        <time>2023-03-25T11:06:17Z</time>
      </trkpt>
      <trkpt lat="43.60816" lon="1.23049">
        <ele>202.6</ele>
        <time>2023-03-25T11:06:20Z</time>
      </trkpt>
      <trkpt lat="43.60808" lon="1.23062">
        <ele>202.6</ele>
        <time>2023-03-25T11:06:22Z</time>
      </trkpt>
      <trkpt lat="43.60797" lon="1.23082">
        <ele>202.8</ele>
        <time>2023-03-25T11:06:25Z</time>
      </trkpt>
      <trkpt lat="43.60788" lon="1.23113">
        <ele>202.6</ele>
        <time>2023-03-25T11:06:29Z</time>
      </trkpt>
      <trkpt lat="43.60786" lon="1.23121">
        <ele>202.4</ele>
        <time>2023-03-25T11:06:30Z</time>
      </trkpt>
      <trkpt lat="43.60776" lon="1.23152">
        <ele>202.4</ele>
        <time>2023-03-25T11:06:34Z</time>
      </trkpt>
      <trkpt lat="43.60773" lon="1.2316">
        <ele>202.2</ele>
        <time>2023-03-25T11:06:35Z</time>
      </trkpt>
      <trkpt lat="43.60771" lon="1.23177">
        <ele>202</ele>
        <time>2023-03-25T11:06:37Z</time>
      </trkpt>
      <trkpt lat="43.60769" lon="1.23195">
        <ele>202</ele>
        <time>2023-03-25T11:06:39Z</time>
      </trkpt>
      <trkpt lat="43.60769" lon="1.23205">
        <ele>202</ele>
        <time>2023-03-25T11:06:40Z</time>
      </trkpt>
      <trkpt lat="43.60769" lon="1.23214">
        <ele>202</ele>
        <time>2023-03-25T11:06:41Z</time>
      </trkpt>
      <trkpt lat="43.60765" lon="1.2323">
        <ele>201.8</ele>
        <time>2023-03-25T11:06:43Z</time>
      </trkpt>
      <trkpt lat="43.60757" lon="1.2325">
        <ele>201.8</ele>
        <time>2023-03-25T11:06:46Z</time>
      </trkpt>
      <trkpt lat="43.60753" lon="1.23255">
        <ele>201.8</ele>
        <time>2023-03-25T11:06:47Z</time>
      </trkpt>
      <trkpt lat="43.6075" lon="1.23262">
        <ele>201.8</ele>
        <time>2023-03-25T11:06:48Z</time>
      </trkpt>
      <trkpt lat="43.60748" lon="1.23279">
        <ele>201.6</ele>
        <time>2023-03-25T11:06:50Z</time>
      </trkpt>
      <trkpt lat="43.60735" lon="1.23353">
        <ele>201.6</ele>
        <time>2023-03-25T11:06:59Z</time>
      </trkpt>
      <trkpt lat="43.60733" lon="1.23368">
        <ele>201.6</ele>
        <time>2023-03-25T11:07:01Z</time>
      </trkpt>
      <trkpt lat="43.60728" lon="1.23399">
        <ele>202</ele>
        <time>2023-03-25T11:07:05Z</time>
      </trkpt>
      <trkpt lat="43.60723" lon="1.23414">
        <ele>202</ele>
        <time>2023-03-25T11:07:07Z</time>
      </trkpt>
      <trkpt lat="43.60714" lon="1.23433">
        <ele>202.2</ele>
        <time>2023-03-25T11:07:10Z</time>
      </trkpt>
      <trkpt lat="43.60711" lon="1.23447">
        <ele>202.4</ele>
        <time>2023-03-25T11:07:12Z</time>
      </trkpt>
      <trkpt lat="43.60708" lon="1.23463">
        <ele>202.4</ele>
        <time>2023-03-25T11:07:14Z</time>
      </trkpt>
      <trkpt lat="43.60702" lon="1.23479">
        <ele>202.6</ele>
        <time>2023-03-25T11:07:16Z</time>
      </trkpt>
      <trkpt lat="43.60687" lon="1.23531">
        <ele>202.6</ele>
        <time>2023-03-25T11:07:22Z</time>
      </trkpt>
      <trkpt lat="43.60679" lon="1.23557">
        <ele>202.8</ele>
        <time>2023-03-25T11:07:25Z</time>
      </trkpt>
      <trkpt lat="43.60673" lon="1.23581">
        <ele>202.8</ele>
        <time>2023-03-25T11:07:29Z</time>
      </trkpt>
      <trkpt lat="43.60664" lon="1.23609">
        <ele>203</ele>
        <time>2023-03-25T11:07:31Z</time>
      </trkpt>
      <trkpt lat="43.60659" lon="1.23626">
        <ele>203</ele>
        <time>2023-03-25T11:07:33Z</time>
      </trkpt>
      <trkpt lat="43.60653" lon="1.23644">
        <ele>203</ele>
        <time>2023-03-25T11:07:35Z</time>
      </trkpt>
      <trkpt lat="43.60642" lon="1.2368">
        <ele>203</ele>
        <time>2023-03-25T11:07:39Z</time>
      </trkpt>
      <trkpt lat="43.60638" lon="1.23695">
        <ele>203</ele>
        <time>2023-03-25T11:07:41Z</time>
      </trkpt>
      <trkpt lat="43.60628" lon="1.23741">
        <ele>202.6</ele>
        <time>2023-03-25T11:07:46Z</time>
      </trkpt>
      <trkpt lat="43.60621" lon="1.23766">
        <ele>201.8</ele>
        <time>2023-03-25T11:07:49Z</time>
      </trkpt>
      <trkpt lat="43.60615" lon="1.23787">
        <ele>201.2</ele>
        <time>2023-03-25T11:07:52Z</time>
      </trkpt>
      <trkpt lat="43.6061" lon="1.23809">
        <ele>201</ele>
        <time>2023-03-25T11:07:55Z</time>
      </trkpt>
      <trkpt lat="43.60608" lon="1.23815">
        <ele>201</ele>
        <time>2023-03-25T11:07:56Z</time>
      </trkpt>
      <trkpt lat="43.60605" lon="1.23828">
        <ele>201.2</ele>
        <time>2023-03-25T11:07:58Z</time>
      </trkpt>
      <trkpt lat="43.60599" lon="1.2385">
        <ele>201.4</ele>
        <time>2023-03-25T11:08:02Z</time>
      </trkpt>
      <trkpt lat="43.60585" lon="1.23888">
        <ele>202.8</ele>
        <time>2023-03-25T11:08:08Z</time>
      </trkpt>
      <trkpt lat="43.60583" lon="1.23896">
        <ele>203</ele>
        <time>2023-03-25T11:08:09Z</time>
      </trkpt>
      <trkpt lat="43.60578" lon="1.23913">
        <ele>203</ele>
        <time>2023-03-25T11:08:12Z</time>
      </trkpt>
      <trkpt lat="43.60573" lon="1.2393">
        <ele>203</ele>
        <time>2023-03-25T11:08:15Z</time>
      </trkpt>
      <trkpt lat="43.60571" lon="1.23935">
        <ele>203</ele>
        <time>2023-03-25T11:08:16Z</time>
      </trkpt>
      <trkpt lat="43.60566" lon="1.23943">
        <ele>203</ele>
        <time>2023-03-25T11:08:18Z</time>
      </trkpt>
      <trkpt lat="43.60555" lon="1.23942">
        <ele>203</ele>
        <time>2023-03-25T11:08:21Z</time>
      </trkpt>
      <trkpt lat="43.6055" lon="1.23939">
        <ele>203</ele>
        <time>2023-03-25T11:08:22Z</time>
      </trkpt>
      <trkpt lat="43.60542" lon="1.23935">
        <ele>203.2</ele>
        <time>2023-03-25T11:08:24Z</time>
      </trkpt>
      <trkpt lat="43.60537" lon="1.2393">
        <ele>203.2</ele>
        <time>2023-03-25T11:08:25Z</time>
      </trkpt>
      <trkpt lat="43.60534" lon="1.23928">
        <ele>203.4</ele>
        <time>2023-03-25T11:08:26Z</time>
      </trkpt>
      <trkpt lat="43.60524" lon="1.23925">
        <ele>203.6</ele>
        <time>2023-03-25T11:08:28Z</time>
      </trkpt>
      <trkpt lat="43.60521" lon="1.23926">
        <ele>203.8</ele>
        <time>2023-03-25T11:08:29Z</time>
      </trkpt>
      <trkpt lat="43.60516" lon="1.23927">
        <ele>204</ele>
        <time>2023-03-25T11:08:30Z</time>
      </trkpt>
      <trkpt lat="43.60514" lon="1.2393">
        <ele>204.2</ele>
        <time>2023-03-25T11:08:31Z</time>
      </trkpt>
      <trkpt lat="43.60512" lon="1.23934">
        <ele>204.2</ele>
        <time>2023-03-25T11:08:32Z</time>
      </trkpt>
      <trkpt lat="43.60506" lon="1.23959">
        <ele>204.2</ele>
        <time>2023-03-25T11:08:38Z</time>
      </trkpt>
      <trkpt lat="43.60505" lon="1.23962">
        <ele>204.2</ele>
        <time>2023-03-25T11:08:40Z</time>
      </trkpt>
      <trkpt lat="43.60504" lon="1.23965">
        <ele>204</ele>
        <time>2023-03-25T11:08:42Z</time>
      </trkpt>
      <trkpt lat="43.60497" lon="1.2398">
        <ele>203.6</ele>
        <time>2023-03-25T11:08:46Z</time>
      </trkpt>
      <trkpt lat="43.60491" lon="1.23992">
        <ele>203</ele>
        <time>2023-03-25T11:08:49Z</time>
      </trkpt>
      <trkpt lat="43.60484" lon="1.24003">
        <ele>202.6</ele>
        <time>2023-03-25T11:08:51Z</time>
      </trkpt>
      <trkpt lat="43.60479" lon="1.24016">
        <ele>201.8</ele>
        <time>2023-03-25T11:08:53Z</time>
      </trkpt>
      <trkpt lat="43.60477" lon="1.24024">
        <ele>200.2</ele>
        <time>2023-03-25T11:08:54Z</time>
      </trkpt>
      <trkpt lat="43.60473" lon="1.24031">
        <ele>199.4</ele>
        <time>2023-03-25T11:08:55Z</time>
      </trkpt>
      <trkpt lat="43.60469" lon="1.2404">
        <ele>198</ele>
        <time>2023-03-25T11:08:56Z</time>
      </trkpt>
      <trkpt lat="43.60465" lon="1.24049">
        <ele>197</ele>
        <time>2023-03-25T11:08:57Z</time>
      </trkpt>
      <trkpt lat="43.60458" lon="1.24055">
        <ele>196.2</ele>
        <time>2023-03-25T11:08:58Z</time>
      </trkpt>
      <trkpt lat="43.60452" lon="1.2406">
        <ele>194.4</ele>
        <time>2023-03-25T11:08:59Z</time>
      </trkpt>
      <trkpt lat="43.60443" lon="1.24069">
        <ele>193</ele>
        <time>2023-03-25T11:09:01Z</time>
      </trkpt>
      <trkpt lat="43.60442" lon="1.24072">
        <ele>192.4</ele>
        <time>2023-03-25T11:09:02Z</time>
      </trkpt>
      <trkpt lat="43.60441" lon="1.24075">
        <ele>191</ele>
        <time>2023-03-25T11:09:03Z</time>
      </trkpt>
      <trkpt lat="43.60438" lon="1.24082">
        <ele>189.4</ele>
        <time>2023-03-25T11:09:05Z</time>
      </trkpt>
      <trkpt lat="43.60435" lon="1.24091">
        <ele>188.6</ele>
        <time>2023-03-25T11:09:07Z</time>
      </trkpt>
      <trkpt lat="43.60434" lon="1.24097">
        <ele>188.4</ele>
        <time>2023-03-25T11:09:08Z</time>
      </trkpt>
      <trkpt lat="43.60436" lon="1.24108">
        <ele>188.2</ele>
        <time>2023-03-25T11:09:11Z</time>
      </trkpt>
      <trkpt lat="43.60447" lon="1.24132">
        <ele>188.2</ele>
        <time>2023-03-25T11:09:15Z</time>
      </trkpt>
      <trkpt lat="43.60463" lon="1.24165">
        <ele>188.4</ele>
        <time>2023-03-25T11:09:20Z</time>
      </trkpt>
      <trkpt lat="43.60478" lon="1.24205">
        <ele>188.4</ele>
        <time>2023-03-25T11:09:25Z</time>
      </trkpt>
      <trkpt lat="43.6048" lon="1.24211">
        <ele>188.4</ele>
        <time>2023-03-25T11:09:26Z</time>
      </trkpt>
      <trkpt lat="43.60484" lon="1.24217">
        <ele>188.4</ele>
        <time>2023-03-25T11:09:27Z</time>
      </trkpt>
      <trkpt lat="43.60501" lon="1.24251">
        <ele>188.6</ele>
        <time>2023-03-25T11:09:32Z</time>
      </trkpt>
      <trkpt lat="43.60511" lon="1.2427">
        <ele>189</ele>
        <time>2023-03-25T11:09:36Z</time>
      </trkpt>
      <trkpt lat="43.60517" lon="1.24286">
        <ele>188.6</ele>
        <time>2023-03-25T11:09:40Z</time>
      </trkpt>
      <trkpt lat="43.6052" lon="1.24292">
        <ele>188.6</ele>
        <time>2023-03-25T11:09:41Z</time>
      </trkpt>
      <trkpt lat="43.60536" lon="1.24318">
        <ele>188.6</ele>
        <time>2023-03-25T11:09:46Z</time>
      </trkpt>
      <trkpt lat="43.60539" lon="1.24325">
        <ele>188.6</ele>
        <time>2023-03-25T11:09:47Z</time>
      </trkpt>
      <trkpt lat="43.60559" lon="1.2437">
        <ele>188.6</ele>
        <time>2023-03-25T11:09:53Z</time>
      </trkpt>
      <trkpt lat="43.60572" lon="1.24398">
        <ele>188.6</ele>
        <time>2023-03-25T11:09:57Z</time>
      </trkpt>
      <trkpt lat="43.60576" lon="1.24412">
        <ele>188.8</ele>
        <time>2023-03-25T11:09:59Z</time>
      </trkpt>
      <trkpt lat="43.60581" lon="1.24426">
        <ele>188.8</ele>
        <time>2023-03-25T11:10:01Z</time>
      </trkpt>
      <trkpt lat="43.60587" lon="1.2444">
        <ele>189</ele>
        <time>2023-03-25T11:10:03Z</time>
      </trkpt>
      <trkpt lat="43.60591" lon="1.24451">
        <ele>189.2</ele>
        <time>2023-03-25T11:10:05Z</time>
      </trkpt>
      <trkpt lat="43.60597" lon="1.24463">
        <ele>189.2</ele>
        <time>2023-03-25T11:10:07Z</time>
      </trkpt>
      <trkpt lat="43.60602" lon="1.24469">
        <ele>189.2</ele>
        <time>2023-03-25T11:10:09Z</time>
      </trkpt>
      <trkpt lat="43.60608" lon="1.24465">
        <ele>189.2</ele>
        <time>2023-03-25T11:10:12Z</time>
      </trkpt>
      <trkpt lat="43.60614" lon="1.24456">
        <ele>189.6</ele>
        <time>2023-03-25T11:10:17Z</time>
      </trkpt>
      <trkpt lat="43.60614" lon="1.24454">
        <ele>190</ele>
        <time>2023-03-25T11:10:18Z</time>
      </trkpt>
      <trkpt lat="43.60615" lon="1.24449">
        <ele>190.8</ele>
        <time>2023-03-25T11:10:21Z</time>
      </trkpt>
      <trkpt lat="43.60618" lon="1.24441">
        <ele>191.6</ele>
        <time>2023-03-25T11:10:25Z</time>
      </trkpt>
      <trkpt lat="43.60619" lon="1.2444">
        <ele>192</ele>
        <time>2023-03-25T11:10:26Z</time>
      </trkpt>
      <trkpt lat="43.60622" lon="1.24434">
        <ele>193.4</ele>
        <time>2023-03-25T11:10:29Z</time>
      </trkpt>
      <trkpt lat="43.60622" lon="1.24429">
        <ele>194.6</ele>
        <time>2023-03-25T11:10:32Z</time>
      </trkpt>
      <trkpt lat="43.60624" lon="1.24422">
        <ele>196</ele>
        <time>2023-03-25T11:10:36Z</time>
      </trkpt>
      <trkpt lat="43.60625" lon="1.2442">
        <ele>196.2</ele>
        <time>2023-03-25T11:10:37Z</time>
      </trkpt>
      <trkpt lat="43.60626" lon="1.24419">
        <ele>197</ele>
        <time>2023-03-25T11:10:38Z</time>
      </trkpt>
      <trkpt lat="43.60627" lon="1.24418">
        <ele>197.4</ele>
        <time>2023-03-25T11:10:39Z</time>
      </trkpt>
      <trkpt lat="43.60629" lon="1.24417">
        <ele>198.2</ele>
        <time>2023-03-25T11:10:41Z</time>
      </trkpt>
      <trkpt lat="43.60632" lon="1.24416">
        <ele>198.8</ele>
        <time>2023-03-25T11:10:43Z</time>
      </trkpt>
      <trkpt lat="43.60633" lon="1.24415">
        <ele>199.2</ele>
        <time>2023-03-25T11:10:45Z</time>
      </trkpt>
      <trkpt lat="43.60639" lon="1.24413">
        <ele>200.4</ele>
        <time>2023-03-25T11:10:49Z</time>
      </trkpt>
      <trkpt lat="43.60642" lon="1.2441">
        <ele>201</ele>
        <time>2023-03-25T11:10:51Z</time>
      </trkpt>
      <trkpt lat="43.60643" lon="1.24408">
        <ele>201.4</ele>
        <time>2023-03-25T11:10:52Z</time>
      </trkpt>
      <trkpt lat="43.60643" lon="1.24406">
        <ele>201.4</ele>
        <time>2023-03-25T11:10:53Z</time>
      </trkpt>
      <trkpt lat="43.60645" lon="1.24397">
        <ele>202</ele>
        <time>2023-03-25T11:10:56Z</time>
      </trkpt>
      <trkpt lat="43.60649" lon="1.24393">
        <ele>202.6</ele>
        <time>2023-03-25T11:10:59Z</time>
      </trkpt>
      <trkpt lat="43.60653" lon="1.2439">
        <ele>203</ele>
        <time>2023-03-25T11:11:02Z</time>
      </trkpt>
      <trkpt lat="43.60656" lon="1.24388">
        <ele>203.6</ele>
        <time>2023-03-25T11:11:04Z</time>
      </trkpt>
      <trkpt lat="43.60665" lon="1.24386">
        <ele>204</ele>
        <time>2023-03-25T11:11:09Z</time>
      </trkpt>
      <trkpt lat="43.60671" lon="1.24383">
        <ele>204</ele>
        <time>2023-03-25T11:11:12Z</time>
      </trkpt>
      <trkpt lat="43.60677" lon="1.24383">
        <ele>204</ele>
        <time>2023-03-25T11:11:14Z</time>
      </trkpt>
      <trkpt lat="43.60699" lon="1.24383">
        <ele>204.4</ele>
        <time>2023-03-25T11:11:20Z</time>
      </trkpt>
      <trkpt lat="43.60703" lon="1.24384">
        <ele>204.4</ele>
        <time>2023-03-25T11:11:21Z</time>
      </trkpt>
      <trkpt lat="43.60711" lon="1.24388">
        <ele>204.4</ele>
        <time>2023-03-25T11:11:23Z</time>
      </trkpt>
      <trkpt lat="43.60718" lon="1.24397">
        <ele>204.6</ele>
        <time>2023-03-25T11:11:25Z</time>
      </trkpt>
      <trkpt lat="43.6074" lon="1.24434">
        <ele>204.6</ele>
        <time>2023-03-25T11:11:31Z</time>
      </trkpt>
      <trkpt lat="43.60771" lon="1.24489">
        <ele>204.4</ele>
        <time>2023-03-25T11:11:39Z</time>
      </trkpt>
      <trkpt lat="43.60773" lon="1.24497">
        <ele>204.2</ele>
        <time>2023-03-25T11:11:40Z</time>
      </trkpt>
      <trkpt lat="43.60792" lon="1.24564">
        <ele>204.4</ele>
        <time>2023-03-25T11:11:48Z</time>
      </trkpt>
      <trkpt lat="43.60813" lon="1.24641">
        <ele>204.2</ele>
        <time>2023-03-25T11:11:57Z</time>
      </trkpt>
      <trkpt lat="43.60831" lon="1.24687">
        <ele>204</ele>
        <time>2023-03-25T11:12:03Z</time>
      </trkpt>
      <trkpt lat="43.6084" lon="1.24711">
        <ele>203.8</ele>
        <time>2023-03-25T11:12:06Z</time>
      </trkpt>
      <trkpt lat="43.60847" lon="1.24737">
        <ele>203.8</ele>
        <time>2023-03-25T11:12:09Z</time>
      </trkpt>
      <trkpt lat="43.60849" lon="1.24745">
        <ele>203.8</ele>
        <time>2023-03-25T11:12:10Z</time>
      </trkpt>
      <trkpt lat="43.60863" lon="1.2481">
        <ele>203.6</ele>
        <time>2023-03-25T11:12:18Z</time>
      </trkpt>
      <trkpt lat="43.60863" lon="1.24824">
        <ele>203.6</ele>
        <time>2023-03-25T11:12:20Z</time>
      </trkpt>
      <trkpt lat="43.6086" lon="1.24837">
        <ele>203.4</ele>
        <time>2023-03-25T11:12:22Z</time>
      </trkpt>
      <trkpt lat="43.60859" lon="1.24843">
        <ele>203.4</ele>
        <time>2023-03-25T11:12:23Z</time>
      </trkpt>
      <trkpt lat="43.60859" lon="1.24857">
        <ele>203.2</ele>
        <time>2023-03-25T11:12:25Z</time>
      </trkpt>
      <trkpt lat="43.60859" lon="1.24863">
        <ele>203.2</ele>
        <time>2023-03-25T11:12:26Z</time>
      </trkpt>
      <trkpt lat="43.60861" lon="1.24876">
        <ele>203</ele>
        <time>2023-03-25T11:12:28Z</time>
      </trkpt>
      <trkpt lat="43.60864" lon="1.24895">
        <ele>202.8</ele>
        <time>2023-03-25T11:12:31Z</time>
      </trkpt>
      <trkpt lat="43.60867" lon="1.24914">
        <ele>202.4</ele>
        <time>2023-03-25T11:12:34Z</time>
      </trkpt>
      <trkpt lat="43.6087" lon="1.24972">
        <ele>202.2</ele>
        <time>2023-03-25T11:12:43Z</time>
      </trkpt>
      <trkpt lat="43.60872" lon="1.2499">
        <ele>202.2</ele>
        <time>2023-03-25T11:12:46Z</time>
      </trkpt>
      <trkpt lat="43.60877" lon="1.25008">
        <ele>202.2</ele>
        <time>2023-03-25T11:12:49Z</time>
      </trkpt>
      <trkpt lat="43.60879" lon="1.25014">
        <ele>202.4</ele>
        <time>2023-03-25T11:12:50Z</time>
      </trkpt>
      <trkpt lat="43.60881" lon="1.25025">
        <ele>202.4</ele>
        <time>2023-03-25T11:12:53Z</time>
      </trkpt>
      <trkpt lat="43.60883" lon="1.25051">
        <ele>202.2</ele>
        <time>2023-03-25T11:12:58Z</time>
      </trkpt>
      <trkpt lat="43.60885" lon="1.25058">
        <ele>202</ele>
        <time>2023-03-25T11:12:59Z</time>
      </trkpt>
      <trkpt lat="43.60893" lon="1.25077">
        <ele>201.6</ele>
        <time>2023-03-25T11:13:02Z</time>
      </trkpt>
      <trkpt lat="43.60896" lon="1.25083">
        <ele>201.6</ele>
        <time>2023-03-25T11:13:03Z</time>
      </trkpt>
      <trkpt lat="43.60924" lon="1.25116">
        <ele>201.6</ele>
        <time>2023-03-25T11:13:10Z</time>
      </trkpt>
      <trkpt lat="43.60941" lon="1.25136">
        <ele>201.6</ele>
        <time>2023-03-25T11:13:14Z</time>
      </trkpt>
      <trkpt lat="43.60944" lon="1.2514">
        <ele>201.6</ele>
        <time>2023-03-25T11:13:16Z</time>
      </trkpt>
      <trkpt lat="43.6096" lon="1.25156">
        <ele>201.2</ele>
        <time>2023-03-25T11:13:20Z</time>
      </trkpt>
      <trkpt lat="43.60963" lon="1.25158">
        <ele>201.2</ele>
        <time>2023-03-25T11:13:21Z</time>
      </trkpt>
      <trkpt lat="43.60972" lon="1.25167">
        <ele>201</ele>
        <time>2023-03-25T11:13:24Z</time>
      </trkpt>
      <trkpt lat="43.60978" lon="1.25175">
        <ele>200.8</ele>
        <time>2023-03-25T11:13:26Z</time>
      </trkpt>
      <trkpt lat="43.60995" lon="1.25199">
        <ele>200.6</ele>
        <time>2023-03-25T11:13:31Z</time>
      </trkpt>
      <trkpt lat="43.60997" lon="1.25211">
        <ele>200.4</ele>
        <time>2023-03-25T11:13:33Z</time>
      </trkpt>
      <trkpt lat="43.60997" lon="1.25218">
        <ele>200</ele>
        <time>2023-03-25T11:13:34Z</time>
      </trkpt>
      <trkpt lat="43.60994" lon="1.2525">
        <ele>199</ele>
        <time>2023-03-25T11:13:38Z</time>
      </trkpt>
      <trkpt lat="43.60994" lon="1.2526">
        <ele>198.8</ele>
        <time>2023-03-25T11:13:39Z</time>
      </trkpt>
      <trkpt lat="43.60996" lon="1.25269">
        <ele>198.6</ele>
        <time>2023-03-25T11:13:40Z</time>
      </trkpt>
      <trkpt lat="43.61004" lon="1.25286">
        <ele>198.2</ele>
        <time>2023-03-25T11:13:42Z</time>
      </trkpt>
      <trkpt lat="43.61008" lon="1.25295">
        <ele>197.8</ele>
        <time>2023-03-25T11:13:43Z</time>
      </trkpt>
      <trkpt lat="43.61016" lon="1.25313">
        <ele>197.4</ele>
        <time>2023-03-25T11:13:45Z</time>
      </trkpt>
      <trkpt lat="43.6102" lon="1.25332">
        <ele>197</ele>
        <time>2023-03-25T11:13:47Z</time>
      </trkpt>
      <trkpt lat="43.61021" lon="1.25341">
        <ele>196.4</ele>
        <time>2023-03-25T11:13:48Z</time>
      </trkpt>
      <trkpt lat="43.61025" lon="1.25372">
        <ele>195.4</ele>
        <time>2023-03-25T11:13:52Z</time>
      </trkpt>
      <trkpt lat="43.61026" lon="1.25378">
        <ele>195</ele>
        <time>2023-03-25T11:13:53Z</time>
      </trkpt>
      <trkpt lat="43.61031" lon="1.25387">
        <ele>194.8</ele>
        <time>2023-03-25T11:13:55Z</time>
      </trkpt>
      <trkpt lat="43.61034" lon="1.25391">
        <ele>194.6</ele>
        <time>2023-03-25T11:13:56Z</time>
      </trkpt>
      <trkpt lat="43.61047" lon="1.25404">
        <ele>194.2</ele>
        <time>2023-03-25T11:13:59Z</time>
      </trkpt>
      <trkpt lat="43.61051" lon="1.25408">
        <ele>194</ele>
        <time>2023-03-25T11:14:00Z</time>
      </trkpt>
      <trkpt lat="43.61052" lon="1.25413">
        <ele>194.2</ele>
        <time>2023-03-25T11:14:01Z</time>
      </trkpt>
      <trkpt lat="43.61053" lon="1.25419">
        <ele>194</ele>
        <time>2023-03-25T11:14:02Z</time>
      </trkpt>
      <trkpt lat="43.61049" lon="1.25429">
        <ele>193.6</ele>
        <time>2023-03-25T11:14:04Z</time>
      </trkpt>
      <trkpt lat="43.61042" lon="1.25441">
        <ele>193.2</ele>
        <time>2023-03-25T11:14:06Z</time>
      </trkpt>
      <trkpt lat="43.61034" lon="1.25458">
        <ele>192.8</ele>
        <time>2023-03-25T11:14:08Z</time>
      </trkpt>
      <trkpt lat="43.61025" lon="1.25476">
        <ele>192</ele>
        <time>2023-03-25T11:14:10Z</time>
      </trkpt>
      <trkpt lat="43.61014" lon="1.25499">
        <ele>190.6</ele>
        <time>2023-03-25T11:14:12Z</time>
      </trkpt>
      <trkpt lat="43.61003" lon="1.25522">
        <ele>188.8</ele>
        <time>2023-03-25T11:14:14Z</time>
      </trkpt>
      <trkpt lat="43.60995" lon="1.25543">
        <ele>187</ele>
        <time>2023-03-25T11:14:16Z</time>
      </trkpt>
      <trkpt lat="43.60988" lon="1.25562">
        <ele>185.8</ele>
        <time>2023-03-25T11:14:18Z</time>
      </trkpt>
      <trkpt lat="43.60978" lon="1.25588">
        <ele>184.8</ele>
        <time>2023-03-25T11:14:21Z</time>
      </trkpt>
      <trkpt lat="43.60973" lon="1.25604">
        <ele>184.4</ele>
        <time>2023-03-25T11:14:23Z</time>
      </trkpt>
      <trkpt lat="43.60965" lon="1.25631">
        <ele>184.2</ele>
        <time>2023-03-25T11:14:27Z</time>
      </trkpt>
      <trkpt lat="43.60964" lon="1.25636">
        <ele>184.2</ele>
        <time>2023-03-25T11:14:28Z</time>
      </trkpt>
      <trkpt lat="43.6096" lon="1.25651">
        <ele>185.4</ele>
        <time>2023-03-25T11:14:32Z</time>
      </trkpt>
      <trkpt lat="43.60957" lon="1.25661">
        <ele>185.8</ele>
        <time>2023-03-25T11:14:35Z</time>
      </trkpt>
      <trkpt lat="43.60954" lon="1.25672">
        <ele>187</ele>
        <time>2023-03-25T11:14:38Z</time>
      </trkpt>
      <trkpt lat="43.60952" lon="1.25682">
        <ele>188.4</ele>
        <time>2023-03-25T11:14:41Z</time>
      </trkpt>
      <trkpt lat="43.60951" lon="1.25692">
        <ele>189.6</ele>
        <time>2023-03-25T11:14:44Z</time>
      </trkpt>
      <trkpt lat="43.6095" lon="1.25695">
        <ele>190</ele>
        <time>2023-03-25T11:14:45Z</time>
      </trkpt>
      <trkpt lat="43.6095" lon="1.25701">
        <ele>190.8</ele>
        <time>2023-03-25T11:14:47Z</time>
      </trkpt>
      <trkpt lat="43.60949" lon="1.25712">
        <ele>192.2</ele>
        <time>2023-03-25T11:14:51Z</time>
      </trkpt>
      <trkpt lat="43.60948" lon="1.25719">
        <ele>193.4</ele>
        <time>2023-03-25T11:14:54Z</time>
      </trkpt>
      <trkpt lat="43.60947" lon="1.25729">
        <ele>194.8</ele>
        <time>2023-03-25T11:14:58Z</time>
      </trkpt>
      <trkpt lat="43.60946" lon="1.25731">
        <ele>195</ele>
        <time>2023-03-25T11:14:59Z</time>
      </trkpt>
      <trkpt lat="43.60945" lon="1.25735">
        <ele>196.2</ele>
        <time>2023-03-25T11:15:01Z</time>
      </trkpt>
      <trkpt lat="43.60943" lon="1.2574">
        <ele>197.2</ele>
        <time>2023-03-25T11:15:04Z</time>
      </trkpt>
      <trkpt lat="43.60942" lon="1.25743">
        <ele>197.6</ele>
        <time>2023-03-25T11:15:06Z</time>
      </trkpt>
      <trkpt lat="43.6094" lon="1.25747">
        <ele>198</ele>
        <time>2023-03-25T11:15:08Z</time>
      </trkpt>
      <trkpt lat="43.6094" lon="1.25748">
        <ele>198.6</ele>
        <time>2023-03-25T11:15:09Z</time>
      </trkpt>
      <trkpt lat="43.60937" lon="1.25755">
        <ele>199.6</ele>
        <time>2023-03-25T11:15:13Z</time>
      </trkpt>
      <trkpt lat="43.60937" lon="1.25758">
        <ele>200.4</ele>
        <time>2023-03-25T11:15:15Z</time>
      </trkpt>
      <trkpt lat="43.60937" lon="1.2576">
        <ele>200.8</ele>
        <time>2023-03-25T11:15:16Z</time>
      </trkpt>
      <trkpt lat="43.60938" lon="1.25764">
        <ele>201.2</ele>
        <time>2023-03-25T11:15:18Z</time>
      </trkpt>
      <trkpt lat="43.60938" lon="1.25765">
        <ele>201.2</ele>
        <time>2023-03-25T11:15:19Z</time>
      </trkpt>
      <trkpt lat="43.6094" lon="1.25768">
        <ele>201.8</ele>
        <time>2023-03-25T11:15:21Z</time>
      </trkpt>
      <trkpt lat="43.60948" lon="1.25772">
        <ele>202.2</ele>
        <time>2023-03-25T11:15:25Z</time>
      </trkpt>
      <trkpt lat="43.60959" lon="1.25776">
        <ele>203</ele>
        <time>2023-03-25T11:15:30Z</time>
      </trkpt>
      <trkpt lat="43.60967" lon="1.25779">
        <ele>203.4</ele>
        <time>2023-03-25T11:15:33Z</time>
      </trkpt>
      <trkpt lat="43.60989" lon="1.25794">
        <ele>203.8</ele>
        <time>2023-03-25T11:15:41Z</time>
      </trkpt>
      <trkpt lat="43.6099" lon="1.25797">
        <ele>203.8</ele>
        <time>2023-03-25T11:15:42Z</time>
      </trkpt>
      <trkpt lat="43.60991" lon="1.25807">
        <ele>203.8</ele>
        <time>2023-03-25T11:15:45Z</time>
      </trkpt>
      <trkpt lat="43.60989" lon="1.25834">
        <ele>204</ele>
        <time>2023-03-25T11:15:52Z</time>
      </trkpt>
      <trkpt lat="43.60992" lon="1.25848">
        <ele>204.2</ele>
        <time>2023-03-25T11:15:56Z</time>
      </trkpt>
      <trkpt lat="43.60994" lon="1.25857">
        <ele>204.4</ele>
        <time>2023-03-25T11:15:59Z</time>
      </trkpt>
      <trkpt lat="43.60994" lon="1.25862">
        <ele>204.8</ele>
        <time>2023-03-25T11:16:01Z</time>
      </trkpt>
      <trkpt lat="43.60994" lon="1.25864">
        <ele>204.8</ele>
        <time>2023-03-25T11:16:03Z</time>
      </trkpt>
      <trkpt lat="43.60992" lon="1.25865">
        <ele>204.8</ele>
        <time>2023-03-25T11:16:05Z</time>
      </trkpt>
      <trkpt lat="43.60985" lon="1.25867">
        <ele>205</ele>
        <time>2023-03-25T11:16:08Z</time>
      </trkpt>
      <trkpt lat="43.60962" lon="1.25874">
        <ele>205</ele>
        <time>2023-03-25T11:16:15Z</time>
      </trkpt>
      <trkpt lat="43.6095" lon="1.2588">
        <ele>205.2</ele>
        <time>2023-03-25T11:16:18Z</time>
      </trkpt>
      <trkpt lat="43.60946" lon="1.2589">
        <ele>205.2</ele>
        <time>2023-03-25T11:16:20Z</time>
      </trkpt>
      <trkpt lat="43.60946" lon="1.25896">
        <ele>205.2</ele>
        <time>2023-03-25T11:16:21Z</time>
      </trkpt>
      <trkpt lat="43.60946" lon="1.25925">
        <ele>205.4</ele>
        <time>2023-03-25T11:16:25Z</time>
      </trkpt>
      <trkpt lat="43.60946" lon="1.2594">
        <ele>205.8</ele>
        <time>2023-03-25T11:16:27Z</time>
      </trkpt>
      <trkpt lat="43.60945" lon="1.25963">
        <ele>206</ele>
        <time>2023-03-25T11:16:30Z</time>
      </trkpt>
      <trkpt lat="43.60944" lon="1.25969">
        <ele>206</ele>
        <time>2023-03-25T11:16:31Z</time>
      </trkpt>
      <trkpt lat="43.60942" lon="1.25977">
        <ele>206</ele>
        <time>2023-03-25T11:16:32Z</time>
      </trkpt>
      <trkpt lat="43.60932" lon="1.26">
        <ele>206.2</ele>
        <time>2023-03-25T11:16:35Z</time>
      </trkpt>
      <trkpt lat="43.60902" lon="1.26054">
        <ele>205.8</ele>
        <time>2023-03-25T11:16:43Z</time>
      </trkpt>
      <trkpt lat="43.60867" lon="1.26112">
        <ele>205.4</ele>
        <time>2023-03-25T11:16:52Z</time>
      </trkpt>
      <trkpt lat="43.6086" lon="1.26124">
        <ele>205.2</ele>
        <time>2023-03-25T11:16:54Z</time>
      </trkpt>
      <trkpt lat="43.60827" lon="1.26177">
        <ele>205</ele>
        <time>2023-03-25T11:17:03Z</time>
      </trkpt>
      <trkpt lat="43.60793" lon="1.26233">
        <ele>205</ele>
        <time>2023-03-25T11:17:12Z</time>
      </trkpt>
      <trkpt lat="43.60772" lon="1.26265">
        <ele>204.4</ele>
        <time>2023-03-25T11:17:19Z</time>
      </trkpt>
      <trkpt lat="43.60769" lon="1.26266">
        <ele>204.4</ele>
        <time>2023-03-25T11:17:20Z</time>
      </trkpt>
      <trkpt lat="43.60766" lon="1.26265">
        <ele>204.4</ele>
        <time>2023-03-25T11:17:21Z</time>
      </trkpt>
      <trkpt lat="43.60763" lon="1.26261">
        <ele>204.4</ele>
        <time>2023-03-25T11:17:22Z</time>
      </trkpt>
      <trkpt lat="43.60745" lon="1.26237">
        <ele>204.4</ele>
        <time>2023-03-25T11:17:27Z</time>
      </trkpt>
      <trkpt lat="43.60716" lon="1.26196">
        <ele>204.6</ele>
        <time>2023-03-25T11:17:34Z</time>
      </trkpt>
      <trkpt lat="43.60682" lon="1.2615">
        <ele>205.2</ele>
        <time>2023-03-25T11:17:42Z</time>
      </trkpt>
      <trkpt lat="43.60674" lon="1.26151">
        <ele>205.2</ele>
        <time>2023-03-25T11:17:44Z</time>
      </trkpt>
      <trkpt lat="43.60672" lon="1.26161">
        <ele>205.2</ele>
        <time>2023-03-25T11:17:46Z</time>
      </trkpt>
      <trkpt lat="43.60673" lon="1.26169">
        <ele>205.2</ele>
        <time>2023-03-25T11:17:47Z</time>
      </trkpt>
      <trkpt lat="43.60689" lon="1.26219">
        <ele>205.2</ele>
        <time>2023-03-25T11:17:53Z</time>
      </trkpt>
      <trkpt lat="43.60711" lon="1.26285">
        <ele>205.2</ele>
        <time>2023-03-25T11:18:00Z</time>
      </trkpt>
      <trkpt lat="43.6073" lon="1.26353">
        <ele>204.8</ele>
        <time>2023-03-25T11:18:07Z</time>
      </trkpt>
      <trkpt lat="43.60744" lon="1.26431">
        <ele>205</ele>
        <time>2023-03-25T11:18:14Z</time>
      </trkpt>
      <trkpt lat="43.60747" lon="1.26442">
        <ele>205</ele>
        <time>2023-03-25T11:18:15Z</time>
      </trkpt>
      <trkpt lat="43.60761" lon="1.26514">
        <ele>204</ele>
        <time>2023-03-25T11:18:21Z</time>
      </trkpt>
      <trkpt lat="43.60764" lon="1.26528">
        <ele>204</ele>
        <time>2023-03-25T11:18:22Z</time>
      </trkpt>
      <trkpt lat="43.60775" lon="1.26586">
        <ele>203.6</ele>
        <time>2023-03-25T11:18:27Z</time>
      </trkpt>
      <trkpt lat="43.60781" lon="1.26616">
        <ele>203.6</ele>
        <time>2023-03-25T11:18:30Z</time>
      </trkpt>
      <trkpt lat="43.60796" lon="1.26692">
        <ele>204</ele>
        <time>2023-03-25T11:18:37Z</time>
      </trkpt>
      <trkpt lat="43.60812" lon="1.26771">
        <ele>203.4</ele>
        <time>2023-03-25T11:18:45Z</time>
      </trkpt>
      <trkpt lat="43.60819" lon="1.26802">
        <ele>203</ele>
        <time>2023-03-25T11:18:50Z</time>
      </trkpt>
      <trkpt lat="43.60819" lon="1.26809">
        <ele>203</ele>
        <time>2023-03-25T11:18:54Z</time>
      </trkpt>
      <trkpt lat="43.60824" lon="1.2683">
        <ele>202.8</ele>
        <time>2023-03-25T11:18:59Z</time>
      </trkpt>
      <trkpt lat="43.60833" lon="1.26869">
        <ele>202.8</ele>
        <time>2023-03-25T11:19:04Z</time>
      </trkpt>
      <trkpt lat="43.60839" lon="1.26894">
        <ele>202.6</ele>
        <time>2023-03-25T11:19:07Z</time>
      </trkpt>
      <trkpt lat="43.6084" lon="1.2691">
        <ele>202.6</ele>
        <time>2023-03-25T11:19:09Z</time>
      </trkpt>
      <trkpt lat="43.6084" lon="1.26919">
        <ele>202.6</ele>
        <time>2023-03-25T11:19:10Z</time>
      </trkpt>
      <trkpt lat="43.60845" lon="1.26932">
        <ele>202.4</ele>
        <time>2023-03-25T11:19:12Z</time>
      </trkpt>
      <trkpt lat="43.60849" lon="1.26938">
        <ele>202.4</ele>
        <time>2023-03-25T11:19:13Z</time>
      </trkpt>
      <trkpt lat="43.60851" lon="1.26945">
        <ele>202.4</ele>
        <time>2023-03-25T11:19:14Z</time>
      </trkpt>
      <trkpt lat="43.60854" lon="1.26962">
        <ele>202.2</ele>
        <time>2023-03-25T11:19:16Z</time>
      </trkpt>
      <trkpt lat="43.60855" lon="1.2697">
        <ele>202</ele>
        <time>2023-03-25T11:19:17Z</time>
      </trkpt>
      <trkpt lat="43.60864" lon="1.27005">
        <ele>201.8</ele>
        <time>2023-03-25T11:19:21Z</time>
      </trkpt>
      <trkpt lat="43.60886" lon="1.27077">
        <ele>202.4</ele>
        <time>2023-03-25T11:19:29Z</time>
      </trkpt>
      <trkpt lat="43.60909" lon="1.27149">
        <ele>203</ele>
        <time>2023-03-25T11:19:37Z</time>
      </trkpt>
      <trkpt lat="43.60918" lon="1.27175">
        <ele>203</ele>
        <time>2023-03-25T11:19:40Z</time>
      </trkpt>
      <trkpt lat="43.60927" lon="1.27199">
        <ele>203</ele>
        <time>2023-03-25T11:19:43Z</time>
      </trkpt>
      <trkpt lat="43.60935" lon="1.2721">
        <ele>203</ele>
        <time>2023-03-25T11:19:45Z</time>
      </trkpt>
      <trkpt lat="43.60945" lon="1.27215">
        <ele>203</ele>
        <time>2023-03-25T11:19:47Z</time>
      </trkpt>
      <trkpt lat="43.6095" lon="1.27217">
        <ele>203</ele>
        <time>2023-03-25T11:19:48Z</time>
      </trkpt>
      <trkpt lat="43.60956" lon="1.27218">
        <ele>203</ele>
        <time>2023-03-25T11:19:49Z</time>
      </trkpt>
      <trkpt lat="43.60987" lon="1.27231">
        <ele>202.6</ele>
        <time>2023-03-25T11:19:54Z</time>
      </trkpt>
      <trkpt lat="43.61035" lon="1.2725">
        <ele>202.2</ele>
        <time>2023-03-25T11:20:01Z</time>
      </trkpt>
      <trkpt lat="43.61075" lon="1.27282">
        <ele>201.8</ele>
        <time>2023-03-25T11:20:07Z</time>
      </trkpt>
      <trkpt lat="43.61081" lon="1.27288">
        <ele>201.6</ele>
        <time>2023-03-25T11:20:08Z</time>
      </trkpt>
      <trkpt lat="43.61131" lon="1.27334">
        <ele>201</ele>
        <time>2023-03-25T11:20:16Z</time>
      </trkpt>
      <trkpt lat="43.61143" lon="1.27345">
        <ele>201</ele>
        <time>2023-03-25T11:20:18Z</time>
      </trkpt>
      <trkpt lat="43.6119" lon="1.27389">
        <ele>201.4</ele>
        <time>2023-03-25T11:20:26Z</time>
      </trkpt>
      <trkpt lat="43.61235" lon="1.27422">
        <ele>202</ele>
        <time>2023-03-25T11:20:33Z</time>
      </trkpt>
      <trkpt lat="43.61285" lon="1.2744">
        <ele>202.4</ele>
        <time>2023-03-25T11:20:40Z</time>
      </trkpt>
      <trkpt lat="43.61342" lon="1.27459">
        <ele>202.2</ele>
        <time>2023-03-25T11:20:48Z</time>
      </trkpt>
      <trkpt lat="43.61356" lon="1.27464">
        <ele>202.2</ele>
        <time>2023-03-25T11:20:50Z</time>
      </trkpt>
      <trkpt lat="43.61413" lon="1.27483">
        <ele>201.8</ele>
        <time>2023-03-25T11:20:58Z</time>
      </trkpt>
      <trkpt lat="43.61426" lon="1.27487">
        <ele>201.6</ele>
        <time>2023-03-25T11:21:00Z</time>
      </trkpt>
      <trkpt lat="43.61464" lon="1.27499">
        <ele>201.6</ele>
        <time>2023-03-25T11:21:06Z</time>
      </trkpt>
      <trkpt lat="43.61486" lon="1.27507">
        <ele>201.8</ele>
        <time>2023-03-25T11:21:10Z</time>
      </trkpt>
      <trkpt lat="43.6149" lon="1.2751">
        <ele>201.8</ele>
        <time>2023-03-25T11:21:11Z</time>
      </trkpt>
      <trkpt lat="43.61494" lon="1.27513">
        <ele>201.8</ele>
        <time>2023-03-25T11:21:12Z</time>
      </trkpt>
      <trkpt lat="43.61504" lon="1.27513">
        <ele>201.8</ele>
        <time>2023-03-25T11:21:14Z</time>
      </trkpt>
      <trkpt lat="43.61513" lon="1.27505">
        <ele>201.8</ele>
        <time>2023-03-25T11:21:16Z</time>
      </trkpt>
      <trkpt lat="43.61519" lon="1.27502">
        <ele>201.8</ele>
        <time>2023-03-25T11:21:17Z</time>
      </trkpt>
      <trkpt lat="43.61554" lon="1.27497">
        <ele>201.8</ele>
        <time>2023-03-25T11:21:23Z</time>
      </trkpt>
      <trkpt lat="43.61609" lon="1.27491">
        <ele>202.4</ele>
        <time>2023-03-25T11:21:32Z</time>
      </trkpt>
      <trkpt lat="43.61615" lon="1.2749">
        <ele>202.4</ele>
        <time>2023-03-25T11:21:33Z</time>
      </trkpt>
      <trkpt lat="43.61673" lon="1.27484">
        <ele>202.8</ele>
        <time>2023-03-25T11:21:42Z</time>
      </trkpt>
      <trkpt lat="43.61703" lon="1.27481">
        <ele>203</ele>
        <time>2023-03-25T11:21:47Z</time>
      </trkpt>
      <trkpt lat="43.61708" lon="1.27482">
        <ele>202.8</ele>
        <time>2023-03-25T11:21:48Z</time>
      </trkpt>
      <trkpt lat="43.61712" lon="1.27485">
        <ele>202.8</ele>
        <time>2023-03-25T11:21:49Z</time>
      </trkpt>
      <trkpt lat="43.61716" lon="1.27496">
        <ele>202.8</ele>
        <time>2023-03-25T11:21:51Z</time>
      </trkpt>
      <trkpt lat="43.61715" lon="1.27525">
        <ele>202.2</ele>
        <time>2023-03-25T11:21:55Z</time>
      </trkpt>
      <trkpt lat="43.61713" lon="1.27554">
        <ele>201.8</ele>
        <time>2023-03-25T11:21:59Z</time>
      </trkpt>
      <trkpt lat="43.61717" lon="1.27559">
        <ele>201.8</ele>
        <time>2023-03-25T11:22:01Z</time>
      </trkpt>
      <trkpt lat="43.6172" lon="1.27553">
        <ele>201.6</ele>
        <time>2023-03-25T11:22:03Z</time>
      </trkpt>
      <trkpt lat="43.61722" lon="1.27519">
        <ele>201.2</ele>
        <time>2023-03-25T11:22:09Z</time>
      </trkpt>
      <trkpt lat="43.61722" lon="1.27513">
        <ele>201.2</ele>
        <time>2023-03-25T11:22:10Z</time>
      </trkpt>
      <trkpt lat="43.61725" lon="1.27464">
        <ele>201.6</ele>
        <time>2023-03-25T11:22:17Z</time>
      </trkpt>
      <trkpt lat="43.61726" lon="1.27449">
        <ele>201.8</ele>
        <time>2023-03-25T11:22:19Z</time>
      </trkpt>
      <trkpt lat="43.61726" lon="1.2743">
        <ele>201.6</ele>
        <time>2023-03-25T11:22:22Z</time>
      </trkpt>
      <trkpt lat="43.61724" lon="1.27402">
        <ele>201.4</ele>
        <time>2023-03-25T11:22:27Z</time>
      </trkpt>
      <trkpt lat="43.61723" lon="1.27399">
        <ele>201</ele>
        <time>2023-03-25T11:22:29Z</time>
      </trkpt>
      <trkpt lat="43.61723" lon="1.27399">
        <ele>201</ele>
        <time>2023-03-25T11:22:30Z</time>
      </trkpt>
      <trkpt lat="43.61724" lon="1.27404">
        <ele>200.2</ele>
        <time>2023-03-25T11:22:33Z</time>
      </trkpt>
      <trkpt lat="43.61724" lon="1.2741">
        <ele>200.2</ele>
        <time>2023-03-25T11:22:35Z</time>
      </trkpt>
      <trkpt lat="43.61725" lon="1.27416">
        <ele>200</ele>
        <time>2023-03-25T11:22:37Z</time>
      </trkpt>
      <trkpt lat="43.61729" lon="1.27419">
        <ele>200.2</ele>
        <time>2023-03-25T11:22:39Z</time>
      </trkpt>
      <trkpt lat="43.61745" lon="1.2742">
        <ele>200.4</ele>
        <time>2023-03-25T11:22:43Z</time>
      </trkpt>
      <trkpt lat="43.61756" lon="1.27421">
        <ele>200.4</ele>
        <time>2023-03-25T11:22:45Z</time>
      </trkpt>
      <trkpt lat="43.61771" lon="1.27422">
        <ele>200.4</ele>
        <time>2023-03-25T11:22:48Z</time>
      </trkpt>
      <trkpt lat="43.61808" lon="1.27426">
        <ele>200.6</ele>
        <time>2023-03-25T11:22:55Z</time>
      </trkpt>
      <trkpt lat="43.61834" lon="1.27428">
        <ele>199.6</ele>
        <time>2023-03-25T11:22:59Z</time>
      </trkpt>
      <trkpt lat="43.61848" lon="1.27429">
        <ele>198.8</ele>
        <time>2023-03-25T11:23:01Z</time>
      </trkpt>
      <trkpt lat="43.61855" lon="1.27429">
        <ele>198</ele>
        <time>2023-03-25T11:23:02Z</time>
      </trkpt>
      <trkpt lat="43.61867" lon="1.27429">
        <ele>196.8</ele>
        <time>2023-03-25T11:23:04Z</time>
      </trkpt>
      <trkpt lat="43.61876" lon="1.27431">
        <ele>194.8</ele>
        <time>2023-03-25T11:23:06Z</time>
      </trkpt>
      <trkpt lat="43.61881" lon="1.27431">
        <ele>193.8</ele>
        <time>2023-03-25T11:23:07Z</time>
      </trkpt>
      <trkpt lat="43.61886" lon="1.27431">
        <ele>192.4</ele>
        <time>2023-03-25T11:23:08Z</time>
      </trkpt>
      <trkpt lat="43.61897" lon="1.27432">
        <ele>190.4</ele>
        <time>2023-03-25T11:23:10Z</time>
      </trkpt>
      <trkpt lat="43.61902" lon="1.27431">
        <ele>189.6</ele>
        <time>2023-03-25T11:23:11Z</time>
      </trkpt>
      <trkpt lat="43.61908" lon="1.27432">
        <ele>188.6</ele>
        <time>2023-03-25T11:23:12Z</time>
      </trkpt>
      <trkpt lat="43.61913" lon="1.27434">
        <ele>187.6</ele>
        <time>2023-03-25T11:23:13Z</time>
      </trkpt>
      <trkpt lat="43.61918" lon="1.27434">
        <ele>187.2</ele>
        <time>2023-03-25T11:23:14Z</time>
      </trkpt>
      <trkpt lat="43.61923" lon="1.27434">
        <ele>186.8</ele>
        <time>2023-03-25T11:23:15Z</time>
      </trkpt>
      <trkpt lat="43.61928" lon="1.27434">
        <ele>186.6</ele>
        <time>2023-03-25T11:23:16Z</time>
      </trkpt>
      <trkpt lat="43.61931" lon="1.27434">
        <ele>186.4</ele>
        <time>2023-03-25T11:23:17Z</time>
      </trkpt>
      <trkpt lat="43.61936" lon="1.27436">
        <ele>185</ele>
        <time>2023-03-25T11:23:19Z</time>
      </trkpt>
      <trkpt lat="43.61937" lon="1.27437">
        <ele>184</ele>
        <time>2023-03-25T11:23:20Z</time>
      </trkpt>
      <trkpt lat="43.61938" lon="1.27439">
        <ele>183.8</ele>
        <time>2023-03-25T11:23:21Z</time>
      </trkpt>
      <trkpt lat="43.61939" lon="1.27442">
        <ele>183</ele>
        <time>2023-03-25T11:23:22Z</time>
      </trkpt>
      <trkpt lat="43.61939" lon="1.27447">
        <ele>182.8</ele>
        <time>2023-03-25T11:23:23Z</time>
      </trkpt>
      <trkpt lat="43.61939" lon="1.27452">
        <ele>182.6</ele>
        <time>2023-03-25T11:23:24Z</time>
      </trkpt>
      <trkpt lat="43.61942" lon="1.27471">
        <ele>182.2</ele>
        <time>2023-03-25T11:23:27Z</time>
      </trkpt>
      <trkpt lat="43.61947" lon="1.2752">
        <ele>181.8</ele>
        <time>2023-03-25T11:23:33Z</time>
      </trkpt>
      <trkpt lat="43.61955" lon="1.27579">
        <ele>181.8</ele>
        <time>2023-03-25T11:23:39Z</time>
      </trkpt>
      <trkpt lat="43.61959" lon="1.27608">
        <ele>181.6</ele>
        <time>2023-03-25T11:23:42Z</time>
      </trkpt>
      <trkpt lat="43.6196" lon="1.27618">
        <ele>181.6</ele>
        <time>2023-03-25T11:23:43Z</time>
      </trkpt>
      <trkpt lat="43.61965" lon="1.27659">
        <ele>181.2</ele>
        <time>2023-03-25T11:23:47Z</time>
      </trkpt>
      <trkpt lat="43.61969" lon="1.27684">
        <ele>180.8</ele>
        <time>2023-03-25T11:23:50Z</time>
      </trkpt>
      <trkpt lat="43.61971" lon="1.2769">
        <ele>180.8</ele>
        <time>2023-03-25T11:23:51Z</time>
      </trkpt>
      <trkpt lat="43.61974" lon="1.27692">
        <ele>180.6</ele>
        <time>2023-03-25T11:23:52Z</time>
      </trkpt>
      <trkpt lat="43.61976" lon="1.27692">
        <ele>180.4</ele>
        <time>2023-03-25T11:23:53Z</time>
      </trkpt>
      <trkpt lat="43.61984" lon="1.27676">
        <ele>180</ele>
        <time>2023-03-25T11:23:57Z</time>
      </trkpt>
      <trkpt lat="43.61992" lon="1.27676">
        <ele>179.8</ele>
        <time>2023-03-25T11:23:59Z</time>
      </trkpt>
      <trkpt lat="43.61995" lon="1.27679">
        <ele>179.8</ele>
        <time>2023-03-25T11:24:00Z</time>
      </trkpt>
      <trkpt lat="43.61997" lon="1.27686">
        <ele>179.6</ele>
        <time>2023-03-25T11:24:01Z</time>
      </trkpt>
      <trkpt lat="43.61999" lon="1.27703">
        <ele>179.2</ele>
        <time>2023-03-25T11:24:03Z</time>
      </trkpt>
      <trkpt lat="43.61995" lon="1.27753">
        <ele>178.4</ele>
        <time>2023-03-25T11:24:08Z</time>
      </trkpt>
      <trkpt lat="43.61993" lon="1.27776">
        <ele>178.2</ele>
        <time>2023-03-25T11:24:10Z</time>
      </trkpt>
      <trkpt lat="43.61994" lon="1.27798">
        <ele>178.2</ele>
        <time>2023-03-25T11:24:12Z</time>
      </trkpt>
      <trkpt lat="43.62003" lon="1.27866">
        <ele>178.8</ele>
        <time>2023-03-25T11:24:18Z</time>
      </trkpt>
      <trkpt lat="43.62013" lon="1.27941">
        <ele>178.8</ele>
        <time>2023-03-25T11:24:25Z</time>
      </trkpt>
      <trkpt lat="43.62016" lon="1.27961">
        <ele>178.4</ele>
        <time>2023-03-25T11:24:27Z</time>
      </trkpt>
      <trkpt lat="43.62025" lon="1.28044">
        <ele>177.6</ele>
        <time>2023-03-25T11:24:35Z</time>
      </trkpt>
      <trkpt lat="43.62027" lon="1.28063">
        <ele>177.4</ele>
        <time>2023-03-25T11:24:37Z</time>
      </trkpt>
      <trkpt lat="43.62032" lon="1.28097">
        <ele>177</ele>
        <time>2023-03-25T11:24:41Z</time>
      </trkpt>
      <trkpt lat="43.62037" lon="1.28107">
        <ele>177</ele>
        <time>2023-03-25T11:24:43Z</time>
      </trkpt>
      <trkpt lat="43.62042" lon="1.2811">
        <ele>177</ele>
        <time>2023-03-25T11:24:44Z</time>
      </trkpt>
      <trkpt lat="43.62049" lon="1.2811">
        <ele>177</ele>
        <time>2023-03-25T11:24:45Z</time>
      </trkpt>
      <trkpt lat="43.62063" lon="1.28109">
        <ele>176.6</ele>
        <time>2023-03-25T11:24:47Z</time>
      </trkpt>
      <trkpt lat="43.62094" lon="1.28104">
        <ele>176</ele>
        <time>2023-03-25T11:24:51Z</time>
      </trkpt>
      <trkpt lat="43.6211" lon="1.28097">
        <ele>175.6</ele>
        <time>2023-03-25T11:24:53Z</time>
      </trkpt>
      <trkpt lat="43.62117" lon="1.28094">
        <ele>175.2</ele>
        <time>2023-03-25T11:24:54Z</time>
      </trkpt>
      <trkpt lat="43.62133" lon="1.28091">
        <ele>174.8</ele>
        <time>2023-03-25T11:24:56Z</time>
      </trkpt>
      <trkpt lat="43.62142" lon="1.2809">
        <ele>174.4</ele>
        <time>2023-03-25T11:24:57Z</time>
      </trkpt>
      <trkpt lat="43.62176" lon="1.28088">
        <ele>173.6</ele>
        <time>2023-03-25T11:25:01Z</time>
      </trkpt>
      <trkpt lat="43.62184" lon="1.28089">
        <ele>173.6</ele>
        <time>2023-03-25T11:25:02Z</time>
      </trkpt>
      <trkpt lat="43.62192" lon="1.28091">
        <ele>173.4</ele>
        <time>2023-03-25T11:25:03Z</time>
      </trkpt>
      <trkpt lat="43.62202" lon="1.28097">
        <ele>173.2</ele>
        <time>2023-03-25T11:25:05Z</time>
      </trkpt>
      <trkpt lat="43.62212" lon="1.28101">
        <ele>173.2</ele>
        <time>2023-03-25T11:25:07Z</time>
      </trkpt>
      <trkpt lat="43.62222" lon="1.28104">
        <ele>173.2</ele>
        <time>2023-03-25T11:25:09Z</time>
      </trkpt>
      <trkpt lat="43.62224" lon="1.2811">
        <ele>173.2</ele>
        <time>2023-03-25T11:25:11Z</time>
      </trkpt>
      <trkpt lat="43.62218" lon="1.28113">
        <ele>173</ele>
        <time>2023-03-25T11:25:14Z</time>
      </trkpt>
      <trkpt lat="43.62209" lon="1.28113">
        <ele>172.4</ele>
        <time>2023-03-25T11:25:17Z</time>
      </trkpt>
      <trkpt lat="43.62203" lon="1.28115">
        <ele>172</ele>
        <time>2023-03-25T11:25:19Z</time>
      </trkpt>
      <trkpt lat="43.62182" lon="1.28115">
        <ele>171.6</ele>
        <time>2023-03-25T11:25:24Z</time>
      </trkpt>
      <trkpt lat="43.62178" lon="1.28117">
        <ele>171.4</ele>
        <time>2023-03-25T11:25:25Z</time>
      </trkpt>
      <trkpt lat="43.62174" lon="1.28122">
        <ele>171.4</ele>
        <time>2023-03-25T11:25:26Z</time>
      </trkpt>
      <trkpt lat="43.6217" lon="1.28127">
        <ele>171.4</ele>
        <time>2023-03-25T11:25:27Z</time>
      </trkpt>
      <trkpt lat="43.62156" lon="1.28156">
        <ele>171.8</ele>
        <time>2023-03-25T11:25:32Z</time>
      </trkpt>
      <trkpt lat="43.62154" lon="1.28169">
        <ele>171.8</ele>
        <time>2023-03-25T11:25:34Z</time>
      </trkpt>
      <trkpt lat="43.62146" lon="1.28187">
        <ele>171.6</ele>
        <time>2023-03-25T11:25:37Z</time>
      </trkpt>
      <trkpt lat="43.62147" lon="1.28209">
        <ele>172</ele>
        <time>2023-03-25T11:25:42Z</time>
      </trkpt>
      <trkpt lat="43.6214" lon="1.2824">
        <ele>171.6</ele>
        <time>2023-03-25T11:25:47Z</time>
      </trkpt>
      <trkpt lat="43.62136" lon="1.28271">
        <ele>171.4</ele>
        <time>2023-03-25T11:25:51Z</time>
      </trkpt>
      <trkpt lat="43.62134" lon="1.28277">
        <ele>171.2</ele>
        <time>2023-03-25T11:25:52Z</time>
      </trkpt>
      <trkpt lat="43.62133" lon="1.28284">
        <ele>171.2</ele>
        <time>2023-03-25T11:25:53Z</time>
      </trkpt>
      <trkpt lat="43.62131" lon="1.28303">
        <ele>171</ele>
        <time>2023-03-25T11:25:56Z</time>
      </trkpt>
      <trkpt lat="43.62133" lon="1.28315">
        <ele>171</ele>
        <time>2023-03-25T11:25:58Z</time>
      </trkpt>
      <trkpt lat="43.62136" lon="1.2832">
        <ele>171</ele>
        <time>2023-03-25T11:25:59Z</time>
      </trkpt>
      <trkpt lat="43.62142" lon="1.28331">
        <ele>171</ele>
        <time>2023-03-25T11:26:01Z</time>
      </trkpt>
      <trkpt lat="43.62146" lon="1.28344">
        <ele>171</ele>
        <time>2023-03-25T11:26:03Z</time>
      </trkpt>
      <trkpt lat="43.62148" lon="1.2835">
        <ele>171</ele>
        <time>2023-03-25T11:26:04Z</time>
      </trkpt>
      <trkpt lat="43.62145" lon="1.28359">
        <ele>171</ele>
        <time>2023-03-25T11:26:06Z</time>
      </trkpt>
      <trkpt lat="43.62138" lon="1.28373">
        <ele>171</ele>
        <time>2023-03-25T11:26:10Z</time>
      </trkpt>
      <trkpt lat="43.62129" lon="1.28393">
        <ele>171.4</ele>
        <time>2023-03-25T11:26:15Z</time>
      </trkpt>
      <trkpt lat="43.6213" lon="1.28413">
        <ele>171.2</ele>
        <time>2023-03-25T11:26:19Z</time>
      </trkpt>
      <trkpt lat="43.62138" lon="1.28437">
        <ele>170.6</ele>
        <time>2023-03-25T11:26:24Z</time>
      </trkpt>
      <trkpt lat="43.62148" lon="1.28463">
        <ele>170</ele>
        <time>2023-03-25T11:26:30Z</time>
      </trkpt>
      <trkpt lat="43.62148" lon="1.28485">
        <ele>169.6</ele>
        <time>2023-03-25T11:26:35Z</time>
      </trkpt>
      <trkpt lat="43.62165" lon="1.28498">
        <ele>170.2</ele>
        <time>2023-03-25T11:26:41Z</time>
      </trkpt>
      <trkpt lat="43.62167" lon="1.28501">
        <ele>170.2</ele>
        <time>2023-03-25T11:26:42Z</time>
      </trkpt>
      <trkpt lat="43.62168" lon="1.28509">
        <ele>170.2</ele>
        <time>2023-03-25T11:26:44Z</time>
      </trkpt>
      <trkpt lat="43.62166" lon="1.28535">
        <ele>170.2</ele>
        <time>2023-03-25T11:26:50Z</time>
      </trkpt>
      <trkpt lat="43.62172" lon="1.28556">
        <ele>170</ele>
        <time>2023-03-25T11:26:55Z</time>
      </trkpt>
      <trkpt lat="43.62183" lon="1.28563">
        <ele>170</ele>
        <time>2023-03-25T11:26:59Z</time>
      </trkpt>
      <trkpt lat="43.62189" lon="1.28567">
        <ele>169.8</ele>
        <time>2023-03-25T11:27:01Z</time>
      </trkpt>
      <trkpt lat="43.622" lon="1.28577">
        <ele>169.8</ele>
        <time>2023-03-25T11:27:05Z</time>
      </trkpt>
      <trkpt lat="43.62216" lon="1.28585">
        <ele>169.8</ele>
        <time>2023-03-25T11:27:10Z</time>
      </trkpt>
      <trkpt lat="43.62233" lon="1.28579">
        <ele>170</ele>
        <time>2023-03-25T11:27:15Z</time>
      </trkpt>
      <trkpt lat="43.62247" lon="1.28578">
        <ele>170.2</ele>
        <time>2023-03-25T11:27:20Z</time>
      </trkpt>
      <trkpt lat="43.62254" lon="1.28586">
        <ele>171</ele>
        <time>2023-03-25T11:27:25Z</time>
      </trkpt>
      <trkpt lat="43.62255" lon="1.28587">
        <ele>171.2</ele>
        <time>2023-03-25T11:27:28Z</time>
      </trkpt>
      <trkpt lat="43.62258" lon="1.28591">
        <ele>172</ele>
        <time>2023-03-25T11:29:17Z</time>
      </trkpt>
      <trkpt lat="43.62267" lon="1.28606">
        <ele>172</ele>
        <time>2023-03-25T11:29:21Z</time>
      </trkpt>
      <trkpt lat="43.6227" lon="1.28616">
        <ele>171.8</ele>
        <time>2023-03-25T11:29:23Z</time>
      </trkpt>
      <trkpt lat="43.62271" lon="1.28629">
        <ele>171.8</ele>
        <time>2023-03-25T11:29:25Z</time>
      </trkpt>
      <trkpt lat="43.6227" lon="1.28642">
        <ele>171.6</ele>
        <time>2023-03-25T11:29:27Z</time>
      </trkpt>
      <trkpt lat="43.62267" lon="1.2866">
        <ele>171.6</ele>
        <time>2023-03-25T11:29:30Z</time>
      </trkpt>
      <trkpt lat="43.62265" lon="1.28666">
        <ele>171.6</ele>
        <time>2023-03-25T11:29:31Z</time>
      </trkpt>
      <trkpt lat="43.62262" lon="1.28679">
        <ele>171.4</ele>
        <time>2023-03-25T11:29:33Z</time>
      </trkpt>
      <trkpt lat="43.62261" lon="1.28688">
        <ele>171.2</ele>
        <time>2023-03-25T11:29:35Z</time>
      </trkpt>
      <trkpt lat="43.6226" lon="1.28697">
        <ele>170.2</ele>
        <time>2023-03-25T11:29:39Z</time>
      </trkpt>
      <trkpt lat="43.62261" lon="1.28715">
        <ele>169.4</ele>
        <time>2023-03-25T11:29:43Z</time>
      </trkpt>
      <trkpt lat="43.62261" lon="1.2874">
        <ele>169.2</ele>
        <time>2023-03-25T11:29:48Z</time>
      </trkpt>
      <trkpt lat="43.62259" lon="1.28758">
        <ele>169.4</ele>
        <time>2023-03-25T11:29:51Z</time>
      </trkpt>
      <trkpt lat="43.62258" lon="1.28769">
        <ele>169.6</ele>
        <time>2023-03-25T11:29:53Z</time>
      </trkpt>
      <trkpt lat="43.62257" lon="1.28786">
        <ele>170</ele>
        <time>2023-03-25T11:29:56Z</time>
      </trkpt>
      <trkpt lat="43.62257" lon="1.288">
        <ele>170</ele>
        <time>2023-03-25T11:29:58Z</time>
      </trkpt>
      <trkpt lat="43.62256" lon="1.28823">
        <ele>170</ele>
        <time>2023-03-25T11:30:01Z</time>
      </trkpt>
      <trkpt lat="43.62255" lon="1.28848">
        <ele>170.2</ele>
        <time>2023-03-25T11:30:04Z</time>
      </trkpt>
      <trkpt lat="43.62253" lon="1.28896">
        <ele>169.8</ele>
        <time>2023-03-25T11:30:10Z</time>
      </trkpt>
      <trkpt lat="43.62252" lon="1.28944">
        <ele>170</ele>
        <time>2023-03-25T11:30:16Z</time>
      </trkpt>
      <trkpt lat="43.62252" lon="1.28958">
        <ele>170.2</ele>
        <time>2023-03-25T11:30:18Z</time>
      </trkpt>
      <trkpt lat="43.62251" lon="1.28977">
        <ele>170</ele>
        <time>2023-03-25T11:30:21Z</time>
      </trkpt>
      <trkpt lat="43.62252" lon="1.28995">
        <ele>170</ele>
        <time>2023-03-25T11:30:24Z</time>
      </trkpt>
      <trkpt lat="43.62255" lon="1.29007">
        <ele>169.6</ele>
        <time>2023-03-25T11:30:26Z</time>
      </trkpt>
      <trkpt lat="43.62258" lon="1.29012">
        <ele>169.6</ele>
        <time>2023-03-25T11:30:27Z</time>
      </trkpt>
      <trkpt lat="43.62269" lon="1.29033">
        <ele>169.6</ele>
        <time>2023-03-25T11:30:31Z</time>
      </trkpt>
      <trkpt lat="43.62274" lon="1.29045">
        <ele>169.8</ele>
        <time>2023-03-25T11:30:33Z</time>
      </trkpt>
      <trkpt lat="43.62287" lon="1.2907">
        <ele>170</ele>
        <time>2023-03-25T11:30:37Z</time>
      </trkpt>
      <trkpt lat="43.62312" lon="1.29114">
        <ele>170.6</ele>
        <time>2023-03-25T11:30:43Z</time>
      </trkpt>
      <trkpt lat="43.6234" lon="1.29166">
        <ele>170.2</ele>
        <time>2023-03-25T11:30:50Z</time>
      </trkpt>
      <trkpt lat="43.62347" lon="1.29182">
        <ele>170.2</ele>
        <time>2023-03-25T11:30:52Z</time>
      </trkpt>
      <trkpt lat="43.62369" lon="1.29248">
        <ele>170.8</ele>
        <time>2023-03-25T11:31:00Z</time>
      </trkpt>
      <trkpt lat="43.62375" lon="1.29304">
        <ele>171.2</ele>
        <time>2023-03-25T11:31:06Z</time>
      </trkpt>
      <trkpt lat="43.62377" lon="1.29323">
        <ele>171.4</ele>
        <time>2023-03-25T11:31:08Z</time>
      </trkpt>
      <trkpt lat="43.62385" lon="1.29366">
        <ele>172.2</ele>
        <time>2023-03-25T11:31:13Z</time>
      </trkpt>
      <trkpt lat="43.62386" lon="1.29375">
        <ele>172.4</ele>
        <time>2023-03-25T11:31:14Z</time>
      </trkpt>
      <trkpt lat="43.62392" lon="1.29419">
        <ele>173.6</ele>
        <time>2023-03-25T11:31:19Z</time>
      </trkpt>
      <trkpt lat="43.62395" lon="1.29438">
        <ele>173.8</ele>
        <time>2023-03-25T11:31:21Z</time>
      </trkpt>
      <trkpt lat="43.62408" lon="1.29487">
        <ele>174.2</ele>
        <time>2023-03-25T11:31:26Z</time>
      </trkpt>
      <trkpt lat="43.62438" lon="1.29557">
        <ele>173.4</ele>
        <time>2023-03-25T11:31:33Z</time>
      </trkpt>
      <trkpt lat="43.62454" lon="1.29586">
        <ele>172.6</ele>
        <time>2023-03-25T11:31:36Z</time>
      </trkpt>
      <trkpt lat="43.62471" lon="1.29615">
        <ele>171.8</ele>
        <time>2023-03-25T11:31:39Z</time>
      </trkpt>
      <trkpt lat="43.62483" lon="1.29632">
        <ele>171.6</ele>
        <time>2023-03-25T11:31:41Z</time>
      </trkpt>
      <trkpt lat="43.6249" lon="1.2964">
        <ele>171.4</ele>
        <time>2023-03-25T11:31:42Z</time>
      </trkpt>
      <trkpt lat="43.62536" lon="1.29693">
        <ele>170.8</ele>
        <time>2023-03-25T11:31:49Z</time>
      </trkpt>
      <trkpt lat="43.62549" lon="1.29708">
        <ele>170.6</ele>
        <time>2023-03-25T11:31:51Z</time>
      </trkpt>
      <trkpt lat="43.62594" lon="1.29755">
        <ele>170.4</ele>
        <time>2023-03-25T11:31:58Z</time>
      </trkpt>
      <trkpt lat="43.62642" lon="1.298">
        <ele>169.8</ele>
        <time>2023-03-25T11:32:05Z</time>
      </trkpt>
      <trkpt lat="43.62663" lon="1.29818">
        <ele>169.6</ele>
        <time>2023-03-25T11:32:08Z</time>
      </trkpt>
      <trkpt lat="43.62701" lon="1.29859">
        <ele>169.4</ele>
        <time>2023-03-25T11:32:14Z</time>
      </trkpt>
      <trkpt lat="43.62739" lon="1.29912">
        <ele>168.6</ele>
        <time>2023-03-25T11:32:21Z</time>
      </trkpt>
      <trkpt lat="43.62745" lon="1.2992">
        <ele>168.4</ele>
        <time>2023-03-25T11:32:22Z</time>
      </trkpt>
      <trkpt lat="43.62751" lon="1.2993">
        <ele>168.2</ele>
        <time>2023-03-25T11:32:23Z</time>
      </trkpt>
      <trkpt lat="43.62777" lon="1.29968">
        <ele>167.4</ele>
        <time>2023-03-25T11:32:28Z</time>
      </trkpt>
      <trkpt lat="43.62797" lon="1.29996">
        <ele>167.4</ele>
        <time>2023-03-25T11:32:32Z</time>
      </trkpt>
      <trkpt lat="43.62817" lon="1.30022">
        <ele>167</ele>
        <time>2023-03-25T11:32:36Z</time>
      </trkpt>
      <trkpt lat="43.62819" lon="1.30037">
        <ele>166.8</ele>
        <time>2023-03-25T11:32:38Z</time>
      </trkpt>
      <trkpt lat="43.62817" lon="1.30044">
        <ele>166.8</ele>
        <time>2023-03-25T11:32:39Z</time>
      </trkpt>
      <trkpt lat="43.62802" lon="1.30081">
        <ele>166.4</ele>
        <time>2023-03-25T11:32:44Z</time>
      </trkpt>
      <trkpt lat="43.62799" lon="1.30089">
        <ele>166.2</ele>
        <time>2023-03-25T11:32:45Z</time>
      </trkpt>
      <trkpt lat="43.62776" lon="1.30142">
        <ele>165.6</ele>
        <time>2023-03-25T11:32:52Z</time>
      </trkpt>
      <trkpt lat="43.62768" lon="1.30158">
        <ele>165.8</ele>
        <time>2023-03-25T11:32:55Z</time>
      </trkpt>
      <trkpt lat="43.62766" lon="1.30161">
        <ele>165.8</ele>
        <time>2023-03-25T11:32:56Z</time>
      </trkpt>
      <trkpt lat="43.62749" lon="1.30185">
        <ele>167.2</ele>
        <time>2023-03-25T11:33:02Z</time>
      </trkpt>
      <trkpt lat="43.62746" lon="1.30193">
        <ele>167.4</ele>
        <time>2023-03-25T11:33:03Z</time>
      </trkpt>
      <trkpt lat="43.62736" lon="1.30213">
        <ele>167.8</ele>
        <time>2023-03-25T11:33:06Z</time>
      </trkpt>
      <trkpt lat="43.62721" lon="1.30235">
        <ele>167.2</ele>
        <time>2023-03-25T11:33:10Z</time>
      </trkpt>
      <trkpt lat="43.62717" lon="1.3024">
        <ele>167.2</ele>
        <time>2023-03-25T11:33:11Z</time>
      </trkpt>
      <trkpt lat="43.627" lon="1.30262">
        <ele>168</ele>
        <time>2023-03-25T11:33:16Z</time>
      </trkpt>
      <trkpt lat="43.62697" lon="1.30267">
        <ele>168.6</ele>
        <time>2023-03-25T11:33:17Z</time>
      </trkpt>
      <trkpt lat="43.62694" lon="1.30271">
        <ele>168.8</ele>
        <time>2023-03-25T11:33:18Z</time>
      </trkpt>
      <trkpt lat="43.62684" lon="1.30283">
        <ele>169.6</ele>
        <time>2023-03-25T11:33:21Z</time>
      </trkpt>
      <trkpt lat="43.62681" lon="1.30287">
        <ele>170</ele>
        <time>2023-03-25T11:33:22Z</time>
      </trkpt>
      <trkpt lat="43.62674" lon="1.30294">
        <ele>170.6</ele>
        <time>2023-03-25T11:33:24Z</time>
      </trkpt>
      <trkpt lat="43.62671" lon="1.30297">
        <ele>170.8</ele>
        <time>2023-03-25T11:33:25Z</time>
      </trkpt>
      <trkpt lat="43.62662" lon="1.30307">
        <ele>171.6</ele>
        <time>2023-03-25T11:33:28Z</time>
      </trkpt>
      <trkpt lat="43.6266" lon="1.3031">
        <ele>172.2</ele>
        <time>2023-03-25T11:33:29Z</time>
      </trkpt>
      <trkpt lat="43.62653" lon="1.30315">
        <ele>173</ele>
        <time>2023-03-25T11:33:32Z</time>
      </trkpt>
      <trkpt lat="43.6265" lon="1.30314">
        <ele>173.2</ele>
        <time>2023-03-25T11:33:33Z</time>
      </trkpt>
      <trkpt lat="43.6264" lon="1.30314">
        <ele>173.6</ele>
        <time>2023-03-25T11:33:36Z</time>
      </trkpt>
      <trkpt lat="43.6263" lon="1.30314">
        <ele>174.4</ele>
        <time>2023-03-25T11:33:39Z</time>
      </trkpt>
      <trkpt lat="43.62621" lon="1.30314">
        <ele>174.6</ele>
        <time>2023-03-25T11:33:42Z</time>
      </trkpt>
      <trkpt lat="43.62609" lon="1.30314">
        <ele>175.4</ele>
        <time>2023-03-25T11:33:46Z</time>
      </trkpt>
      <trkpt lat="43.62599" lon="1.30313">
        <ele>176.4</ele>
        <time>2023-03-25T11:33:49Z</time>
      </trkpt>
      <trkpt lat="43.62597" lon="1.30313">
        <ele>176.6</ele>
        <time>2023-03-25T11:33:50Z</time>
      </trkpt>
      <trkpt lat="43.62589" lon="1.30313">
        <ele>177.6</ele>
        <time>2023-03-25T11:33:53Z</time>
      </trkpt>
      <trkpt lat="43.62584" lon="1.30312">
        <ele>178</ele>
        <time>2023-03-25T11:33:55Z</time>
      </trkpt>
      <trkpt lat="43.62575" lon="1.30312">
        <ele>178.8</ele>
        <time>2023-03-25T11:33:58Z</time>
      </trkpt>
      <trkpt lat="43.62563" lon="1.30311">
        <ele>180</ele>
        <time>2023-03-25T11:34:03Z</time>
      </trkpt>
      <trkpt lat="43.62561" lon="1.30311">
        <ele>180.2</ele>
        <time>2023-03-25T11:34:04Z</time>
      </trkpt>
      <trkpt lat="43.62553" lon="1.30309">
        <ele>181</ele>
        <time>2023-03-25T11:34:08Z</time>
      </trkpt>
      <trkpt lat="43.62545" lon="1.3031">
        <ele>182.2</ele>
        <time>2023-03-25T11:34:12Z</time>
      </trkpt>
      <trkpt lat="43.62537" lon="1.30313">
        <ele>183.4</ele>
        <time>2023-03-25T11:34:17Z</time>
      </trkpt>
      <trkpt lat="43.62531" lon="1.30314">
        <ele>184.4</ele>
        <time>2023-03-25T11:34:20Z</time>
      </trkpt>
      <trkpt lat="43.62524" lon="1.30314">
        <ele>186</ele>
        <time>2023-03-25T11:34:25Z</time>
      </trkpt>
      <trkpt lat="43.6252" lon="1.30314">
        <ele>186.6</ele>
        <time>2023-03-25T11:34:27Z</time>
      </trkpt>
      <trkpt lat="43.62515" lon="1.30312">
        <ele>187.2</ele>
        <time>2023-03-25T11:34:29Z</time>
      </trkpt>
      <trkpt lat="43.62508" lon="1.30308">
        <ele>188.4</ele>
        <time>2023-03-25T11:34:33Z</time>
      </trkpt>
      <trkpt lat="43.62504" lon="1.30307">
        <ele>188.6</ele>
        <time>2023-03-25T11:34:35Z</time>
      </trkpt>
      <trkpt lat="43.62495" lon="1.30301">
        <ele>189.6</ele>
        <time>2023-03-25T11:34:39Z</time>
      </trkpt>
      <trkpt lat="43.62488" lon="1.303">
        <ele>189.8</ele>
        <time>2023-03-25T11:34:42Z</time>
      </trkpt>
      <trkpt lat="43.62482" lon="1.30302">
        <ele>190.4</ele>
        <time>2023-03-25T11:34:44Z</time>
      </trkpt>
      <trkpt lat="43.6248" lon="1.30304">
        <ele>190.8</ele>
        <time>2023-03-25T11:34:45Z</time>
      </trkpt>
      <trkpt lat="43.62474" lon="1.3031">
        <ele>191.2</ele>
        <time>2023-03-25T11:34:48Z</time>
      </trkpt>
      <trkpt lat="43.62467" lon="1.30323">
        <ele>192</ele>
        <time>2023-03-25T11:34:53Z</time>
      </trkpt>
      <trkpt lat="43.62458" lon="1.30319">
        <ele>192.4</ele>
        <time>2023-03-25T11:34:57Z</time>
      </trkpt>
      <trkpt lat="43.6245" lon="1.30307">
        <ele>193</ele>
        <time>2023-03-25T11:35:01Z</time>
      </trkpt>
      <trkpt lat="43.62444" lon="1.30301">
        <ele>193</ele>
        <time>2023-03-25T11:35:03Z</time>
      </trkpt>
      <trkpt lat="43.62425" lon="1.30273">
        <ele>193.6</ele>
        <time>2023-03-25T11:35:10Z</time>
      </trkpt>
      <trkpt lat="43.6241" lon="1.30253">
        <ele>194.2</ele>
        <time>2023-03-25T11:35:15Z</time>
      </trkpt>
      <trkpt lat="43.62399" lon="1.30237">
        <ele>194.6</ele>
        <time>2023-03-25T11:35:19Z</time>
      </trkpt>
      <trkpt lat="43.62388" lon="1.30224">
        <ele>194.8</ele>
        <time>2023-03-25T11:35:22Z</time>
      </trkpt>
      <trkpt lat="43.6238" lon="1.30216">
        <ele>195</ele>
        <time>2023-03-25T11:35:24Z</time>
      </trkpt>
      <trkpt lat="43.6235" lon="1.30185">
        <ele>194.6</ele>
        <time>2023-03-25T11:35:31Z</time>
      </trkpt>
      <trkpt lat="43.62326" lon="1.30161">
        <ele>194.6</ele>
        <time>2023-03-25T11:35:36Z</time>
      </trkpt>
      <trkpt lat="43.62314" lon="1.30145">
        <ele>194.6</ele>
        <time>2023-03-25T11:35:39Z</time>
      </trkpt>
      <trkpt lat="43.62303" lon="1.30121">
        <ele>194</ele>
        <time>2023-03-25T11:35:42Z</time>
      </trkpt>
      <trkpt lat="43.62301" lon="1.30112">
        <ele>193.6</ele>
        <time>2023-03-25T11:35:43Z</time>
      </trkpt>
      <trkpt lat="43.623" lon="1.30102">
        <ele>193</ele>
        <time>2023-03-25T11:35:44Z</time>
      </trkpt>
      <trkpt lat="43.62298" lon="1.30093">
        <ele>192.8</ele>
        <time>2023-03-25T11:35:45Z</time>
      </trkpt>
      <trkpt lat="43.62295" lon="1.30077">
        <ele>192</ele>
        <time>2023-03-25T11:35:47Z</time>
      </trkpt>
      <trkpt lat="43.62293" lon="1.3007">
        <ele>191.6</ele>
        <time>2023-03-25T11:35:48Z</time>
      </trkpt>
      <trkpt lat="43.6228" lon="1.3005">
        <ele>191.2</ele>
        <time>2023-03-25T11:35:52Z</time>
      </trkpt>
      <trkpt lat="43.62276" lon="1.30042">
        <ele>191.4</ele>
        <time>2023-03-25T11:35:54Z</time>
      </trkpt>
      <trkpt lat="43.62271" lon="1.30031">
        <ele>191.8</ele>
        <time>2023-03-25T11:35:56Z</time>
      </trkpt>
      <trkpt lat="43.62261" lon="1.30013">
        <ele>192</ele>
        <time>2023-03-25T11:35:59Z</time>
      </trkpt>
      <trkpt lat="43.62253" lon="1.30003">
        <ele>192.2</ele>
        <time>2023-03-25T11:36:01Z</time>
      </trkpt>
      <trkpt lat="43.62244" lon="1.29989">
        <ele>192.4</ele>
        <time>2023-03-25T11:36:04Z</time>
      </trkpt>
      <trkpt lat="43.62242" lon="1.29984">
        <ele>192.8</ele>
        <time>2023-03-25T11:36:05Z</time>
      </trkpt>
      <trkpt lat="43.62239" lon="1.29979">
        <ele>192.8</ele>
        <time>2023-03-25T11:36:06Z</time>
      </trkpt>
      <trkpt lat="43.62233" lon="1.29972">
        <ele>193</ele>
        <time>2023-03-25T11:36:08Z</time>
      </trkpt>
      <trkpt lat="43.62229" lon="1.29971">
        <ele>193.2</ele>
        <time>2023-03-25T11:36:09Z</time>
      </trkpt>
      <trkpt lat="43.62226" lon="1.29971">
        <ele>193.6</ele>
        <time>2023-03-25T11:36:10Z</time>
      </trkpt>
      <trkpt lat="43.62223" lon="1.29973">
        <ele>194</ele>
        <time>2023-03-25T11:36:11Z</time>
      </trkpt>
      <trkpt lat="43.62221" lon="1.29976">
        <ele>194.4</ele>
        <time>2023-03-25T11:36:12Z</time>
      </trkpt>
      <trkpt lat="43.62214" lon="1.29988">
        <ele>194.8</ele>
        <time>2023-03-25T11:36:15Z</time>
      </trkpt>
      <trkpt lat="43.62205" lon="1.29998">
        <ele>195.2</ele>
        <time>2023-03-25T11:36:18Z</time>
      </trkpt>
      <trkpt lat="43.62202" lon="1.29997">
        <ele>195.2</ele>
        <time>2023-03-25T11:36:19Z</time>
      </trkpt>
      <trkpt lat="43.6219" lon="1.30001">
        <ele>195.2</ele>
        <time>2023-03-25T11:36:23Z</time>
      </trkpt>
      <trkpt lat="43.62166" lon="1.30019">
        <ele>194.8</ele>
        <time>2023-03-25T11:36:29Z</time>
      </trkpt>
      <trkpt lat="43.62151" lon="1.30033">
        <ele>194.8</ele>
        <time>2023-03-25T11:36:34Z</time>
      </trkpt>
      <trkpt lat="43.62145" lon="1.30043">
        <ele>195.2</ele>
        <time>2023-03-25T11:36:38Z</time>
      </trkpt>
      <trkpt lat="43.62139" lon="1.30046">
        <ele>195.8</ele>
        <time>2023-03-25T11:36:40Z</time>
      </trkpt>
      <trkpt lat="43.62121" lon="1.30056">
        <ele>196.4</ele>
        <time>2023-03-25T11:36:45Z</time>
      </trkpt>
      <trkpt lat="43.62115" lon="1.30056">
        <ele>196.4</ele>
        <time>2023-03-25T11:36:46Z</time>
      </trkpt>
      <trkpt lat="43.62104" lon="1.30057">
        <ele>196.2</ele>
        <time>2023-03-25T11:36:48Z</time>
      </trkpt>
      <trkpt lat="43.6209" lon="1.30058">
        <ele>194.2</ele>
        <time>2023-03-25T11:36:51Z</time>
      </trkpt>
      <trkpt lat="43.62084" lon="1.30058">
        <ele>193</ele>
        <time>2023-03-25T11:36:53Z</time>
      </trkpt>
      <trkpt lat="43.62075" lon="1.30057">
        <ele>191.2</ele>
        <time>2023-03-25T11:36:55Z</time>
      </trkpt>
      <trkpt lat="43.62072" lon="1.30057">
        <ele>190.2</ele>
        <time>2023-03-25T11:36:56Z</time>
      </trkpt>
      <trkpt lat="43.62066" lon="1.30059">
        <ele>188.6</ele>
        <time>2023-03-25T11:36:58Z</time>
      </trkpt>
      <trkpt lat="43.62064" lon="1.3006">
        <ele>188.2</ele>
        <time>2023-03-25T11:36:59Z</time>
      </trkpt>
      <trkpt lat="43.62063" lon="1.30061">
        <ele>187.4</ele>
        <time>2023-03-25T11:37:00Z</time>
      </trkpt>
      <trkpt lat="43.62058" lon="1.30065">
        <ele>186.8</ele>
        <time>2023-03-25T11:37:02Z</time>
      </trkpt>
      <trkpt lat="43.62056" lon="1.30068">
        <ele>186.6</ele>
        <time>2023-03-25T11:37:03Z</time>
      </trkpt>
      <trkpt lat="43.62053" lon="1.3007">
        <ele>186.6</ele>
        <time>2023-03-25T11:37:04Z</time>
      </trkpt>
      <trkpt lat="43.62044" lon="1.30074">
        <ele>186.6</ele>
        <time>2023-03-25T11:37:07Z</time>
      </trkpt>
      <trkpt lat="43.62043" lon="1.30079">
        <ele>187.4</ele>
        <time>2023-03-25T11:37:09Z</time>
      </trkpt>
      <trkpt lat="43.62037" lon="1.30082">
        <ele>188.2</ele>
        <time>2023-03-25T11:37:12Z</time>
      </trkpt>
      <trkpt lat="43.62036" lon="1.30085">
        <ele>188.4</ele>
        <time>2023-03-25T11:37:13Z</time>
      </trkpt>
      <trkpt lat="43.6203" lon="1.30093">
        <ele>189.8</ele>
        <time>2023-03-25T11:37:17Z</time>
      </trkpt>
      <trkpt lat="43.6203" lon="1.30095">
        <ele>190.2</ele>
        <time>2023-03-25T11:37:18Z</time>
      </trkpt>
      <trkpt lat="43.6203" lon="1.30096">
        <ele>190.6</ele>
        <time>2023-03-25T11:37:19Z</time>
      </trkpt>
      <trkpt lat="43.6203" lon="1.30098">
        <ele>191</ele>
        <time>2023-03-25T11:37:20Z</time>
      </trkpt>
      <trkpt lat="43.62028" lon="1.30103">
        <ele>192.2</ele>
        <time>2023-03-25T11:37:22Z</time>
      </trkpt>
      <trkpt lat="43.62027" lon="1.30106">
        <ele>192.8</ele>
        <time>2023-03-25T11:37:23Z</time>
      </trkpt>
      <trkpt lat="43.62027" lon="1.30108">
        <ele>193.4</ele>
        <time>2023-03-25T11:37:24Z</time>
      </trkpt>
      <trkpt lat="43.62028" lon="1.3011">
        <ele>193.6</ele>
        <time>2023-03-25T11:37:25Z</time>
      </trkpt>
      <trkpt lat="43.62027" lon="1.30116">
        <ele>194.8</ele>
        <time>2023-03-25T11:37:28Z</time>
      </trkpt>
      <trkpt lat="43.62027" lon="1.30121">
        <ele>195.6</ele>
        <time>2023-03-25T11:37:30Z</time>
      </trkpt>
      <trkpt lat="43.62028" lon="1.30123">
        <ele>196.2</ele>
        <time>2023-03-25T11:37:31Z</time>
      </trkpt>
      <trkpt lat="43.62028" lon="1.30134">
        <ele>197.4</ele>
        <time>2023-03-25T11:37:35Z</time>
      </trkpt>
      <trkpt lat="43.6203" lon="1.3015">
        <ele>197.8</ele>
        <time>2023-03-25T11:37:40Z</time>
      </trkpt>
      <trkpt lat="43.62031" lon="1.30171">
        <ele>198.6</ele>
        <time>2023-03-25T11:37:45Z</time>
      </trkpt>
      <trkpt lat="43.62031" lon="1.30175">
        <ele>198.6</ele>
        <time>2023-03-25T11:37:46Z</time>
      </trkpt>
      <trkpt lat="43.62025" lon="1.30203">
        <ele>198.6</ele>
        <time>2023-03-25T11:37:52Z</time>
      </trkpt>
      <trkpt lat="43.62026" lon="1.30227">
        <ele>198.4</ele>
        <time>2023-03-25T11:37:57Z</time>
      </trkpt>
      <trkpt lat="43.62035" lon="1.3027">
        <ele>198</ele>
        <time>2023-03-25T11:38:05Z</time>
      </trkpt>
      <trkpt lat="43.62047" lon="1.30329">
        <ele>197.8</ele>
        <time>2023-03-25T11:38:15Z</time>
      </trkpt>
      <trkpt lat="43.62051" lon="1.3038">
        <ele>197.8</ele>
        <time>2023-03-25T11:38:23Z</time>
      </trkpt>
      <trkpt lat="43.62056" lon="1.30403">
        <ele>197.6</ele>
        <time>2023-03-25T11:38:27Z</time>
      </trkpt>
      <trkpt lat="43.62057" lon="1.30413">
        <ele>197.6</ele>
        <time>2023-03-25T11:38:29Z</time>
      </trkpt>
      <trkpt lat="43.62051" lon="1.30417">
        <ele>197.6</ele>
        <time>2023-03-25T11:38:32Z</time>
      </trkpt>
      <trkpt lat="43.62039" lon="1.30414">
        <ele>197.6</ele>
        <time>2023-03-25T11:38:35Z</time>
      </trkpt>
      <trkpt lat="43.62031" lon="1.30409">
        <ele>197.6</ele>
        <time>2023-03-25T11:38:37Z</time>
      </trkpt>
      <trkpt lat="43.62" lon="1.30388">
        <ele>198</ele>
        <time>2023-03-25T11:38:44Z</time>
      </trkpt>
      <trkpt lat="43.61993" lon="1.30391">
        <ele>198.2</ele>
        <time>2023-03-25T11:38:46Z</time>
      </trkpt>
      <trkpt lat="43.61994" lon="1.30409">
        <ele>198.2</ele>
        <time>2023-03-25T11:38:49Z</time>
      </trkpt>
      <trkpt lat="43.61989" lon="1.30443">
        <ele>198.2</ele>
        <time>2023-03-25T11:38:54Z</time>
      </trkpt>
      <trkpt lat="43.61976" lon="1.30491">
        <ele>198.2</ele>
        <time>2023-03-25T11:39:01Z</time>
      </trkpt>
      <trkpt lat="43.61954" lon="1.30543">
        <ele>198.6</ele>
        <time>2023-03-25T11:39:09Z</time>
      </trkpt>
      <trkpt lat="43.61946" lon="1.30555">
        <ele>198.8</ele>
        <time>2023-03-25T11:39:11Z</time>
      </trkpt>
      <trkpt lat="43.61934" lon="1.30579">
        <ele>199</ele>
        <time>2023-03-25T11:39:15Z</time>
      </trkpt>
      <trkpt lat="43.61931" lon="1.30584">
        <ele>199</ele>
        <time>2023-03-25T11:39:16Z</time>
      </trkpt>
      <trkpt lat="43.61917" lon="1.30612">
        <ele>199.6</ele>
        <time>2023-03-25T11:39:21Z</time>
      </trkpt>
      <trkpt lat="43.61891" lon="1.30662">
        <ele>199.8</ele>
        <time>2023-03-25T11:39:29Z</time>
      </trkpt>
      <trkpt lat="43.61865" lon="1.3072">
        <ele>199.8</ele>
        <time>2023-03-25T11:39:37Z</time>
      </trkpt>
      <trkpt lat="43.61849" lon="1.30778">
        <ele>199.4</ele>
        <time>2023-03-25T11:39:44Z</time>
      </trkpt>
      <trkpt lat="43.6184" lon="1.30839">
        <ele>199.2</ele>
        <time>2023-03-25T11:39:51Z</time>
      </trkpt>
      <trkpt lat="43.61833" lon="1.30889">
        <ele>199.2</ele>
        <time>2023-03-25T11:39:57Z</time>
      </trkpt>
      <trkpt lat="43.61825" lon="1.30899">
        <ele>199.2</ele>
        <time>2023-03-25T11:39:59Z</time>
      </trkpt>
      <trkpt lat="43.61819" lon="1.309">
        <ele>199.2</ele>
        <time>2023-03-25T11:40:00Z</time>
      </trkpt>
      <trkpt lat="43.61813" lon="1.30898">
        <ele>199.2</ele>
        <time>2023-03-25T11:40:01Z</time>
      </trkpt>
      <trkpt lat="43.61764" lon="1.30874">
        <ele>199.4</ele>
        <time>2023-03-25T11:40:09Z</time>
      </trkpt>
      <trkpt lat="43.61736" lon="1.30859">
        <ele>199.6</ele>
        <time>2023-03-25T11:40:14Z</time>
      </trkpt>
      <trkpt lat="43.61732" lon="1.30854">
        <ele>199.6</ele>
        <time>2023-03-25T11:40:15Z</time>
      </trkpt>
      <trkpt lat="43.61724" lon="1.30846">
        <ele>199.6</ele>
        <time>2023-03-25T11:40:17Z</time>
      </trkpt>
      <trkpt lat="43.6172" lon="1.30845">
        <ele>199.6</ele>
        <time>2023-03-25T11:40:18Z</time>
      </trkpt>
      <trkpt lat="43.61716" lon="1.30847">
        <ele>199.8</ele>
        <time>2023-03-25T11:40:19Z</time>
      </trkpt>
      <trkpt lat="43.61712" lon="1.30852">
        <ele>199.8</ele>
        <time>2023-03-25T11:40:20Z</time>
      </trkpt>
      <trkpt lat="43.6171" lon="1.30859">
        <ele>199.8</ele>
        <time>2023-03-25T11:40:21Z</time>
      </trkpt>
      <trkpt lat="43.61703" lon="1.30883">
        <ele>199.8</ele>
        <time>2023-03-25T11:40:24Z</time>
      </trkpt>
      <trkpt lat="43.61696" lon="1.30917">
        <ele>200.2</ele>
        <time>2023-03-25T11:40:28Z</time>
      </trkpt>
      <trkpt lat="43.61691" lon="1.30935">
        <ele>200.2</ele>
        <time>2023-03-25T11:40:30Z</time>
      </trkpt>
      <trkpt lat="43.61673" lon="1.31002">
        <ele>200.2</ele>
        <time>2023-03-25T11:40:38Z</time>
      </trkpt>
      <trkpt lat="43.61666" lon="1.31032">
        <ele>200.4</ele>
        <time>2023-03-25T11:40:42Z</time>
      </trkpt>
      <trkpt lat="43.61664" lon="1.31041">
        <ele>200.4</ele>
        <time>2023-03-25T11:40:43Z</time>
      </trkpt>
      <trkpt lat="43.61654" lon="1.31073">
        <ele>200.2</ele>
        <time>2023-03-25T11:40:47Z</time>
      </trkpt>
      <trkpt lat="43.61647" lon="1.31086">
        <ele>200</ele>
        <time>2023-03-25T11:40:49Z</time>
      </trkpt>
      <trkpt lat="43.61637" lon="1.31094">
        <ele>200</ele>
        <time>2023-03-25T11:40:51Z</time>
      </trkpt>
      <trkpt lat="43.61633" lon="1.31095">
        <ele>200</ele>
        <time>2023-03-25T11:40:52Z</time>
      </trkpt>
      <trkpt lat="43.61627" lon="1.31095">
        <ele>199.6</ele>
        <time>2023-03-25T11:40:55Z</time>
      </trkpt>
      <trkpt lat="43.61623" lon="1.31099">
        <ele>199.4</ele>
        <time>2023-03-25T11:40:58Z</time>
      </trkpt>
      <trkpt lat="43.61622" lon="1.31103">
        <ele>199.4</ele>
        <time>2023-03-25T11:40:59Z</time>
      </trkpt>
      <trkpt lat="43.61618" lon="1.31109">
        <ele>199.2</ele>
        <time>2023-03-25T11:41:01Z</time>
      </trkpt>
      <trkpt lat="43.61615" lon="1.31109">
        <ele>199.2</ele>
        <time>2023-03-25T11:41:02Z</time>
      </trkpt>
      <trkpt lat="43.61611" lon="1.31108">
        <ele>199.2</ele>
        <time>2023-03-25T11:41:03Z</time>
      </trkpt>
      <trkpt lat="43.61598" lon="1.31099">
        <ele>199</ele>
        <time>2023-03-25T11:41:06Z</time>
      </trkpt>
      <trkpt lat="43.61593" lon="1.31096">
        <ele>199</ele>
        <time>2023-03-25T11:41:07Z</time>
      </trkpt>
      <trkpt lat="43.61573" lon="1.31085">
        <ele>199.4</ele>
        <time>2023-03-25T11:41:11Z</time>
      </trkpt>
      <trkpt lat="43.61545" lon="1.3107">
        <ele>199.8</ele>
        <time>2023-03-25T11:41:16Z</time>
      </trkpt>
      <trkpt lat="43.61535" lon="1.31064">
        <ele>200</ele>
        <time>2023-03-25T11:41:18Z</time>
      </trkpt>
      <trkpt lat="43.61502" lon="1.31043">
        <ele>200</ele>
        <time>2023-03-25T11:41:23Z</time>
      </trkpt>
      <trkpt lat="43.61463" lon="1.31021">
        <ele>200</ele>
        <time>2023-03-25T11:41:29Z</time>
      </trkpt>
      <trkpt lat="43.61451" lon="1.3102">
        <ele>200.2</ele>
        <time>2023-03-25T11:41:31Z</time>
      </trkpt>
      <trkpt lat="43.61445" lon="1.31022">
        <ele>200</ele>
        <time>2023-03-25T11:41:32Z</time>
      </trkpt>
      <trkpt lat="43.61439" lon="1.31023">
        <ele>200</ele>
        <time>2023-03-25T11:41:33Z</time>
      </trkpt>
      <trkpt lat="43.61427" lon="1.31019">
        <ele>200.2</ele>
        <time>2023-03-25T11:41:35Z</time>
      </trkpt>
      <trkpt lat="43.61424" lon="1.31014">
        <ele>200.4</ele>
        <time>2023-03-25T11:41:36Z</time>
      </trkpt>
      <trkpt lat="43.61421" lon="1.31008">
        <ele>200.4</ele>
        <time>2023-03-25T11:41:37Z</time>
      </trkpt>
      <trkpt lat="43.61418" lon="1.31001">
        <ele>200.4</ele>
        <time>2023-03-25T11:41:38Z</time>
      </trkpt>
      <trkpt lat="43.61414" lon="1.30996">
        <ele>200.6</ele>
        <time>2023-03-25T11:41:39Z</time>
      </trkpt>
      <trkpt lat="43.61403" lon="1.30989">
        <ele>200.6</ele>
        <time>2023-03-25T11:41:41Z</time>
      </trkpt>
      <trkpt lat="43.61379" lon="1.30979">
        <ele>200.8</ele>
        <time>2023-03-25T11:41:45Z</time>
      </trkpt>
      <trkpt lat="43.61366" lon="1.30979">
        <ele>200.8</ele>
        <time>2023-03-25T11:41:47Z</time>
      </trkpt>
      <trkpt lat="43.61354" lon="1.30984">
        <ele>201</ele>
        <time>2023-03-25T11:41:49Z</time>
      </trkpt>
      <trkpt lat="43.61344" lon="1.30992">
        <ele>201</ele>
        <time>2023-03-25T11:41:51Z</time>
      </trkpt>
      <trkpt lat="43.61333" lon="1.31">
        <ele>201</ele>
        <time>2023-03-25T11:41:53Z</time>
      </trkpt>
      <trkpt lat="43.61317" lon="1.31014">
        <ele>200.6</ele>
        <time>2023-03-25T11:41:56Z</time>
      </trkpt>
      <trkpt lat="43.61303" lon="1.31018">
        <ele>200.4</ele>
        <time>2023-03-25T11:41:58Z</time>
      </trkpt>
      <trkpt lat="43.6129" lon="1.31021">
        <ele>200</ele>
        <time>2023-03-25T11:42:00Z</time>
      </trkpt>
      <trkpt lat="43.61275" lon="1.31024">
        <ele>199.6</ele>
        <time>2023-03-25T11:42:02Z</time>
      </trkpt>
      <trkpt lat="43.61269" lon="1.31028">
        <ele>199</ele>
        <time>2023-03-25T11:42:03Z</time>
      </trkpt>
      <trkpt lat="43.61263" lon="1.31035">
        <ele>198.8</ele>
        <time>2023-03-25T11:42:04Z</time>
      </trkpt>
      <trkpt lat="43.61257" lon="1.31052">
        <ele>198.4</ele>
        <time>2023-03-25T11:42:06Z</time>
      </trkpt>
      <trkpt lat="43.61254" lon="1.31061">
        <ele>198.4</ele>
        <time>2023-03-25T11:42:07Z</time>
      </trkpt>
      <trkpt lat="43.61252" lon="1.3107">
        <ele>197.8</ele>
        <time>2023-03-25T11:42:08Z</time>
      </trkpt>
      <trkpt lat="43.61251" lon="1.31079">
        <ele>197.8</ele>
        <time>2023-03-25T11:42:09Z</time>
      </trkpt>
      <trkpt lat="43.61249" lon="1.31107">
        <ele>197.2</ele>
        <time>2023-03-25T11:42:12Z</time>
      </trkpt>
      <trkpt lat="43.61249" lon="1.31132">
        <ele>197</ele>
        <time>2023-03-25T11:42:15Z</time>
      </trkpt>
      <trkpt lat="43.61249" lon="1.31153">
        <ele>196.8</ele>
        <time>2023-03-25T11:42:18Z</time>
      </trkpt>
      <trkpt lat="43.61245" lon="1.31161">
        <ele>196.8</ele>
        <time>2023-03-25T11:42:20Z</time>
      </trkpt>
      <trkpt lat="43.61242" lon="1.31162">
        <ele>196.8</ele>
        <time>2023-03-25T11:42:21Z</time>
      </trkpt>
      <trkpt lat="43.61221" lon="1.31161">
        <ele>197</ele>
        <time>2023-03-25T11:42:27Z</time>
      </trkpt>
      <trkpt lat="43.61203" lon="1.31149">
        <ele>197.4</ele>
        <time>2023-03-25T11:42:32Z</time>
      </trkpt>
      <trkpt lat="43.61191" lon="1.31145">
        <ele>198</ele>
        <time>2023-03-25T11:42:35Z</time>
      </trkpt>
      <trkpt lat="43.61183" lon="1.31144">
        <ele>198.6</ele>
        <time>2023-03-25T11:42:37Z</time>
      </trkpt>
      <trkpt lat="43.61178" lon="1.31144">
        <ele>198.8</ele>
        <time>2023-03-25T11:42:38Z</time>
      </trkpt>
      <trkpt lat="43.61174" lon="1.31144">
        <ele>199</ele>
        <time>2023-03-25T11:42:39Z</time>
      </trkpt>
      <trkpt lat="43.6117" lon="1.31145">
        <ele>199.4</ele>
        <time>2023-03-25T11:42:40Z</time>
      </trkpt>
      <trkpt lat="43.61155" lon="1.3115">
        <ele>200.6</ele>
        <time>2023-03-25T11:42:44Z</time>
      </trkpt>
      <trkpt lat="43.61145" lon="1.31153">
        <ele>202</ele>
        <time>2023-03-25T11:42:47Z</time>
      </trkpt>
      <trkpt lat="43.61133" lon="1.31154">
        <ele>202.8</ele>
        <time>2023-03-25T11:42:50Z</time>
      </trkpt>
      <trkpt lat="43.61129" lon="1.31152">
        <ele>203.6</ele>
        <time>2023-03-25T11:42:51Z</time>
      </trkpt>
      <trkpt lat="43.61111" lon="1.31145">
        <ele>204.4</ele>
        <time>2023-03-25T11:42:55Z</time>
      </trkpt>
      <trkpt lat="43.61101" lon="1.31142">
        <ele>204.6</ele>
        <time>2023-03-25T11:42:57Z</time>
      </trkpt>
      <trkpt lat="43.61096" lon="1.31141">
        <ele>204.8</ele>
        <time>2023-03-25T11:42:58Z</time>
      </trkpt>
      <trkpt lat="43.61086" lon="1.31141">
        <ele>204.8</ele>
        <time>2023-03-25T11:43:00Z</time>
      </trkpt>
      <trkpt lat="43.61076" lon="1.31144">
        <ele>204.8</ele>
        <time>2023-03-25T11:43:02Z</time>
      </trkpt>
      <trkpt lat="43.61067" lon="1.31152">
        <ele>204.8</ele>
        <time>2023-03-25T11:43:04Z</time>
      </trkpt>
      <trkpt lat="43.61041" lon="1.31188">
        <ele>205.2</ele>
        <time>2023-03-25T11:43:11Z</time>
      </trkpt>
      <trkpt lat="43.61011" lon="1.31234">
        <ele>205.2</ele>
        <time>2023-03-25T11:43:19Z</time>
      </trkpt>
      <trkpt lat="43.61005" lon="1.31245">
        <ele>205.2</ele>
        <time>2023-03-25T11:43:21Z</time>
      </trkpt>
      <trkpt lat="43.60996" lon="1.31261">
        <ele>205</ele>
        <time>2023-03-25T11:43:24Z</time>
      </trkpt>
      <trkpt lat="43.60971" lon="1.31294">
        <ele>204.6</ele>
        <time>2023-03-25T11:43:30Z</time>
      </trkpt>
      <trkpt lat="43.60959" lon="1.31306">
        <ele>204.8</ele>
        <time>2023-03-25T11:43:33Z</time>
      </trkpt>
      <trkpt lat="43.60956" lon="1.31308">
        <ele>204.8</ele>
        <time>2023-03-25T11:43:34Z</time>
      </trkpt>
      <trkpt lat="43.60952" lon="1.31309">
        <ele>204.8</ele>
        <time>2023-03-25T11:43:35Z</time>
      </trkpt>
      <trkpt lat="43.6094" lon="1.3131">
        <ele>204.6</ele>
        <time>2023-03-25T11:43:37Z</time>
      </trkpt>
      <trkpt lat="43.60933" lon="1.31309">
        <ele>204.4</ele>
        <time>2023-03-25T11:43:38Z</time>
      </trkpt>
      <trkpt lat="43.60928" lon="1.3131">
        <ele>204.4</ele>
        <time>2023-03-25T11:43:39Z</time>
      </trkpt>
      <trkpt lat="43.6092" lon="1.31312">
        <ele>203.8</ele>
        <time>2023-03-25T11:43:40Z</time>
      </trkpt>
      <trkpt lat="43.60913" lon="1.31314">
        <ele>203.6</ele>
        <time>2023-03-25T11:43:41Z</time>
      </trkpt>
      <trkpt lat="43.60905" lon="1.31313">
        <ele>202.6</ele>
        <time>2023-03-25T11:43:42Z</time>
      </trkpt>
      <trkpt lat="43.60891" lon="1.31309">
        <ele>202</ele>
        <time>2023-03-25T11:43:44Z</time>
      </trkpt>
      <trkpt lat="43.60885" lon="1.31308">
        <ele>201.2</ele>
        <time>2023-03-25T11:43:45Z</time>
      </trkpt>
      <trkpt lat="43.60878" lon="1.31312">
        <ele>199.8</ele>
        <time>2023-03-25T11:43:47Z</time>
      </trkpt>
      <trkpt lat="43.60873" lon="1.31317">
        <ele>197.8</ele>
        <time>2023-03-25T11:43:49Z</time>
      </trkpt>
      <trkpt lat="43.60871" lon="1.31316">
        <ele>197.2</ele>
        <time>2023-03-25T11:43:50Z</time>
      </trkpt>
      <trkpt lat="43.60866" lon="1.31311">
        <ele>196.6</ele>
        <time>2023-03-25T11:43:52Z</time>
      </trkpt>
      <trkpt lat="43.60856" lon="1.31301">
        <ele>196.2</ele>
        <time>2023-03-25T11:43:55Z</time>
      </trkpt>
      <trkpt lat="43.60818" lon="1.31272">
        <ele>196</ele>
        <time>2023-03-25T11:44:03Z</time>
      </trkpt>
      <trkpt lat="43.60783" lon="1.31256">
        <ele>196.4</ele>
        <time>2023-03-25T11:44:10Z</time>
      </trkpt>
      <trkpt lat="43.60746" lon="1.31236">
        <ele>196.6</ele>
        <time>2023-03-25T11:44:17Z</time>
      </trkpt>
      <trkpt lat="43.60729" lon="1.31226">
        <ele>196.8</ele>
        <time>2023-03-25T11:44:20Z</time>
      </trkpt>
      <trkpt lat="43.60718" lon="1.31223">
        <ele>196.8</ele>
        <time>2023-03-25T11:44:22Z</time>
      </trkpt>
      <trkpt lat="43.60713" lon="1.31222">
        <ele>196.8</ele>
        <time>2023-03-25T11:44:23Z</time>
      </trkpt>
      <trkpt lat="43.60708" lon="1.3122">
        <ele>196.8</ele>
        <time>2023-03-25T11:44:24Z</time>
      </trkpt>
      <trkpt lat="43.60698" lon="1.31217">
        <ele>197</ele>
        <time>2023-03-25T11:44:26Z</time>
      </trkpt>
      <trkpt lat="43.60693" lon="1.31216">
        <ele>197.2</ele>
        <time>2023-03-25T11:44:27Z</time>
      </trkpt>
      <trkpt lat="43.60688" lon="1.31216">
        <ele>197.4</ele>
        <time>2023-03-25T11:44:28Z</time>
      </trkpt>
      <trkpt lat="43.60681" lon="1.31221">
        <ele>197.6</ele>
        <time>2023-03-25T11:44:30Z</time>
      </trkpt>
      <trkpt lat="43.60678" lon="1.31226">
        <ele>198</ele>
        <time>2023-03-25T11:44:31Z</time>
      </trkpt>
      <trkpt lat="43.60676" lon="1.31239">
        <ele>198.8</ele>
        <time>2023-03-25T11:44:34Z</time>
      </trkpt>
      <trkpt lat="43.60675" lon="1.31252">
        <ele>199</ele>
        <time>2023-03-25T11:44:37Z</time>
      </trkpt>
      <trkpt lat="43.60676" lon="1.31261">
        <ele>199.6</ele>
        <time>2023-03-25T11:44:39Z</time>
      </trkpt>
      <trkpt lat="43.60678" lon="1.31265">
        <ele>200.2</ele>
        <time>2023-03-25T11:44:40Z</time>
      </trkpt>
      <trkpt lat="43.60685" lon="1.31269">
        <ele>200.6</ele>
        <time>2023-03-25T11:44:42Z</time>
      </trkpt>
      <trkpt lat="43.60703" lon="1.31276">
        <ele>200.8</ele>
        <time>2023-03-25T11:44:46Z</time>
      </trkpt>
      <trkpt lat="43.60711" lon="1.31281">
        <ele>200.8</ele>
        <time>2023-03-25T11:44:48Z</time>
      </trkpt>
      <trkpt lat="43.6073" lon="1.31291">
        <ele>200.8</ele>
        <time>2023-03-25T11:44:52Z</time>
      </trkpt>
      <trkpt lat="43.60733" lon="1.31295">
        <ele>200.6</ele>
        <time>2023-03-25T11:44:53Z</time>
      </trkpt>
      <trkpt lat="43.60734" lon="1.313">
        <ele>200.6</ele>
        <time>2023-03-25T11:44:54Z</time>
      </trkpt>
      <trkpt lat="43.60733" lon="1.31313">
        <ele>200.4</ele>
        <time>2023-03-25T11:44:56Z</time>
      </trkpt>
      <trkpt lat="43.60725" lon="1.31348">
        <ele>200.2</ele>
        <time>2023-03-25T11:45:01Z</time>
      </trkpt>
      <trkpt lat="43.60722" lon="1.31352">
        <ele>200.2</ele>
        <time>2023-03-25T11:45:02Z</time>
      </trkpt>
      <trkpt lat="43.60719" lon="1.31353">
        <ele>200.2</ele>
        <time>2023-03-25T11:45:03Z</time>
      </trkpt>
      <trkpt lat="43.6071" lon="1.31353">
        <ele>200.2</ele>
        <time>2023-03-25T11:45:05Z</time>
      </trkpt>
      <trkpt lat="43.607" lon="1.3135">
        <ele>200.2</ele>
        <time>2023-03-25T11:45:07Z</time>
      </trkpt>
      <trkpt lat="43.60698" lon="1.31347">
        <ele>200.2</ele>
        <time>2023-03-25T11:45:08Z</time>
      </trkpt>
      <trkpt lat="43.60697" lon="1.31342">
        <ele>200.2</ele>
        <time>2023-03-25T11:45:09Z</time>
      </trkpt>
      <trkpt lat="43.60696" lon="1.3133">
        <ele>200.2</ele>
        <time>2023-03-25T11:45:11Z</time>
      </trkpt>
      <trkpt lat="43.60695" lon="1.31316">
        <ele>200</ele>
        <time>2023-03-25T11:45:13Z</time>
      </trkpt>
      <trkpt lat="43.6069" lon="1.31307">
        <ele>199.8</ele>
        <time>2023-03-25T11:45:15Z</time>
      </trkpt>
      <trkpt lat="43.60678" lon="1.31306">
        <ele>199.6</ele>
        <time>2023-03-25T11:45:17Z</time>
      </trkpt>
      <trkpt lat="43.60671" lon="1.31307">
        <ele>199.4</ele>
        <time>2023-03-25T11:45:18Z</time>
      </trkpt>
      <trkpt lat="43.60671" lon="1.31307">
        <ele>199</ele>
        <time>2023-03-25T11:45:20Z</time>
      </trkpt>
      <trkpt lat="43.60632" lon="1.31316">
        <ele>198.6</ele>
        <time>2023-03-25T11:45:26Z</time>
      </trkpt>
      <trkpt lat="43.6063" lon="1.31318">
        <ele>198.8</ele>
        <time>2023-03-25T11:45:27Z</time>
      </trkpt>
      <trkpt lat="43.60632" lon="1.31333">
        <ele>199.8</ele>
        <time>2023-03-25T11:45:32Z</time>
      </trkpt>
      <trkpt lat="43.60636" lon="1.31343">
        <ele>200</ele>
        <time>2023-03-25T11:45:34Z</time>
      </trkpt>
      <trkpt lat="43.60643" lon="1.31362">
        <ele>200.4</ele>
        <time>2023-03-25T11:45:38Z</time>
      </trkpt>
      <trkpt lat="43.60645" lon="1.31391">
        <ele>200.8</ele>
        <time>2023-03-25T11:45:43Z</time>
      </trkpt>
      <trkpt lat="43.60645" lon="1.31407">
        <ele>201.2</ele>
        <time>2023-03-25T11:45:46Z</time>
      </trkpt>
      <trkpt lat="43.60645" lon="1.31414">
        <ele>201.2</ele>
        <time>2023-03-25T11:45:47Z</time>
      </trkpt>
      <trkpt lat="43.60642" lon="1.31424">
        <ele>201.2</ele>
        <time>2023-03-25T11:45:49Z</time>
      </trkpt>
      <trkpt lat="43.60636" lon="1.31433">
        <ele>201.2</ele>
        <time>2023-03-25T11:45:51Z</time>
      </trkpt>
      <trkpt lat="43.60633" lon="1.31445">
        <ele>201.2</ele>
        <time>2023-03-25T11:45:53Z</time>
      </trkpt>
      <trkpt lat="43.60634" lon="1.31458">
        <ele>201.2</ele>
        <time>2023-03-25T11:45:55Z</time>
      </trkpt>
      <trkpt lat="43.60639" lon="1.3147">
        <ele>201.2</ele>
        <time>2023-03-25T11:45:57Z</time>
      </trkpt>
      <trkpt lat="43.60639" lon="1.31482">
        <ele>201</ele>
        <time>2023-03-25T11:45:59Z</time>
      </trkpt>
      <trkpt lat="43.6064" lon="1.31495">
        <ele>201</ele>
        <time>2023-03-25T11:46:01Z</time>
      </trkpt>
      <trkpt lat="43.60642" lon="1.31543">
        <ele>200.6</ele>
        <time>2023-03-25T11:46:08Z</time>
      </trkpt>
      <trkpt lat="43.60645" lon="1.3162">
        <ele>200.6</ele>
        <time>2023-03-25T11:46:18Z</time>
      </trkpt>
      <trkpt lat="43.6065" lon="1.31699">
        <ele>201</ele>
        <time>2023-03-25T11:46:28Z</time>
      </trkpt>
      <trkpt lat="43.6065" lon="1.31707">
        <ele>201</ele>
        <time>2023-03-25T11:46:29Z</time>
      </trkpt>
      <trkpt lat="43.60655" lon="1.31756">
        <ele>200.8</ele>
        <time>2023-03-25T11:46:35Z</time>
      </trkpt>
      <trkpt lat="43.60665" lon="1.31784">
        <ele>200.6</ele>
        <time>2023-03-25T11:46:39Z</time>
      </trkpt>
      <trkpt lat="43.60667" lon="1.31793">
        <ele>200.8</ele>
        <time>2023-03-25T11:46:40Z</time>
      </trkpt>
      <trkpt lat="43.60668" lon="1.31845">
        <ele>201.2</ele>
        <time>2023-03-25T11:46:47Z</time>
      </trkpt>
      <trkpt lat="43.60671" lon="1.31889">
        <ele>202</ele>
        <time>2023-03-25T11:46:53Z</time>
      </trkpt>
      <trkpt lat="43.60672" lon="1.31912">
        <ele>202.2</ele>
        <time>2023-03-25T11:46:56Z</time>
      </trkpt>
      <trkpt lat="43.60671" lon="1.31924">
        <ele>202.2</ele>
        <time>2023-03-25T11:46:58Z</time>
      </trkpt>
      <trkpt lat="43.60664" lon="1.31936">
        <ele>202.2</ele>
        <time>2023-03-25T11:47:00Z</time>
      </trkpt>
      <trkpt lat="43.60663" lon="1.31948">
        <ele>202.4</ele>
        <time>2023-03-25T11:47:02Z</time>
      </trkpt>
      <trkpt lat="43.60663" lon="1.31956">
        <ele>202.4</ele>
        <time>2023-03-25T11:47:03Z</time>
      </trkpt>
      <trkpt lat="43.60666" lon="1.31994">
        <ele>202.4</ele>
        <time>2023-03-25T11:47:08Z</time>
      </trkpt>
      <trkpt lat="43.60666" lon="1.3202">
        <ele>202.4</ele>
        <time>2023-03-25T11:47:12Z</time>
      </trkpt>
      <trkpt lat="43.60665" lon="1.32026">
        <ele>202.4</ele>
        <time>2023-03-25T11:47:13Z</time>
      </trkpt>
      <trkpt lat="43.60662" lon="1.32055">
        <ele>202.2</ele>
        <time>2023-03-25T11:47:18Z</time>
      </trkpt>
      <trkpt lat="43.60662" lon="1.32063">
        <ele>202</ele>
        <time>2023-03-25T11:47:19Z</time>
      </trkpt>
      <trkpt lat="43.60665" lon="1.32113">
        <ele>201.8</ele>
        <time>2023-03-25T11:47:25Z</time>
      </trkpt>
      <trkpt lat="43.60672" lon="1.32153">
        <ele>201.6</ele>
        <time>2023-03-25T11:47:30Z</time>
      </trkpt>
      <trkpt lat="43.60678" lon="1.32202">
        <ele>201.6</ele>
        <time>2023-03-25T11:47:36Z</time>
      </trkpt>
      <trkpt lat="43.60679" lon="1.32256">
        <ele>201.4</ele>
        <time>2023-03-25T11:47:42Z</time>
      </trkpt>
      <trkpt lat="43.60679" lon="1.32265">
        <ele>201.4</ele>
        <time>2023-03-25T11:47:43Z</time>
      </trkpt>
      <trkpt lat="43.60679" lon="1.32303">
        <ele>201.2</ele>
        <time>2023-03-25T11:47:47Z</time>
      </trkpt>
      <trkpt lat="43.60679" lon="1.32329">
        <ele>201.4</ele>
        <time>2023-03-25T11:47:50Z</time>
      </trkpt>
      <trkpt lat="43.60678" lon="1.32344">
        <ele>201.4</ele>
        <time>2023-03-25T11:47:52Z</time>
      </trkpt>
      <trkpt lat="43.60673" lon="1.32354">
        <ele>201.4</ele>
        <time>2023-03-25T11:47:54Z</time>
      </trkpt>
      <trkpt lat="43.60657" lon="1.32357">
        <ele>201.6</ele>
        <time>2023-03-25T11:47:57Z</time>
      </trkpt>
      <trkpt lat="43.60651" lon="1.32357">
        <ele>201.6</ele>
        <time>2023-03-25T11:47:58Z</time>
      </trkpt>
      <trkpt lat="43.60597" lon="1.32363">
        <ele>201.8</ele>
        <time>2023-03-25T11:48:07Z</time>
      </trkpt>
      <trkpt lat="43.60554" lon="1.32369">
        <ele>201.8</ele>
        <time>2023-03-25T11:48:15Z</time>
      </trkpt>
      <trkpt lat="43.60549" lon="1.32369">
        <ele>201.6</ele>
        <time>2023-03-25T11:48:16Z</time>
      </trkpt>
      <trkpt lat="43.60543" lon="1.32367">
        <ele>201.6</ele>
        <time>2023-03-25T11:48:17Z</time>
      </trkpt>
      <trkpt lat="43.60533" lon="1.32365">
        <ele>201.6</ele>
        <time>2023-03-25T11:48:19Z</time>
      </trkpt>
      <trkpt lat="43.60529" lon="1.32366">
        <ele>201.6</ele>
        <time>2023-03-25T11:48:20Z</time>
      </trkpt>
      <trkpt lat="43.60521" lon="1.3237">
        <ele>201.8</ele>
        <time>2023-03-25T11:48:22Z</time>
      </trkpt>
      <trkpt lat="43.60513" lon="1.32372">
        <ele>201.8</ele>
        <time>2023-03-25T11:48:24Z</time>
      </trkpt>
      <trkpt lat="43.60504" lon="1.32377">
        <ele>201.8</ele>
        <time>2023-03-25T11:48:26Z</time>
      </trkpt>
      <trkpt lat="43.60492" lon="1.32381">
        <ele>201.8</ele>
        <time>2023-03-25T11:48:28Z</time>
      </trkpt>
      <trkpt lat="43.60487" lon="1.32384">
        <ele>201.8</ele>
        <time>2023-03-25T11:48:29Z</time>
      </trkpt>
      <trkpt lat="43.60475" lon="1.32393">
        <ele>201.8</ele>
        <time>2023-03-25T11:48:31Z</time>
      </trkpt>
      <trkpt lat="43.6047" lon="1.32399">
        <ele>202</ele>
        <time>2023-03-25T11:48:32Z</time>
      </trkpt>
      <trkpt lat="43.60465" lon="1.32405">
        <ele>201.8</ele>
        <time>2023-03-25T11:48:33Z</time>
      </trkpt>
      <trkpt lat="43.60453" lon="1.32426">
        <ele>202</ele>
        <time>2023-03-25T11:48:36Z</time>
      </trkpt>
      <trkpt lat="43.60422" lon="1.32487">
        <ele>202</ele>
        <time>2023-03-25T11:48:44Z</time>
      </trkpt>
      <trkpt lat="43.60414" lon="1.32503">
        <ele>202</ele>
        <time>2023-03-25T11:48:46Z</time>
      </trkpt>
      <trkpt lat="43.60387" lon="1.32556">
        <ele>202</ele>
        <time>2023-03-25T11:48:53Z</time>
      </trkpt>
      <trkpt lat="43.60371" lon="1.32585">
        <ele>202</ele>
        <time>2023-03-25T11:48:57Z</time>
      </trkpt>
      <trkpt lat="43.60365" lon="1.32598">
        <ele>201.8</ele>
        <time>2023-03-25T11:48:59Z</time>
      </trkpt>
      <trkpt lat="43.60361" lon="1.32604">
        <ele>202</ele>
        <time>2023-03-25T11:49:00Z</time>
      </trkpt>
      <trkpt lat="43.60351" lon="1.3261">
        <ele>202</ele>
        <time>2023-03-25T11:49:02Z</time>
      </trkpt>
      <trkpt lat="43.6031" lon="1.32618">
        <ele>202</ele>
        <time>2023-03-25T11:49:09Z</time>
      </trkpt>
      <trkpt lat="43.60304" lon="1.32618">
        <ele>202</ele>
        <time>2023-03-25T11:49:10Z</time>
      </trkpt>
      <trkpt lat="43.60294" lon="1.32612">
        <ele>202</ele>
        <time>2023-03-25T11:49:12Z</time>
      </trkpt>
      <trkpt lat="43.60264" lon="1.32577">
        <ele>202</ele>
        <time>2023-03-25T11:49:18Z</time>
      </trkpt>
      <trkpt lat="43.60222" lon="1.32528">
        <ele>202.2</ele>
        <time>2023-03-25T11:49:26Z</time>
      </trkpt>
      <trkpt lat="43.60217" lon="1.32521">
        <ele>202</ele>
        <time>2023-03-25T11:49:27Z</time>
      </trkpt>
      <trkpt lat="43.60172" lon="1.3247">
        <ele>201.6</ele>
        <time>2023-03-25T11:49:35Z</time>
      </trkpt>
      <trkpt lat="43.60156" lon="1.3245">
        <ele>201.6</ele>
        <time>2023-03-25T11:49:38Z</time>
      </trkpt>
      <trkpt lat="43.60122" lon="1.32409">
        <ele>201.4</ele>
        <time>2023-03-25T11:49:45Z</time>
      </trkpt>
      <trkpt lat="43.60111" lon="1.32399">
        <ele>201.4</ele>
        <time>2023-03-25T11:49:47Z</time>
      </trkpt>
      <trkpt lat="43.60097" lon="1.32383">
        <ele>201.6</ele>
        <time>2023-03-25T11:49:50Z</time>
      </trkpt>
      <trkpt lat="43.60073" lon="1.32354">
        <ele>202.2</ele>
        <time>2023-03-25T11:49:56Z</time>
      </trkpt>
      <trkpt lat="43.60059" lon="1.3234">
        <ele>202.4</ele>
        <time>2023-03-25T11:50:00Z</time>
      </trkpt>
      <trkpt lat="43.60049" lon="1.32336">
        <ele>202.6</ele>
        <time>2023-03-25T11:50:02Z</time>
      </trkpt>
      <trkpt lat="43.6004" lon="1.32335">
        <ele>202.6</ele>
        <time>2023-03-25T11:50:04Z</time>
      </trkpt>
      <trkpt lat="43.60028" lon="1.32337">
        <ele>202.6</ele>
        <time>2023-03-25T11:50:06Z</time>
      </trkpt>
      <trkpt lat="43.6" lon="1.32342">
        <ele>202.6</ele>
        <time>2023-03-25T11:50:11Z</time>
      </trkpt>
      <trkpt lat="43.5999" lon="1.32351">
        <ele>202.4</ele>
        <time>2023-03-25T11:50:13Z</time>
      </trkpt>
      <trkpt lat="43.59969" lon="1.32385">
        <ele>202.6</ele>
        <time>2023-03-25T11:50:17Z</time>
      </trkpt>
      <trkpt lat="43.59942" lon="1.32435">
        <ele>202.6</ele>
        <time>2023-03-25T11:50:24Z</time>
      </trkpt>
      <trkpt lat="43.59921" lon="1.32497">
        <ele>202.2</ele>
        <time>2023-03-25T11:50:31Z</time>
      </trkpt>
      <trkpt lat="43.59907" lon="1.32537">
        <ele>202</ele>
        <time>2023-03-25T11:50:36Z</time>
      </trkpt>
      <trkpt lat="43.59896" lon="1.32546">
        <ele>201.8</ele>
        <time>2023-03-25T11:50:38Z</time>
      </trkpt>
      <trkpt lat="43.5989" lon="1.32549">
        <ele>201.8</ele>
        <time>2023-03-25T11:50:39Z</time>
      </trkpt>
      <trkpt lat="43.59859" lon="1.32564">
        <ele>201</ele>
        <time>2023-03-25T11:50:44Z</time>
      </trkpt>
      <trkpt lat="43.59855" lon="1.32569">
        <ele>200.8</ele>
        <time>2023-03-25T11:50:45Z</time>
      </trkpt>
      <trkpt lat="43.59853" lon="1.32574">
        <ele>200.8</ele>
        <time>2023-03-25T11:50:46Z</time>
      </trkpt>
      <trkpt lat="43.59853" lon="1.32589">
        <ele>200.6</ele>
        <time>2023-03-25T11:50:48Z</time>
      </trkpt>
      <trkpt lat="43.59858" lon="1.3261">
        <ele>200.4</ele>
        <time>2023-03-25T11:50:51Z</time>
      </trkpt>
      <trkpt lat="43.59856" lon="1.32617">
        <ele>200</ele>
        <time>2023-03-25T11:50:53Z</time>
      </trkpt>
      <trkpt lat="43.59854" lon="1.32618">
        <ele>199.8</ele>
        <time>2023-03-25T11:50:55Z</time>
      </trkpt>
      <trkpt lat="43.59842" lon="1.32623">
        <ele>199.6</ele>
        <time>2023-03-25T11:50:57Z</time>
      </trkpt>
      <trkpt lat="43.59839" lon="1.32624">
        <ele>199.6</ele>
        <time>2023-03-25T11:50:58Z</time>
      </trkpt>
      <trkpt lat="43.59837" lon="1.32625">
        <ele>199.6</ele>
        <time>2023-03-25T11:50:59Z</time>
      </trkpt>
      <trkpt lat="43.5983" lon="1.32634">
        <ele>199.4</ele>
        <time>2023-03-25T11:51:01Z</time>
      </trkpt>
      <trkpt lat="43.59822" lon="1.32664">
        <ele>199</ele>
        <time>2023-03-25T11:51:05Z</time>
      </trkpt>
      <trkpt lat="43.59817" lon="1.32681">
        <ele>198.4</ele>
        <time>2023-03-25T11:51:06Z</time>
      </trkpt>
      <trkpt lat="43.5981" lon="1.32708">
        <ele>198</ele>
        <time>2023-03-25T11:51:10Z</time>
      </trkpt>
      <trkpt lat="43.59802" lon="1.32768">
        <ele>198.4</ele>
        <time>2023-03-25T11:51:16Z</time>
      </trkpt>
      <trkpt lat="43.59798" lon="1.32786">
        <ele>198.6</ele>
        <time>2023-03-25T11:51:17Z</time>
      </trkpt>
      <trkpt lat="43.59791" lon="1.3281">
        <ele>198.8</ele>
        <time>2023-03-25T11:51:20Z</time>
      </trkpt>
      <trkpt lat="43.59789" lon="1.32835">
        <ele>199</ele>
        <time>2023-03-25T11:51:23Z</time>
      </trkpt>
      <trkpt lat="43.59791" lon="1.32842">
        <ele>199.2</ele>
        <time>2023-03-25T11:51:24Z</time>
      </trkpt>
      <trkpt lat="43.59795" lon="1.32855">
        <ele>199.2</ele>
        <time>2023-03-25T11:51:26Z</time>
      </trkpt>
      <trkpt lat="43.59795" lon="1.32865">
        <ele>199.2</ele>
        <time>2023-03-25T11:51:28Z</time>
      </trkpt>
      <trkpt lat="43.59796" lon="1.32876">
        <ele>199.2</ele>
        <time>2023-03-25T11:51:30Z</time>
      </trkpt>
      <trkpt lat="43.59799" lon="1.32881">
        <ele>199</ele>
        <time>2023-03-25T11:51:31Z</time>
      </trkpt>
      <trkpt lat="43.59806" lon="1.32889">
        <ele>198.8</ele>
        <time>2023-03-25T11:51:33Z</time>
      </trkpt>
      <trkpt lat="43.59816" lon="1.32896">
        <ele>198.4</ele>
        <time>2023-03-25T11:51:36Z</time>
      </trkpt>
      <trkpt lat="43.59843" lon="1.32921">
        <ele>198</ele>
        <time>2023-03-25T11:51:41Z</time>
      </trkpt>
      <trkpt lat="43.59846" lon="1.32926">
        <ele>197.8</ele>
        <time>2023-03-25T11:51:42Z</time>
      </trkpt>
      <trkpt lat="43.59855" lon="1.32946">
        <ele>197.8</ele>
        <time>2023-03-25T11:51:45Z</time>
      </trkpt>
      <trkpt lat="43.59857" lon="1.32961">
        <ele>197.6</ele>
        <time>2023-03-25T11:51:47Z</time>
      </trkpt>
      <trkpt lat="43.59856" lon="1.3301">
        <ele>197.8</ele>
        <time>2023-03-25T11:51:53Z</time>
      </trkpt>
      <trkpt lat="43.5985" lon="1.3308">
        <ele>198.4</ele>
        <time>2023-03-25T11:52:01Z</time>
      </trkpt>
      <trkpt lat="43.59846" lon="1.33108">
        <ele>198.6</ele>
        <time>2023-03-25T11:52:04Z</time>
      </trkpt>
      <trkpt lat="43.59837" lon="1.33123">
        <ele>198.6</ele>
        <time>2023-03-25T11:52:06Z</time>
      </trkpt>
      <trkpt lat="43.59821" lon="1.33147">
        <ele>198</ele>
        <time>2023-03-25T11:52:09Z</time>
      </trkpt>
      <trkpt lat="43.59819" lon="1.33166">
        <ele>197.6</ele>
        <time>2023-03-25T11:52:11Z</time>
      </trkpt>
      <trkpt lat="43.59819" lon="1.33176">
        <ele>196.8</ele>
        <time>2023-03-25T11:52:12Z</time>
      </trkpt>
      <trkpt lat="43.59821" lon="1.33194">
        <ele>195.8</ele>
        <time>2023-03-25T11:52:14Z</time>
      </trkpt>
      <trkpt lat="43.59824" lon="1.33202">
        <ele>195.6</ele>
        <time>2023-03-25T11:52:15Z</time>
      </trkpt>
      <trkpt lat="43.59827" lon="1.3321">
        <ele>195.4</ele>
        <time>2023-03-25T11:52:16Z</time>
      </trkpt>
      <trkpt lat="43.59837" lon="1.33232">
        <ele>194.8</ele>
        <time>2023-03-25T11:52:19Z</time>
      </trkpt>
      <trkpt lat="43.5984" lon="1.33243">
        <ele>194.8</ele>
        <time>2023-03-25T11:52:20Z</time>
      </trkpt>
      <trkpt lat="43.59847" lon="1.33273">
        <ele>194.8</ele>
        <time>2023-03-25T11:52:23Z</time>
      </trkpt>
      <trkpt lat="43.59849" lon="1.33294">
        <ele>194.6</ele>
        <time>2023-03-25T11:52:25Z</time>
      </trkpt>
      <trkpt lat="43.59843" lon="1.3332">
        <ele>194.6</ele>
        <time>2023-03-25T11:52:28Z</time>
      </trkpt>
      <trkpt lat="43.59841" lon="1.33327">
        <ele>194.6</ele>
        <time>2023-03-25T11:52:29Z</time>
      </trkpt>
      <trkpt lat="43.59835" lon="1.33349">
        <ele>195.2</ele>
        <time>2023-03-25T11:52:32Z</time>
      </trkpt>
      <trkpt lat="43.59835" lon="1.33366">
        <ele>196</ele>
        <time>2023-03-25T11:52:34Z</time>
      </trkpt>
      <trkpt lat="43.59837" lon="1.3339">
        <ele>196.8</ele>
        <time>2023-03-25T11:52:37Z</time>
      </trkpt>
      <trkpt lat="43.5984" lon="1.33406">
        <ele>197.2</ele>
        <time>2023-03-25T11:52:39Z</time>
      </trkpt>
      <trkpt lat="43.59844" lon="1.33413">
        <ele>197.2</ele>
        <time>2023-03-25T11:52:40Z</time>
      </trkpt>
      <trkpt lat="43.59853" lon="1.33427">
        <ele>197.4</ele>
        <time>2023-03-25T11:52:42Z</time>
      </trkpt>
      <trkpt lat="43.59872" lon="1.33452">
        <ele>197.4</ele>
        <time>2023-03-25T11:52:45Z</time>
      </trkpt>
      <trkpt lat="43.59884" lon="1.33467">
        <ele>197</ele>
        <time>2023-03-25T11:52:47Z</time>
      </trkpt>
      <trkpt lat="43.59894" lon="1.33486">
        <ele>196.6</ele>
        <time>2023-03-25T11:52:49Z</time>
      </trkpt>
      <trkpt lat="43.59904" lon="1.33506">
        <ele>195</ele>
        <time>2023-03-25T11:52:51Z</time>
      </trkpt>
      <trkpt lat="43.59912" lon="1.33525">
        <ele>194</ele>
        <time>2023-03-25T11:52:53Z</time>
      </trkpt>
      <trkpt lat="43.59915" lon="1.33536">
        <ele>193.8</ele>
        <time>2023-03-25T11:52:54Z</time>
      </trkpt>
      <trkpt lat="43.59916" lon="1.33547">
        <ele>193.4</ele>
        <time>2023-03-25T11:52:55Z</time>
      </trkpt>
      <trkpt lat="43.59922" lon="1.33583">
        <ele>192.6</ele>
        <time>2023-03-25T11:52:59Z</time>
      </trkpt>
      <trkpt lat="43.59929" lon="1.33645">
        <ele>191.6</ele>
        <time>2023-03-25T11:53:04Z</time>
      </trkpt>
      <trkpt lat="43.59931" lon="1.33654">
        <ele>191.6</ele>
        <time>2023-03-25T11:53:05Z</time>
      </trkpt>
      <trkpt lat="43.59934" lon="1.33671">
        <ele>191.6</ele>
        <time>2023-03-25T11:53:07Z</time>
      </trkpt>
      <trkpt lat="43.59934" lon="1.33678">
        <ele>191.4</ele>
        <time>2023-03-25T11:53:08Z</time>
      </trkpt>
      <trkpt lat="43.59936" lon="1.33684">
        <ele>191.4</ele>
        <time>2023-03-25T11:53:09Z</time>
      </trkpt>
      <trkpt lat="43.59941" lon="1.33689">
        <ele>191.4</ele>
        <time>2023-03-25T11:53:11Z</time>
      </trkpt>
      <trkpt lat="43.59945" lon="1.33686">
        <ele>191.2</ele>
        <time>2023-03-25T11:53:13Z</time>
      </trkpt>
      <trkpt lat="43.59948" lon="1.33687">
        <ele>191</ele>
        <time>2023-03-25T11:53:14Z</time>
      </trkpt>
      <trkpt lat="43.59952" lon="1.33702">
        <ele>191</ele>
        <time>2023-03-25T11:53:17Z</time>
      </trkpt>
      <trkpt lat="43.59953" lon="1.33709">
        <ele>191</ele>
        <time>2023-03-25T11:53:18Z</time>
      </trkpt>
      <trkpt lat="43.59955" lon="1.33735">
        <ele>190.8</ele>
        <time>2023-03-25T11:53:21Z</time>
      </trkpt>
      <trkpt lat="43.59959" lon="1.33763">
        <ele>190.6</ele>
        <time>2023-03-25T11:53:24Z</time>
      </trkpt>
      <trkpt lat="43.59964" lon="1.33788">
        <ele>190.2</ele>
        <time>2023-03-25T11:53:27Z</time>
      </trkpt>
      <trkpt lat="43.59975" lon="1.3384">
        <ele>190.2</ele>
        <time>2023-03-25T11:53:33Z</time>
      </trkpt>
      <trkpt lat="43.59978" lon="1.33847">
        <ele>190.2</ele>
        <time>2023-03-25T11:53:34Z</time>
      </trkpt>
      <trkpt lat="43.59982" lon="1.33852">
        <ele>190</ele>
        <time>2023-03-25T11:53:35Z</time>
      </trkpt>
      <trkpt lat="43.59995" lon="1.33869">
        <ele>189.8</ele>
        <time>2023-03-25T11:53:38Z</time>
      </trkpt>
      <trkpt lat="43.60001" lon="1.33884">
        <ele>189.6</ele>
        <time>2023-03-25T11:53:40Z</time>
      </trkpt>
      <trkpt lat="43.6001" lon="1.33908">
        <ele>189.6</ele>
        <time>2023-03-25T11:53:43Z</time>
      </trkpt>
      <trkpt lat="43.60019" lon="1.33917">
        <ele>189.6</ele>
        <time>2023-03-25T11:53:45Z</time>
      </trkpt>
      <trkpt lat="43.60028" lon="1.33926">
        <ele>189.8</ele>
        <time>2023-03-25T11:53:47Z</time>
      </trkpt>
      <trkpt lat="43.60032" lon="1.33936">
        <ele>189.8</ele>
        <time>2023-03-25T11:53:49Z</time>
      </trkpt>
      <trkpt lat="43.60032" lon="1.3394">
        <ele>189.8</ele>
        <time>2023-03-25T11:53:50Z</time>
      </trkpt>
      <trkpt lat="43.60031" lon="1.33945">
        <ele>190</ele>
        <time>2023-03-25T11:53:52Z</time>
      </trkpt>
      <trkpt lat="43.6003" lon="1.33947">
        <ele>190</ele>
        <time>2023-03-25T11:53:53Z</time>
      </trkpt>
      <trkpt lat="43.60018" lon="1.33947">
        <ele>191</ele>
        <time>2023-03-25T11:53:58Z</time>
      </trkpt>
      <trkpt lat="43.60001" lon="1.33945">
        <ele>191.2</ele>
        <time>2023-03-25T11:54:04Z</time>
      </trkpt>
      <trkpt lat="43.59999" lon="1.33951">
        <ele>191.4</ele>
        <time>2023-03-25T11:54:06Z</time>
      </trkpt>
      <trkpt lat="43.6" lon="1.33955">
        <ele>191.4</ele>
        <time>2023-03-25T11:54:07Z</time>
      </trkpt>
      <trkpt lat="43.60006" lon="1.3397">
        <ele>191.4</ele>
        <time>2023-03-25T11:54:10Z</time>
      </trkpt>
      <trkpt lat="43.60011" lon="1.33974">
        <ele>191.4</ele>
        <time>2023-03-25T11:54:11Z</time>
      </trkpt>
      <trkpt lat="43.60017" lon="1.33979">
        <ele>191.2</ele>
        <time>2023-03-25T11:54:12Z</time>
      </trkpt>
      <trkpt lat="43.60027" lon="1.33994">
        <ele>191.2</ele>
        <time>2023-03-25T11:54:14Z</time>
      </trkpt>
      <trkpt lat="43.60033" lon="1.34014">
        <ele>191.2</ele>
        <time>2023-03-25T11:54:16Z</time>
      </trkpt>
      <trkpt lat="43.60033" lon="1.34014">
        <ele>191</ele>
        <time>2023-03-25T11:54:17Z</time>
      </trkpt>
      <trkpt lat="43.60037" lon="1.34055">
        <ele>189.2</ele>
        <time>2023-03-25T11:54:20Z</time>
      </trkpt>
      <trkpt lat="43.60037" lon="1.34074">
        <ele>188.8</ele>
        <time>2023-03-25T11:54:22Z</time>
      </trkpt>
      <trkpt lat="43.60037" lon="1.34094">
        <ele>188.6</ele>
        <time>2023-03-25T11:54:24Z</time>
      </trkpt>
      <trkpt lat="43.60041" lon="1.34111">
        <ele>188.4</ele>
        <time>2023-03-25T11:54:26Z</time>
      </trkpt>
      <trkpt lat="43.60057" lon="1.34145">
        <ele>189</ele>
        <time>2023-03-25T11:54:30Z</time>
      </trkpt>
      <trkpt lat="43.6006" lon="1.34154">
        <ele>189.4</ele>
        <time>2023-03-25T11:54:31Z</time>
      </trkpt>
      <trkpt lat="43.60065" lon="1.34173">
        <ele>189.6</ele>
        <time>2023-03-25T11:54:33Z</time>
      </trkpt>
      <trkpt lat="43.60075" lon="1.34208">
        <ele>189.8</ele>
        <time>2023-03-25T11:54:37Z</time>
      </trkpt>
      <trkpt lat="43.60074" lon="1.34226">
        <ele>189.6</ele>
        <time>2023-03-25T11:54:39Z</time>
      </trkpt>
      <trkpt lat="43.60072" lon="1.34234">
        <ele>189.8</ele>
        <time>2023-03-25T11:54:40Z</time>
      </trkpt>
      <trkpt lat="43.60069" lon="1.34241">
        <ele>189.8</ele>
        <time>2023-03-25T11:54:41Z</time>
      </trkpt>
      <trkpt lat="43.60056" lon="1.34265">
        <ele>190</ele>
        <time>2023-03-25T11:54:45Z</time>
      </trkpt>
      <trkpt lat="43.6005" lon="1.34285">
        <ele>190</ele>
        <time>2023-03-25T11:54:48Z</time>
      </trkpt>
      <trkpt lat="43.60049" lon="1.34292">
        <ele>190.2</ele>
        <time>2023-03-25T11:54:50Z</time>
      </trkpt>
      <trkpt lat="43.60048" lon="1.34303">
        <ele>190.4</ele>
        <time>2023-03-25T11:54:51Z</time>
      </trkpt>
      <trkpt lat="43.6005" lon="1.34321">
        <ele>190.6</ele>
        <time>2023-03-25T11:54:54Z</time>
      </trkpt>
      <trkpt lat="43.60052" lon="1.34328">
        <ele>190.6</ele>
        <time>2023-03-25T11:54:55Z</time>
      </trkpt>
      <trkpt lat="43.60063" lon="1.34357">
        <ele>191.2</ele>
        <time>2023-03-25T11:54:59Z</time>
      </trkpt>
      <trkpt lat="43.60066" lon="1.34365">
        <ele>191</ele>
        <time>2023-03-25T11:55:00Z</time>
      </trkpt>
      <trkpt lat="43.60083" lon="1.34396">
        <ele>190.4</ele>
        <time>2023-03-25T11:55:04Z</time>
      </trkpt>
      <trkpt lat="43.6009" lon="1.34413">
        <ele>189.4</ele>
        <time>2023-03-25T11:55:06Z</time>
      </trkpt>
      <trkpt lat="43.60091" lon="1.34419">
        <ele>189.2</ele>
        <time>2023-03-25T11:55:07Z</time>
      </trkpt>
      <trkpt lat="43.60091" lon="1.34426">
        <ele>188.6</ele>
        <time>2023-03-25T11:55:08Z</time>
      </trkpt>
      <trkpt lat="43.60094" lon="1.34451">
        <ele>188</ele>
        <time>2023-03-25T11:55:10Z</time>
      </trkpt>
      <trkpt lat="43.60094" lon="1.34468">
        <ele>187.4</ele>
        <time>2023-03-25T11:55:12Z</time>
      </trkpt>
      <trkpt lat="43.60095" lon="1.34474">
        <ele>187</ele>
        <time>2023-03-25T11:55:13Z</time>
      </trkpt>
      <trkpt lat="43.60098" lon="1.34484">
        <ele>186.4</ele>
        <time>2023-03-25T11:55:15Z</time>
      </trkpt>
      <trkpt lat="43.60103" lon="1.34494">
        <ele>185.8</ele>
        <time>2023-03-25T11:55:17Z</time>
      </trkpt>
      <trkpt lat="43.60103" lon="1.34511">
        <ele>185.4</ele>
        <time>2023-03-25T11:55:19Z</time>
      </trkpt>
      <trkpt lat="43.60091" lon="1.34534">
        <ele>184.8</ele>
        <time>2023-03-25T11:55:22Z</time>
      </trkpt>
      <trkpt lat="43.60071" lon="1.34563">
        <ele>183.8</ele>
        <time>2023-03-25T11:55:26Z</time>
      </trkpt>
      <trkpt lat="43.60057" lon="1.34585">
        <ele>183.2</ele>
        <time>2023-03-25T11:55:29Z</time>
      </trkpt>
      <trkpt lat="43.6004" lon="1.3461">
        <ele>182.6</ele>
        <time>2023-03-25T11:55:33Z</time>
      </trkpt>
      <trkpt lat="43.60036" lon="1.34615">
        <ele>182.4</ele>
        <time>2023-03-25T11:55:34Z</time>
      </trkpt>
      <trkpt lat="43.6002" lon="1.34629">
        <ele>182</ele>
        <time>2023-03-25T11:55:38Z</time>
      </trkpt>
      <trkpt lat="43.60016" lon="1.34631">
        <ele>182.2</ele>
        <time>2023-03-25T11:55:39Z</time>
      </trkpt>
      <trkpt lat="43.60011" lon="1.34633">
        <ele>182</ele>
        <time>2023-03-25T11:55:40Z</time>
      </trkpt>
      <trkpt lat="43.59995" lon="1.34637">
        <ele>181.8</ele>
        <time>2023-03-25T11:55:43Z</time>
      </trkpt>
      <trkpt lat="43.59984" lon="1.34637">
        <ele>181.4</ele>
        <time>2023-03-25T11:55:45Z</time>
      </trkpt>
      <trkpt lat="43.59972" lon="1.34638">
        <ele>181.4</ele>
        <time>2023-03-25T11:55:47Z</time>
      </trkpt>
      <trkpt lat="43.59954" lon="1.34633">
        <ele>181.2</ele>
        <time>2023-03-25T11:55:50Z</time>
      </trkpt>
      <trkpt lat="43.59943" lon="1.34629">
        <ele>181.2</ele>
        <time>2023-03-25T11:55:52Z</time>
      </trkpt>
      <trkpt lat="43.5993" lon="1.34621">
        <ele>181.2</ele>
        <time>2023-03-25T11:55:55Z</time>
      </trkpt>
      <trkpt lat="43.59914" lon="1.34614">
        <ele>182.2</ele>
        <time>2023-03-25T11:55:59Z</time>
      </trkpt>
      <trkpt lat="43.59905" lon="1.34612">
        <ele>182.6</ele>
        <time>2023-03-25T11:56:01Z</time>
      </trkpt>
      <trkpt lat="43.59894" lon="1.34611">
        <ele>183.2</ele>
        <time>2023-03-25T11:56:03Z</time>
      </trkpt>
      <trkpt lat="43.59888" lon="1.3461">
        <ele>183.6</ele>
        <time>2023-03-25T11:56:04Z</time>
      </trkpt>
      <trkpt lat="43.59883" lon="1.34609">
        <ele>183.8</ele>
        <time>2023-03-25T11:56:05Z</time>
      </trkpt>
      <trkpt lat="43.59877" lon="1.34607">
        <ele>184</ele>
        <time>2023-03-25T11:56:06Z</time>
      </trkpt>
      <trkpt lat="43.59868" lon="1.34602">
        <ele>184.4</ele>
        <time>2023-03-25T11:56:08Z</time>
      </trkpt>
      <trkpt lat="43.59863" lon="1.34601">
        <ele>184.6</ele>
        <time>2023-03-25T11:56:09Z</time>
      </trkpt>
      <trkpt lat="43.59854" lon="1.34601">
        <ele>184.8</ele>
        <time>2023-03-25T11:56:11Z</time>
      </trkpt>
      <trkpt lat="43.59846" lon="1.34608">
        <ele>185.2</ele>
        <time>2023-03-25T11:56:13Z</time>
      </trkpt>
      <trkpt lat="43.59837" lon="1.34615">
        <ele>185.4</ele>
        <time>2023-03-25T11:56:15Z</time>
      </trkpt>
      <trkpt lat="43.5983" lon="1.34616">
        <ele>185.4</ele>
        <time>2023-03-25T11:56:17Z</time>
      </trkpt>
      <trkpt lat="43.59826" lon="1.34614">
        <ele>185.4</ele>
        <time>2023-03-25T11:56:18Z</time>
      </trkpt>
      <trkpt lat="43.59816" lon="1.34601">
        <ele>184.8</ele>
        <time>2023-03-25T11:56:21Z</time>
      </trkpt>
      <trkpt lat="43.59808" lon="1.34591">
        <ele>184.6</ele>
        <time>2023-03-25T11:56:23Z</time>
      </trkpt>
      <trkpt lat="43.59802" lon="1.34589">
        <ele>184.4</ele>
        <time>2023-03-25T11:56:24Z</time>
      </trkpt>
      <trkpt lat="43.59761" lon="1.34577">
        <ele>184.4</ele>
        <time>2023-03-25T11:56:30Z</time>
      </trkpt>
      <trkpt lat="43.59753" lon="1.34574">
        <ele>184.4</ele>
        <time>2023-03-25T11:56:31Z</time>
      </trkpt>
      <trkpt lat="43.5971" lon="1.34554">
        <ele>183.2</ele>
        <time>2023-03-25T11:56:37Z</time>
      </trkpt>
      <trkpt lat="43.59677" lon="1.34532">
        <ele>182.2</ele>
        <time>2023-03-25T11:56:42Z</time>
      </trkpt>
      <trkpt lat="43.59671" lon="1.34527">
        <ele>182.2</ele>
        <time>2023-03-25T11:56:43Z</time>
      </trkpt>
      <trkpt lat="43.59641" lon="1.345">
        <ele>181.8</ele>
        <time>2023-03-25T11:56:49Z</time>
      </trkpt>
      <trkpt lat="43.59636" lon="1.34505">
        <ele>181.6</ele>
        <time>2023-03-25T11:56:51Z</time>
      </trkpt>
      <trkpt lat="43.59636" lon="1.3451">
        <ele>181.4</ele>
        <time>2023-03-25T11:56:52Z</time>
      </trkpt>
      <trkpt lat="43.59636" lon="1.34516">
        <ele>181.2</ele>
        <time>2023-03-25T11:56:53Z</time>
      </trkpt>
      <trkpt lat="43.59637" lon="1.34522">
        <ele>181.2</ele>
        <time>2023-03-25T11:56:54Z</time>
      </trkpt>
      <trkpt lat="43.59644" lon="1.34578">
        <ele>180.6</ele>
        <time>2023-03-25T11:56:59Z</time>
      </trkpt>
      <trkpt lat="43.59642" lon="1.346">
        <ele>180.2</ele>
        <time>2023-03-25T11:57:01Z</time>
      </trkpt>
      <trkpt lat="43.59639" lon="1.34611">
        <ele>179.8</ele>
        <time>2023-03-25T11:57:02Z</time>
      </trkpt>
      <trkpt lat="43.59626" lon="1.34651">
        <ele>179</ele>
        <time>2023-03-25T11:57:07Z</time>
      </trkpt>
      <trkpt lat="43.59612" lon="1.347">
        <ele>178.8</ele>
        <time>2023-03-25T11:57:11Z</time>
      </trkpt>
      <trkpt lat="43.59594" lon="1.34759">
        <ele>178</ele>
        <time>2023-03-25T11:57:17Z</time>
      </trkpt>
      <trkpt lat="43.59587" lon="1.34778">
        <ele>177.8</ele>
        <time>2023-03-25T11:57:19Z</time>
      </trkpt>
      <trkpt lat="43.59573" lon="1.34815">
        <ele>177.2</ele>
        <time>2023-03-25T11:57:23Z</time>
      </trkpt>
      <trkpt lat="43.59568" lon="1.34832">
        <ele>177</ele>
        <time>2023-03-25T11:57:25Z</time>
      </trkpt>
      <trkpt lat="43.59559" lon="1.34854">
        <ele>176.6</ele>
        <time>2023-03-25T11:57:29Z</time>
      </trkpt>
      <trkpt lat="43.59557" lon="1.34858">
        <ele>176.4</ele>
        <time>2023-03-25T11:57:31Z</time>
      </trkpt>
      <trkpt lat="43.59555" lon="1.34856">
        <ele>176.4</ele>
        <time>2023-03-25T11:57:32Z</time>
      </trkpt>
      <trkpt lat="43.59546" lon="1.34847">
        <ele>176.2</ele>
        <time>2023-03-25T11:57:35Z</time>
      </trkpt>
      <trkpt lat="43.59543" lon="1.34844">
        <ele>176</ele>
        <time>2023-03-25T11:57:36Z</time>
      </trkpt>
      <trkpt lat="43.59539" lon="1.34841">
        <ele>176</ele>
        <time>2023-03-25T11:57:37Z</time>
      </trkpt>
      <trkpt lat="43.59535" lon="1.34839">
        <ele>175.8</ele>
        <time>2023-03-25T11:57:38Z</time>
      </trkpt>
      <trkpt lat="43.59526" lon="1.34834">
        <ele>175.8</ele>
        <time>2023-03-25T11:57:40Z</time>
      </trkpt>
      <trkpt lat="43.59512" lon="1.3482">
        <ele>175.8</ele>
        <time>2023-03-25T11:57:44Z</time>
      </trkpt>
      <trkpt lat="43.59512" lon="1.34817">
        <ele>175.8</ele>
        <time>2023-03-25T11:57:45Z</time>
      </trkpt>
      <trkpt lat="43.59511" lon="1.34813">
        <ele>175.8</ele>
        <time>2023-03-25T11:57:46Z</time>
      </trkpt>
      <trkpt lat="43.59513" lon="1.34805">
        <ele>175.8</ele>
        <time>2023-03-25T11:57:48Z</time>
      </trkpt>
      <trkpt lat="43.59511" lon="1.34798">
        <ele>176</ele>
        <time>2023-03-25T11:57:50Z</time>
      </trkpt>
      <trkpt lat="43.59508" lon="1.34795">
        <ele>176</ele>
        <time>2023-03-25T11:57:51Z</time>
      </trkpt>
      <trkpt lat="43.59501" lon="1.3479">
        <ele>176</ele>
        <time>2023-03-25T11:57:53Z</time>
      </trkpt>
      <trkpt lat="43.59492" lon="1.34785">
        <ele>176</ele>
        <time>2023-03-25T11:57:55Z</time>
      </trkpt>
      <trkpt lat="43.59455" lon="1.34764">
        <ele>176</ele>
        <time>2023-03-25T11:58:02Z</time>
      </trkpt>
      <trkpt lat="43.59421" lon="1.34747">
        <ele>176.4</ele>
        <time>2023-03-25T11:58:08Z</time>
      </trkpt>
      <trkpt lat="43.59386" lon="1.34729">
        <ele>176.8</ele>
        <time>2023-03-25T11:58:14Z</time>
      </trkpt>
      <trkpt lat="43.59381" lon="1.34724">
        <ele>176.8</ele>
        <time>2023-03-25T11:58:15Z</time>
      </trkpt>
      <trkpt lat="43.59371" lon="1.34712">
        <ele>177</ele>
        <time>2023-03-25T11:58:17Z</time>
      </trkpt>
      <trkpt lat="43.59365" lon="1.34707">
        <ele>177.2</ele>
        <time>2023-03-25T11:58:18Z</time>
      </trkpt>
      <trkpt lat="43.59359" lon="1.34704">
        <ele>177.2</ele>
        <time>2023-03-25T11:58:19Z</time>
      </trkpt>
      <trkpt lat="43.59347" lon="1.34702">
        <ele>177.2</ele>
        <time>2023-03-25T11:58:21Z</time>
      </trkpt>
      <trkpt lat="43.59341" lon="1.34703">
        <ele>177.2</ele>
        <time>2023-03-25T11:58:22Z</time>
      </trkpt>
      <trkpt lat="43.59288" lon="1.34712">
        <ele>177.2</ele>
        <time>2023-03-25T11:58:30Z</time>
      </trkpt>
      <trkpt lat="43.59267" lon="1.34714">
        <ele>177.2</ele>
        <time>2023-03-25T11:58:33Z</time>
      </trkpt>
      <trkpt lat="43.59246" lon="1.34711">
        <ele>177.2</ele>
        <time>2023-03-25T11:58:36Z</time>
      </trkpt>
      <trkpt lat="43.59191" lon="1.34706">
        <ele>176.8</ele>
        <time>2023-03-25T11:58:44Z</time>
      </trkpt>
      <trkpt lat="43.59183" lon="1.34706">
        <ele>176.8</ele>
        <time>2023-03-25T11:58:45Z</time>
      </trkpt>
      <trkpt lat="43.59148" lon="1.34707">
        <ele>176.8</ele>
        <time>2023-03-25T11:58:51Z</time>
      </trkpt>
      <trkpt lat="43.59134" lon="1.34707">
        <ele>176.8</ele>
        <time>2023-03-25T11:58:52Z</time>
      </trkpt>
      <trkpt lat="43.59107" lon="1.34704">
        <ele>177</ele>
        <time>2023-03-25T11:58:56Z</time>
      </trkpt>
      <trkpt lat="43.5906" lon="1.34699">
        <ele>177.4</ele>
        <time>2023-03-25T11:59:03Z</time>
      </trkpt>
      <trkpt lat="43.59026" lon="1.34695">
        <ele>177.6</ele>
        <time>2023-03-25T11:59:09Z</time>
      </trkpt>
      <trkpt lat="43.59021" lon="1.34679">
        <ele>177.6</ele>
        <time>2023-03-25T11:59:12Z</time>
      </trkpt>
      <trkpt lat="43.59022" lon="1.34634">
        <ele>177.4</ele>
        <time>2023-03-25T11:59:18Z</time>
      </trkpt>
      <trkpt lat="43.59021" lon="1.3462">
        <ele>177.2</ele>
        <time>2023-03-25T11:59:20Z</time>
      </trkpt>
      <trkpt lat="43.59016" lon="1.34606">
        <ele>177</ele>
        <time>2023-03-25T11:59:22Z</time>
      </trkpt>
      <trkpt lat="43.58999" lon="1.34581">
        <ele>177</ele>
        <time>2023-03-25T11:59:26Z</time>
      </trkpt>
      <trkpt lat="43.58962" lon="1.34527">
        <ele>176.8</ele>
        <time>2023-03-25T11:59:34Z</time>
      </trkpt>
      <trkpt lat="43.58921" lon="1.34467">
        <ele>176.8</ele>
        <time>2023-03-25T11:59:43Z</time>
      </trkpt>
      <trkpt lat="43.58879" lon="1.34407">
        <ele>177.4</ele>
        <time>2023-03-25T11:59:53Z</time>
      </trkpt>
      <trkpt lat="43.58878" lon="1.34394">
        <ele>177.4</ele>
        <time>2023-03-25T11:59:55Z</time>
      </trkpt>
      <trkpt lat="43.5888" lon="1.34387">
        <ele>177.4</ele>
        <time>2023-03-25T11:59:56Z</time>
      </trkpt>
      <trkpt lat="43.58884" lon="1.34382">
        <ele>177.4</ele>
        <time>2023-03-25T11:59:57Z</time>
      </trkpt>
      <trkpt lat="43.58902" lon="1.34359">
        <ele>177.4</ele>
        <time>2023-03-25T12:00:01Z</time>
      </trkpt>
      <trkpt lat="43.58927" lon="1.3432">
        <ele>177.2</ele>
        <time>2023-03-25T12:00:07Z</time>
      </trkpt>
      <trkpt lat="43.5893" lon="1.34312">
        <ele>177.2</ele>
        <time>2023-03-25T12:00:08Z</time>
      </trkpt>
      <trkpt lat="43.58961" lon="1.34241">
        <ele>178</ele>
        <time>2023-03-25T12:00:17Z</time>
      </trkpt>
      <trkpt lat="43.58964" lon="1.34233">
        <ele>177.8</ele>
        <time>2023-03-25T12:00:18Z</time>
      </trkpt>
      <trkpt lat="43.58988" lon="1.3419">
        <ele>178.2</ele>
        <time>2023-03-25T12:00:24Z</time>
      </trkpt>
      <trkpt lat="43.59009" lon="1.34156">
        <ele>178.6</ele>
        <time>2023-03-25T12:00:30Z</time>
      </trkpt>
      <trkpt lat="43.59035" lon="1.34114">
        <ele>178.8</ele>
        <time>2023-03-25T12:00:35Z</time>
      </trkpt>
      <trkpt lat="43.59046" lon="1.34094">
        <ele>178.8</ele>
        <time>2023-03-25T12:00:38Z</time>
      </trkpt>
      <trkpt lat="43.59049" lon="1.34078">
        <ele>179</ele>
        <time>2023-03-25T12:00:40Z</time>
      </trkpt>
      <trkpt lat="43.59044" lon="1.3407">
        <ele>179</ele>
        <time>2023-03-25T12:00:42Z</time>
      </trkpt>
      <trkpt lat="43.59036" lon="1.34075">
        <ele>179</ele>
        <time>2023-03-25T12:00:44Z</time>
      </trkpt>
      <trkpt lat="43.59031" lon="1.34075">
        <ele>179</ele>
        <time>2023-03-25T12:00:45Z</time>
      </trkpt>
      <trkpt lat="43.59027" lon="1.34071">
        <ele>179</ele>
        <time>2023-03-25T12:00:46Z</time>
      </trkpt>
      <trkpt lat="43.59018" lon="1.34061">
        <ele>179</ele>
        <time>2023-03-25T12:00:48Z</time>
      </trkpt>
      <trkpt lat="43.58995" lon="1.34033">
        <ele>179.2</ele>
        <time>2023-03-25T12:00:53Z</time>
      </trkpt>
      <trkpt lat="43.58963" lon="1.33999">
        <ele>179.2</ele>
        <time>2023-03-25T12:00:59Z</time>
      </trkpt>
      <trkpt lat="43.58953" lon="1.33987">
        <ele>179.2</ele>
        <time>2023-03-25T12:01:01Z</time>
      </trkpt>
      <trkpt lat="43.58907" lon="1.33936">
        <ele>179.4</ele>
        <time>2023-03-25T12:01:10Z</time>
      </trkpt>
      <trkpt lat="43.58895" lon="1.33924">
        <ele>179.4</ele>
        <time>2023-03-25T12:01:13Z</time>
      </trkpt>
      <trkpt lat="43.58891" lon="1.33922">
        <ele>179.4</ele>
        <time>2023-03-25T12:01:14Z</time>
      </trkpt>
      <trkpt lat="43.58886" lon="1.33922">
        <ele>179.2</ele>
        <time>2023-03-25T12:01:15Z</time>
      </trkpt>
      <trkpt lat="43.58876" lon="1.33922">
        <ele>179.2</ele>
        <time>2023-03-25T12:01:17Z</time>
      </trkpt>
      <trkpt lat="43.58873" lon="1.3392">
        <ele>179.2</ele>
        <time>2023-03-25T12:01:18Z</time>
      </trkpt>
      <trkpt lat="43.5887" lon="1.33915">
        <ele>179.2</ele>
        <time>2023-03-25T12:01:19Z</time>
      </trkpt>
      <trkpt lat="43.58868" lon="1.33903">
        <ele>179</ele>
        <time>2023-03-25T12:01:21Z</time>
      </trkpt>
      <trkpt lat="43.58866" lon="1.33891">
        <ele>179</ele>
        <time>2023-03-25T12:01:23Z</time>
      </trkpt>
      <trkpt lat="43.58858" lon="1.3388">
        <ele>178.8</ele>
        <time>2023-03-25T12:01:25Z</time>
      </trkpt>
      <trkpt lat="43.58834" lon="1.33851">
        <ele>179</ele>
        <time>2023-03-25T12:01:31Z</time>
      </trkpt>
      <trkpt lat="43.58827" lon="1.33833">
        <ele>179.2</ele>
        <time>2023-03-25T12:01:34Z</time>
      </trkpt>
      <trkpt lat="43.58823" lon="1.33827">
        <ele>179.2</ele>
        <time>2023-03-25T12:01:35Z</time>
      </trkpt>
      <trkpt lat="43.58816" lon="1.33817">
        <ele>179.2</ele>
        <time>2023-03-25T12:01:37Z</time>
      </trkpt>
      <trkpt lat="43.58813" lon="1.33803">
        <ele>179.2</ele>
        <time>2023-03-25T12:01:39Z</time>
      </trkpt>
      <trkpt lat="43.58813" lon="1.33795">
        <ele>179.2</ele>
        <time>2023-03-25T12:01:40Z</time>
      </trkpt>
      <trkpt lat="43.58817" lon="1.33781">
        <ele>179.4</ele>
        <time>2023-03-25T12:01:42Z</time>
      </trkpt>
      <trkpt lat="43.5884" lon="1.33742">
        <ele>179.8</ele>
        <time>2023-03-25T12:01:48Z</time>
      </trkpt>
      <trkpt lat="43.58849" lon="1.33729">
        <ele>180</ele>
        <time>2023-03-25T12:01:50Z</time>
      </trkpt>
      <trkpt lat="43.58858" lon="1.33717">
        <ele>180.2</ele>
        <time>2023-03-25T12:01:52Z</time>
      </trkpt>
      <trkpt lat="43.58869" lon="1.3371">
        <ele>180.2</ele>
        <time>2023-03-25T12:01:54Z</time>
      </trkpt>
      <trkpt lat="43.58881" lon="1.33713">
        <ele>180.4</ele>
        <time>2023-03-25T12:01:56Z</time>
      </trkpt>
      <trkpt lat="43.58902" lon="1.33736">
        <ele>180.6</ele>
        <time>2023-03-25T12:02:00Z</time>
      </trkpt>
      <trkpt lat="43.58907" lon="1.33736">
        <ele>180.8</ele>
        <time>2023-03-25T12:02:01Z</time>
      </trkpt>
      <trkpt lat="43.58911" lon="1.33735">
        <ele>180.8</ele>
        <time>2023-03-25T12:02:02Z</time>
      </trkpt>
      <trkpt lat="43.58919" lon="1.33735">
        <ele>180.8</ele>
        <time>2023-03-25T12:02:03Z</time>
      </trkpt>
      <trkpt lat="43.58924" lon="1.33728">
        <ele>180.8</ele>
        <time>2023-03-25T12:02:04Z</time>
      </trkpt>
      <trkpt lat="43.58952" lon="1.33678">
        <ele>181.2</ele>
        <time>2023-03-25T12:02:11Z</time>
      </trkpt>
      <trkpt lat="43.58972" lon="1.3364">
        <ele>181.6</ele>
        <time>2023-03-25T12:02:17Z</time>
      </trkpt>
      <trkpt lat="43.58978" lon="1.33624">
        <ele>181.8</ele>
        <time>2023-03-25T12:02:20Z</time>
      </trkpt>
      <trkpt lat="43.58981" lon="1.33615">
        <ele>182.2</ele>
        <time>2023-03-25T12:02:22Z</time>
      </trkpt>
      <trkpt lat="43.58984" lon="1.33608">
        <ele>183.4</ele>
        <time>2023-03-25T12:02:24Z</time>
      </trkpt>
      <trkpt lat="43.58989" lon="1.33594">
        <ele>184.4</ele>
        <time>2023-03-25T12:02:28Z</time>
      </trkpt>
      <trkpt lat="43.5899" lon="1.3359">
        <ele>184.6</ele>
        <time>2023-03-25T12:02:29Z</time>
      </trkpt>
      <trkpt lat="43.58998" lon="1.33572">
        <ele>185.4</ele>
        <time>2023-03-25T12:02:33Z</time>
      </trkpt>
      <trkpt lat="43.59" lon="1.33568">
        <ele>185.8</ele>
        <time>2023-03-25T12:02:35Z</time>
      </trkpt>
      <trkpt lat="43.58999" lon="1.33566">
        <ele>186</ele>
        <time>2023-03-25T12:02:36Z</time>
      </trkpt>
      <trkpt lat="43.58996" lon="1.33565">
        <ele>186.6</ele>
        <time>2023-03-25T12:02:37Z</time>
      </trkpt>
      <trkpt lat="43.58988" lon="1.33559">
        <ele>187.8</ele>
        <time>2023-03-25T12:02:40Z</time>
      </trkpt>
      <trkpt lat="43.58984" lon="1.33552">
        <ele>188</ele>
        <time>2023-03-25T12:02:42Z</time>
      </trkpt>
      <trkpt lat="43.58983" lon="1.33543">
        <ele>188</ele>
        <time>2023-03-25T12:02:44Z</time>
      </trkpt>
      <trkpt lat="43.58976" lon="1.33534">
        <ele>188.2</ele>
        <time>2023-03-25T12:02:46Z</time>
      </trkpt>
      <trkpt lat="43.58966" lon="1.3353">
        <ele>188.2</ele>
        <time>2023-03-25T12:02:48Z</time>
      </trkpt>
      <trkpt lat="43.58957" lon="1.33525">
        <ele>188.2</ele>
        <time>2023-03-25T12:02:50Z</time>
      </trkpt>
      <trkpt lat="43.58955" lon="1.33521">
        <ele>188.2</ele>
        <time>2023-03-25T12:02:51Z</time>
      </trkpt>
      <trkpt lat="43.58955" lon="1.33517">
        <ele>188.2</ele>
        <time>2023-03-25T12:02:52Z</time>
      </trkpt>
      <trkpt lat="43.58954" lon="1.33503">
        <ele>187.8</ele>
        <time>2023-03-25T12:02:55Z</time>
      </trkpt>
      <trkpt lat="43.5895" lon="1.33487">
        <ele>187.6</ele>
        <time>2023-03-25T12:02:58Z</time>
      </trkpt>
      <trkpt lat="43.58947" lon="1.33482">
        <ele>187.6</ele>
        <time>2023-03-25T12:02:59Z</time>
      </trkpt>
      <trkpt lat="43.58923" lon="1.33454">
        <ele>187.8</ele>
        <time>2023-03-25T12:03:05Z</time>
      </trkpt>
      <trkpt lat="43.58917" lon="1.33445">
        <ele>187.8</ele>
        <time>2023-03-25T12:03:07Z</time>
      </trkpt>
      <trkpt lat="43.58913" lon="1.33434">
        <ele>187.8</ele>
        <time>2023-03-25T12:03:09Z</time>
      </trkpt>
      <trkpt lat="43.58895" lon="1.33412">
        <ele>188</ele>
        <time>2023-03-25T12:03:14Z</time>
      </trkpt>
      <trkpt lat="43.58893" lon="1.33396">
        <ele>188</ele>
        <time>2023-03-25T12:03:17Z</time>
      </trkpt>
      <trkpt lat="43.58893" lon="1.33389">
        <ele>188</ele>
        <time>2023-03-25T12:03:19Z</time>
      </trkpt>
      <trkpt lat="43.58892" lon="1.33386">
        <ele>188.2</ele>
        <time>2023-03-25T12:03:20Z</time>
      </trkpt>
      <trkpt lat="43.58891" lon="1.33382">
        <ele>188.2</ele>
        <time>2023-03-25T12:03:21Z</time>
      </trkpt>
      <trkpt lat="43.58893" lon="1.33368">
        <ele>188.2</ele>
        <time>2023-03-25T12:03:24Z</time>
      </trkpt>
      <trkpt lat="43.58897" lon="1.33355">
        <ele>188.8</ele>
        <time>2023-03-25T12:03:27Z</time>
      </trkpt>
      <trkpt lat="43.58899" lon="1.33353">
        <ele>188.8</ele>
        <time>2023-03-25T12:03:28Z</time>
      </trkpt>
      <trkpt lat="43.58905" lon="1.33343">
        <ele>189.8</ele>
        <time>2023-03-25T12:03:32Z</time>
      </trkpt>
      <trkpt lat="43.58911" lon="1.33328">
        <ele>191</ele>
        <time>2023-03-25T12:03:37Z</time>
      </trkpt>
      <trkpt lat="43.58913" lon="1.33326">
        <ele>191.8</ele>
        <time>2023-03-25T12:03:38Z</time>
      </trkpt>
      <trkpt lat="43.58918" lon="1.33322">
        <ele>192.6</ele>
        <time>2023-03-25T12:03:40Z</time>
      </trkpt>
      <trkpt lat="43.58926" lon="1.33318">
        <ele>193.8</ele>
        <time>2023-03-25T12:03:44Z</time>
      </trkpt>
      <trkpt lat="43.58931" lon="1.33316">
        <ele>194.8</ele>
        <time>2023-03-25T12:03:47Z</time>
      </trkpt>
      <trkpt lat="43.58936" lon="1.33315">
        <ele>195.4</ele>
        <time>2023-03-25T12:03:48Z</time>
      </trkpt>
      <trkpt lat="43.58942" lon="1.3331">
        <ele>196.4</ele>
        <time>2023-03-25T12:03:50Z</time>
      </trkpt>
      <trkpt lat="43.58951" lon="1.33289">
        <ele>197.4</ele>
        <time>2023-03-25T12:03:56Z</time>
      </trkpt>
      <trkpt lat="43.58952" lon="1.33287">
        <ele>197.6</ele>
        <time>2023-03-25T12:03:57Z</time>
      </trkpt>
      <trkpt lat="43.58953" lon="1.33284">
        <ele>197.6</ele>
        <time>2023-03-25T12:03:58Z</time>
      </trkpt>
      <trkpt lat="43.58955" lon="1.33275">
        <ele>198.6</ele>
        <time>2023-03-25T12:04:01Z</time>
      </trkpt>
      <trkpt lat="43.58956" lon="1.33273">
        <ele>199</ele>
        <time>2023-03-25T12:04:02Z</time>
      </trkpt>
      <trkpt lat="43.58959" lon="1.33261">
        <ele>200.4</ele>
        <time>2023-03-25T12:04:06Z</time>
      </trkpt>
      <trkpt lat="43.58962" lon="1.33252">
        <ele>201.4</ele>
        <time>2023-03-25T12:04:09Z</time>
      </trkpt>
      <trkpt lat="43.58965" lon="1.33241">
        <ele>202.6</ele>
        <time>2023-03-25T12:04:12Z</time>
      </trkpt>
      <trkpt lat="43.58968" lon="1.33234">
        <ele>203</ele>
        <time>2023-03-25T12:04:14Z</time>
      </trkpt>
      <trkpt lat="43.5897" lon="1.33226">
        <ele>203.2</ele>
        <time>2023-03-25T12:04:16Z</time>
      </trkpt>
      <trkpt lat="43.58969" lon="1.33216">
        <ele>203.4</ele>
        <time>2023-03-25T12:04:18Z</time>
      </trkpt>
      <trkpt lat="43.58971" lon="1.33187">
        <ele>203.6</ele>
        <time>2023-03-25T12:04:23Z</time>
      </trkpt>
      <trkpt lat="43.58972" lon="1.33176">
        <ele>203.6</ele>
        <time>2023-03-25T12:04:25Z</time>
      </trkpt>
      <trkpt lat="43.58969" lon="1.33151">
        <ele>203.8</ele>
        <time>2023-03-25T12:04:29Z</time>
      </trkpt>
      <trkpt lat="43.58957" lon="1.33131">
        <ele>204.2</ele>
        <time>2023-03-25T12:04:33Z</time>
      </trkpt>
      <trkpt lat="43.58949" lon="1.33131">
        <ele>204.4</ele>
        <time>2023-03-25T12:04:35Z</time>
      </trkpt>
      <trkpt lat="43.58945" lon="1.33134">
        <ele>204.6</ele>
        <time>2023-03-25T12:04:36Z</time>
      </trkpt>
      <trkpt lat="43.58941" lon="1.33135">
        <ele>204.6</ele>
        <time>2023-03-25T12:04:37Z</time>
      </trkpt>
      <trkpt lat="43.58934" lon="1.33129">
        <ele>204.8</ele>
        <time>2023-03-25T12:04:39Z</time>
      </trkpt>
      <trkpt lat="43.58929" lon="1.33117">
        <ele>204.8</ele>
        <time>2023-03-25T12:04:41Z</time>
      </trkpt>
      <trkpt lat="43.58924" lon="1.33105">
        <ele>205</ele>
        <time>2023-03-25T12:04:43Z</time>
      </trkpt>
      <trkpt lat="43.58921" lon="1.33099">
        <ele>205</ele>
        <time>2023-03-25T12:04:44Z</time>
      </trkpt>
      <trkpt lat="43.58919" lon="1.33093">
        <ele>205</ele>
        <time>2023-03-25T12:04:45Z</time>
      </trkpt>
      <trkpt lat="43.58917" lon="1.33079">
        <ele>205</ele>
        <time>2023-03-25T12:04:47Z</time>
      </trkpt>
      <trkpt lat="43.58917" lon="1.33072">
        <ele>205</ele>
        <time>2023-03-25T12:04:48Z</time>
      </trkpt>
      <trkpt lat="43.58917" lon="1.33065">
        <ele>205</ele>
        <time>2023-03-25T12:04:49Z</time>
      </trkpt>
      <trkpt lat="43.58916" lon="1.33052">
        <ele>205.2</ele>
        <time>2023-03-25T12:04:51Z</time>
      </trkpt>
      <trkpt lat="43.58914" lon="1.33047">
        <ele>205.4</ele>
        <time>2023-03-25T12:04:52Z</time>
      </trkpt>
      <trkpt lat="43.5891" lon="1.33042">
        <ele>205.6</ele>
        <time>2023-03-25T12:04:53Z</time>
      </trkpt>
      <trkpt lat="43.58897" lon="1.33028">
        <ele>205.8</ele>
        <time>2023-03-25T12:04:56Z</time>
      </trkpt>
      <trkpt lat="43.5889" lon="1.33015">
        <ele>205.8</ele>
        <time>2023-03-25T12:04:58Z</time>
      </trkpt>
      <trkpt lat="43.58885" lon="1.3301">
        <ele>205.8</ele>
        <time>2023-03-25T12:04:59Z</time>
      </trkpt>
      <trkpt lat="43.58879" lon="1.33006">
        <ele>205.8</ele>
        <time>2023-03-25T12:05:00Z</time>
      </trkpt>
      <trkpt lat="43.58861" lon="1.32999">
        <ele>206</ele>
        <time>2023-03-25T12:05:03Z</time>
      </trkpt>
      <trkpt lat="43.58855" lon="1.32996">
        <ele>206</ele>
        <time>2023-03-25T12:05:04Z</time>
      </trkpt>
      <trkpt lat="43.58845" lon="1.32988">
        <ele>206</ele>
        <time>2023-03-25T12:05:06Z</time>
      </trkpt>
      <trkpt lat="43.58841" lon="1.32981">
        <ele>206</ele>
        <time>2023-03-25T12:05:07Z</time>
      </trkpt>
      <trkpt lat="43.58833" lon="1.32969">
        <ele>206</ele>
        <time>2023-03-25T12:05:09Z</time>
      </trkpt>
      <trkpt lat="43.58823" lon="1.3296">
        <ele>205.8</ele>
        <time>2023-03-25T12:05:11Z</time>
      </trkpt>
      <trkpt lat="43.5881" lon="1.32954">
        <ele>205.8</ele>
        <time>2023-03-25T12:05:13Z</time>
      </trkpt>
      <trkpt lat="43.58801" lon="1.32941">
        <ele>205.8</ele>
        <time>2023-03-25T12:05:15Z</time>
      </trkpt>
      <trkpt lat="43.58799" lon="1.32925">
        <ele>205.8</ele>
        <time>2023-03-25T12:05:17Z</time>
      </trkpt>
      <trkpt lat="43.58803" lon="1.32919">
        <ele>205.8</ele>
        <time>2023-03-25T12:05:18Z</time>
      </trkpt>
      <trkpt lat="43.58821" lon="1.329">
        <ele>205.8</ele>
        <time>2023-03-25T12:05:22Z</time>
      </trkpt>
      <trkpt lat="43.58826" lon="1.32895">
        <ele>205.8</ele>
        <time>2023-03-25T12:05:23Z</time>
      </trkpt>
      <trkpt lat="43.58853" lon="1.32857">
        <ele>206.4</ele>
        <time>2023-03-25T12:05:29Z</time>
      </trkpt>
      <trkpt lat="43.58886" lon="1.328">
        <ele>207</ele>
        <time>2023-03-25T12:05:37Z</time>
      </trkpt>
      <trkpt lat="43.5889" lon="1.32793">
        <ele>207</ele>
        <time>2023-03-25T12:05:38Z</time>
      </trkpt>
      <trkpt lat="43.58907" lon="1.32755">
        <ele>207</ele>
        <time>2023-03-25T12:05:43Z</time>
      </trkpt>
      <trkpt lat="43.58914" lon="1.3273">
        <ele>207</ele>
        <time>2023-03-25T12:05:46Z</time>
      </trkpt>
      <trkpt lat="43.58917" lon="1.32716">
        <ele>207.2</ele>
        <time>2023-03-25T12:05:48Z</time>
      </trkpt>
      <trkpt lat="43.58922" lon="1.32696">
        <ele>207.4</ele>
        <time>2023-03-25T12:05:51Z</time>
      </trkpt>
      <trkpt lat="43.58924" lon="1.3269">
        <ele>207.4</ele>
        <time>2023-03-25T12:05:52Z</time>
      </trkpt>
      <trkpt lat="43.58937" lon="1.32642">
        <ele>207.4</ele>
        <time>2023-03-25T12:05:58Z</time>
      </trkpt>
      <trkpt lat="43.58951" lon="1.3258">
        <ele>207.2</ele>
        <time>2023-03-25T12:06:05Z</time>
      </trkpt>
      <trkpt lat="43.5896" lon="1.32539">
        <ele>207.2</ele>
        <time>2023-03-25T12:06:10Z</time>
      </trkpt>
      <trkpt lat="43.58961" lon="1.32531">
        <ele>207.2</ele>
        <time>2023-03-25T12:06:11Z</time>
      </trkpt>
      <trkpt lat="43.58962" lon="1.32524">
        <ele>207.2</ele>
        <time>2023-03-25T12:06:12Z</time>
      </trkpt>
      <trkpt lat="43.58965" lon="1.32518">
        <ele>207.2</ele>
        <time>2023-03-25T12:06:13Z</time>
      </trkpt>
      <trkpt lat="43.58967" lon="1.32511">
        <ele>207.2</ele>
        <time>2023-03-25T12:06:14Z</time>
      </trkpt>
      <trkpt lat="43.58971" lon="1.32489">
        <ele>207.2</ele>
        <time>2023-03-25T12:06:17Z</time>
      </trkpt>
      <trkpt lat="43.58972" lon="1.32481">
        <ele>207.2</ele>
        <time>2023-03-25T12:06:18Z</time>
      </trkpt>
      <trkpt lat="43.58977" lon="1.32461">
        <ele>207.2</ele>
        <time>2023-03-25T12:06:22Z</time>
      </trkpt>
      <trkpt lat="43.58982" lon="1.32444">
        <ele>207.2</ele>
        <time>2023-03-25T12:06:27Z</time>
      </trkpt>
      <trkpt lat="43.58983" lon="1.32417">
        <ele>206.6</ele>
        <time>2023-03-25T12:06:33Z</time>
      </trkpt>
      <trkpt lat="43.58974" lon="1.324">
        <ele>206.4</ele>
        <time>2023-03-25T12:06:37Z</time>
      </trkpt>
      <trkpt lat="43.58953" lon="1.32372">
        <ele>206.4</ele>
        <time>2023-03-25T12:06:42Z</time>
      </trkpt>
      <trkpt lat="43.58949" lon="1.32366">
        <ele>206.4</ele>
        <time>2023-03-25T12:06:43Z</time>
      </trkpt>
      <trkpt lat="43.58943" lon="1.32357">
        <ele>206.6</ele>
        <time>2023-03-25T12:06:45Z</time>
      </trkpt>
      <trkpt lat="43.5894" lon="1.32354">
        <ele>206.6</ele>
        <time>2023-03-25T12:06:46Z</time>
      </trkpt>
      <trkpt lat="43.58934" lon="1.3235">
        <ele>206.4</ele>
        <time>2023-03-25T12:06:48Z</time>
      </trkpt>
      <trkpt lat="43.58926" lon="1.32348">
        <ele>206.2</ele>
        <time>2023-03-25T12:06:50Z</time>
      </trkpt>
      <trkpt lat="43.58921" lon="1.32345">
        <ele>206</ele>
        <time>2023-03-25T12:06:51Z</time>
      </trkpt>
      <trkpt lat="43.58917" lon="1.32341">
        <ele>206</ele>
        <time>2023-03-25T12:06:52Z</time>
      </trkpt>
      <trkpt lat="43.58915" lon="1.32337">
        <ele>206</ele>
        <time>2023-03-25T12:06:53Z</time>
      </trkpt>
      <trkpt lat="43.58916" lon="1.32335">
        <ele>205.8</ele>
        <time>2023-03-25T12:06:54Z</time>
      </trkpt>
      <trkpt lat="43.58914" lon="1.32329">
        <ele>205.6</ele>
        <time>2023-03-25T12:06:56Z</time>
      </trkpt>
      <trkpt lat="43.58913" lon="1.32325">
        <ele>205.6</ele>
        <time>2023-03-25T12:06:57Z</time>
      </trkpt>
      <trkpt lat="43.58911" lon="1.32316">
        <ele>205.2</ele>
        <time>2023-03-25T12:06:59Z</time>
      </trkpt>
      <trkpt lat="43.58903" lon="1.32309">
        <ele>204.8</ele>
        <time>2023-03-25T12:07:01Z</time>
      </trkpt>
      <trkpt lat="43.58895" lon="1.323">
        <ele>204.4</ele>
        <time>2023-03-25T12:07:03Z</time>
      </trkpt>
      <trkpt lat="43.58887" lon="1.32289">
        <ele>204</ele>
        <time>2023-03-25T12:07:05Z</time>
      </trkpt>
      <trkpt lat="43.58884" lon="1.32283">
        <ele>203.8</ele>
        <time>2023-03-25T12:07:06Z</time>
      </trkpt>
      <trkpt lat="43.5888" lon="1.32277">
        <ele>203.8</ele>
        <time>2023-03-25T12:07:07Z</time>
      </trkpt>
      <trkpt lat="43.58875" lon="1.32271">
        <ele>203.6</ele>
        <time>2023-03-25T12:07:08Z</time>
      </trkpt>
      <trkpt lat="43.58869" lon="1.32257">
        <ele>203.6</ele>
        <time>2023-03-25T12:07:10Z</time>
      </trkpt>
      <trkpt lat="43.58865" lon="1.3224">
        <ele>203.6</ele>
        <time>2023-03-25T12:07:12Z</time>
      </trkpt>
      <trkpt lat="43.58841" lon="1.32188">
        <ele>204.6</ele>
        <time>2023-03-25T12:07:19Z</time>
      </trkpt>
      <trkpt lat="43.58838" lon="1.32182">
        <ele>205</ele>
        <time>2023-03-25T12:07:20Z</time>
      </trkpt>
      <trkpt lat="43.58828" lon="1.32164">
        <ele>205.4</ele>
        <time>2023-03-25T12:07:23Z</time>
      </trkpt>
      <trkpt lat="43.58826" lon="1.32158">
        <ele>205.8</ele>
        <time>2023-03-25T12:07:24Z</time>
      </trkpt>
      <trkpt lat="43.58824" lon="1.32146">
        <ele>206</ele>
        <time>2023-03-25T12:07:26Z</time>
      </trkpt>
      <trkpt lat="43.58818" lon="1.32139">
        <ele>206</ele>
        <time>2023-03-25T12:07:28Z</time>
      </trkpt>
      <trkpt lat="43.58815" lon="1.32139">
        <ele>206</ele>
        <time>2023-03-25T12:07:29Z</time>
      </trkpt>
      <trkpt lat="43.58812" lon="1.32142">
        <ele>206.4</ele>
        <time>2023-03-25T12:07:30Z</time>
      </trkpt>
      <trkpt lat="43.58809" lon="1.32147">
        <ele>206.4</ele>
        <time>2023-03-25T12:07:31Z</time>
      </trkpt>
      <trkpt lat="43.58804" lon="1.32156">
        <ele>206.4</ele>
        <time>2023-03-25T12:07:33Z</time>
      </trkpt>
      <trkpt lat="43.58781" lon="1.3218">
        <ele>206.4</ele>
        <time>2023-03-25T12:07:38Z</time>
      </trkpt>
      <trkpt lat="43.58745" lon="1.32216">
        <ele>206.6</ele>
        <time>2023-03-25T12:07:46Z</time>
      </trkpt>
      <trkpt lat="43.58703" lon="1.3226">
        <ele>206.6</ele>
        <time>2023-03-25T12:07:53Z</time>
      </trkpt>
      <trkpt lat="43.58685" lon="1.32279">
        <ele>205.8</ele>
        <time>2023-03-25T12:07:57Z</time>
      </trkpt>
      <trkpt lat="43.58681" lon="1.3228">
        <ele>205.6</ele>
        <time>2023-03-25T12:07:58Z</time>
      </trkpt>
      <trkpt lat="43.58678" lon="1.32278">
        <ele>205.6</ele>
        <time>2023-03-25T12:07:59Z</time>
      </trkpt>
      <trkpt lat="43.58677" lon="1.32269">
        <ele>205.2</ele>
        <time>2023-03-25T12:08:01Z</time>
      </trkpt>
      <trkpt lat="43.58678" lon="1.3224">
        <ele>204</ele>
        <time>2023-03-25T12:08:06Z</time>
      </trkpt>
      <trkpt lat="43.58679" lon="1.32235">
        <ele>203.8</ele>
        <time>2023-03-25T12:08:07Z</time>
      </trkpt>
      <trkpt lat="43.58679" lon="1.32224">
        <ele>203.6</ele>
        <time>2023-03-25T12:08:12Z</time>
      </trkpt>
      <trkpt lat="43.58679" lon="1.32224">
        <ele>203.6</ele>
        <time>2023-03-25T12:08:13Z</time>
      </trkpt>
    </trkseg>
  </trk>
</gpx>